ECMWFFLT1_925_thetae_000.txt.gz
Theta_e
308 309 309 309 310 310 311 310 310 311 311 312 312 312 313 313 315 318 321 326 329 329 326 324 326 330 331 331 330 329 328 328 328 328 328 328 326 325 325 325 324 325 326 324 323 325 327 327 325 324 324 325 326 326 326 325 324 324 325 325 325 324 325
308 308 308 308 309 310 310 310 310 310 311 312 313 312 312 313 313 314 316 319 324 329 331 328 325 329 331 331 330 330 329 329 329 329 328 328 327 326 325 324 324 325 326 326 324 324 324 326 326 324 324 325 325 326 326 326 325 324 324 325 326 326 326
307 307 307 307 308 309 309 310 309 310 311 311 312 313 312 312 312 313 314 315 318 323 330 333 330 330 331 331 330 329 329 329 329 329 329 328 328 327 326 325 324 324 326 326 325 324 324 325 326 325 324 324 325 325 326 326 326 325 324 324 326 328 329
306 306 306 306 307 308 308 309 309 309 310 311 311 312 312 312 312 312 312 313 316 320 324 329 332 333 332 332 331 330 329 329 329 329 329 329 328 328 326 325 324 324 326 326 325 325 325 325 326 326 324 324 325 325 325 326 326 326 324 324 326 328 329
305 305 305 305 306 307 308 308 309 309 309 309 310 311 311 312 312 312 312 312 314 318 321 324 329 332 333 333 331 330 329 329 329 329 330 329 328 328 327 326 325 325 325 326 326 325 325 326 326 326 325 325 326 326 326 326 326 326 326 325 326 327 329
304 304 304 305 305 306 307 308 308 308 309 309 309 310 310 311 312 312 313 312 313 316 319 322 327 330 331 332 331 330 330 329 328 329 328 329 329 328 327 326 325 325 325 325 326 326 326 326 326 326 325 325 326 326 327 327 326 327 326 327 327 328 328
303 303 304 304 305 305 306 306 307 307 308 308 309 309 309 310 311 312 312 313 313 313 315 318 321 327 330 331 331 331 330 329 328 328 328 328 329 329 328 327 326 325 325 325 326 327 327 326 326 326 326 327 327 327 328 327 326 325 324 324 326 327 327
303 303 303 304 304 305 305 305 306 307 307 308 308 308 309 309 310 311 312 312 313 313 314 314 316 320 325 330 331 330 330 330 328 328 328 328 328 328 328 328 328 327 326 326 326 327 328 327 327 326 327 328 328 329 329 327 325 325 323 322 322 324 325
303 303 303 303 303 303 303 304 304 305 305 306 307 307 308 309 310 311 311 312 313 313 314 314 315 316 319 324 329 330 329 329 329 328 328 328 327 328 328 328 328 328 327 327 327 328 329 328 328 327 327 328 329 330 329 328 326 322 322 322 319 319 322
302 302 302 302 302 302 302 303 303 303 304 305 306 307 308 309 310 311 312 312 313 313 313 314 315 316 317 321 326 329 329 329 329 329 328 328 328 328 328 328 329 328 328 328 328 328 329 329 329 328 327 327 327 329 330 330 328 322 320 322 320 317 317
302 302 302 302 302 302 302 302 303 303 303 304 305 306 307 308 309 310 311 312 313 313 313 314 315 316 317 319 323 327 328 329 329 330 329 329 328 328 328 328 328 328 328 328 328 328 328 329 329 329 328 327 326 328 329 330 329 324 320 321 321 320 317
301 301 302 301 301 301 301 302 302 302 303 303 304 305 306 307 307 308 309 311 313 313 313 314 315 316 317 318 321 324 327 328 328 329 329 329 329 328 328 328 328 328 328 328 328 329 328 329 329 329 329 327 326 327 328 329 329 325 322 321 321 322 319
301 301 301 300 301 301 301 301 302 302 302 303 304 304 305 305 306 307 309 310 312 313 314 314 314 315 317 318 319 322 324 326 328 328 329 329 329 329 328 328 328 328 328 328 328 329 329 329 329 329 329 328 327 327 327 329 328 321 320 322 321 321 319
300 300 300 300 300 300 300 301 301 302 302 302 303 304 304 304 305 307 308 310 311 313 314 314 315 315 315 317 318 319 322 325 327 328 329 329 329 329 328 327 327 328 328 328 328 328 328 328 329 329 329 328 328 327 328 329 326 317 314 318 321 321 318
300 300 300 300 300 300 300 300 301 301 301 302 302 303 303 304 304 305 306 308 311 313 314 314 315 315 315 316 317 318 321 324 327 328 329 329 329 329 328 327 327 328 327 327 327 327 327 328 328 329 329 328 328 328 328 329 324 316 312 314 317 318 316
300 300 300 300 299 299 299 300 300 300 301 301 301 302 302 303 303 304 305 306 308 312 315 315 315 315 315 316 317 318 319 322 326 328 328 329 329 329 329 328 327 327 327 327 327 327 326 326 327 328 328 328 328 328 328 328 325 317 312 311 313 315 312
300 300 300 300 299 299 299 300 300 300 300 301 301 301 302 302 303 303 304 306 307 309 312 315 316 315 315 316 317 318 319 321 325 327 327 328 329 328 328 328 328 328 327 326 326 326 326 326 327 327 328 328 329 328 327 328 326 319 313 309 310 312 311
301 300 300 300 299 299 299 299 299 299 300 300 300 301 301 301 302 303 303 305 306 308 310 313 315 315 315 315 317 318 319 321 324 326 328 328 328 328 328 328 328 328 327 326 326 326 325 325 325 326 328 328 328 327 327 326 323 320 316 311 308 308 308
301 301 300 300 299 299 299 298 298 298 299 299 299 300 300 301 301 302 303 304 305 308 310 312 314 315 315 315 316 318 320 322 324 326 327 327 328 328 328 328 328 328 327 326 326 325 325 325 325 325 327 328 327 326 326 324 320 318 317 312 307 305 306
301 301 300 300 299 299 298 298 298 297 298 298 298 299 299 300 300 301 302 303 305 306 309 312 314 315 315 316 316 317 319 321 323 325 326 327 327 327 328 328 327 327 327 326 326 325 324 324 324 325 326 327 327 326 324 321 318 316 313 308 305 304 304
301 301 301 300 299 298 298 298 297 297 297 297 298 298 298 299 299 300 301 302 304 305 308 311 314 315 316 316 316 317 318 320 323 325 326 326 326 327 327 327 327 327 326 326 325 325 324 323 324 324 325 326 326 324 320 318 315 312 309 305 302 302 301
301 301 300 299 299 298 298 298 297 297 297 297 297 297 298 298 299 300 301 302 304 305 307 309 313 315 316 316 316 317 318 320 322 324 325 325 326 326 326 326 326 326 326 326 325 325 324 324 324 324 324 325 324 321 318 314 311 308 305 302 300 299 299
301 300 299 298 298 298 298 297 297 297 297 297 297 297 297 298 299 300 301 302 304 305 306 308 312 315 316 316 317 317 319 321 322 324 325 325 325 325 325 325 325 326 326 326 325 324 324 324 324 325 325 324 322 319 315 311 308 307 305 302 299 298 298
301 300 299 298 298 297 297 296 296 296 297 297 297 297 297 297 299 300 301 303 304 306 307 308 311 315 316 316 316 317 319 322 323 324 324 324 323 323 322 323 324 325 325 325 324 324 323 323 324 324 324 324 324 321 317 312 310 310 307 303 299 298 298
300 299 298 297 297 296 296 295 295 295 296 296 297 297 297 298 299 300 302 304 305 307 308 308 311 315 316 316 317 317 319 322 323 323 323 322 322 321 320 320 322 323 322 322 322 322 321 321 321 322 322 322 322 322 321 319 317 314 308 303 300 298 299
299 298 297 297 296 296 295 295 295 295 295 296 296 297 297 298 299 301 303 305 306 308 308 309 312 315 315 315 317 317 318 321 321 321 321 320 320 320 318 319 321 321 320 319 318 318 318 318 319 320 319 318 318 319 319 320 321 319 314 311 307 303 301
298 298 297 297 296 295 295 295 295 295 295 296 296 297 298 299 300 302 304 306 308 309 309 310 313 315 315 315 316 317 318 319 320 320 320 319 319 318 319 320 320 318 318 316 314 315 316 317 318 318 316 315 315 315 315 316 319 319 316 315 314 308 304
298 297 297 297 296 295 295 295 294 295 295 295 296 297 298 300 301 303 306 308 310 310 311 312 314 315 316 316 316 317 318 319 319 318 318 319 319 318 320 322 320 318 316 314 313 314 315 316 315 313 312 312 311 310 310 311 313 314 313 312 313 311 306
297 297 297 296 295 295 294 294 294 294 294 295 296 297 298 300 302 305 308 310 311 312 312 313 315 316 316 316 317 317 318 318 317 316 315 317 319 320 322 323 321 318 316 313 312 314 314 314 313 310 309 308 307 307 306 306 307 310 312 311 311 310 305
297 296 296 295 295 294 293 293 293 293 294 295 295 296 298 299 302 306 310 312 312 314 314 315 317 317 317 317 317 317 317 316 315 313 312 312 315 319 322 322 321 317 313 312 312 312 313 313 311 310 307 304 304 304 302 302 304 306 308 308 307 305 301
296 295 295 294 294 292 292 292 292 293 294 295 296 297 298 299 301 305 311 313 313 314 315 316 317 317 317 317 318 316 315 314 312 310 309 307 310 315 316 315 316 313 310 311 312 311 312 313 311 309 306 303 302 300 298 298 300 300 300 301 300 298 296
295 294 294 293 292 292 291 291 292 292 294 295 296 297 298 299 302 306 311 313 313 314 315 315 315 316 317 318 317 314 313 312 309 307 306 304 306 309 309 308 309 310 309 312 313 311 312 313 311 309 307 304 299 295 294 296 297 296 295 294 293 292 291
294 293 293 292 292 292 291 291 292 292 294 295 297 298 300 302 304 306 309 311 312 313 313 313 314 315 316 316 315 313 311 310 307 304 304 304 303 303 303 304 305 308 310 312 312 310 310 311 312 310 309 308 301 293 293 295 295 294 294 291 290 290 289
293 293 292 292 291 291 291 291 292 292 293 295 298 299 300 301 302 302 304 306 307 308 309 311 312 314 313 311 312 312 311 309 307 304 303 303 302 301 300 301 302 305 307 306 305 306 307 310 312 310 310 311 306 298 295 294 294 294 293 290 289 289 288
293 292 292 292 291 291 291 291 292 292 293 294 296 297 297 297 298 298 298 300 300 301 304 306 309 310 309 308 309 310 309 308 307 305 302 301 300 300 300 299 300 301 302 302 302 304 306 308 308 307 307 307 303 298 296 295 294 293 291 289 288 287 287
293 293 292 292 291 291 291 291 291 292 292 293 294 294 294 294 295 294 294 295 296 298 299 302 304 305 305 305 306 306 306 306 304 305 304 301 299 299 299 299 299 300 301 302 302 303 304 305 305 305 304 301 298 296 296 294 292 290 289 287 287 287 287
293 293 292 292 291 291 291 291 291 291 292 292 292 293 293 293 293 293 292 293 294 295 297 299 301 302 302 303 304 304 304 302 302 303 303 300 298 298 299 300 300 299 300 301 301 300 300 301 302 301 299 297 296 295 294 291 290 289 288 287 287 287 287

ECMWFFLT1_925_thetae_003.txt.gz
Theta_e
310 310 310 310 310 310 310 311 311 312 312 312 312 311 311 313 313 313 315 318 321 325 326 325 325 328 331 331 329 327 326 326 325 327 329 330 330 329 328 328 328 327 326 326 325 323 323 323 323 323 323 326 326 326 327 326 325 325 324 324 324 324 322
309 309 309 309 309 309 310 310 310 311 311 312 312 312 311 311 313 313 314 314 317 320 325 326 326 326 328 330 329 327 327 327 326 326 327 329 330 329 329 328 328 328 327 326 325 324 323 322 322 322 324 327 327 326 327 327 327 326 325 325 325 326 325
308 308 308 308 309 309 309 309 310 310 311 311 312 312 312 311 311 312 313 314 315 316 319 323 326 326 327 328 329 329 328 328 327 326 326 328 329 329 329 328 328 329 328 327 326 326 325 324 323 323 325 326 325 325 327 328 328 327 327 326 326 326 326
307 307 307 307 308 308 308 309 309 309 310 310 311 311 312 312 312 312 313 314 314 315 316 318 322 325 327 327 327 328 329 329 328 327 327 327 328 329 329 329 329 329 329 329 328 327 327 326 324 324 325 324 322 324 328 328 328 328 328 327 326 326 326
306 306 307 307 307 307 307 308 308 309 309 309 310 310 311 312 313 313 313 314 314 315 316 317 318 322 325 327 328 328 328 329 329 328 328 327 327 328 329 329 329 329 329 329 329 328 328 327 326 325 325 324 321 324 328 328 328 327 328 328 327 326 327
306 306 306 306 306 306 306 307 307 308 308 308 309 309 310 311 312 312 313 314 314 314 315 316 317 319 322 325 328 329 328 329 330 329 329 328 328 328 328 329 329 329 329 329 329 329 328 328 328 327 326 325 323 324 328 328 327 327 327 327 326 325 326
305 305 305 305 305 305 305 305 306 306 307 307 308 308 309 310 310 311 312 313 314 314 313 314 316 317 319 321 324 326 328 330 330 330 329 329 328 328 328 328 329 328 329 329 329 329 329 328 328 327 327 326 325 325 328 327 326 326 325 324 323 323 323
304 305 305 305 305 305 304 304 304 305 305 305 306 307 307 308 309 310 310 311 313 313 313 314 314 316 318 319 321 322 326 330 330 330 330 329 329 328 328 328 328 328 328 329 329 329 328 328 328 328 327 327 325 326 328 327 326 327 325 321 322 324 324
304 304 304 304 304 304 304 304 304 304 304 304 305 305 305 307 308 309 310 311 312 313 313 314 314 316 317 318 320 320 322 326 329 330 330 330 329 329 329 328 328 328 328 328 329 329 328 328 328 328 328 327 326 325 327 327 327 327 325 321 321 323 325
303 303 303 303 303 303 303 303 303 303 303 303 304 304 305 306 307 308 310 310 311 312 313 314 314 315 316 317 319 320 321 323 326 329 329 330 330 329 329 328 328 328 328 328 329 329 329 328 328 328 328 327 327 325 325 326 327 327 325 322 320 319 321
302 302 302 302 302 302 302 302 302 302 303 303 303 304 304 305 305 307 308 309 310 311 313 314 314 315 315 316 318 319 320 320 322 325 328 330 330 329 329 329 328 328 328 328 329 329 329 329 328 329 328 327 327 326 325 326 327 327 326 324 321 319 321
302 302 302 301 301 301 301 302 302 302 302 302 303 303 303 304 305 306 307 308 309 310 311 312 313 314 315 316 317 318 319 320 321 321 324 329 330 329 329 328 329 329 328 328 329 329 330 330 329 328 328 328 327 327 327 326 326 328 327 324 321 321 323
302 301 301 301 301 301 301 301 302 302 302 302 302 303 303 303 304 305 306 307 307 308 310 311 313 314 314 315 316 317 319 320 321 321 322 326 329 329 329 328 328 328 328 328 329 330 330 330 329 329 328 328 328 328 328 327 326 328 326 324 321 320 322
302 301 301 301 301 301 301 301 301 301 302 302 302 302 302 303 303 304 304 305 306 307 308 310 311 313 314 314 315 316 317 319 321 322 322 324 327 329 329 328 328 328 327 328 329 330 330 330 330 329 329 328 329 328 328 328 328 327 324 322 320 317 319
302 301 301 301 301 301 301 301 301 301 301 301 301 301 302 302 303 303 304 304 305 306 307 309 310 312 313 314 314 315 316 318 319 321 322 324 325 327 329 329 328 328 328 328 330 330 330 330 330 329 329 329 329 329 329 328 328 327 322 319 317 313 314
301 301 301 301 301 301 301 301 301 301 301 301 301 301 301 302 302 302 303 303 304 305 306 307 309 311 313 314 315 315 315 316 318 319 321 323 324 326 328 329 329 329 328 328 329 330 330 330 330 329 329 329 329 329 329 329 328 326 323 319 315 311 310
301 301 301 301 301 301 301 301 301 301 301 300 301 301 301 301 302 302 302 303 303 304 304 306 307 309 311 313 315 315 315 315 316 318 320 321 323 324 326 328 329 329 329 328 328 328 329 330 330 329 329 330 330 329 329 330 328 326 322 318 315 312 309
301 302 302 301 301 301 301 301 301 301 300 300 300 300 300 301 301 301 302 302 303 303 304 305 306 308 310 312 314 315 315 315 315 317 318 320 322 323 325 327 328 329 328 328 328 328 328 329 329 329 330 330 330 330 330 330 328 325 322 318 315 312 310
301 301 301 301 301 301 301 301 300 300 300 300 300 300 300 300 300 300 301 301 302 302 303 304 305 306 308 310 313 315 315 316 315 316 317 319 320 322 324 326 328 329 329 328 328 328 327 328 329 329 329 330 330 331 330 329 327 324 321 318 315 311 309
301 301 301 301 301 301 301 300 300 300 299 299 299 299 299 299 299 299 299 300 301 301 302 303 304 305 306 309 311 313 315 315 316 316 317 318 320 322 323 325 327 329 329 328 327 328 327 327 328 329 329 329 330 330 330 328 325 323 320 316 313 310 308
301 301 301 301 301 301 301 300 299 299 299 299 299 299 299 298 298 298 299 299 299 300 301 302 303 304 305 307 310 312 314 315 315 316 316 317 319 321 322 324 327 328 329 328 328 328 327 327 327 328 328 329 329 330 328 326 323 321 318 315 311 309 308
301 301 301 301 301 300 300 299 299 298 298 298 298 298 298 298 298 298 298 298 299 299 300 301 302 303 304 306 308 311 313 314 315 315 316 317 319 321 322 324 325 327 328 328 328 328 328 327 327 327 327 328 329 329 327 324 322 319 316 314 311 308 307
301 301 301 300 300 299 299 298 298 298 298 298 297 297 297 297 297 297 298 298 298 299 299 300 301 302 303 305 307 310 313 314 315 315 316 317 319 320 322 323 323 325 327 328 328 328 328 327 326 326 327 327 328 329 327 323 320 317 315 313 310 307 307
300 300 300 299 299 298 298 298 298 297 297 297 297 297 297 297 297 297 297 298 298 298 299 299 300 301 302 303 305 308 312 314 315 315 316 317 319 320 322 323 322 323 326 328 327 328 327 327 327 326 326 326 327 327 327 323 318 315 314 312 309 307 308
300 299 299 298 298 298 298 298 297 297 297 297 296 296 296 296 296 297 297 297 298 298 298 299 300 301 302 303 304 306 310 314 315 316 316 317 318 320 322 322 321 322 326 327 326 327 327 326 327 327 326 326 326 326 326 325 321 316 314 312 309 308 309
299 299 298 298 298 297 297 297 297 297 297 296 296 296 296 296 296 296 297 297 298 298 299 299 299 301 302 303 304 305 307 311 315 316 317 317 318 320 321 322 322 323 325 326 325 326 326 326 326 326 325 324 325 325 326 326 325 322 319 316 313 310 311
299 298 298 297 297 297 297 296 296 296 296 295 295 295 295 295 296 296 296 297 298 298 299 299 300 301 302 303 304 305 306 309 313 316 317 317 319 320 321 322 322 323 324 324 324 324 324 324 324 324 323 323 323 325 324 324 325 323 321 320 319 317 316
298 297 297 297 296 296 296 296 295 295 295 294 294 294 294 295 295 296 296 297 298 298 299 300 300 301 303 304 305 306 307 308 312 316 317 317 319 320 320 321 322 322 323 323 323 323 322 322 321 320 320 320 321 322 321 320 320 319 318 318 319 319 316
297 297 296 296 296 295 295 294 294 294 293 293 293 293 294 294 295 295 296 297 298 299 300 300 302 302 303 305 306 307 308 308 311 315 316 316 318 319 320 320 321 321 321 321 322 322 322 321 318 317 317 317 317 316 315 314 314 314 314 314 314 314 312
297 296 296 296 295 294 294 293 293 293 293 293 293 293 293 294 294 295 296 297 298 299 300 301 303 304 305 306 307 307 308 309 312 315 316 316 317 318 319 320 321 321 321 321 321 321 321 319 316 315 315 313 311 311 309 309 309 310 311 311 311 310 309
297 296 296 295 294 294 293 292 292 292 292 292 292 293 293 294 294 295 296 297 298 299 301 302 305 306 306 307 308 308 308 310 312 315 316 316 317 318 319 319 320 321 320 320 320 319 319 319 317 315 314 310 308 307 305 305 306 306 307 308 308 307 306
297 296 295 295 294 293 293 292 292 292 292 292 292 293 293 294 295 296 297 297 298 299 300 303 306 308 309 309 309 309 310 311 313 315 316 316 316 317 318 318 319 320 320 319 318 316 317 318 316 314 312 310 306 303 302 304 305 305 304 304 303 303 302
296 296 295 294 294 293 292 292 291 291 291 292 292 293 294 295 296 298 298 299 299 300 301 303 306 309 310 311 310 310 310 312 314 315 315 315 314 314 315 316 316 316 316 317 316 315 315 317 316 312 310 309 306 302 300 302 304 304 303 301 299 298 296
296 296 295 295 293 292 292 291 291 291 291 291 292 293 293 294 295 297 298 299 300 302 304 306 308 309 311 312 312 311 311 313 314 314 313 312 312 311 312 313 313 313 313 314 315 314 314 315 315 313 310 311 310 306 302 301 301 301 300 297 295 293 292
296 296 295 294 293 291 291 291 290 290 290 291 292 293 293 293 294 295 296 298 300 303 305 307 309 310 311 312 313 312 312 313 314 313 312 311 311 310 310 310 311 311 311 312 312 312 312 312 312 311 310 311 310 306 302 300 299 298 295 293 291 290 289
295 295 295 294 292 291 290 290 290 290 290 290 291 293 293 292 293 294 294 295 298 301 305 307 309 310 311 312 312 311 312 313 313 312 312 311 310 309 308 309 310 309 309 309 309 309 309 308 308 308 308 307 305 302 300 298 296 294 292 291 290 289 289
295 295 295 294 292 291 290 290 289 289 289 289 291 292 292 292 292 293 293 294 295 298 302 305 308 310 312 312 311 310 311 312 312 311 311 310 308 308 307 307 307 307 306 306 306 306 306 306 306 306 306 303 299 297 295 294 293 292 291 290 290 290 290

ECMWFFLT1_925_thetae_006.txt.gz
Theta_e
314 314 314 313 313 313 314 314 314 314 314 315 315 315 316 316 317 318 319 321 321 323 325 327 328 329 329 330 331 332 331 331 330 328 328 329 330 328 325 325 326 327 329 328 328 328 327 327 327 328 327 327 326 324 323 325 324 323 323 322 322 321 321
314 313 313 313 313 313 313 313 313 314 314 314 314 314 315 316 316 317 317 319 320 321 322 324 326 328 328 328 330 331 330 331 330 328 328 328 330 330 327 326 327 328 328 328 327 328 327 326 325 327 327 327 325 324 325 325 325 325 325 325 323 321 320
314 313 313 313 313 312 312 313 313 314 314 314 314 314 314 315 315 316 316 317 318 320 320 322 324 326 328 328 329 330 329 330 330 328 327 326 328 330 329 328 329 329 329 329 328 328 328 327 325 326 327 327 325 325 326 326 326 326 326 327 325 323 323
313 313 313 313 313 312 312 312 312 313 313 313 313 313 313 314 314 315 316 316 317 318 319 321 322 324 326 327 328 329 329 330 329 329 328 327 327 329 330 329 330 330 330 330 329 328 328 328 327 327 326 326 326 327 327 327 326 327 327 327 326 325 326
312 312 313 312 312 312 311 312 311 312 312 312 313 313 312 313 313 314 315 316 316 316 318 319 320 322 323 325 327 329 329 329 329 329 328 328 327 328 329 329 330 330 330 329 330 329 329 328 328 327 327 326 326 326 326 326 326 326 326 326 326 326 327
311 312 312 312 311 311 311 311 311 311 311 311 312 312 312 312 312 313 314 315 315 316 317 318 319 320 321 323 325 327 328 329 330 329 329 328 327 327 328 328 329 330 330 330 330 330 329 329 329 328 327 324 324 324 324 326 326 325 325 326 326 326 327
310 310 311 311 311 311 311 310 310 310 310 310 310 310 311 311 311 312 312 313 314 315 316 316 317 318 319 321 322 324 326 328 329 329 329 329 327 327 327 327 328 329 329 330 330 330 329 329 329 328 328 325 325 324 323 325 325 323 324 326 326 326 326
309 309 309 309 310 309 310 309 309 309 309 309 309 309 309 309 309 310 311 312 312 313 314 315 316 317 318 319 320 321 323 326 327 328 329 329 328 327 327 327 328 328 329 329 330 329 329 330 330 328 328 327 325 325 324 325 324 324 324 325 326 326 327
308 308 308 308 308 308 308 308 308 309 309 308 308 308 308 308 308 309 309 310 311 312 313 315 316 316 317 318 319 320 321 323 325 326 327 327 328 328 329 328 327 327 328 329 329 329 329 330 330 328 327 326 326 325 324 325 324 324 324 324 325 326 326
307 307 308 308 308 307 307 307 308 308 308 308 308 308 307 307 307 307 308 309 310 311 313 314 315 316 316 317 318 319 320 321 323 324 325 327 328 329 330 330 328 328 328 329 329 329 329 329 329 329 328 326 327 325 324 325 324 324 324 323 323 324 324
307 307 307 307 307 307 307 307 307 307 308 308 308 307 307 307 306 307 307 308 308 310 311 312 313 315 316 317 317 318 319 320 321 323 324 326 327 329 329 329 329 330 329 328 328 328 329 329 328 328 328 327 327 326 325 324 324 325 325 325 324 322 322
307 307 307 307 306 306 306 306 306 306 306 307 307 307 306 306 306 306 307 307 308 308 310 311 312 313 315 316 317 317 318 319 319 321 322 324 326 328 328 329 330 330 329 329 329 328 328 328 328 329 328 328 327 326 327 325 325 326 325 326 325 323 321
307 307 306 306 306 305 305 305 305 305 305 305 306 306 306 306 305 306 306 307 307 308 309 310 311 312 314 315 316 317 318 318 319 319 320 322 324 326 327 328 330 330 329 329 330 329 329 328 328 329 329 329 328 327 327 326 325 325 326 327 325 323 322
307 307 306 306 305 305 305 305 304 304 304 304 304 305 305 305 305 305 306 306 307 307 308 309 310 311 312 314 315 316 317 318 318 319 319 320 322 324 325 327 329 330 329 330 330 330 329 329 328 329 329 329 328 328 327 327 326 326 327 328 326 324 322
307 306 306 305 305 305 305 304 304 304 303 303 303 304 304 304 304 305 305 306 306 307 307 308 308 310 311 313 314 315 316 317 318 318 319 319 320 321 323 325 327 328 328 329 331 330 330 330 329 329 329 329 329 328 328 327 326 326 329 328 326 323 320
306 306 306 305 305 305 305 304 303 303 303 303 303 303 304 304 304 305 305 305 306 306 306 307 308 309 310 311 313 314 316 316 317 318 318 319 319 320 322 324 325 327 327 329 330 330 330 330 329 329 329 329 329 328 328 327 327 327 329 328 325 322 319
306 306 306 306 305 305 304 304 303 303 303 303 303 303 303 304 304 304 304 304 305 305 306 306 307 308 309 309 311 313 314 315 316 317 318 319 319 319 321 322 324 325 327 328 329 330 330 330 330 329 329 329 328 329 329 328 327 326 328 328 325 321 319
306 306 305 305 305 304 304 303 303 302 303 303 303 303 303 303 303 304 304 304 304 305 306 306 306 307 308 308 309 311 313 314 315 316 317 318 319 319 320 321 323 324 325 327 327 329 330 330 331 330 329 329 329 329 329 329 328 326 328 328 325 320 318
305 305 305 304 304 304 303 303 303 303 303 303 303 303 303 303 303 303 303 303 304 304 305 305 306 306 307 307 308 309 311 313 315 316 316 317 318 319 320 320 322 323 324 326 327 328 330 331 331 330 330 330 329 329 330 330 328 326 328 327 323 319 318
305 304 304 304 303 303 303 303 303 303 303 303 303 303 302 302 302 302 302 303 303 303 303 304 305 305 306 307 307 308 309 311 313 315 316 317 317 318 319 320 320 321 323 325 327 327 328 330 332 331 331 330 330 330 330 330 328 326 328 326 322 319 317
304 303 303 303 302 302 302 302 302 302 302 302 302 302 302 302 302 302 302 302 302 302 303 303 303 304 305 305 306 307 308 309 312 314 316 317 317 317 318 319 320 321 322 323 326 326 327 329 332 332 331 330 330 330 330 330 329 328 328 326 322 320 317
303 303 303 302 302 302 302 302 302 302 302 302 302 301 301 301 301 301 301 302 302 302 302 302 303 303 303 304 306 306 307 308 310 312 315 316 317 317 318 318 319 320 321 321 323 326 327 329 331 332 331 330 329 330 330 331 331 329 328 326 323 320 318
303 303 302 302 301 301 301 301 302 301 301 301 301 301 301 300 300 300 301 301 301 301 301 302 302 302 302 303 304 306 307 307 309 311 313 315 317 317 317 318 319 319 320 320 321 324 327 328 329 330 331 330 329 329 330 331 331 329 327 326 323 320 318
302 302 301 301 301 301 301 301 301 301 301 301 300 300 300 300 300 300 300 300 300 300 301 301 301 301 301 301 302 303 305 307 308 309 311 314 316 317 317 318 318 319 319 320 320 322 325 327 328 329 330 329 328 329 330 330 330 330 328 326 322 320 319
302 301 301 300 300 301 300 300 300 300 300 300 300 300 300 300 300 300 300 300 300 300 300 300 300 300 300 300 300 301 302 304 306 308 310 312 314 316 317 318 319 319 319 320 320 321 324 327 328 328 328 328 328 328 330 330 330 329 327 325 322 321 320
301 301 300 300 300 300 299 299 300 299 299 299 299 299 299 299 299 299 299 299 299 299 299 299 299 299 299 299 299 300 300 301 303 305 308 310 313 315 317 318 318 319 319 320 320 321 323 326 327 328 328 328 328 328 329 330 329 328 327 325 323 321 321
301 300 300 300 299 299 299 299 299 298 298 298 298 298 298 298 298 298 298 298 298 298 298 299 298 298 298 299 299 299 299 300 301 303 305 308 311 314 316 317 318 319 320 320 321 322 323 324 326 327 327 327 327 327 328 329 329 328 327 325 324 323 321
300 300 299 299 299 298 298 298 297 297 297 297 297 297 297 297 297 297 297 297 297 297 297 297 297 298 298 298 298 298 299 299 300 301 304 305 307 310 315 317 318 319 320 321 321 322 323 323 325 326 326 325 326 326 327 328 328 328 327 325 325 325 323
300 299 299 298 298 298 297 297 297 296 296 296 296 296 296 296 296 296 296 296 296 296 297 297 297 297 297 298 298 298 299 299 300 301 303 305 306 308 311 316 318 318 319 321 321 322 323 323 324 325 325 324 324 325 326 326 326 326 325 324 324 324 324
299 299 298 298 298 298 297 297 296 296 295 295 295 295 295 295 295 295 295 296 296 296 297 297 297 297 297 297 298 298 299 299 300 301 302 304 306 307 310 314 318 319 319 321 321 321 323 323 323 325 324 323 322 322 322 323 324 322 322 322 322 322 323
299 298 298 298 298 297 297 297 296 295 295 295 295 294 294 295 295 295 295 295 295 296 296 297 297 297 297 297 297 298 299 300 301 301 302 304 306 308 310 313 317 319 320 320 320 321 323 323 324 324 323 321 319 317 317 318 318 317 318 319 319 319 319
298 298 298 298 297 297 297 296 296 295 295 294 294 294 294 294 294 294 294 295 295 296 296 297 297 297 297 297 298 298 299 301 301 303 304 305 306 308 310 312 315 318 319 320 320 321 322 323 323 322 322 320 317 315 315 315 315 315 314 314 314 314 314
298 298 297 297 297 297 297 296 295 295 294 294 294 294 293 293 294 294 294 295 295 296 296 297 298 298 298 298 298 298 300 301 302 304 305 306 308 309 311 313 316 318 318 319 320 320 321 322 321 320 320 319 316 315 314 313 313 314 314 312 310 309 308
298 298 297 297 297 297 296 296 295 294 294 293 293 293 293 293 293 294 294 295 295 295 296 297 299 300 299 299 299 299 300 302 304 305 307 308 309 310 312 315 317 318 318 319 320 320 320 321 321 320 319 318 318 317 314 309 309 311 311 309 306 304 303
298 297 297 297 297 296 296 295 294 293 293 293 293 292 292 292 293 294 295 295 295 295 295 296 298 300 301 301 300 299 300 302 305 307 308 309 311 311 313 316 317 317 318 319 320 320 320 320 320 318 318 318 318 316 312 308 307 307 306 305 303 300 299
298 297 297 296 296 296 295 294 293 293 293 292 292 292 292 292 293 294 294 295 294 295 295 295 296 298 300 302 303 302 302 303 305 308 309 311 312 313 314 315 316 316 318 319 319 319 319 319 318 316 316 316 315 311 308 306 305 303 302 301 300 298 297
298 297 296 296 296 296 295 294 293 292 292 292 291 291 291 291 292 293 294 294 294 294 294 295 296 297 300 302 304 305 305 305 306 308 309 311 313 313 314 315 315 315 317 318 318 318 317 316 315 314 314 314 311 308 305 304 302 301 299 298 298 296 296

ECMWFFLT1_925_thetae_009.txt.gz
Theta_e
316 317 317 316 315 315 316 316 317 317 317 316 316 316 317 317 318 319 319 320 321 322 323 324 325 326 328 329 330 331 331 332 332 331 331 332 332 331 331 329 329 329 328 327 328 328 329 330 330 330 329 328 328 328 327 327 325 324 326 327 324 325 325
316 317 316 315 315 315 316 316 316 317 317 317 317 316 316 316 317 318 318 319 320 321 322 322 323 325 326 328 329 331 330 331 331 329 329 331 332 333 332 330 329 329 328 326 327 328 328 329 329 331 330 330 329 328 327 326 325 325 326 326 324 324 325
316 316 316 316 316 315 315 316 316 316 316 316 316 316 316 316 316 317 317 318 318 319 320 321 322 323 324 326 328 329 330 331 331 332 332 333 332 332 332 331 329 329 329 327 327 328 328 329 329 330 330 330 330 328 328 326 326 326 326 327 325 323 323
317 316 316 317 317 315 315 315 315 315 314 314 315 316 316 316 316 316 317 317 318 318 318 319 320 322 323 325 326 328 330 331 332 333 333 333 333 332 332 332 330 329 328 328 329 328 328 329 328 329 329 328 329 329 329 327 327 327 327 327 326 325 323
317 317 317 317 316 316 316 315 314 314 314 314 315 315 315 316 315 315 315 316 317 317 318 318 319 320 322 323 324 325 328 330 331 333 333 333 332 332 331 331 330 329 329 329 329 329 330 330 330 330 328 327 328 328 328 328 327 327 327 327 326 326 325
317 317 316 316 316 316 315 315 314 313 313 313 314 314 313 314 314 314 315 315 316 316 317 318 319 319 320 322 323 324 325 328 330 332 332 331 331 332 331 330 330 330 330 330 330 330 330 331 332 331 330 328 328 328 326 327 328 327 326 326 326 326 324
316 316 315 315 316 315 314 314 314 313 313 312 313 313 313 313 313 313 314 315 315 315 316 317 318 318 319 320 321 322 323 325 327 330 331 330 330 331 331 331 330 330 331 331 331 330 330 331 332 331 331 331 329 328 326 326 328 327 326 325 326 326 325
314 315 314 314 314 314 313 313 313 313 313 312 313 313 313 313 313 313 312 313 314 314 315 315 316 317 318 319 319 320 322 323 324 327 329 330 331 331 330 330 330 330 330 330 330 330 329 330 330 330 331 331 329 329 327 326 326 326 326 325 324 325 324
313 313 313 312 313 313 313 313 313 313 313 313 313 312 313 312 312 312 312 312 313 313 314 315 315 316 317 318 319 319 321 322 323 324 326 329 331 331 331 330 330 330 329 329 329 330 330 330 330 330 331 330 331 330 328 326 326 326 325 324 324 325 324
312 312 312 312 313 312 312 312 312 312 312 312 312 312 313 312 312 312 312 311 312 312 313 313 314 315 316 317 318 318 319 320 322 322 324 325 328 330 330 330 330 330 330 329 328 329 329 330 331 330 330 330 331 330 329 328 326 325 325 323 324 324 324
312 312 312 312 312 312 312 312 311 312 311 312 312 312 312 312 312 312 311 311 311 311 312 312 313 314 315 316 317 318 318 319 320 321 322 324 324 327 328 329 330 330 330 330 329 329 329 329 330 330 330 330 330 330 330 329 328 326 325 324 324 323 324
312 312 312 312 311 311 311 311 310 310 310 310 310 310 310 311 311 311 310 310 310 310 310 311 312 313 314 315 316 317 318 319 319 320 321 322 323 324 326 328 329 329 329 330 330 330 329 328 328 329 330 330 330 329 330 330 329 328 326 325 324 323 323
312 312 312 311 311 311 311 310 309 310 309 309 309 309 309 310 310 310 310 309 309 309 309 310 311 312 313 314 315 316 317 318 319 319 320 321 321 323 324 326 327 328 329 330 329 330 330 329 327 327 326 328 329 329 329 330 330 329 328 326 324 323 322
312 312 311 311 311 310 310 309 309 309 309 309 308 308 308 308 308 309 309 309 309 309 309 309 310 310 311 313 314 315 316 317 318 318 319 320 320 321 322 324 325 326 328 329 329 329 329 330 329 327 325 326 328 329 329 329 330 329 329 326 325 324 323
312 311 311 311 311 310 309 309 309 309 308 308 308 307 307 307 307 307 308 308 308 308 309 309 309 310 310 311 312 314 314 316 317 318 318 319 319 320 320 322 323 324 326 328 329 329 329 330 331 329 328 327 326 327 328 329 329 329 329 328 327 326 324
312 311 311 311 310 310 309 309 309 309 308 308 307 307 306 306 306 306 307 307 307 308 308 308 308 308 309 310 311 312 313 314 315 317 318 318 319 319 319 320 321 322 324 325 327 329 330 330 330 330 330 329 328 326 326 328 329 329 328 328 327 327 325
311 311 311 310 310 309 310 309 309 309 308 308 307 306 306 306 305 306 306 306 307 307 307 308 307 308 308 309 310 311 312 312 314 315 316 318 318 319 319 320 320 321 322 324 326 328 330 329 329 329 330 331 330 328 327 327 329 329 328 329 328 327 325
311 311 310 310 310 310 309 309 309 308 308 307 307 306 306 305 305 305 305 306 306 306 307 307 307 307 307 308 309 310 310 312 312 313 314 316 317 318 319 320 320 320 321 322 324 326 328 329 330 330 330 330 331 331 329 329 329 329 329 329 329 327 324
310 310 310 309 309 309 308 308 307 307 307 306 306 306 305 305 305 305 305 305 306 306 306 307 307 307 307 308 308 309 309 310 311 312 313 314 316 317 318 319 320 320 321 321 323 324 325 328 330 331 330 329 330 331 331 331 330 329 329 329 329 328 324
310 310 309 308 308 308 307 307 306 306 306 306 305 305 305 305 305 305 305 305 305 306 306 306 306 307 307 307 308 308 308 309 310 311 312 313 314 316 317 318 319 319 320 321 322 322 323 326 330 331 330 329 330 330 330 331 330 330 330 329 329 327 324
309 309 308 307 307 307 306 306 306 306 305 305 304 304 304 304 305 305 305 305 305 305 305 305 306 306 306 307 307 308 308 308 309 310 311 312 313 314 316 317 318 318 319 321 321 322 323 324 327 329 329 330 331 329 328 330 331 330 330 329 328 327 324
308 307 307 306 306 306 305 305 305 305 304 304 304 304 304 304 304 304 304 304 304 304 304 305 305 305 306 306 307 307 307 308 309 309 310 311 312 313 315 316 317 318 318 319 320 321 322 323 324 327 329 330 331 329 328 330 332 331 329 329 328 325 324
307 306 306 306 306 305 305 304 304 304 304 303 304 304 304 304 304 304 304 304 304 304 304 304 304 304 305 305 305 306 307 307 308 308 309 310 311 312 313 315 316 317 318 318 319 320 320 322 322 324 326 329 330 329 328 330 332 332 330 329 327 324 323
306 306 306 305 305 305 304 304 303 303 303 303 303 303 303 303 303 303 303 303 303 303 303 303 303 303 303 303 303 304 304 305 306 307 307 309 310 310 311 313 315 316 318 318 318 319 319 320 321 322 323 326 328 328 328 330 332 331 329 329 328 325 323
306 305 305 305 304 304 303 303 303 302 302 302 302 302 302 302 302 302 302 302 302 303 303 303 302 302 302 302 302 302 302 303 303 304 305 306 308 309 310 311 313 315 317 318 318 319 319 319 319 320 321 323 325 327 329 330 332 331 329 329 328 325 323
305 304 304 304 303 303 303 302 302 301 301 301 300 300 300 301 301 301 301 301 301 301 302 302 302 302 301 301 301 301 301 301 302 302 303 304 305 307 309 310 311 314 316 318 318 318 319 320 320 320 320 320 323 325 326 328 331 331 329 329 328 325 323
304 304 304 303 302 302 302 302 301 301 300 300 299 299 299 299 299 299 300 300 300 300 301 301 301 300 300 300 300 300 300 300 301 301 301 302 303 304 306 308 310 312 314 317 318 319 319 320 320 320 320 320 321 324 326 326 329 330 329 329 329 326 324
304 304 303 303 302 301 301 301 300 300 299 299 299 298 298 298 298 298 298 299 299 299 299 299 299 299 299 299 299 298 298 299 299 300 300 301 301 302 303 305 307 310 312 315 317 318 319 319 320 321 322 322 321 324 325 325 326 327 329 329 328 326 324
303 303 302 302 301 301 301 300 300 299 299 298 298 298 298 298 298 298 298 298 298 298 298 298 298 298 298 298 298 297 298 298 299 299 300 300 300 301 302 303 304 307 310 312 315 317 319 320 320 321 322 324 324 325 325 324 323 325 327 328 327 326 324
303 303 302 302 301 301 301 300 299 299 299 298 298 298 297 297 297 297 297 297 297 297 298 297 298 297 297 297 297 297 297 298 298 298 299 299 300 300 301 302 303 304 307 309 312 315 318 319 320 321 322 324 325 325 326 325 325 326 327 326 326 326 324
303 303 302 301 301 300 300 299 299 299 298 298 298 297 297 297 297 297 297 297 297 297 297 297 297 297 297 297 296 297 297 297 298 298 298 299 299 300 300 301 302 303 305 308 310 313 316 318 319 320 321 322 324 325 325 325 325 325 325 325 325 326 325
302 302 302 301 300 300 300 299 299 298 298 297 297 297 296 296 296 296 296 296 296 295 296 296 296 296 296 296 296 296 296 297 297 298 298 298 299 300 300 301 301 302 303 306 309 311 314 316 318 320 321 322 323 324 324 323 323 322 322 322 322 323 324
302 302 302 301 300 300 299 299 298 298 297 297 296 296 296 296 295 296 295 295 295 295 295 295 295 296 296 296 296 296 296 297 297 297 298 298 299 300 300 301 301 302 302 304 306 308 311 315 317 319 321 322 322 323 323 322 321 321 321 320 319 320 320
301 301 301 300 299 299 299 298 298 297 297 296 296 295 295 295 295 295 294 294 294 294 295 295 295 296 296 296 296 296 296 296 297 298 298 298 299 300 301 302 302 303 303 304 305 306 309 312 314 317 320 321 321 322 322 320 319 320 320 319 317 317 316
301 301 301 300 299 298 298 298 297 297 296 295 295 295 294 294 294 294 294 294 294 294 294 295 295 296 296 296 296 296 296 296 297 298 299 299 299 300 301 302 303 304 304 305 307 307 308 310 312 314 318 321 321 322 320 318 317 317 317 316 314 312 312
301 300 300 299 299 298 298 297 297 296 296 295 294 294 293 293 293 293 293 293 293 293 293 294 295 295 296 296 295 295 295 295 296 297 299 299 300 300 302 303 304 306 307 307 308 309 309 310 311 314 318 321 320 320 319 317 315 315 313 311 310 308 308
300 300 299 299 298 297 297 297 296 296 295 294 293 293 292 292 292 292 292 292 292 292 293 293 294 295 295 295 295 295 295 295 296 297 298 299 300 301 302 304 306 307 309 310 310 311 312 312 313 316 319 320 320 319 317 315 313 312 309 307 306 305 305

ECMWFFLT1_925_thetae_012.txt.gz
Theta_e
316 316 317 316 315 315 316 316 317 317 317 317 317 317 317 317 318 318 319 319 320 320 321 322 323 324 325 326 328 329 329 330 332 333 334 334 334 333 333 331 330 330 330 331 330 330 330 331 331 330 330 328 328 328 327 327 326 326 327 327 328 327 326
316 316 317 316 315 316 316 316 316 316 317 316 316 317 317 317 317 317 318 318 319 319 320 320 321 322 323 323 325 326 328 330 330 332 333 333 333 333 332 330 330 330 330 331 331 330 329 328 330 331 331 331 329 329 327 327 327 327 327 326 326 327 327
316 316 316 315 316 316 316 316 316 316 316 316 316 317 316 316 316 316 317 317 317 318 318 319 320 320 321 322 323 324 325 327 328 330 331 332 333 333 332 331 331 331 332 331 331 330 329 328 329 330 331 332 333 331 329 328 328 327 327 326 325 326 326
316 316 316 316 316 316 316 316 316 315 315 314 315 316 316 316 316 316 316 316 316 316 317 318 318 319 319 320 321 322 323 325 326 328 330 332 333 332 332 331 332 333 332 332 331 330 329 328 331 333 331 330 332 331 330 329 328 328 328 326 325 326 326
317 316 316 317 317 317 316 316 316 315 314 314 315 315 315 316 316 315 315 315 315 315 316 317 317 318 319 319 320 321 322 324 325 326 328 331 332 333 332 331 332 333 332 332 331 330 329 328 331 334 332 331 332 331 329 329 329 328 328 326 325 327 326
318 316 316 317 317 317 316 316 316 315 314 314 314 314 314 314 314 314 314 314 315 315 315 315 316 317 318 319 319 320 321 322 323 325 326 328 331 332 332 332 332 332 332 332 331 330 329 329 330 332 332 331 332 331 330 329 329 328 327 326 326 327 326
317 317 317 316 316 316 315 315 315 315 314 313 313 313 313 314 314 314 314 313 313 313 312 313 314 315 317 317 318 319 320 320 321 322 324 325 328 330 331 332 333 333 333 333 332 330 330 330 331 332 333 333 332 331 330 329 329 328 328 327 326 326 326
316 316 316 315 316 316 315 314 314 314 314 313 313 313 313 313 314 314 313 313 312 312 312 312 312 313 315 316 317 318 319 319 320 320 321 323 325 327 329 331 332 332 333 333 332 332 330 330 331 331 332 334 333 332 331 330 329 328 328 327 327 326 326
315 315 315 314 314 315 315 314 314 314 313 313 313 313 313 313 313 313 313 313 313 313 313 313 313 313 315 315 317 317 318 318 319 320 320 321 323 324 326 329 330 331 332 332 332 332 331 330 331 331 330 331 333 333 333 332 331 329 328 327 327 326 325
315 315 315 314 314 314 314 313 313 313 313 313 313 313 313 313 313 313 313 313 313 313 312 312 312 313 313 314 315 316 317 317 318 319 320 320 321 323 324 326 329 330 330 331 331 331 331 330 331 331 330 329 330 331 332 333 333 331 329 328 327 326 325
314 314 314 313 313 314 313 312 312 312 312 312 312 312 312 312 312 312 312 312 312 312 312 311 311 312 312 313 314 315 316 317 318 319 319 320 321 322 322 324 326 328 329 330 330 330 331 331 331 331 331 330 330 330 331 332 333 330 328 328 327 326 327
314 313 313 313 313 313 313 312 312 312 312 312 312 311 311 311 310 311 311 311 312 311 311 311 311 311 311 312 313 313 314 316 317 318 318 319 320 321 321 322 324 326 327 328 329 329 330 330 331 331 331 331 330 331 330 330 332 330 328 329 328 326 328
314 313 313 313 313 312 312 312 312 312 311 311 311 310 310 310 310 310 310 310 310 310 311 311 310 310 310 311 311 312 313 314 315 317 317 318 319 320 321 321 322 323 325 327 328 329 330 330 331 331 330 330 330 331 330 330 330 330 328 328 328 327 328
315 314 313 313 313 312 312 312 312 311 311 310 310 310 310 310 309 309 309 308 309 309 309 310 310 310 310 310 310 311 312 313 314 315 316 317 318 319 320 320 321 322 323 325 326 328 329 330 330 330 330 330 330 330 331 330 330 329 328 328 328 327 327
315 314 313 313 313 312 312 312 311 311 310 310 310 310 310 309 309 308 308 308 308 308 308 308 309 309 309 309 310 310 311 312 313 314 315 316 317 318 319 319 320 321 321 323 324 326 328 329 329 330 330 330 330 330 330 330 330 329 329 328 328 328 327
315 314 313 313 313 312 312 311 311 311 310 310 310 310 309 309 309 308 307 307 307 307 307 307 308 308 308 309 309 309 310 310 311 312 313 314 315 316 318 319 319 320 320 321 322 324 326 327 328 329 329 330 330 329 329 329 329 329 328 327 327 328 327
315 314 313 313 313 313 312 311 311 311 310 310 310 310 309 308 308 308 307 307 307 307 307 307 307 307 308 308 308 308 309 309 310 311 312 313 313 314 316 317 318 319 320 320 321 322 324 326 327 327 328 329 329 329 329 328 328 327 327 327 326 327 327
314 314 313 313 312 312 312 311 311 311 310 310 310 309 309 308 307 307 307 306 306 306 306 306 307 307 307 308 308 308 308 308 309 309 310 311 312 313 314 315 316 318 319 320 320 321 322 323 324 326 327 328 329 329 329 328 328 327 326 326 326 326 327
314 313 313 313 312 312 311 311 311 310 310 309 309 308 308 307 307 307 306 306 306 306 306 306 306 307 307 307 308 308 308 308 308 309 309 310 311 312 313 314 315 316 317 319 319 320 321 322 323 324 326 327 328 329 329 329 328 327 326 326 325 326 327
314 313 312 312 312 311 311 310 310 309 308 308 308 307 307 307 306 306 306 306 306 305 306 306 306 306 306 306 307 307 308 308 308 309 309 309 310 310 311 312 313 314 316 317 318 319 319 321 322 323 324 325 327 328 329 329 329 328 328 326 325 326 327
313 312 312 311 311 310 309 309 308 308 307 307 307 306 306 305 305 305 305 305 305 305 305 305 305 306 306 306 306 307 307 307 308 308 308 309 309 309 310 311 312 313 314 315 317 318 319 319 321 322 323 324 325 327 328 329 329 329 329 327 326 327 327
312 311 311 310 309 309 308 308 307 307 306 306 306 305 305 305 305 304 305 305 305 305 305 305 305 305 305 306 306 306 306 307 307 307 308 308 309 309 309 310 311 312 312 313 314 316 317 318 319 320 321 322 324 326 327 328 329 329 329 328 327 327 327
311 310 310 309 308 308 307 307 307 306 306 305 305 304 304 304 304 304 304 304 304 304 304 304 305 304 304 305 305 305 305 305 305 305 306 306 307 308 308 309 310 311 311 312 312 313 314 316 317 318 319 319 320 323 326 328 328 328 328 328 328 328 327
310 309 309 308 307 307 307 306 306 305 305 304 304 304 303 303 302 302 302 302 302 303 303 303 304 304 304 304 304 303 303 303 303 303 304 304 305 306 306 307 308 309 310 311 311 312 313 314 315 316 317 318 318 319 321 323 326 327 328 327 327 328 326
309 308 307 307 307 306 306 305 305 304 304 303 303 303 302 301 301 301 301 301 301 301 302 302 302 302 302 302 302 302 302 302 302 303 303 303 303 304 304 305 306 307 308 309 311 311 312 313 314 316 316 317 318 318 318 319 321 325 327 327 326 327 326
308 307 307 306 306 305 305 305 304 303 303 303 302 302 301 300 300 300 299 299 300 300 300 300 300 301 301 301 301 301 300 300 301 301 302 302 302 303 303 304 304 305 306 307 308 310 311 312 313 315 316 316 316 317 318 317 318 320 324 327 327 327 326
307 306 306 305 305 305 305 304 303 303 302 302 301 300 300 300 299 299 299 299 299 299 299 299 299 299 299 299 299 299 299 299 299 300 300 301 301 302 302 302 303 303 304 305 306 308 310 311 313 315 317 318 317 316 317 317 317 317 319 323 326 326 325
305 305 305 305 305 304 304 303 303 302 302 301 300 300 300 299 299 299 299 299 298 298 298 298 298 298 298 298 298 298 298 298 298 299 299 299 300 300 301 301 301 302 302 303 304 305 307 309 311 313 315 317 318 318 317 318 318 318 317 320 323 326 326
304 305 304 304 304 304 303 303 302 302 301 300 300 300 299 299 299 299 298 298 298 298 298 298 298 298 298 298 297 297 297 297 298 298 298 299 299 299 299 300 300 301 301 302 302 303 304 306 307 308 310 312 315 319 320 319 319 319 319 318 320 323 325
304 304 304 304 304 303 303 302 302 301 300 300 300 299 299 299 298 298 298 298 297 297 297 297 297 297 297 297 296 296 296 296 297 297 297 298 298 298 299 299 299 300 300 301 301 302 303 303 304 305 307 308 311 315 319 321 320 321 321 320 319 320 323
303 303 303 303 303 303 302 302 301 300 300 299 299 299 298 298 298 297 297 297 297 297 297 296 296 296 296 296 296 295 295 296 296 296 297 297 297 298 298 298 299 299 300 300 301 301 302 302 303 303 305 307 309 312 316 320 322 322 323 323 321 319 321
303 303 303 303 303 302 302 301 300 299 299 299 298 298 298 297 297 297 296 296 296 296 296 296 295 295 295 295 295 295 295 295 296 296 296 296 296 297 297 298 298 298 299 299 300 300 301 301 302 303 304 306 309 311 314 318 321 322 323 324 323 322 323
302 303 303 302 302 302 301 300 300 299 299 298 298 298 297 297 296 296 296 295 295 295 295 295 295 295 294 294 294 294 294 295 295 295 296 296 296 297 297 297 298 298 298 299 299 299 300 300 301 302 302 304 307 311 314 318 321 322 322 323 324 324 324
302 302 302 302 301 301 300 300 299 299 298 298 297 297 297 296 296 295 295 295 294 294 294 294 294 294 293 293 293 293 293 294 295 295 296 296 296 297 297 297 297 298 298 298 299 299 299 299 300 300 301 302 304 307 311 315 318 321 322 322 323 323 323
302 302 301 301 301 300 300 299 298 298 297 297 296 296 296 296 295 295 294 293 293 293 293 293 293 293 292 292 292 292 292 293 294 295 296 296 296 297 297 297 297 297 298 298 299 299 299 300 300 300 300 300 301 303 306 308 312 318 321 321 320 320 320
301 301 300 300 300 299 299 298 298 297 297 296 296 295 295 295 294 294 293 293 292 292 292 292 292 292 291 291 291 291 292 292 293 294 295 296 296 296 296 297 297 297 298 298 298 299 300 300 300 300 300 301 301 302 303 303 308 315 319 318 317 316 316
300 299 299 299 298 298 298 298 297 297 296 296 295 295 295 294 294 293 293 292 292 291 291 291 291 291 291 291 291 291 291 292 292 293 294 295 295 295 296 296 296 296 297 298 298 299 300 301 301 301 302 302 302 302 302 303 307 314 316 315 314 313 312

ECMWFFLT1_925_thetae_015.txt.gz
Theta_e
316 311 310 310 311 312 312 313 316 316 316 317 317 317 316 315 316 317 317 318 318 319 319 319 320 320 321 322 322 323 325 327 328 330 331 331 332 332 333 333 334 332 329 330 330 330 332 332 330 329 328 328 328 328 328 327 326 326 326 327 326 326 327
316 313 311 311 312 313 314 314 315 315 315 314 314 315 316 316 316 316 316 317 317 317 318 318 319 319 320 320 320 321 322 323 324 327 329 331 332 332 332 333 333 332 330 329 329 329 330 331 330 329 328 328 329 328 328 327 327 326 325 325 326 325 327
316 314 313 314 314 313 314 313 313 314 315 315 315 313 313 315 315 314 312 312 313 313 313 314 315 317 318 319 319 319 319 320 321 323 325 327 329 330 332 332 332 331 330 329 329 329 330 331 331 329 327 327 330 330 329 328 327 327 326 326 326 325 326
316 315 315 315 315 314 315 314 313 314 315 315 315 314 313 314 314 313 312 311 311 310 309 308 309 310 313 316 318 318 318 319 320 320 321 323 325 327 329 331 332 331 330 330 330 330 330 330 331 330 328 327 328 328 329 330 329 327 327 326 326 326 326
316 316 315 315 315 315 315 315 314 314 315 313 314 314 313 314 315 316 315 314 312 311 311 311 311 312 311 312 315 317 318 319 320 320 321 322 323 325 327 329 331 331 331 331 330 330 330 329 330 329 328 328 329 328 328 330 330 329 328 327 327 327 327
316 315 315 315 316 315 315 315 314 315 315 314 314 314 314 315 315 315 314 312 310 310 312 313 314 314 313 313 314 315 316 317 318 319 320 321 321 322 325 327 329 330 331 331 331 331 330 330 329 328 327 328 330 330 328 329 329 329 329 328 328 327 326
316 315 314 315 317 317 315 314 314 315 314 313 313 313 313 313 312 312 312 311 311 310 311 310 310 310 310 311 312 312 314 314 315 317 318 319 320 320 322 324 326 328 329 329 330 331 331 330 329 328 328 328 330 330 330 330 329 329 329 329 328 328 327
316 316 314 314 317 316 315 315 315 315 314 313 313 313 312 312 312 312 312 312 312 311 311 311 311 311 311 311 311 312 313 315 316 316 317 317 318 319 320 321 323 325 327 327 328 330 331 330 330 329 329 330 331 331 331 330 329 329 329 329 328 328 327
316 316 314 315 316 316 314 315 314 314 314 313 313 312 312 312 312 311 311 311 310 310 311 312 312 312 312 312 312 312 313 313 314 315 316 317 316 317 319 319 320 322 325 326 327 328 330 330 330 329 329 330 331 332 332 331 331 330 329 328 329 328 327
317 316 315 314 314 315 315 314 314 313 313 312 311 310 310 310 310 311 311 311 310 310 310 311 311 311 311 311 311 311 311 311 312 313 314 316 316 317 317 319 320 320 321 324 326 326 328 329 329 328 329 329 330 330 331 332 332 330 329 328 328 328 327
316 315 314 313 312 313 314 314 313 312 311 310 310 310 310 310 311 311 311 310 309 310 310 311 311 311 311 311 311 310 311 311 311 312 313 314 315 316 317 318 319 320 320 322 324 326 327 328 329 329 327 328 330 329 329 331 330 328 327 328 328 328 327
316 315 314 313 313 313 313 313 313 311 309 309 310 311 311 310 310 309 308 308 309 310 310 310 310 310 310 310 310 310 310 310 311 311 311 311 312 314 316 317 317 318 320 320 322 324 326 327 329 329 327 328 330 330 328 329 329 328 327 328 328 327 327
316 315 314 314 313 313 313 313 312 311 310 311 311 311 310 309 309 308 308 309 309 309 309 308 308 308 309 309 309 310 310 310 310 310 310 311 312 313 315 316 317 317 318 320 320 322 323 325 327 328 328 329 329 330 329 328 328 328 328 328 328 327 327
316 315 314 314 313 312 313 312 312 311 311 311 311 310 309 309 308 309 309 309 309 308 308 307 307 307 307 308 308 308 309 309 309 310 310 310 311 312 313 314 315 316 317 318 319 321 322 324 325 326 327 328 328 329 329 328 328 328 328 328 328 328 327
317 315 314 313 312 312 312 312 311 311 311 310 310 309 309 309 309 309 309 309 309 308 307 307 307 307 307 307 307 307 308 308 308 309 309 310 310 310 311 312 312 313 314 316 317 319 321 323 325 326 327 327 328 328 329 329 329 329 329 328 328 328 328
317 315 314 313 312 312 312 311 311 311 310 310 309 309 309 309 309 309 309 309 308 308 307 307 306 306 306 306 306 307 307 307 307 308 308 308 309 309 310 310 311 311 312 313 314 316 318 320 324 326 327 327 328 328 329 329 330 329 329 328 328 328 328
316 315 314 314 313 313 312 312 311 310 310 310 310 310 310 310 310 309 309 308 308 307 307 306 306 306 306 306 306 306 307 307 307 307 307 308 308 308 309 310 310 311 311 312 313 314 315 317 320 323 325 327 328 328 329 329 329 329 329 328 327 328 328
316 315 315 314 313 313 312 312 311 311 311 310 310 310 310 310 309 309 308 307 307 307 306 306 306 306 306 305 305 306 306 306 306 307 307 307 308 308 308 309 309 309 311 311 312 312 313 314 317 319 322 324 326 326 328 329 329 329 329 328 328 327 327
316 315 315 314 313 313 312 312 311 311 311 310 310 310 310 309 308 308 307 306 306 305 305 305 305 305 305 305 305 305 305 306 306 306 306 307 307 307 308 308 309 309 309 310 310 311 312 313 315 316 318 320 322 324 325 327 328 328 328 328 328 327 327
316 315 314 314 313 313 312 311 311 311 311 310 310 309 308 308 307 306 306 305 304 304 304 304 304 305 305 305 305 305 305 305 305 306 306 306 306 306 307 307 308 308 309 309 310 310 311 312 313 314 316 317 319 321 322 324 326 327 327 327 327 326 326
315 315 314 314 313 312 312 311 311 310 310 309 309 308 307 307 306 305 305 304 304 304 303 303 303 303 304 304 304 304 304 304 305 305 305 305 305 305 305 305 306 307 307 308 309 310 310 311 311 312 313 314 315 316 318 321 323 325 326 326 326 326 325
315 314 314 313 312 312 311 311 310 309 308 308 307 307 306 305 305 304 304 303 303 303 302 302 302 302 302 302 302 302 302 302 303 303 303 303 304 304 304 304 304 304 305 306 307 308 309 310 311 311 311 311 312 312 313 316 319 322 324 326 327 326 325
315 314 313 312 311 311 310 309 308 308 307 307 306 306 305 305 304 303 302 302 302 301 301 301 301 300 301 301 300 300 301 301 300 301 301 301 302 302 303 303 303 303 304 304 304 305 306 307 308 310 310 311 311 311 310 312 314 318 321 324 326 327 325
314 313 312 311 311 310 309 308 307 307 307 306 305 305 304 303 303 302 301 301 300 300 300 300 299 299 299 299 299 299 299 299 299 299 299 300 300 301 301 302 302 302 302 303 303 304 304 305 305 307 309 310 310 311 311 311 311 313 317 321 323 326 326
313 312 311 310 309 308 308 307 307 306 305 305 304 303 303 302 302 301 300 300 300 299 299 299 298 298 298 298 298 298 298 298 298 298 298 299 299 299 300 300 301 301 302 302 302 302 303 304 304 305 306 307 308 310 310 311 311 311 314 317 320 322 324
310 310 309 309 308 307 307 306 306 305 304 304 303 303 302 302 301 300 300 299 299 299 298 298 298 298 298 298 298 298 298 298 298 298 298 298 298 298 298 299 299 300 300 301 301 302 302 302 303 303 304 305 306 308 309 311 311 312 313 314 316 319 320
309 309 308 307 306 306 306 305 305 304 304 303 302 302 301 301 300 300 299 299 299 298 298 298 298 298 298 298 298 298 298 298 297 297 297 297 297 297 297 298 298 299 299 300 300 301 301 302 302 302 303 303 304 306 308 310 311 313 313 313 314 315 317
308 307 306 305 305 305 305 304 304 303 303 302 302 301 300 300 299 299 299 298 298 298 297 297 297 297 297 297 297 297 297 297 296 296 296 296 296 297 297 297 297 298 298 299 299 299 300 300 301 301 302 302 303 303 305 307 308 309 311 312 313 314 315
306 305 305 305 304 304 304 303 303 302 301 301 300 300 299 299 299 298 298 298 297 297 297 297 297 297 296 296 296 296 296 296 295 295 296 296 296 296 296 296 296 297 297 298 298 299 299 299 300 300 301 301 301 301 302 303 305 306 307 309 310 312 314
304 304 304 304 304 303 303 302 302 301 300 300 299 299 298 298 298 297 297 297 297 297 296 296 296 296 295 295 295 295 295 295 295 295 295 295 295 295 295 295 296 296 297 297 298 298 298 299 299 299 300 300 300 301 301 301 302 304 305 307 309 311 314
303 303 303 303 303 302 302 302 301 300 300 299 298 298 298 297 297 297 296 296 296 296 296 295 295 295 294 294 294 294 294 294 294 294 293 293 294 294 294 295 295 295 296 296 297 297 298 298 298 299 299 300 300 300 300 301 301 302 304 306 308 310 313
302 302 303 302 302 302 301 301 300 300 299 298 298 297 296 296 295 295 295 295 295 295 295 294 294 294 293 293 293 293 293 293 292 292 292 292 292 293 293 294 294 295 295 295 296 296 297 297 298 299 299 300 300 300 300 300 301 301 303 306 309 311 313
302 302 302 301 301 301 301 300 300 299 298 297 297 296 295 294 293 294 294 294 294 294 294 294 293 293 293 293 292 292 292 292 292 292 292 292 292 292 292 293 294 294 295 295 296 296 296 296 297 298 298 299 299 300 300 300 301 301 303 306 309 310 312
301 301 301 301 301 301 301 300 299 298 298 297 297 296 294 293 293 293 294 294 294 294 293 293 293 293 292 292 292 291 291 291 291 291 291 291 291 291 292 292 293 294 294 295 296 296 296 296 297 297 297 298 298 299 299 300 300 301 302 303 304 306 307
301 301 301 301 300 300 299 299 298 297 297 297 296 295 294 294 294 294 294 293 293 293 293 293 293 292 292 292 291 291 291 291 291 291 291 291 291 291 291 292 292 293 294 295 296 296 296 297 297 297 297 297 298 298 298 299 299 299 300 300 301 302 303
300 300 299 299 298 298 298 298 298 297 297 296 296 295 295 295 295 294 293 293 292 292 292 292 292 292 292 291 291 291 290 290 290 290 290 290 291 291 291 291 292 292 293 294 295 296 296 297 297 297 297 297 297 298 298 298 298 298 299 299 299 300 301
298 298 298 298 298 298 298 298 297 297 296 296 296 295 295 295 294 294 293 292 292 292 292 292 292 291 291 291 290 290 290 290 290 290 290 290 290 291 291 291 291 292 292 293 294 295 296 296 296 297 297 297 297 298 298 298 298 298 298 298 299 299 301

ECMWFFLT1_925_thetae_018.txt.gz
Theta_e
313 311 310 310 310 309 309 310 311 312 313 312 313 315 315 315 315 315 316 316 316 317 317 318 318 318 319 319 320 320 320 319 319 321 323 325 328 330 330 331 331 331 331 330 330 330 330 333 332 329 329 328 328 328 327 327 326 326 326 326 327 327 327
314 309 308 308 307 307 307 310 312 313 313 311 310 311 311 312 311 311 312 313 313 313 313 313 313 314 315 316 317 318 319 319 318 319 319 320 323 325 328 329 331 331 331 331 330 328 328 330 331 330 330 329 329 329 328 328 327 327 326 326 327 327 327
316 310 308 309 308 307 308 309 311 313 313 312 311 309 308 309 309 309 309 308 308 307 307 307 307 308 310 310 312 314 316 317 317 318 318 319 320 321 324 326 329 330 330 330 330 329 329 329 330 330 329 328 329 329 329 328 328 328 327 326 326 326 326
317 312 310 311 310 309 308 309 310 313 314 314 313 311 309 310 310 311 311 309 309 307 306 306 306 307 310 312 312 312 313 314 315 316 316 317 318 319 321 323 326 328 329 330 329 329 329 329 330 329 329 329 328 329 329 329 329 328 328 327 326 326 326
316 314 312 312 312 311 309 308 310 313 315 315 314 312 311 312 313 314 314 312 312 310 307 307 308 309 311 312 312 311 311 311 311 312 313 315 316 317 318 319 321 323 326 329 329 329 329 329 329 329 329 329 329 329 329 329 329 328 328 328 328 327 326
315 315 314 313 313 313 311 310 311 313 314 314 314 313 313 313 314 315 315 313 311 309 308 309 310 309 308 308 309 309 309 309 309 310 312 314 315 315 316 317 318 319 321 324 327 329 329 329 329 328 328 329 328 328 328 328 328 328 328 328 328 328 326
315 315 315 314 314 314 313 312 312 312 313 314 313 313 314 314 314 314 312 311 310 309 309 309 307 306 306 308 309 310 310 310 310 310 311 312 314 314 315 316 316 317 317 319 322 325 327 328 329 327 327 328 327 327 327 328 328 328 328 328 328 329 328
315 315 316 315 314 314 314 313 312 311 312 314 314 313 314 313 312 311 310 310 311 310 309 307 306 306 307 308 309 310 310 310 309 309 309 310 311 312 313 314 315 316 316 317 319 321 323 326 328 328 328 328 328 328 327 327 328 328 328 328 328 328 328
316 316 316 315 314 314 315 314 313 311 312 314 313 312 312 312 310 310 310 310 309 308 307 306 306 307 308 309 310 310 310 310 309 309 309 310 310 310 311 312 313 315 316 317 318 319 321 323 325 327 328 327 327 329 329 328 328 329 329 328 328 328 327
317 317 316 315 314 314 315 316 314 313 314 315 313 312 312 311 309 309 308 308 307 307 306 307 307 308 308 309 310 310 310 310 310 309 309 310 310 310 309 310 311 312 314 315 316 317 319 321 323 325 327 327 326 327 328 329 329 328 328 328 329 328 328
317 316 316 315 314 314 316 316 315 314 315 314 314 313 312 309 308 308 308 307 307 307 307 308 308 308 308 308 308 308 309 309 309 309 309 309 310 309 309 309 310 311 312 314 316 316 317 318 321 323 326 327 326 326 326 327 328 327 327 328 328 328 328
317 316 316 316 315 314 315 316 315 314 314 313 313 312 310 308 308 308 308 307 307 307 308 309 309 308 307 307 307 307 307 307 308 308 308 309 309 309 309 309 310 310 311 312 313 314 315 316 318 322 324 326 327 327 326 326 327 327 327 327 327 327 328
317 316 316 316 316 315 314 315 315 314 314 313 311 309 308 309 309 308 307 307 307 308 308 309 308 307 307 306 306 306 307 307 307 307 307 307 308 308 308 309 309 309 309 310 311 311 312 313 315 317 321 325 326 327 326 326 327 327 327 327 327 327 327
317 316 316 316 316 315 314 313 314 314 313 312 310 308 309 310 309 307 307 307 308 308 308 308 308 307 306 306 306 306 306 306 306 306 306 307 307 307 307 308 308 308 308 309 309 309 310 311 312 313 316 321 324 326 326 327 327 327 327 327 327 327 327
318 317 317 317 316 314 313 313 313 313 313 311 309 309 309 309 308 308 308 309 309 309 308 308 307 307 306 306 306 306 306 306 306 306 306 306 306 306 307 307 307 308 308 308 309 309 309 310 311 312 313 316 319 323 325 326 327 326 326 326 326 327 327
319 318 317 316 315 314 314 313 313 313 312 310 309 309 309 308 308 309 309 309 309 309 308 307 306 306 306 306 306 305 306 305 305 305 305 306 306 306 306 306 307 307 307 308 309 309 309 309 310 311 311 312 314 317 321 324 326 326 326 326 326 326 327
319 318 317 316 315 314 314 313 312 312 311 310 309 309 309 309 309 309 309 309 309 308 307 306 306 305 305 305 305 305 305 305 305 305 305 305 305 305 306 306 306 306 306 307 308 308 309 309 309 310 310 311 312 314 316 320 324 325 326 326 326 326 327
319 318 317 316 315 314 313 312 312 311 311 310 310 309 310 310 310 310 309 308 307 306 305 305 304 304 304 304 304 304 304 304 304 304 304 305 305 305 305 305 306 306 306 306 307 307 308 309 309 309 310 310 311 312 314 316 319 322 324 325 326 326 327
319 318 317 316 315 314 313 312 312 312 311 310 310 310 310 310 310 309 308 307 306 305 304 304 304 304 304 304 304 304 304 303 303 303 303 303 304 304 305 305 305 305 305 305 305 306 307 307 308 308 309 310 310 311 312 313 314 316 319 321 323 325 326
319 318 317 316 315 314 313 313 312 312 311 311 310 310 310 310 309 308 307 306 305 304 304 304 304 303 303 303 303 302 302 302 301 302 302 302 302 302 303 303 303 303 304 304 304 304 304 305 305 305 306 307 308 309 311 311 311 311 313 316 318 321 324
318 317 317 316 315 314 313 313 312 312 311 310 310 310 310 308 307 306 306 305 304 304 304 303 303 302 302 301 301 300 300 299 299 299 300 300 300 301 301 301 301 302 302 302 303 303 303 303 303 303 304 304 305 306 308 309 310 310 311 313 314 316 319
318 317 316 315 314 314 313 312 312 311 311 310 310 309 308 307 306 306 305 304 304 303 303 302 302 301 300 300 299 299 298 298 297 298 298 299 299 299 299 300 300 300 301 301 302 302 302 302 302 302 303 303 304 304 305 306 307 309 309 311 312 313 315
317 317 316 315 314 314 313 312 312 311 311 310 309 308 307 306 305 305 304 303 303 302 301 301 300 300 299 299 298 298 298 297 298 298 298 298 298 298 298 298 299 299 299 300 300 301 301 301 301 302 302 302 303 303 304 304 305 306 308 309 310 311 313
316 316 315 315 314 313 312 312 311 311 310 309 308 307 306 305 304 304 303 302 301 301 300 300 299 299 298 298 298 297 297 298 298 298 298 298 298 297 297 297 298 298 298 298 299 299 300 300 301 301 301 301 301 302 303 303 304 305 306 307 309 310 312
316 315 314 314 313 312 312 311 310 309 308 307 306 305 304 304 303 302 302 301 300 300 299 299 298 298 297 297 297 297 297 297 297 297 297 297 297 297 297 297 297 297 297 297 297 298 298 299 299 300 300 300 301 301 302 302 303 303 304 305 307 309 310
315 314 314 313 312 312 311 310 309 308 307 306 305 304 303 302 302 301 300 299 299 298 298 297 297 297 297 297 297 297 297 297 297 297 296 296 296 296 296 296 296 296 296 296 297 297 297 298 298 298 299 300 300 300 301 301 301 302 303 305 307 308 309
315 314 314 312 311 310 309 308 307 306 306 304 303 302 302 301 300 299 298 298 297 297 297 297 297 296 296 296 296 296 296 296 295 295 295 295 295 295 295 295 295 295 296 296 296 296 296 297 297 297 298 298 299 299 300 300 301 301 302 304 305 305 306
314 313 312 311 309 308 308 307 306 304 303 303 302 301 300 299 299 298 297 296 296 295 295 295 295 295 295 295 295 295 295 294 294 294 294 294 295 295 295 295 295 295 295 295 295 295 295 296 296 297 297 298 298 298 299 299 300 300 301 302 302 303 304
312 311 310 308 307 306 305 304 303 302 301 301 300 299 299 298 297 295 294 293 293 293 293 293 293 294 294 294 294 294 294 294 293 293 294 294 294 294 294 294 294 294 294 294 294 294 294 295 295 296 296 297 297 298 298 298 299 299 300 300 300 301 302
309 308 306 305 304 303 302 302 301 301 300 300 299 298 298 297 295 293 292 292 292 292 292 292 292 293 293 293 294 293 293 293 293 293 293 293 293 292 292 292 293 293 293 293 293 294 294 294 295 295 296 296 297 297 298 298 298 298 298 299 300 300 300
306 305 304 303 303 302 302 301 300 300 299 299 299 298 297 296 293 292 291 292 293 293 293 292 292 292 293 293 293 293 293 293 292 292 292 292 291 291 291 291 292 292 292 292 292 293 293 294 294 295 295 296 296 297 297 297 298 298 298 298 299 299 300
304 303 303 303 302 301 301 300 299 299 299 299 298 297 296 294 293 292 293 293 293 293 292 292 292 292 292 292 293 293 293 293 292 292 291 291 291 291 291 291 291 291 291 291 291 292 292 293 293 294 295 295 296 296 297 297 297 298 298 299 299 299 299
303 302 302 301 300 300 300 299 299 299 299 299 298 297 295 295 294 294 294 293 292 291 291 291 292 292 292 292 292 292 292 292 291 291 291 291 291 290 290 290 290 290 290 290 291 291 291 292 293 293 294 295 295 296 296 296 297 298 298 299 299 299 300
301 300 299 299 300 300 300 300 300 299 299 298 297 296 296 295 295 294 293 292 291 291 291 291 291 291 291 291 291 291 291 291 291 291 291 291 290 290 290 290 290 290 290 290 290 291 291 291 292 292 293 294 295 295 296 296 297 297 298 298 299 299 299
300 299 299 299 300 300 300 299 299 298 298 297 297 296 296 295 295 294 292 291 291 290 290 291 291 291 291 291 291 291 291 291 290 290 290 290 290 290 290 290 290 290 290 290 290 290 290 291 291 292 292 293 294 295 295 296 296 297 297 297 298 298 298
298 298 299 299 298 298 298 298 298 298 297 297 296 296 295 295 295 293 292 291 290 290 290 291 291 291 291 290 290 290 290 290 290 290 290 290 290 290 290 290 290 289 289 289 290 290 290 291 291 291 292 292 293 294 295 295 296 296 296 297 297 297 297
298 298 298 298 298 297 297 297 297 297 297 296 296 296 295 295 294 293 291 290 290 290 290 291 291 290 290 290 290 290 290 290 290 290 290 290 290 290 290 290 289 289 289 289 290 290 290 290 291 291 291 292 293 294 295 295 296 296 296 296 296 297 297

ECMWFFLT1_925_thetae_021.txt.gz
Theta_e
310 308 308 310 311 312 312 312 312 314 316 315 315 315 314 314 314 313 313 312 313 312 313 313 312 312 312 312 313 314 315 316 316 317 317 318 319 321 322 324 327 328 329 329 329 330 331 332 330 328 329 328 328 328 328 327 327 326 326 325 326 326 327
312 309 309 310 309 308 308 309 310 313 314 313 314 314 314 313 311 310 309 308 308 307 307 307 306 306 306 308 309 311 312 313 313 314 315 316 316 318 319 322 324 326 328 328 328 329 329 330 330 328 328 327 327 327 328 328 328 327 327 326 326 325 326
313 311 311 311 309 307 307 308 308 310 312 312 311 312 313 312 310 309 308 307 308 307 306 306 305 306 307 308 309 309 309 309 309 310 311 312 314 315 317 318 320 323 325 326 328 329 329 329 329 328 327 327 328 327 327 327 328 328 328 328 328 327 326
313 312 311 311 309 307 307 307 307 309 311 312 313 312 311 311 311 311 310 309 310 309 308 307 308 309 309 308 307 307 307 308 308 308 308 309 311 313 314 315 317 318 320 322 325 326 327 328 329 329 328 328 328 328 327 328 328 328 328 328 329 328 328
314 313 311 309 309 308 307 306 307 309 310 312 313 312 312 312 312 313 313 312 312 310 309 308 308 308 307 305 306 308 308 308 308 308 308 308 308 310 312 314 315 315 316 318 319 321 322 325 327 327 327 327 328 328 327 328 328 328 328 328 328 329 328
315 315 313 311 310 310 309 307 307 309 309 310 311 311 312 313 313 314 315 314 312 310 309 308 307 305 304 304 306 308 309 309 309 309 309 308 308 309 310 311 312 313 314 315 316 317 319 321 323 324 325 326 327 327 327 327 328 327 327 327 328 328 328
316 316 315 313 312 312 311 310 308 309 309 309 310 311 312 313 314 314 314 312 311 310 309 308 306 305 304 304 306 308 309 309 310 309 309 309 309 309 309 309 310 311 312 313 314 316 317 319 321 322 324 325 325 326 326 326 326 327 326 326 327 328 328
316 315 314 314 313 313 313 312 311 310 309 309 312 312 313 313 313 313 312 311 310 309 307 306 305 305 305 305 306 307 308 309 309 309 309 309 309 309 309 309 309 309 309 311 312 314 315 316 318 320 322 323 324 324 325 325 325 325 325 325 326 327 328
315 316 314 313 314 313 314 313 312 312 310 310 312 313 313 313 313 312 311 310 309 307 305 305 305 306 306 306 307 306 306 307 307 308 308 308 309 309 309 309 309 309 309 309 311 313 314 316 316 318 320 322 323 323 324 324 324 324 324 325 325 326 327
315 316 315 314 314 314 314 314 313 313 312 311 312 313 313 312 312 311 310 308 307 306 305 305 305 306 307 307 307 306 306 306 306 307 307 307 308 308 308 308 308 308 309 309 310 310 312 313 314 315 317 320 322 323 324 324 324 324 323 324 325 325 325
315 315 316 314 314 315 315 315 313 313 313 311 311 313 313 312 312 310 308 307 306 305 305 306 306 307 307 307 306 306 306 306 306 306 306 306 306 306 307 307 307 307 308 308 309 309 309 310 311 312 313 315 317 320 323 324 324 324 323 323 323 324 324
317 316 316 316 315 315 315 315 314 314 314 313 312 314 314 313 312 308 306 306 305 305 305 306 307 307 307 307 306 306 305 306 306 306 306 306 305 305 306 306 306 307 307 307 308 308 309 309 309 309 310 311 312 315 319 323 324 324 323 323 322 322 323
319 317 317 317 316 316 316 315 314 314 315 314 313 314 314 313 310 307 306 306 306 306 306 307 307 308 307 307 306 306 305 305 305 306 305 305 305 305 305 306 306 306 306 306 307 307 308 308 309 309 309 310 311 313 315 318 321 322 322 323 323 323 322
321 318 318 318 317 317 316 315 314 315 315 315 314 314 314 311 308 307 307 307 306 307 307 308 308 307 307 306 305 305 305 305 305 305 305 305 304 304 305 305 305 305 305 306 306 306 307 307 308 309 309 309 311 311 312 315 318 319 319 320 323 323 323
321 319 318 318 317 317 316 315 314 315 315 315 313 314 312 309 307 308 307 307 307 308 308 308 308 307 306 305 305 305 305 305 305 305 304 304 304 304 304 305 305 305 305 305 306 306 306 306 307 308 309 309 310 310 310 312 316 318 318 318 320 322 323
321 320 319 318 317 316 315 316 315 315 315 314 313 312 310 308 308 308 307 307 308 308 309 308 307 306 305 305 305 304 304 305 304 304 304 304 304 304 304 305 305 305 305 305 305 306 306 306 307 307 308 309 309 309 309 311 314 316 317 317 317 320 322
321 320 319 318 317 316 316 316 315 315 314 314 313 312 309 308 308 308 308 309 309 309 308 307 306 305 305 304 304 304 304 304 304 304 303 303 303 303 303 304 304 305 305 305 305 305 305 305 305 306 307 307 308 308 309 310 312 314 316 316 316 316 317
320 320 320 319 317 316 316 316 315 314 313 313 312 310 309 309 309 308 309 309 309 308 307 306 305 305 304 303 303 303 303 303 302 302 301 300 300 299 300 301 302 303 303 303 304 303 303 304 304 304 305 305 306 306 306 307 308 310 313 314 313 313 313
320 320 319 318 317 316 316 316 315 313 313 312 311 310 309 309 309 309 309 309 308 307 306 305 305 304 303 303 303 303 302 301 300 300 299 299 298 297 297 298 300 301 301 302 302 302 302 302 303 303 303 304 304 304 304 304 305 306 308 310 310 311 311
320 319 318 318 317 317 316 315 314 313 312 311 310 310 309 309 310 310 309 308 307 306 305 304 304 303 303 302 302 301 300 299 299 298 298 297 297 296 296 297 298 299 299 300 300 300 301 301 302 302 302 303 303 303 303 303 304 304 305 306 308 309 310
320 319 318 317 317 316 315 314 314 313 312 311 310 310 310 309 310 309 308 307 306 305 304 304 303 302 302 301 300 299 299 298 298 297 297 297 297 297 297 297 297 297 297 298 298 299 299 300 301 301 301 301 301 302 302 302 303 303 304 305 306 307 308
320 319 318 317 316 316 315 314 313 312 312 311 311 310 310 310 309 308 307 306 305 304 304 302 302 301 300 299 298 298 298 297 297 297 297 297 297 297 297 297 297 297 297 297 297 298 298 298 299 299 300 300 300 301 301 302 302 302 302 303 304 305 306
318 318 317 317 316 316 315 314 313 312 312 311 310 310 310 309 308 307 306 305 304 303 302 301 300 299 298 298 297 297 297 297 297 297 297 297 297 297 297 297 297 297 297 297 297 297 297 297 297 298 298 299 300 300 300 301 301 301 302 302 303 304 305
316 316 317 317 316 316 315 314 313 312 312 311 310 310 309 308 307 305 304 303 302 301 300 299 298 298 297 297 296 296 296 296 296 296 297 297 297 297 296 296 296 296 296 297 296 296 296 296 296 297 297 297 298 299 300 300 300 301 301 301 302 303 304
314 315 315 316 316 316 314 313 313 312 311 310 310 309 307 306 305 303 302 301 300 300 299 298 297 296 295 294 294 295 295 295 296 296 296 296 295 295 295 295 295 295 295 296 295 296 296 296 296 296 296 296 296 297 298 298 299 300 300 301 301 302 302
314 315 315 316 316 315 314 313 312 312 311 310 308 307 305 304 303 301 301 300 299 298 296 295 294 293 292 292 292 293 293 294 295 295 294 294 294 294 294 294 294 294 294 295 295 295 295 295 295 295 295 295 295 296 296 296 297 298 299 300 300 301 301
314 315 315 314 314 314 313 312 312 311 310 308 306 305 303 302 301 300 299 298 297 295 294 293 292 291 291 291 292 292 292 293 293 294 294 294 294 293 293 293 293 294 294 294 294 294 295 295 295 295 295 295 295 295 295 295 296 297 297 299 299 300 300
313 312 311 311 312 313 312 312 310 309 307 305 304 303 301 301 300 299 298 296 293 293 293 292 291 291 290 291 292 292 292 292 293 293 293 293 293 293 293 293 293 293 293 293 294 294 294 294 294 294 294 294 294 294 294 295 295 296 297 298 298 299 299
312 311 311 311 312 311 310 309 307 305 304 303 302 301 300 299 299 297 295 293 292 293 293 292 291 291 290 291 291 292 292 292 292 292 292 292 293 292 292 292 292 292 292 292 292 292 292 293 293 293 293 293 293 294 294 294 294 295 296 296 297 298 298
311 311 312 311 310 308 307 306 304 303 302 301 300 300 299 298 296 295 293 292 293 293 292 291 291 291 290 291 291 291 291 291 292 292 292 292 292 292 292 292 292 292 292 291 291 291 292 292 292 292 292 292 293 293 293 294 294 294 295 295 296 297 297
310 310 310 308 306 305 304 302 302 301 300 300 299 298 298 296 295 294 293 293 294 293 292 291 291 291 290 291 291 291 291 291 291 291 291 291 291 291 291 291 291 291 291 291 291 291 291 291 291 291 292 292 292 292 293 293 294 294 294 295 296 296 297
309 307 306 304 303 302 302 301 300 299 298 298 298 297 297 295 295 295 294 294 294 293 291 291 291 290 290 291 291 291 291 291 291 291 291 291 291 291 291 291 290 290 290 290 290 290 290 290 291 291 291 291 291 292 292 292 293 294 294 294 295 295 296
306 304 303 302 301 301 300 298 298 298 298 298 298 297 296 295 295 295 294 294 293 292 291 291 291 290 290 291 291 291 290 290 290 290 290 290 290 290 290 290 290 290 290 290 290 289 289 290 290 290 290 290 290 291 291 292 293 293 294 294 294 295 295
304 302 301 300 299 299 298 298 298 298 298 298 297 297 296 296 295 295 294 294 293 292 292 291 290 290 290 290 291 290 290 290 290 290 290 290 290 290 290 290 290 289 289 289 289 289 289 289 289 289 289 290 290 290 291 291 292 293 293 294 294 295 295
300 300 300 299 298 298 298 298 298 297 297 297 297 296 296 295 295 294 293 293 293 292 292 291 290 289 290 290 290 290 290 290 290 290 290 290 290 290 289 289 289 289 289 289 289 289 289 289 289 289 289 289 290 290 290 290 291 291 292 293 294 294 295
299 299 299 298 298 298 298 298 297 297 297 297 296 296 295 295 294 293 293 293 293 293 292 291 290 289 290 290 290 290 290 290 290 289 289 289 289 289 289 289 289 289 289 289 289 289 289 289 289 289 289 289 289 289 290 290 290 291 291 292 293 294 295
299 298 298 298 298 297 297 297 297 297 297 297 296 296 295 294 293 293 294 293 293 293 292 291 290 289 289 290 290 290 290 290 289 289 289 289 289 289 289 289 289 289 289 289 289 289 289 289 289 289 289 289 289 289 289 290 290 291 291 292 292 293 294

ECMWFFLT1_925_thetae_024.txt.gz
Theta_e
308 308 308 311 312 315 316 314 313 314 315 314 314 314 314 314 313 312 312 310 309 308 307 307 308 308 308 309 309 310 311 313 315 315 316 317 318 318 320 322 323 326 326 327 327 329 330 331 329 327 326 325 325 325 325 326 326 326 327 326 327 326 326
309 307 307 309 311 313 314 313 312 313 314 314 314 314 313 312 310 308 307 306 306 306 306 306 307 306 305 306 306 307 308 308 309 311 312 314 315 316 317 318 319 321 323 325 326 326 328 330 328 327 326 325 325 324 324 324 324 324 325 327 327 328 327
310 308 307 308 310 311 311 311 311 312 312 312 313 314 313 311 309 308 308 308 308 308 307 306 306 305 305 305 306 307 307 307 307 307 309 310 312 313 315 316 317 318 320 323 323 322 324 327 327 326 326 326 326 325 324 324 323 323 324 326 328 328 328
310 309 308 307 308 309 308 309 311 310 310 310 310 311 311 311 311 311 311 311 311 310 308 307 306 304 304 305 306 307 308 308 308 308 308 308 308 310 312 314 315 316 318 319 319 319 321 322 323 323 324 324 325 325 324 324 322 322 323 325 326 326 326
310 311 309 308 307 307 306 307 309 310 310 310 310 310 311 312 312 312 312 312 312 310 309 308 305 304 304 304 307 308 309 309 309 309 308 308 308 308 309 310 311 313 314 315 316 317 318 319 320 321 321 322 323 323 323 322 321 321 322 323 323 323 323
310 311 311 310 308 307 306 306 308 309 310 311 311 310 311 312 313 313 313 313 311 310 309 307 305 304 304 304 306 307 309 309 309 309 309 309 309 309 309 309 309 309 310 311 312 314 316 317 319 319 320 321 322 322 321 321 321 321 321 321 322 322 321
310 311 312 312 310 309 308 307 307 307 308 309 310 311 311 312 313 313 313 312 310 310 308 305 305 305 304 304 305 305 306 307 307 308 308 308 309 309 309 309 309 309 309 309 310 312 313 316 317 318 319 319 319 321 321 320 321 322 321 320 321 320 320
310 311 313 313 312 311 310 309 308 308 307 307 309 310 311 312 313 313 313 312 310 309 307 304 305 305 304 305 305 305 305 305 306 306 307 307 307 307 308 308 308 308 308 309 309 310 312 314 315 316 318 318 318 319 319 319 320 320 320 320 320 319 320
310 311 313 314 314 313 312 311 311 310 310 308 309 310 312 312 313 313 312 311 310 307 305 304 304 305 305 305 306 305 305 305 305 306 306 306 306 305 306 306 306 307 307 307 308 309 310 312 313 313 315 317 318 318 318 318 319 319 319 320 320 319 320
312 311 312 314 315 315 313 313 312 312 312 310 310 310 312 313 313 312 312 310 308 306 305 304 305 305 305 306 306 306 305 305 305 305 305 305 305 304 304 304 305 306 306 306 307 307 308 309 310 310 311 313 315 317 318 317 318 318 319 320 320 319 319
315 313 312 312 314 315 314 313 313 313 313 312 311 311 312 313 312 312 311 309 307 305 304 305 305 305 306 307 306 305 305 305 305 305 305 305 304 304 304 304 304 305 306 306 306 306 307 308 308 309 309 310 312 315 317 317 316 317 319 320 321 321 321
317 315 313 312 313 314 314 313 313 313 314 313 312 312 312 313 312 312 311 309 306 305 305 305 305 306 307 307 306 305 305 305 305 305 305 305 304 304 304 304 304 304 305 305 305 306 306 306 307 307 308 309 310 312 314 316 316 315 317 319 318 319 319
318 317 316 314 313 314 314 314 313 314 314 314 313 313 312 312 312 312 311 308 306 305 305 305 305 306 307 306 305 305 305 305 304 305 305 304 304 304 304 304 304 304 304 305 305 305 305 305 306 306 307 308 309 309 311 314 315 314 313 314 314 315 315
319 319 318 317 316 315 315 315 314 314 315 314 314 313 313 312 312 313 311 307 305 305 305 305 306 307 307 306 305 305 304 304 304 304 304 304 304 304 303 303 303 303 303 304 305 304 305 305 305 306 306 306 307 308 309 312 314 313 312 311 312 313 313
320 320 320 319 319 317 316 316 315 315 315 314 314 314 313 313 313 313 310 306 306 305 305 305 306 307 307 306 305 304 304 303 304 304 304 304 303 302 302 301 300 300 300 301 303 304 305 305 305 305 305 306 307 307 308 309 311 312 312 312 312 312 313
320 320 320 320 321 320 318 317 316 315 316 315 314 314 314 313 313 312 309 306 306 305 305 306 307 307 306 306 305 304 303 303 303 303 303 302 301 300 299 299 299 298 298 298 299 302 304 304 304 304 304 304 305 306 307 307 308 310 311 311 312 312 313
320 320 319 320 321 321 320 318 316 316 316 315 314 314 314 313 313 310 308 306 306 305 306 307 307 307 306 305 304 303 303 303 303 302 301 300 299 299 298 298 298 297 297 296 296 299 301 303 303 302 302 303 303 304 304 304 305 306 307 308 309 309 310
320 320 320 320 320 321 320 318 317 316 315 314 314 314 313 313 311 309 307 306 306 306 307 307 307 306 306 304 303 303 303 302 301 300 299 299 298 298 298 297 297 296 296 296 296 297 298 300 300 301 301 301 302 302 303 303 303 303 304 305 306 306 306
320 321 320 320 320 320 319 318 317 316 315 314 314 314 313 312 311 308 307 307 307 308 308 307 307 305 304 303 302 302 301 300 300 299 298 298 298 297 297 297 297 296 296 297 297 297 297 298 298 299 299 300 301 301 302 302 302 302 302 303 304 304 304
320 319 319 319 319 319 319 318 317 316 315 315 314 314 313 312 310 308 308 308 308 308 307 306 305 304 303 302 301 300 300 299 299 298 298 297 297 297 297 296 296 296 296 296 297 297 297 297 297 297 298 299 300 300 300 300 301 301 301 302 303 303 303
319 318 318 317 317 317 316 316 316 316 315 315 314 314 312 311 309 308 308 309 308 308 306 305 303 302 301 300 299 299 299 298 298 297 296 296 296 296 296 296 296 296 296 296 297 297 297 297 297 297 297 298 298 298 299 299 300 300 301 301 302 302 302
319 319 318 318 317 316 314 314 314 314 314 314 314 313 311 310 309 309 309 309 308 306 304 302 301 300 299 299 298 298 297 296 296 295 295 295 295 295 295 295 295 296 296 296 296 296 296 297 297 297 297 297 297 297 297 298 299 299 300 301 301 301 302
320 319 319 319 318 316 314 313 314 314 314 313 313 312 310 310 309 309 309 308 306 304 302 301 300 299 298 297 296 295 294 294 294 294 294 294 294 294 294 294 294 294 294 295 295 295 295 295 296 296 296 296 296 296 296 297 298 298 299 300 300 300 301
320 319 319 319 319 316 314 313 314 314 313 312 312 311 310 310 310 309 308 306 304 302 301 300 299 297 296 294 293 292 292 292 292 292 293 293 293 293 293 293 293 293 293 293 293 294 294 294 294 295 295 295 296 296 296 297 297 297 298 299 299 300 300
319 319 319 319 317 315 313 313 313 313 313 312 311 310 310 310 309 307 306 304 302 301 300 299 297 295 294 292 292 291 291 291 292 292 292 292 292 292 292 293 293 293 293 293 293 293 293 293 294 294 294 295 295 295 295 296 296 297 297 297 298 298 299
318 318 318 317 315 314 313 312 312 311 312 311 311 310 310 309 307 305 303 302 301 299 298 296 295 293 292 292 291 291 291 291 291 292 292 292 292 292 292 292 292 293 293 293 293 293 293 293 293 293 294 294 294 294 294 295 295 295 296 296 296 297 297
317 317 317 315 314 313 312 311 311 311 311 311 310 310 309 307 304 303 301 300 299 298 296 294 293 292 291 291 291 291 291 290 291 291 292 292 292 291 291 292 292 292 292 292 292 292 292 292 292 293 293 293 293 294 294 294 294 294 294 294 295 295 296
315 315 314 313 312 311 311 311 311 311 311 310 310 308 306 304 302 301 300 299 297 295 294 293 292 291 291 291 291 291 290 290 291 291 291 291 291 291 291 291 291 291 292 292 292 292 292 292 292 292 292 292 292 292 293 293 293 293 293 294 294 294 295
313 314 313 312 311 310 310 310 311 311 310 309 308 306 304 302 301 299 298 296 294 294 293 292 291 291 292 292 291 290 290 291 291 291 291 291 291 291 290 290 290 291 291 291 291 291 291 291 291 291 291 291 291 292 292 292 292 292 293 293 293 294 294
312 312 311 311 310 310 310 310 310 310 309 307 305 303 302 300 299 298 296 294 293 293 293 292 292 292 292 291 290 290 290 290 290 291 290 290 290 290 290 290 290 290 291 291 291 291 291 291 291 291 291 291 291 291 291 291 291 291 292 292 292 293 293
312 311 310 310 309 309 310 310 309 309 308 305 302 301 299 298 296 295 294 294 294 293 292 292 292 292 292 291 290 290 290 290 290 290 290 290 290 290 290 290 290 290 291 291 291 291 290 290 290 290 290 290 290 290 290 290 291 291 291 291 292 292 293
311 310 308 307 305 304 304 305 306 306 304 302 300 298 297 296 295 295 294 294 293 292 292 292 292 292 292 290 290 289 290 290 290 290 290 290 290 289 289 289 289 290 290 290 290 290 290 289 289 289 289 289 289 290 290 290 290 290 290 290 291 291 292
309 308 307 306 304 303 301 300 301 301 300 299 298 297 296 296 295 295 294 293 293 293 293 292 292 292 292 290 289 289 289 290 290 290 290 289 290 289 290 289 289 289 289 289 289 289 289 289 289 289 289 289 289 289 289 289 289 289 290 290 290 291 292
307 306 305 304 304 302 300 298 298 297 297 297 297 296 296 295 295 294 294 293 293 293 293 293 292 292 292 291 289 289 289 289 289 289 289 289 289 289 289 289 289 289 289 289 289 289 289 289 289 289 289 289 289 289 289 289 289 289 289 289 290 290 291
304 303 302 301 300 298 297 297 296 296 296 296 296 295 295 295 294 293 293 293 293 293 293 293 293 293 292 291 290 290 289 289 289 289 289 289 289 289 289 289 289 289 289 289 288 288 288 289 289 289 289 289 289 289 289 289 289 289 289 289 289 290 290
302 301 301 299 297 297 296 296 296 296 296 296 296 295 295 295 293 292 292 293 293 293 293 293 293 292 292 291 290 290 290 289 289 289 289 289 289 289 289 289 288 288 288 288 288 288 288 288 288 288 288 288 288 289 289 289 289 289 289 289 289 289 290
299 299 298 297 296 296 296 296 296 296 296 296 296 296 295 294 293 293 293 293 293 293 293 292 292 292 291 291 290 290 290 289 289 289 289 288 288 288 288 288 288 288 288 288 288 288 288 288 288 288 288 288 288 288 288 289 289 289 289 289 289 289 289

ECMWFFLT1_925_thetae_027.txt.gz
Theta_e
309 310 310 311 313 314 314 312 313 314 314 314 314 314 314 313 312 310 309 308 307 307 306 306 306 306 306 307 308 310 312 314 316 320 321 321 322 321 321 322 324 325 326 327 327 329 331 331 330 329 329 327 326 325 326 327 326 325 325 325 327 328 328
307 308 310 311 311 313 314 313 312 314 314 314 314 314 312 310 308 307 307 306 306 305 305 304 304 304 304 305 305 306 307 308 310 313 316 318 319 320 320 320 321 322 324 325 326 326 327 329 329 329 328 327 327 326 324 326 325 325 324 325 326 327 328
308 309 310 311 311 313 314 313 313 314 314 314 314 313 311 309 308 309 309 308 307 306 305 304 304 304 305 306 306 306 306 307 308 308 310 313 315 317 318 320 320 321 323 323 323 323 324 326 326 326 326 325 326 326 325 325 324 324 324 325 325 326 327
310 309 310 312 311 312 312 312 312 313 313 313 313 312 310 310 310 311 310 310 309 307 305 304 305 305 306 307 308 308 308 309 309 309 309 310 312 314 314 316 318 318 319 320 320 320 321 322 322 322 323 323 323 323 324 324 322 321 323 323 323 324 324
311 309 309 309 310 309 308 309 311 312 312 311 311 311 311 311 312 312 312 311 309 307 305 304 305 305 306 307 309 310 310 309 310 310 311 311 312 313 313 314 314 315 316 316 317 318 319 320 320 320 321 321 321 321 322 323 321 321 323 323 322 323 323
311 310 309 308 307 307 306 307 309 311 311 311 311 311 311 312 312 313 313 312 309 307 305 304 304 304 305 306 307 308 308 309 309 309 310 310 310 311 312 312 312 312 313 313 314 316 317 318 318 318 319 319 319 320 319 320 320 319 320 321 322 323 324
312 311 310 309 308 307 306 306 307 308 308 309 310 310 311 311 312 313 313 311 310 307 305 305 304 304 304 306 307 307 307 308 308 308 309 308 308 309 310 311 311 311 311 312 313 314 314 316 317 317 317 317 318 319 318 318 318 318 318 320 321 321 322
315 312 311 310 310 309 307 306 306 306 307 307 308 310 311 311 312 313 313 312 310 307 305 304 304 304 304 305 306 306 307 307 307 307 308 307 307 307 308 309 309 310 310 310 311 312 313 314 315 316 316 316 316 317 318 318 317 318 318 318 318 319 320
317 314 312 310 311 311 309 307 306 307 307 307 308 310 311 311 312 313 313 312 309 307 305 304 305 305 304 306 306 306 306 307 307 308 307 307 307 307 307 307 308 309 309 309 309 310 311 312 313 314 315 315 315 314 315 316 316 317 318 318 318 319 320
317 315 313 311 310 311 311 310 308 308 307 307 308 310 311 311 312 312 312 311 309 307 305 305 305 304 305 307 307 307 306 307 307 308 308 307 307 307 307 306 307 308 308 308 309 309 309 310 311 311 312 314 314 313 313 314 315 316 317 318 318 318 319
315 314 313 312 311 311 313 312 311 310 309 308 308 310 311 311 312 313 312 311 309 306 305 305 305 305 306 307 306 306 306 307 308 308 307 307 306 306 306 306 306 307 307 307 308 308 309 309 309 310 310 311 312 313 313 313 314 315 317 317 317 318 319
315 313 313 312 312 311 312 313 314 313 311 310 309 310 311 312 312 312 312 311 309 306 305 305 305 305 307 307 306 305 304 305 307 307 306 306 306 306 306 306 306 306 306 305 306 307 307 308 308 309 309 310 311 311 313 313 312 313 315 316 317 317 316
316 314 313 313 313 313 313 312 314 315 314 312 311 311 311 312 312 312 312 311 309 306 305 305 304 305 306 306 306 306 304 305 306 307 306 305 305 305 305 304 304 303 303 303 304 304 305 306 307 308 309 309 310 310 311 312 312 312 313 314 314 314 314
317 316 315 314 314 315 314 314 313 314 315 313 312 312 312 312 312 312 312 311 308 306 305 305 305 305 306 305 305 305 304 304 306 306 306 305 304 304 303 303 302 302 301 301 301 302 303 305 306 307 308 308 309 309 310 310 311 312 312 312 312 312 313
316 316 316 316 316 316 316 316 314 314 315 314 313 313 313 313 312 312 312 311 308 306 305 305 305 306 307 306 305 304 303 304 305 305 305 305 304 303 302 302 302 301 301 301 301 301 301 303 304 305 306 307 307 308 308 309 310 310 311 311 311 311 312
315 315 315 316 317 317 317 317 316 315 315 315 314 313 313 313 312 312 312 310 308 306 306 306 305 306 307 306 306 304 303 304 305 305 304 304 303 302 302 302 302 301 300 301 301 301 301 302 302 303 304 305 306 307 307 307 308 309 309 309 309 310 310
317 317 317 317 317 318 318 318 317 316 316 315 314 314 313 313 313 313 312 310 308 306 306 306 305 306 306 306 305 304 303 304 304 303 303 302 301 301 301 301 301 300 300 300 301 301 301 301 301 302 303 303 304 305 306 306 307 307 307 308 308 308 308
319 319 319 319 318 318 318 317 317 317 316 316 315 314 314 314 313 313 312 310 308 307 306 305 306 306 306 305 304 303 303 303 302 301 301 300 300 300 300 300 300 300 300 300 300 300 300 300 300 301 301 302 302 303 304 305 305 305 306 307 307 307 307
319 319 319 320 320 319 318 317 317 316 315 314 314 314 314 314 313 313 312 310 308 307 306 306 306 306 305 304 303 303 302 301 301 300 300 299 299 299 299 299 299 299 299 299 300 300 300 300 300 300 301 301 301 302 303 304 304 304 304 305 305 306 306
319 318 319 320 320 320 319 318 317 315 314 314 313 313 313 314 314 313 312 310 308 307 306 307 307 306 305 304 303 302 301 300 300 299 298 298 298 297 297 297 297 298 298 299 299 299 300 300 300 300 300 301 301 301 302 302 302 303 303 304 304 304 305
320 319 319 320 320 320 320 318 317 315 315 315 314 314 314 314 313 312 311 309 308 307 307 307 306 305 304 303 302 301 300 299 298 297 296 296 295 295 294 295 295 296 297 298 298 298 298 299 299 300 300 300 301 301 301 301 301 301 302 303 303 303 304
320 320 320 320 320 320 319 318 317 316 315 314 314 314 314 314 313 312 310 309 308 308 308 307 305 304 303 302 300 299 298 296 295 295 295 295 294 294 294 294 294 294 295 295 295 295 295 295 296 298 299 300 300 300 300 300 301 301 301 302 302 303 303
317 319 320 319 319 319 319 318 317 315 315 314 313 313 313 313 313 311 310 309 308 308 307 305 304 303 302 300 298 296 295 294 293 293 294 294 294 295 294 295 295 294 294 293 294 294 294 293 294 295 296 297 298 299 299 300 300 300 301 301 302 302 302
314 317 318 319 319 319 318 318 317 315 315 313 312 313 313 312 311 310 309 309 308 307 305 304 303 301 299 297 295 294 293 293 292 292 293 294 294 295 295 295 295 295 295 295 295 295 294 294 294 293 293 294 294 296 297 298 299 299 300 300 300 301 302
312 314 316 317 318 318 317 317 316 315 314 313 312 312 312 311 310 309 309 308 306 304 303 301 300 298 296 294 293 292 292 292 292 293 293 293 294 295 295 295 295 295 295 295 294 294 295 295 294 294 294 293 293 293 294 295 297 298 299 299 300 300 300
311 312 314 315 316 317 317 317 316 315 314 312 311 311 310 310 309 309 308 306 304 302 300 298 297 295 294 293 292 292 292 292 292 292 293 293 294 294 294 295 295 295 295 294 294 294 295 295 295 295 294 294 294 294 293 293 294 295 296 297 298 299 299
310 311 313 314 315 315 316 316 315 314 313 311 310 310 309 309 308 307 306 304 302 299 297 296 295 294 293 292 292 292 292 291 291 291 292 293 293 293 293 294 294 294 294 294 294 294 294 294 295 294 294 295 295 295 295 294 294 294 294 295 296 297 297
310 311 312 313 314 314 315 315 314 313 311 310 309 309 309 308 307 305 304 302 300 297 295 294 293 293 292 292 292 292 291 290 291 292 292 292 293 293 293 293 293 293 293 293 293 293 293 293 293 293 294 294 294 294 295 295 295 295 295 295 295 296 296
309 310 311 312 313 313 313 313 313 311 310 309 308 308 308 307 305 303 301 301 299 296 294 294 293 292 292 292 292 292 291 291 292 292 292 292 292 292 293 293 293 293 293 293 293 292 291 292 292 292 293 293 293 294 294 294 294 293 293 294 294 295 295
309 309 310 311 312 312 313 312 311 310 309 307 307 307 306 304 303 302 300 299 298 295 294 293 292 292 292 292 292 292 292 292 292 292 292 292 292 292 292 292 292 292 292 292 292 292 291 291 291 291 292 292 292 293 293 293 292 292 292 292 292 292 292
308 309 310 310 311 311 311 310 309 308 307 306 305 304 304 302 300 300 298 296 295 293 292 292 292 292 292 292 292 292 292 292 292 292 292 292 292 292 292 292 291 291 292 292 292 291 290 290 290 290 291 291 291 291 292 292 292 291 291 291 291 291 291
308 309 309 310 310 310 309 308 306 305 304 303 303 302 301 298 296 295 295 293 292 292 292 292 292 292 292 293 292 292 291 292 292 292 292 292 292 292 292 292 292 291 291 291 290 290 290 289 289 290 290 290 290 290 291 291 291 291 291 291 291 291 291
307 308 309 309 309 308 307 305 303 302 301 300 299 298 297 295 294 294 294 293 292 292 292 292 292 292 292 292 292 291 291 292 292 292 292 292 292 292 292 292 292 291 291 290 290 289 289 289 289 289 289 289 290 290 290 290 290 290 291 291 291 291 291
307 308 308 308 307 305 304 303 302 301 299 298 296 295 294 294 294 293 293 292 292 292 292 292 293 293 293 292 292 291 291 292 292 291 291 292 292 292 292 292 291 291 290 290 289 289 289 288 288 288 288 289 289 289 289 290 290 290 290 290 290 290 290
307 307 306 306 304 302 302 302 302 300 298 296 295 294 293 292 292 292 292 292 292 293 293 293 293 292 292 292 291 291 291 291 291 291 291 291 291 291 291 291 291 290 290 289 289 288 288 287 287 288 288 288 288 288 288 288 289 289 289 290 290 290 290
306 305 304 303 302 301 300 300 299 297 296 295 294 294 293 292 292 292 292 293 293 293 293 292 292 292 292 292 292 291 291 290 290 290 290 291 291 291 290 290 290 289 289 288 288 287 287 287 287 288 288 288 288 288 288 288 289 289 289 289 290 290 290
304 303 302 301 300 298 297 297 296 295 295 295 295 294 293 293 292 293 293 294 294 294 293 292 292 292 291 291 291 290 290 290 290 289 289 290 290 290 290 290 289 288 287 287 287 287 287 287 287 288 288 288 288 288 288 289 289 289 289 290 290 290 290

ECMWFFLT1_925_thetae_030.txt.gz
Theta_e
318 319 320 321 320 318 318 319 319 319 319 319 319 318 317 317 318 317 317 316 314 313 313 313 314 314 315 316 317 319 320 322 323 324 323 324 325 325 325 326 326 326 327 328 327 328 331 331 331 330 329 329 329 329 328 328 329 330 331 331 331 331 331
317 317 318 319 319 319 319 319 318 318 318 318 317 316 315 314 314 314 314 313 312 312 311 311 312 313 314 315 315 316 317 318 319 320 321 322 322 323 323 324 324 325 326 326 325 325 327 329 330 330 328 327 328 329 328 326 326 328 327 328 329 329 330
317 317 317 319 319 319 318 318 318 318 318 318 317 316 314 313 314 314 313 313 312 312 312 313 313 314 314 315 315 315 315 315 315 316 318 318 319 320 321 321 321 322 323 324 324 323 325 326 327 327 327 327 327 328 325 323 326 326 325 325 326 327 328
317 317 318 319 319 319 318 318 318 317 317 318 317 316 315 315 315 315 314 314 313 313 313 314 314 315 315 315 315 315 315 315 315 315 315 315 316 316 317 318 319 319 320 321 321 321 321 322 322 323 323 324 325 325 323 323 325 325 324 324 325 326 326
318 317 318 318 319 319 319 318 317 317 317 317 317 316 316 317 316 315 315 314 314 314 313 314 314 314 315 315 316 315 315 315 315 315 315 315 315 315 315 315 316 317 317 318 319 318 319 320 320 320 320 319 319 320 321 322 322 322 321 321 323 325 326
319 317 317 318 318 318 318 318 317 316 316 317 316 316 317 318 317 316 316 314 314 313 313 313 313 313 313 314 314 315 315 315 315 316 316 315 316 316 315 315 314 314 315 316 316 317 317 318 318 319 319 318 319 319 319 319 319 319 318 317 318 320 322
320 318 317 318 318 316 316 318 317 315 316 316 316 317 318 318 317 317 317 315 314 313 313 313 313 312 312 312 313 313 314 314 314 314 314 314 314 314 314 315 314 314 314 314 314 315 315 316 317 318 318 318 319 319 319 318 318 318 318 318 318 318 319
321 319 317 318 318 317 316 317 316 315 316 316 316 317 318 318 318 318 317 315 314 313 313 313 313 312 312 312 312 313 313 313 313 313 312 312 312 312 312 313 313 313 313 313 313 313 314 315 315 316 317 317 317 318 318 319 318 318 318 318 318 318 317
321 320 318 318 319 318 317 316 316 316 316 315 316 318 318 318 319 318 317 316 314 313 313 313 312 312 311 311 312 312 312 312 313 313 312 312 311 311 311 311 312 312 312 312 312 313 313 313 313 314 315 316 316 316 316 317 318 318 319 319 319 319 318
322 321 320 320 320 319 318 317 316 316 316 316 318 319 318 318 319 318 317 316 315 313 313 312 312 312 312 311 311 312 312 312 312 312 312 312 311 311 310 310 311 311 310 311 312 312 312 313 312 313 313 314 314 314 315 315 316 317 318 318 318 318 318
322 322 322 322 322 320 319 318 317 317 317 317 318 319 318 318 319 318 318 317 315 314 313 313 312 312 312 312 311 311 311 312 312 312 311 311 310 310 310 310 310 310 309 309 310 310 311 311 312 312 312 313 313 313 314 314 315 316 317 317 317 318 318
322 322 322 323 323 321 320 318 318 318 317 316 317 317 318 318 318 318 317 317 315 314 314 313 313 312 312 312 311 311 311 311 312 311 311 310 310 310 310 309 309 308 307 307 307 308 308 309 309 310 310 311 312 313 314 313 313 314 315 315 316 317 318
323 322 323 323 323 322 320 319 319 318 318 317 316 317 317 317 318 318 317 316 315 314 314 313 313 312 312 311 311 311 310 310 311 311 310 310 309 309 309 308 307 307 306 305 305 305 305 306 307 308 308 309 311 312 313 313 313 314 314 314 315 315 315
323 323 323 323 323 322 321 320 319 319 320 319 317 317 317 317 317 317 317 316 315 315 314 313 313 312 312 312 311 311 310 309 309 310 310 309 309 308 307 306 306 306 305 305 305 305 304 305 305 306 307 309 310 311 311 312 313 313 313 313 314 314 314
323 323 323 323 323 322 321 321 321 321 321 320 319 318 317 317 317 317 317 316 315 314 314 313 313 312 312 312 311 310 310 309 309 309 309 309 308 308 307 307 306 306 306 305 305 305 305 304 304 304 305 307 308 309 310 310 311 312 312 312 312 313 313
322 323 323 323 323 322 322 321 322 322 322 321 320 319 318 318 318 317 317 316 315 314 314 313 312 312 312 311 311 310 309 309 309 309 309 308 307 307 307 307 306 306 306 305 306 305 305 305 304 304 304 304 306 307 308 309 309 310 311 311 311 311 311
323 323 323 323 323 323 322 321 322 322 322 321 321 320 319 319 318 318 317 316 315 314 314 314 312 312 312 311 311 310 309 309 309 309 308 307 306 306 306 306 306 305 305 305 305 305 304 304 303 303 304 304 304 305 307 308 309 309 310 310 310 310 310
323 324 324 323 323 323 323 322 322 322 321 321 321 320 319 319 319 318 317 317 316 315 314 314 313 312 312 311 310 309 308 308 308 307 307 307 306 305 305 306 305 305 304 305 304 304 303 303 303 303 303 303 304 304 305 306 307 308 309 309 309 309 310
324 324 324 324 323 323 324 323 323 322 321 320 320 320 319 319 319 318 318 317 316 316 315 314 313 312 312 311 310 309 308 308 307 307 306 306 305 305 305 305 304 304 304 303 303 302 302 302 303 303 304 304 304 304 304 305 306 306 307 308 308 308 309
324 324 323 323 322 323 324 324 324 323 322 321 320 319 318 317 318 318 317 317 316 316 315 314 313 312 312 311 310 309 308 307 307 306 306 305 304 304 304 303 303 303 302 302 301 301 302 302 303 303 304 304 305 305 305 305 305 306 307 307 307 308 308
322 323 323 322 322 322 323 323 324 323 322 321 320 319 317 317 317 317 317 317 317 316 315 314 313 312 311 310 309 308 308 307 306 306 305 304 304 303 303 302 302 301 301 300 299 299 299 300 301 301 302 303 303 304 305 305 305 306 306 306 306 307 307
318 320 321 322 322 322 322 323 324 323 322 321 320 319 318 317 317 317 317 317 316 315 315 314 313 311 310 309 309 308 307 306 305 304 304 303 302 302 302 301 301 300 299 297 295 294 295 295 296 297 299 300 302 303 304 304 305 305 305 306 306 306 306
315 316 318 319 320 321 322 322 323 322 321 320 320 320 318 317 318 317 317 317 316 315 314 312 311 309 308 308 307 306 305 304 303 302 302 301 301 301 301 300 300 300 298 296 295 295 295 295 295 295 296 297 299 300 302 303 303 304 304 305 305 305 306
314 314 316 317 318 319 320 321 321 321 320 319 319 318 317 317 318 317 316 316 314 312 311 309 308 307 306 305 304 303 303 302 301 301 301 300 300 300 300 299 299 299 299 299 299 299 298 297 296 295 295 295 295 296 298 299 301 302 303 304 304 304 305
313 313 315 315 316 318 319 320 319 319 319 318 318 317 316 317 317 316 316 314 312 310 308 307 306 305 304 303 301 301 301 300 300 300 300 299 299 299 299 299 299 300 300 299 299 298 298 298 297 297 296 295 295 295 295 296 297 299 300 302 303 303 304
312 312 314 315 316 317 318 318 319 318 318 318 317 317 317 317 317 315 314 312 308 307 305 304 303 302 301 300 299 299 300 299 299 299 298 298 298 298 298 298 299 299 299 299 298 298 299 299 299 298 298 297 296 296 295 295 295 295 296 298 300 301 302
312 312 312 314 315 316 317 318 318 317 317 318 317 317 317 317 316 314 311 308 305 303 301 300 300 299 298 297 296 297 298 298 297 298 298 298 298 298 298 298 299 299 299 299 299 299 299 299 299 299 299 298 298 298 298 297 296 296 295 296 297 298 299
311 312 312 313 315 316 316 317 318 317 316 317 317 317 317 316 313 310 308 305 302 300 297 297 296 296 295 295 293 295 297 297 297 297 297 297 298 298 298 298 298 298 299 299 299 298 297 297 297 297 297 297 298 298 298 298 298 298 297 297 297 297 298
311 311 312 313 314 315 316 317 317 316 315 316 316 316 315 313 310 307 305 303 301 297 294 294 294 294 293 293 293 295 296 296 296 297 297 297 298 298 298 298 298 298 298 298 298 296 295 295 295 295 295 296 296 296 297 297 297 297 297 297 297 297 297
311 311 311 312 313 314 315 315 316 315 314 314 314 313 311 309 306 304 302 300 299 295 293 293 293 293 293 292 293 295 297 296 296 297 297 297 297 297 298 297 297 297 297 297 297 295 294 293 293 294 294 294 295 295 295 296 296 295 295 295 295 295 295
310 311 311 311 312 313 314 314 314 314 313 313 311 309 307 305 303 302 300 299 298 295 293 292 292 292 292 292 292 295 296 296 296 297 297 297 297 297 297 296 295 295 296 296 295 294 293 293 292 293 293 293 294 294 294 295 295 295 295 294 294 294 293
310 310 310 311 311 313 313 313 313 312 311 310 307 305 303 302 300 299 298 297 296 294 293 292 292 292 292 292 292 294 295 295 296 297 297 297 296 296 297 296 295 295 295 294 294 293 292 291 291 292 292 292 293 293 293 294 294 294 294 294 294 294 294
310 310 310 310 311 312 312 311 310 308 307 306 304 302 301 299 297 296 295 294 294 294 293 293 292 292 293 292 291 292 294 295 296 296 296 296 296 296 296 296 296 295 294 293 292 292 291 291 291 291 291 291 291 292 292 292 293 293 293 293 293 293 293
310 310 310 310 311 311 310 309 308 306 305 303 301 299 297 296 294 293 292 293 294 294 295 295 294 292 292 291 291 291 293 295 295 295 294 294 295 296 296 296 296 295 294 293 292 292 291 290 290 290 290 290 290 290 290 291 291 291 291 291 291 292 292
309 309 309 310 310 308 307 307 306 304 302 300 297 296 294 293 292 292 292 293 293 293 294 294 293 292 292 291 292 292 292 293 292 292 293 294 295 295 296 296 295 294 293 292 292 291 290 290 289 289 289 289 289 289 289 289 289 290 290 290 291 291 291
308 309 309 309 308 306 305 304 302 300 298 296 295 295 294 293 293 293 293 294 294 294 294 294 293 292 292 292 291 291 291 291 291 291 293 294 294 295 295 295 294 294 292 291 290 290 289 289 288 288 288 288 288 288 288 288 289 289 290 290 291 291 291
308 308 308 307 306 304 302 300 299 297 297 296 296 296 296 295 296 296 296 296 296 296 297 296 294 293 292 291 291 291 291 291 291 291 291 292 293 294 294 293 292 291 290 289 289 289 288 288 289 289 289 289 289 289 288 289 289 289 290 290 291 291 291

ECMWFFLT1_925_thetae_033.txt.gz
Theta_e
321 322 321 322 320 319 320 321 321 321 321 321 321 320 320 320 320 319 318 317 315 314 314 315 315 315 317 317 317 319 320 321 323 324 325 326 326 327 327 327 327 327 327 327 327 328 330 331 331 330 329 328 328 329 329 329 328 329 330 331 332 331 331
321 321 320 320 319 320 321 321 320 320 320 320 319 318 317 317 316 316 315 315 314 314 313 313 315 316 317 318 318 318 318 318 319 321 322 322 322 323 323 323 325 326 327 326 325 325 327 328 330 330 329 328 327 326 327 329 328 327 328 329 329 328 329
319 318 319 319 319 320 321 321 320 320 320 319 318 316 316 316 316 316 315 315 315 314 315 315 316 317 317 318 318 318 318 318 317 318 318 318 319 319 318 319 320 322 324 326 325 325 325 326 327 328 328 328 329 327 326 324 324 325 325 326 326 326 327
318 319 320 319 319 320 320 320 320 319 319 319 318 317 316 317 317 317 316 315 315 316 316 317 317 317 318 319 318 318 319 319 318 318 317 318 318 317 316 318 318 319 320 321 322 322 322 323 323 323 324 325 325 326 324 322 321 322 323 325 327 329 328
319 320 320 320 319 320 319 319 319 319 319 319 318 318 318 318 318 317 316 316 316 316 316 316 316 317 318 318 318 319 319 319 319 319 318 319 319 318 317 316 316 317 318 318 319 319 319 320 320 320 319 319 319 320 321 322 323 323 323 322 324 325 327
320 319 320 320 320 320 319 319 319 319 319 319 319 318 318 319 318 317 316 316 315 315 315 315 315 315 316 316 316 317 318 318 318 318 318 318 318 318 318 317 316 316 317 316 316 317 317 317 318 318 319 318 318 318 318 320 322 321 321 320 319 318 320
320 319 319 320 319 319 319 319 318 318 319 319 319 319 319 319 319 318 317 316 315 315 315 315 315 315 315 315 315 316 316 316 316 316 316 316 316 316 317 316 316 316 316 316 316 316 317 317 317 318 319 318 317 318 318 319 319 318 319 319 319 317 316
321 319 318 319 319 318 319 319 318 317 318 318 318 319 319 319 319 319 318 317 316 315 316 315 315 315 314 314 314 316 316 315 315 315 315 315 315 314 314 315 316 316 315 315 315 315 316 316 316 316 317 317 317 318 318 318 318 318 319 318 318 318 318
321 320 318 318 319 318 318 319 319 318 317 318 318 319 319 319 320 320 319 317 316 316 316 315 316 315 314 314 315 315 315 315 316 316 315 315 315 314 313 314 315 314 313 313 314 314 314 315 315 315 315 315 316 316 317 317 317 317 318 318 319 319 319
322 321 319 318 320 320 318 319 319 318 318 318 318 320 319 319 320 320 319 318 317 316 316 315 315 315 314 314 314 314 315 315 315 315 315 315 314 314 313 312 313 313 311 312 313 312 313 314 314 314 314 314 314 314 315 316 317 317 318 317 318 318 318
323 322 321 320 320 321 320 319 318 318 318 318 319 320 320 319 320 320 319 319 318 316 316 315 315 315 314 315 314 314 315 314 314 314 314 314 313 313 313 311 312 312 310 310 311 311 311 311 312 312 313 314 314 314 314 314 315 315 316 316 317 317 317
324 323 322 321 322 322 321 319 319 318 319 318 318 321 321 319 320 319 319 319 318 317 316 315 315 315 315 315 314 314 314 313 314 315 314 313 313 313 313 311 311 311 309 308 310 309 309 309 310 310 310 311 312 313 314 314 314 314 314 315 316 316 316
324 324 323 322 323 323 322 321 319 319 320 319 319 321 321 319 320 320 319 319 319 317 316 316 315 315 315 315 314 314 314 313 314 315 314 313 312 312 313 311 310 310 309 308 309 308 307 308 308 308 308 309 310 312 313 314 314 314 314 314 314 315 314
324 324 323 323 323 323 323 322 321 320 320 320 319 320 320 319 320 320 319 319 319 318 317 316 316 315 315 315 314 314 314 313 313 314 314 313 312 312 311 310 310 310 309 308 308 308 308 308 308 307 307 308 309 310 312 312 313 314 314 313 314 314 313
323 323 323 323 323 323 323 323 321 321 320 320 320 320 319 319 320 320 320 319 319 318 318 317 316 316 315 315 315 314 314 312 312 314 314 313 312 312 310 309 309 310 309 309 309 309 308 308 307 307 307 306 307 308 309 310 311 311 311 312 312 312 312
322 322 323 323 323 323 323 322 321 321 320 320 320 320 319 319 319 320 319 319 319 318 318 317 317 316 315 315 315 315 313 313 312 312 313 312 312 311 311 311 310 310 310 309 309 309 308 308 308 307 306 306 306 306 307 307 309 309 310 311 311 311 311
324 324 324 324 323 323 322 322 322 322 321 321 320 320 320 319 319 319 320 319 319 319 318 318 318 317 316 315 315 315 314 313 312 313 312 312 311 310 310 311 310 310 310 309 309 309 308 307 307 306 305 305 306 306 306 307 308 309 310 310 311 311 311
324 324 324 324 323 322 323 323 323 323 323 322 322 321 321 320 320 320 320 320 319 319 319 318 318 317 316 316 315 315 314 313 312 312 312 312 310 310 310 310 310 309 309 308 309 308 307 306 305 305 305 305 305 305 306 306 307 307 308 309 309 309 310
323 324 324 325 324 324 324 323 323 324 324 323 323 322 322 321 320 320 320 320 320 319 319 319 318 317 316 316 315 315 314 313 312 312 312 311 310 309 309 310 309 309 308 308 308 307 306 305 305 305 305 305 305 306 306 306 306 307 307 307 308 308 309
324 325 325 325 325 326 325 324 324 324 325 324 324 323 323 322 322 321 321 321 321 320 320 319 318 317 317 316 316 315 314 313 312 312 311 310 310 309 309 309 308 308 307 307 307 306 305 304 304 304 304 305 305 306 306 306 307 307 307 307 308 308 309
322 323 324 325 325 325 324 324 324 325 325 325 325 324 323 323 322 322 322 321 321 321 320 320 318 318 317 317 316 315 314 313 312 311 310 310 309 309 308 308 307 307 306 306 305 304 301 300 300 301 301 302 302 303 304 305 305 306 307 307 308 308 308
316 318 320 322 322 323 323 324 324 324 324 324 324 324 323 323 322 321 320 321 320 320 320 320 319 318 317 316 316 315 314 313 312 311 310 309 308 308 307 307 307 306 305 304 303 300 297 296 296 297 298 300 301 302 302 303 304 305 306 306 307 307 308
314 314 315 317 319 321 322 322 323 324 324 324 324 324 323 323 321 320 319 320 320 320 320 319 318 318 317 316 315 314 313 312 311 310 310 308 307 307 306 306 306 305 303 302 300 299 299 298 297 297 297 298 299 300 301 302 303 303 304 305 305 306 306
313 313 314 314 315 317 318 320 321 323 324 324 324 324 323 322 321 319 318 319 320 320 319 318 318 317 316 315 314 313 312 311 309 308 307 307 307 306 305 305 304 304 302 302 302 301 301 300 299 298 298 297 297 298 298 299 300 301 302 302 303 304 305
311 312 313 313 314 314 315 317 319 320 321 323 323 323 323 322 321 319 319 320 320 319 317 316 316 315 314 313 312 311 309 308 307 307 306 306 305 305 304 304 303 303 302 302 301 301 301 300 300 299 299 299 299 299 298 298 298 299 299 300 301 302 303
310 310 311 312 313 313 314 315 316 317 319 320 320 321 321 321 320 320 320 320 318 316 315 313 312 313 312 311 309 308 307 306 305 305 305 304 304 303 303 302 302 301 301 301 301 301 302 302 302 302 302 301 300 300 299 299 298 298 298 299 300 300 301
310 310 310 311 311 313 313 314 315 316 317 318 319 319 319 320 320 319 319 318 315 312 312 311 310 310 310 309 307 305 304 304 303 303 303 302 302 302 301 301 301 301 301 301 301 302 302 303 303 302 302 301 301 301 301 300 300 299 299 298 299 299 300
310 311 311 311 312 312 313 314 315 316 316 317 317 317 318 319 319 319 319 316 310 308 308 307 307 308 307 306 304 303 303 302 301 301 301 301 301 301 301 301 301 301 301 302 302 301 301 301 301 300 300 300 300 300 300 300 300 300 300 299 299 299 299
310 311 311 311 311 312 312 314 315 316 316 316 316 316 317 318 319 319 316 311 306 305 304 303 304 304 303 301 300 300 301 300 299 300 301 301 301 301 301 301 301 301 301 301 301 300 300 299 298 298 298 298 298 299 299 299 299 299 299 299 299 299 299
310 311 311 311 312 312 312 313 314 315 316 316 315 315 316 317 318 315 309 305 304 303 300 299 299 299 298 298 298 299 300 299 299 299 300 300 301 301 301 301 301 301 300 300 299 299 298 297 296 297 297 297 297 297 297 298 298 297 297 297 297 297 297
310 311 311 311 311 312 312 313 314 314 315 314 314 314 315 315 313 308 304 303 303 301 296 295 296 296 296 296 296 298 299 298 298 299 299 300 300 300 300 300 299 299 299 299 298 298 297 296 295 296 296 296 296 296 296 296 296 296 296 296 296 296 296
311 311 311 311 311 311 312 313 313 314 314 314 314 313 311 308 306 303 302 302 300 297 294 293 294 294 294 293 293 296 298 297 297 298 299 299 300 300 300 299 299 298 298 298 297 296 295 294 294 295 295 295 295 295 295 295 295 295 295 295 296 296 296
311 311 312 312 312 312 312 312 312 314 313 312 310 308 306 305 303 300 299 298 296 294 294 293 293 293 292 291 292 293 295 296 297 298 299 299 298 298 298 299 299 298 297 296 295 294 294 293 293 293 294 294 294 294 294 294 293 293 293 293 293 294 294
310 311 312 312 312 312 312 312 312 313 312 309 307 305 303 302 301 298 297 296 294 294 293 292 292 292 291 291 291 291 293 296 297 297 297 297 297 298 298 299 299 297 295 294 293 293 293 292 292 291 292 292 292 292 292 291 291 291 291 291 292 292 292
310 310 311 311 310 310 311 312 312 311 309 307 305 303 301 300 299 298 298 297 296 295 293 292 292 292 291 291 291 290 292 294 294 293 295 296 297 298 298 298 298 297 295 294 294 293 292 291 291 290 290 290 290 290 290 290 290 290 290 290 291 291 291
308 309 309 309 309 310 311 311 310 308 306 304 302 300 299 298 298 297 297 297 296 295 294 292 292 291 291 291 291 291 291 292 292 293 295 296 297 297 297 298 297 296 295 294 293 292 291 290 290 290 290 290 290 290 289 289 289 290 290 290 290 291 291
308 308 308 308 309 310 310 308 306 305 304 302 300 299 298 297 296 296 295 295 296 295 294 292 292 292 292 293 293 293 293 293 293 293 294 295 296 296 296 296 295 294 293 292 291 291 290 290 290 291 291 290 290 290 290 290 290 290 290 290 291 291 291

ECMWFFLT1_925_thetae_036.txt.gz
Theta_e
323 322 322 321 320 321 322 322 321 321 321 320 320 320 319 318 317 316 316 316 315 314 314 315 316 318 319 318 319 318 318 320 321 323 325 325 326 327 327 327 326 325 325 325 326 328 331 334 332 330 329 327 327 328 329 329 329 329 328 327 328 330 330
322 322 322 320 320 321 321 321 321 321 320 318 317 317 316 316 316 315 315 315 315 315 315 316 317 318 319 319 319 319 318 318 318 318 320 319 319 322 323 324 326 326 325 325 325 325 328 332 333 333 330 327 326 326 326 326 327 327 327 326 328 330 330
321 321 320 320 320 321 321 321 321 320 319 317 316 317 316 316 316 316 315 315 316 317 317 317 317 318 320 319 319 319 319 319 318 317 318 318 315 317 319 319 321 323 325 326 326 325 325 328 330 331 328 328 329 327 324 322 322 322 322 322 325 327 328
320 320 320 320 320 321 321 320 320 320 319 317 317 317 317 318 317 316 316 316 317 317 317 318 318 319 319 319 319 319 319 320 319 318 320 320 316 315 316 317 317 319 319 321 322 321 321 323 324 324 321 322 324 324 323 322 319 319 318 317 319 321 324
319 320 320 320 320 320 320 320 320 320 319 318 318 318 318 318 317 316 316 317 316 316 316 317 317 317 317 318 318 318 318 318 317 317 318 319 319 317 316 316 317 317 316 316 317 317 318 318 319 321 319 318 319 319 319 320 319 318 318 317 318 321 323
319 320 320 320 320 320 320 320 320 320 320 319 318 319 319 318 317 317 317 316 316 316 315 315 316 316 316 317 317 318 317 316 317 317 316 315 317 318 317 316 316 316 316 316 316 317 317 317 317 319 318 318 319 318 318 318 318 318 318 318 318 319 320
320 321 320 320 320 320 320 319 320 320 320 319 319 320 318 319 318 318 317 317 316 315 315 315 315 316 316 316 316 317 317 317 316 315 315 314 314 315 317 316 315 315 315 315 315 316 317 317 316 316 317 317 317 317 317 317 317 318 318 318 318 318 318
320 321 321 320 320 320 320 319 319 319 320 319 320 320 318 318 319 318 317 316 315 316 316 315 314 314 315 316 315 316 316 315 315 314 314 313 313 313 315 316 315 313 313 314 314 314 315 315 315 315 316 317 318 318 317 316 317 318 318 318 318 319 319
320 320 321 321 320 320 320 319 318 319 320 319 319 320 319 319 320 319 318 317 316 316 316 315 315 314 314 316 315 315 316 316 317 317 315 314 313 312 313 315 314 311 312 314 312 313 314 314 314 315 314 315 317 317 317 317 317 317 316 316 317 318 318
321 320 319 320 320 319 319 320 319 318 318 319 319 319 320 319 320 320 319 318 316 316 316 315 316 315 313 315 316 315 316 317 316 316 315 315 315 313 312 313 313 310 310 312 311 311 312 311 312 313 313 314 314 316 317 317 317 316 314 313 314 316 316
322 321 319 319 320 319 319 320 320 319 318 319 318 319 320 319 320 320 320 319 317 317 316 315 316 315 313 315 315 314 316 316 315 315 315 315 314 314 312 312 313 310 308 310 311 310 309 309 310 310 310 311 312 314 315 316 317 315 313 313 312 313 314
323 322 320 320 320 320 320 319 320 319 318 319 319 320 320 319 320 321 320 320 319 317 316 316 316 315 314 315 315 315 315 314 315 316 315 314 314 314 313 311 312 311 308 309 310 309 308 308 309 308 308 309 310 311 312 314 317 316 313 314 313 312 313
324 324 322 321 320 321 322 320 320 319 318 319 319 320 320 320 320 320 320 320 319 319 317 316 316 315 315 316 315 315 315 313 315 316 314 313 313 313 313 311 311 310 308 308 309 308 308 309 308 307 307 307 308 310 310 312 315 315 313 313 313 313 313
325 324 322 322 321 321 322 321 321 320 319 319 319 319 321 321 321 320 320 320 320 320 318 317 317 316 315 316 315 315 314 313 315 316 314 314 313 313 313 311 311 310 309 309 309 308 309 309 308 308 307 307 307 308 308 309 311 312 311 311 311 311 311
325 324 321 320 320 320 320 321 321 320 320 320 320 319 320 322 321 320 321 321 320 320 319 318 317 316 316 316 316 315 315 315 314 314 315 314 313 313 312 310 311 311 310 309 308 308 309 308 308 308 308 307 307 306 306 307 308 309 309 309 309 309 310
323 322 321 320 321 320 320 320 321 320 320 319 319 319 320 321 321 320 320 320 321 320 320 319 318 317 316 316 316 315 315 315 314 313 315 315 313 313 311 309 310 311 310 310 310 310 309 308 308 308 307 306 306 306 306 306 306 307 308 308 309 309 310
322 322 321 321 321 321 320 321 321 321 321 320 320 319 319 320 320 320 320 320 321 320 320 320 318 318 317 316 316 316 316 315 314 313 314 314 313 313 312 311 311 311 311 310 310 310 310 309 308 306 306 305 305 305 306 306 307 307 308 308 309 308 308
322 322 322 322 321 321 321 321 321 320 320 320 320 319 319 319 320 320 320 320 320 320 320 320 319 318 318 318 317 316 316 315 314 313 314 314 313 312 312 311 311 311 311 310 310 310 309 308 307 306 306 305 305 306 305 305 305 305 306 307 307 307 307
323 323 323 322 322 322 322 322 322 321 320 320 320 320 319 319 319 321 321 320 320 320 320 320 320 319 318 318 317 317 316 316 315 314 313 313 313 312 311 311 311 310 310 310 309 309 308 307 306 306 306 305 306 306 306 305 305 306 306 307 307 307 307
323 323 323 323 323 323 324 324 324 323 322 322 321 321 320 320 321 322 322 320 319 320 321 320 320 319 319 318 318 317 317 316 315 314 314 313 312 311 310 310 310 310 310 309 308 308 307 306 304 303 303 304 304 304 304 304 305 305 306 306 307 308 308
321 322 323 323 324 324 324 325 324 322 322 323 323 322 322 322 323 322 321 321 320 320 321 321 320 320 319 318 318 318 317 316 315 314 313 313 312 311 310 310 310 309 309 308 308 307 306 304 302 300 298 298 299 301 301 302 302 303 304 305 306 306 307
318 318 320 321 323 323 323 324 324 323 323 324 324 324 323 323 323 321 321 321 321 320 321 321 320 320 319 319 319 318 317 316 315 314 313 312 311 310 310 309 309 308 308 307 307 306 305 303 301 299 297 296 297 299 300 301 302 303 303 304 304 305 305
315 315 316 318 319 321 321 323 324 323 324 325 325 325 324 323 322 322 322 322 321 321 321 320 320 320 320 319 319 318 317 316 315 314 313 312 311 310 309 309 308 308 307 306 305 304 303 302 301 300 299 298 297 298 298 299 300 300 301 302 303 303 303
312 313 314 314 315 316 317 319 320 321 323 324 324 324 324 324 323 322 322 321 320 320 320 320 320 320 320 319 318 318 317 315 314 313 313 312 311 310 309 308 307 306 306 305 304 303 303 302 301 300 300 300 299 299 299 298 299 299 299 300 301 301 301
310 311 312 312 313 313 314 314 316 317 319 321 322 323 324 324 324 323 323 322 321 320 320 319 320 320 320 319 317 317 316 315 314 313 312 310 309 308 307 306 306 305 305 304 303 303 302 302 301 301 302 302 301 301 300 300 300 299 299 299 299 299 300
310 310 310 311 311 311 312 313 313 314 316 317 319 321 322 323 324 323 322 322 321 320 320 320 319 319 319 318 316 316 315 313 312 311 310 308 307 306 306 305 304 304 303 302 302 302 302 302 302 303 303 303 302 302 302 301 301 300 300 299 299 299 300
310 310 310 310 310 311 311 312 312 313 314 315 316 318 320 321 321 321 321 321 321 321 320 319 317 317 316 316 315 314 312 311 310 308 307 306 305 305 304 303 303 302 302 302 302 302 302 302 303 303 302 302 301 301 301 301 301 301 300 300 299 299 300
310 310 310 310 311 311 311 311 311 312 314 314 315 316 318 319 319 319 319 320 319 319 316 314 312 313 313 313 312 311 309 307 307 305 304 304 304 303 303 302 302 302 302 302 302 302 302 302 302 301 301 300 299 299 299 299 300 300 300 300 300 300 300
310 310 310 311 311 311 311 311 312 312 313 314 315 315 316 317 318 318 318 318 318 315 311 308 308 309 310 310 309 308 306 305 304 304 303 302 302 302 302 302 302 302 302 302 302 302 301 301 300 299 299 298 298 298 298 298 298 298 298 299 299 299 299
309 310 310 311 311 311 311 311 312 312 313 314 315 315 315 316 317 317 317 316 314 311 306 305 306 307 307 307 306 305 304 303 303 302 301 301 301 301 302 302 302 302 302 302 301 301 300 299 299 298 298 297 297 297 297 297 297 297 297 297 297 297 297
309 309 310 311 311 311 311 311 312 312 313 313 314 315 315 315 314 314 313 312 310 307 304 302 303 304 304 304 304 302 301 301 300 300 300 300 300 301 301 301 301 301 301 301 300 299 298 298 297 296 296 296 296 296 296 296 296 296 296 296 296 295 295
310 310 310 311 311 311 311 311 312 312 312 313 314 313 313 312 310 308 308 308 307 306 302 300 300 301 301 301 301 300 300 299 298 298 298 299 299 300 300 300 299 299 299 299 298 298 297 296 295 294 294 294 294 295 295 295 295 294 294 294 294 294 293
310 311 311 311 312 312 312 312 312 312 313 313 312 310 309 308 306 304 304 304 303 303 301 299 298 299 300 299 298 298 298 298 297 298 298 299 299 298 298 298 298 299 299 298 297 296 295 294 294 293 292 292 292 293 294 293 293 292 292 292 292 291 292
309 310 311 311 311 311 312 312 312 312 313 311 309 308 307 306 304 302 301 301 300 299 299 298 298 299 299 299 296 294 295 295 297 297 297 297 296 297 297 298 298 298 298 297 296 295 294 294 293 292 291 291 291 291 291 291 291 291 290 290 291 290 291
309 309 309 310 310 310 311 310 311 312 312 309 307 306 305 304 302 300 298 297 297 296 297 298 298 298 297 295 293 292 292 293 295 295 295 295 296 297 297 298 298 297 296 296 295 294 293 292 292 291 291 291 291 291 291 291 290 290 290 290 290 290 291
308 308 308 309 309 309 309 310 311 312 310 307 306 305 303 302 300 298 296 295 295 295 295 295 295 294 292 291 291 292 292 293 293 293 293 294 295 296 297 297 297 296 296 295 294 293 292 292 292 292 292 292 291 291 291 291 291 290 291 291 291 291 291
308 308 308 308 309 309 310 311 312 311 308 306 305 303 302 301 300 299 298 296 295 294 293 292 291 291 291 292 293 293 294 294 294 294 294 295 295 296 296 296 296 295 295 294 293 293 292 292 292 292 292 292 292 292 292 291 291 291 291 291 291 291 291

ECMWFFLT1_925_thetae_039.txt.gz
Theta_e
322 321 321 321 321 320 321 321 320 320 319 319 319 318 317 317 315 315 315 315 313 312 312 314 316 317 317 317 317 319 321 323 325 324 324 326 326 327 328 327 326 326 325 326 328 330 333 334 331 330 328 326 327 327 329 330 329 328 328 328 329 329 330
321 321 321 321 320 320 320 321 320 319 318 317 316 315 315 315 315 315 315 314 314 313 311 312 315 317 317 317 315 316 318 319 320 319 319 320 321 322 324 325 325 325 325 325 325 325 329 332 333 333 329 327 327 325 324 325 325 325 326 326 326 327 329
321 320 320 320 320 321 320 319 318 317 317 316 315 315 315 315 314 314 316 317 317 317 316 316 317 318 317 318 318 316 316 317 317 316 315 316 317 318 320 322 324 325 324 324 323 323 324 326 327 327 324 324 326 324 323 321 319 320 321 321 321 323 326
321 320 319 320 320 320 319 318 317 316 316 316 316 316 316 315 315 315 316 317 317 318 318 318 319 319 319 319 319 318 317 318 319 317 315 316 316 316 317 317 318 319 319 319 318 318 318 320 322 321 317 318 320 319 321 320 318 317 317 317 317 317 319
321 319 318 320 321 320 319 319 318 316 316 316 317 317 315 315 316 315 315 316 317 317 318 318 316 315 316 316 316 316 315 316 319 319 317 316 316 316 316 316 315 315 316 316 316 316 316 317 318 317 315 316 318 317 317 318 318 318 317 317 316 315 315
320 319 317 320 320 319 319 320 319 317 317 317 317 317 315 314 316 315 314 313 315 315 316 316 315 314 314 312 313 315 313 312 314 317 318 317 316 315 315 315 315 315 315 315 316 317 316 315 315 315 315 315 316 316 315 315 316 317 318 319 318 317 318
320 318 317 320 320 319 319 320 319 318 318 317 317 317 315 315 316 316 315 312 311 312 312 315 316 316 315 313 313 314 312 308 307 310 316 317 316 316 315 314 314 315 314 314 315 316 315 315 314 315 315 314 314 314 312 313 314 315 315 317 319 319 319
320 319 318 320 319 319 319 320 319 319 318 317 318 317 315 316 317 317 316 312 309 308 310 314 316 316 315 314 312 311 311 309 307 306 310 315 316 315 314 312 311 313 314 313 313 314 314 314 314 314 314 315 317 316 313 312 313 313 312 313 317 318 316
320 319 319 320 319 319 319 320 320 320 319 319 319 318 316 316 317 317 316 314 312 310 308 312 315 315 315 314 312 312 313 314 314 310 309 313 315 314 314 311 310 312 313 311 310 311 313 313 313 312 312 313 317 318 317 317 316 313 312 312 313 313 313
321 320 319 320 320 319 319 319 319 320 320 319 319 319 317 317 318 318 316 315 314 312 311 313 315 314 315 315 314 314 316 316 316 314 311 311 312 313 313 312 310 310 310 309 308 308 310 312 311 310 310 310 313 316 318 320 319 314 312 313 312 312 311
321 321 320 320 319 319 320 319 318 320 320 319 319 319 318 318 318 319 318 317 316 314 313 314 316 315 314 316 315 314 316 316 314 313 313 312 311 311 313 312 310 308 309 310 309 307 308 309 308 308 309 309 310 312 313 316 318 315 312 313 313 312 312
320 320 320 320 319 319 320 319 318 318 319 319 319 319 319 318 318 319 319 319 317 316 315 314 315 315 314 315 315 314 315 315 312 313 315 313 310 310 311 312 311 308 308 310 309 307 308 308 307 307 307 307 308 310 310 312 315 314 311 311 311 310 310
320 319 319 321 320 318 319 320 319 318 319 319 319 319 319 318 318 319 319 319 319 318 317 314 315 316 315 314 315 315 315 314 313 315 315 312 311 311 310 310 311 309 308 309 308 308 308 308 308 307 307 307 307 308 307 309 311 311 308 307 308 307 307
322 321 320 321 320 318 318 319 319 319 318 318 319 319 319 319 319 319 319 319 319 319 319 317 315 315 315 314 315 315 315 314 314 316 314 313 312 312 311 311 311 309 308 307 307 308 309 308 308 307 307 307 306 306 306 306 307 307 305 304 305 305 305
324 323 322 322 322 320 320 320 320 321 320 319 319 318 319 319 319 320 320 320 320 319 320 319 317 316 315 315 315 315 315 314 314 315 315 313 312 312 312 312 311 311 309 307 306 307 308 307 308 308 307 306 305 305 305 305 306 306 306 305 306 306 306
323 322 322 321 321 321 321 321 321 321 320 320 320 319 319 320 320 320 321 320 320 320 320 319 319 317 316 315 315 315 315 315 314 314 315 314 313 313 312 310 310 311 310 308 307 308 308 308 308 308 306 305 305 305 305 305 306 306 306 306 306 306 306
322 322 322 320 320 321 320 320 320 321 320 320 320 320 320 320 321 321 321 321 320 320 320 320 319 319 318 316 316 315 315 315 315 314 314 315 314 313 312 310 309 310 310 309 309 309 309 309 308 307 306 305 305 305 305 305 305 305 306 306 305 305 305
322 322 322 321 320 321 320 320 320 320 320 320 320 320 320 320 320 321 321 321 320 321 320 320 320 319 318 317 316 316 315 315 315 314 313 314 315 313 313 312 310 310 311 310 310 309 309 309 308 307 305 304 304 305 304 304 304 305 305 305 305 305 305
323 322 321 321 321 321 320 320 320 319 319 320 320 320 320 320 320 319 320 320 320 320 320 320 320 319 319 318 317 317 316 315 316 315 314 314 314 313 313 312 311 311 311 310 309 309 309 308 307 306 304 302 302 303 304 303 303 303 303 303 303 304 304
322 321 320 320 320 320 320 320 320 319 319 320 320 320 319 319 319 319 319 319 319 320 319 319 319 320 319 318 317 317 316 316 316 316 314 313 313 313 312 311 311 311 310 310 309 309 309 308 307 305 304 302 300 299 299 299 299 300 301 301 302 302 303
321 321 322 321 321 321 321 321 321 321 321 321 321 321 321 321 321 320 320 320 320 320 320 320 319 320 320 319 318 318 317 316 316 315 314 313 313 313 311 311 310 310 310 309 309 308 308 307 306 305 304 302 299 297 296 296 297 299 300 301 301 301 301
318 319 320 320 321 322 322 322 322 322 322 322 322 322 322 322 322 321 321 321 321 321 321 321 319 320 320 319 318 319 318 317 316 315 314 313 313 312 311 310 310 310 309 309 308 308 307 307 306 305 303 301 299 298 297 297 297 298 298 299 299 299 299
316 316 316 316 318 320 321 322 321 321 320 321 322 323 323 323 323 322 322 321 321 322 322 321 321 320 320 319 319 319 319 318 316 315 314 313 312 311 311 310 310 309 309 308 308 307 307 306 305 303 302 300 300 300 300 299 299 299 299 298 298 298 298
313 313 313 314 315 317 318 319 320 320 321 321 322 322 323 323 323 323 322 322 322 322 322 322 322 321 321 320 319 319 318 318 316 315 314 313 312 311 311 310 310 309 308 308 307 306 305 304 303 302 301 301 301 301 300 300 300 300 300 299 299 299 299
310 310 311 311 312 312 313 314 316 317 319 321 321 322 323 323 323 323 323 323 323 322 322 322 321 321 320 320 320 318 317 317 316 314 313 313 312 311 310 310 309 308 307 306 305 304 303 302 302 302 302 302 302 302 301 300 300 300 300 300 299 299 299
309 309 310 310 310 310 310 311 311 312 314 315 317 320 323 324 323 323 323 324 323 323 322 321 321 320 319 319 320 318 317 316 315 314 313 312 311 310 310 309 307 306 305 305 304 303 302 302 302 302 303 303 303 302 301 301 300 300 300 300 299 299 299
308 309 310 310 310 310 310 310 310 310 311 311 312 314 319 322 323 322 322 323 323 322 321 321 320 320 319 319 319 318 316 315 314 312 311 311 310 308 307 306 306 305 304 304 303 302 302 301 301 302 302 302 302 301 300 300 299 298 298 298 299 299 299
309 309 309 309 309 309 309 309 310 310 311 311 311 312 315 319 321 322 322 322 322 321 321 320 319 319 318 318 317 316 314 312 311 309 308 308 307 306 305 305 305 304 303 302 302 302 302 301 302 302 302 301 300 299 299 298 297 297 297 297 298 297 297
309 309 309 310 309 310 310 310 310 310 311 311 312 312 313 316 318 320 320 320 320 319 318 317 316 315 315 314 314 313 312 311 309 307 306 306 305 305 304 304 303 303 302 302 302 302 302 302 302 301 300 299 299 298 298 297 296 296 297 297 296 296 296
309 309 309 309 309 310 310 310 311 311 311 311 312 313 313 314 316 318 318 318 318 316 314 313 312 312 311 311 311 311 309 309 308 306 305 304 304 303 303 302 302 302 302 302 302 302 302 301 300 299 298 298 297 296 296 296 295 295 296 296 296 295 295
308 308 309 309 310 310 311 311 311 311 311 311 312 312 313 313 314 315 316 315 315 314 312 310 309 309 309 309 309 308 306 305 304 303 303 301 301 301 301 301 301 301 301 301 301 301 300 299 298 297 296 295 295 294 294 294 294 294 293 294 294 294 294
308 309 309 309 310 310 310 311 311 311 311 311 312 312 312 312 312 312 313 313 312 312 311 308 306 307 307 306 306 306 304 303 301 300 299 299 300 300 299 299 299 299 299 299 298 298 297 296 296 295 294 293 293 293 293 292 292 291 291 291 291 291 291
308 309 309 310 310 311 311 311 311 311 312 312 312 311 311 311 310 310 310 310 309 309 309 306 303 304 304 304 304 303 302 302 300 299 298 299 299 298 298 298 297 297 297 297 296 296 295 295 294 294 293 292 292 292 292 291 291 291 291 291 291 291 291
308 309 309 310 310 310 310 310 310 311 311 311 310 310 309 308 308 307 306 306 306 305 305 304 302 301 302 302 303 302 302 301 300 299 298 298 298 297 297 297 297 297 296 296 295 295 295 294 293 293 292 292 292 292 292 291 291 291 291 291 291 291 291
307 308 308 308 308 308 308 308 308 309 310 309 309 309 307 306 306 304 303 302 302 301 301 301 300 300 300 301 301 300 299 298 297 296 296 295 296 296 297 297 296 296 296 295 295 295 294 293 293 292 292 292 292 292 292 292 292 292 292 292 292 291 291
307 308 308 308 308 308 307 307 308 309 309 309 308 307 305 305 304 302 300 299 299 298 298 299 299 299 299 298 296 295 294 294 294 294 294 294 295 296 296 296 296 296 295 295 295 294 293 293 292 292 292 292 292 292 292 292 292 292 292 292 292 292 292
307 307 307 307 307 307 308 309 310 309 309 309 308 306 304 304 303 301 298 296 296 297 298 297 297 296 295 293 293 293 293 294 294 294 295 295 295 295 296 295 295 295 295 295 294 293 293 293 292 293 292 292 292 292 291 291 291 291 292 292 292 292 292

ECMWFFLT1_925_thetae_042.txt.gz
Theta_e
321 321 321 322 323 322 322 321 320 319 318 319 319 318 315 314 314 314 313 312 313 315 316 316 317 319 320 321 322 325 326 326 325 325 326 326 326 326 327 327 326 326 326 326 327 328 332 334 331 328 326 325 326 328 329 329 329 328 329 328 329 329 331
321 321 321 322 322 322 321 319 319 318 316 316 316 316 315 314 314 314 312 311 311 312 314 315 316 317 317 318 320 322 323 322 321 321 321 321 323 324 325 325 325 325 324 324 324 324 328 331 332 329 323 320 323 325 326 326 325 325 325 325 326 327 329
321 321 321 322 321 320 319 319 319 317 314 314 315 314 314 314 314 314 314 314 314 313 313 315 315 315 314 316 318 319 319 318 317 317 317 317 319 321 323 324 324 324 321 319 319 321 323 323 325 322 317 316 320 321 321 321 321 321 321 322 322 322 325
320 321 320 320 321 320 319 318 318 315 314 313 314 314 314 315 316 316 316 316 317 315 315 316 316 316 315 315 316 317 316 315 315 316 316 316 317 317 319 319 319 318 317 316 315 317 318 319 321 319 315 315 317 317 317 317 317 318 319 321 321 321 322
321 320 319 319 320 319 318 317 316 315 315 314 313 313 313 315 316 316 316 317 318 316 315 315 315 315 314 313 315 317 317 315 315 316 316 315 316 316 315 315 316 316 316 316 316 315 316 316 318 316 313 315 317 315 314 315 316 316 318 321 321 320 319
320 319 318 320 320 319 317 315 316 315 316 314 313 312 312 313 315 316 316 316 317 316 314 314 312 311 309 308 310 315 318 317 316 315 315 315 314 315 314 314 315 315 316 316 315 315 314 313 313 313 313 314 315 314 313 313 314 314 317 317 317 316 316
319 317 319 321 319 318 316 314 315 315 314 313 311 310 311 312 313 314 315 316 316 315 315 315 314 311 309 306 306 308 312 315 317 316 315 314 314 313 313 314 314 314 314 315 314 313 313 313 313 313 313 313 313 312 311 312 312 313 314 313 312 313 313
319 317 319 321 319 318 316 315 314 313 311 311 310 310 312 313 313 312 311 313 314 314 315 315 315 314 310 306 305 305 305 308 313 316 315 314 314 312 311 312 314 313 312 312 313 313 312 312 311 312 313 315 317 315 311 312 312 311 312 312 311 312 311
319 316 319 320 318 318 318 316 315 313 311 312 311 311 314 315 314 313 309 308 310 312 315 315 315 315 313 309 307 308 308 307 308 313 315 314 313 312 310 310 311 310 308 308 311 312 312 311 310 310 311 312 318 319 316 317 316 312 311 311 311 312 310
318 316 317 318 318 318 318 318 317 316 314 314 313 312 314 315 314 313 310 308 308 310 314 315 314 314 314 312 310 310 311 311 309 310 314 314 313 312 310 308 307 307 306 306 309 311 310 309 309 309 309 309 312 315 317 320 319 314 311 310 310 309 307
319 317 316 317 318 319 319 319 318 318 317 316 316 314 314 314 315 314 312 310 308 309 312 314 314 314 314 314 314 312 313 314 312 310 311 312 312 311 311 309 307 307 307 306 307 308 308 307 307 307 308 308 308 310 312 315 317 314 310 308 307 306 305
319 318 317 318 319 318 319 319 319 319 319 318 318 317 316 316 316 315 314 314 312 310 311 312 314 314 314 314 314 313 314 314 313 311 311 311 310 311 312 310 308 308 308 308 307 308 307 307 307 307 307 307 306 307 307 309 312 311 308 305 304 305 305
319 319 319 319 319 319 319 319 319 319 319 319 318 318 317 317 317 317 316 316 316 314 313 312 313 314 314 314 314 314 314 314 312 312 313 312 310 310 311 310 309 308 308 308 307 308 308 307 307 307 307 306 305 305 305 306 307 307 305 305 305 305 305
320 320 319 319 319 320 319 319 319 319 319 319 319 318 318 318 317 317 317 317 317 317 316 314 313 314 314 314 314 314 314 314 313 313 314 313 311 310 309 310 310 308 308 307 308 308 308 307 308 307 306 305 305 305 305 305 305 305 305 305 305 305 304
320 320 320 320 319 319 319 319 318 319 318 319 319 318 318 318 318 318 318 318 318 317 318 317 316 315 314 314 314 314 315 315 314 314 314 314 313 311 310 310 311 310 309 307 306 307 308 308 308 307 306 305 304 304 305 305 305 305 305 305 304 304 303
321 321 321 321 320 319 320 320 318 318 318 318 319 319 318 318 319 319 319 319 319 318 318 318 318 317 316 315 314 314 314 315 314 314 314 315 314 312 312 311 311 311 310 309 307 307 307 308 308 307 307 305 303 303 304 304 304 304 304 304 303 303 302
321 322 322 322 321 320 320 320 319 319 319 319 319 319 319 319 319 319 319 319 319 319 319 319 319 319 318 317 316 315 315 315 315 314 314 314 314 313 313 312 311 310 310 310 309 308 307 308 308 308 307 305 302 301 301 301 302 302 302 302 302 301 300
322 321 321 321 320 319 320 319 320 320 320 320 320 319 320 320 320 319 319 319 320 320 320 320 319 319 319 319 318 317 315 315 315 315 314 314 314 314 314 313 311 309 310 310 310 309 308 308 308 308 307 305 303 302 301 299 299 299 299 299 299 299 298
321 321 320 321 321 319 318 319 320 320 319 319 320 319 319 320 320 320 320 320 320 320 320 320 319 319 319 319 318 317 316 316 315 315 315 314 314 313 314 314 312 310 310 310 310 310 309 309 308 307 307 305 304 304 301 298 297 296 296 297 297 297 297
322 321 321 322 322 320 319 320 320 320 319 319 319 319 320 320 320 320 320 320 320 320 320 320 320 320 320 319 318 318 317 316 315 315 315 315 314 314 314 314 313 311 311 310 310 310 309 309 308 307 306 305 305 303 300 298 298 298 298 298 298 299 299
322 322 321 321 322 321 320 320 320 320 320 320 320 320 320 320 320 320 319 319 319 319 320 319 320 319 319 319 319 318 317 316 316 315 315 315 314 314 314 313 312 312 312 311 310 310 309 308 307 307 306 305 304 302 300 300 300 300 300 300 300 300 300
319 319 320 321 321 321 321 321 321 321 320 320 320 321 321 321 321 321 321 321 320 320 320 320 319 319 320 319 319 319 318 317 316 316 315 315 314 314 313 313 312 312 311 310 310 310 309 308 307 306 306 305 303 301 300 301 301 301 301 301 300 300 300
316 316 317 317 318 319 319 320 320 320 320 320 321 321 321 322 322 322 322 322 322 322 321 320 320 320 320 320 319 319 319 318 317 317 317 315 315 314 313 312 312 311 311 310 309 309 309 307 307 306 305 303 301 301 302 302 301 300 300 300 300 299 299
317 316 316 316 316 317 318 319 320 320 320 320 321 321 321 322 322 322 323 323 323 323 322 321 321 321 321 321 320 320 319 319 318 318 318 316 315 313 313 312 311 311 310 310 309 309 308 307 306 305 303 302 301 301 302 302 301 300 300 299 299 299 298
312 312 313 312 312 313 313 315 316 316 316 316 317 318 319 320 321 322 323 323 323 323 323 322 322 321 321 320 320 320 319 318 318 318 318 317 315 313 312 311 310 310 309 309 308 308 307 306 306 304 302 302 302 302 302 302 301 301 300 299 298 298 298
309 309 310 309 310 309 309 310 310 311 312 312 312 314 315 317 319 321 323 323 323 323 322 322 322 321 320 319 319 320 319 319 318 317 317 316 314 312 311 310 310 309 308 308 307 306 306 305 304 302 302 302 302 302 302 301 300 299 298 297 297 297 297
307 307 308 308 308 309 308 309 310 310 310 311 311 312 313 314 315 319 321 323 323 322 321 321 321 320 320 319 319 319 318 318 317 316 316 313 311 310 310 309 309 308 307 306 305 304 304 303 302 302 301 302 301 301 300 299 298 298 297 297 297 297 297
308 308 308 308 308 309 309 309 309 310 310 310 310 311 311 312 313 316 319 322 323 322 321 320 320 320 319 319 318 318 317 316 316 315 314 312 310 309 309 308 307 306 304 304 303 303 302 302 302 302 301 301 301 300 299 298 298 297 297 296 296 296 296
308 308 309 309 309 310 310 310 309 310 310 310 311 311 310 311 311 313 317 320 322 322 321 319 319 318 318 317 316 315 315 313 312 312 311 309 308 308 307 306 305 304 303 302 302 302 302 302 302 302 301 300 299 299 298 297 297 296 296 296 296 295 295
308 308 308 309 309 309 309 310 310 311 311 311 311 311 311 311 311 312 314 317 320 320 319 317 316 315 315 314 314 313 311 310 309 308 307 306 307 307 306 305 303 303 302 302 302 302 302 302 301 300 299 298 297 297 297 296 296 295 295 294 294 293 293
307 308 308 308 309 309 309 310 310 310 310 311 310 310 311 311 311 312 313 316 318 317 316 314 312 312 312 312 312 311 310 309 307 306 305 304 303 304 304 303 302 302 302 302 302 301 301 300 299 298 297 296 296 295 295 294 294 293 293 293 292 292 292
307 307 308 308 309 309 310 310 310 310 311 311 310 310 310 310 311 312 313 315 315 315 313 311 309 309 310 309 309 310 309 308 307 304 303 302 301 300 301 300 300 301 301 300 300 299 298 297 296 296 296 295 294 294 293 293 292 292 292 292 292 292 292
307 307 308 309 309 310 310 310 310 310 310 310 311 310 310 310 311 311 312 312 313 312 311 309 307 306 307 307 307 307 306 305 304 301 300 300 299 299 298 298 298 298 298 298 297 296 296 296 296 295 294 294 293 292 292 292 292 292 292 292 292 292 292
306 307 307 308 309 309 309 309 308 307 308 309 309 310 310 310 310 310 310 310 309 309 308 307 305 304 304 304 304 304 303 302 301 300 299 298 298 298 297 297 297 296 296 296 296 296 295 295 294 293 293 292 292 292 292 292 292 291 291 291 291 291 291
306 306 307 308 308 308 307 307 307 307 307 308 308 309 309 309 309 309 308 307 306 306 304 304 303 302 302 302 302 302 302 302 300 299 298 298 297 297 297 297 296 296 296 296 296 295 294 293 293 292 292 292 292 292 292 291 291 291 290 290 290 291 291
306 306 307 307 307 307 307 307 307 307 307 308 308 308 308 307 307 307 306 304 303 302 301 301 301 301 301 301 300 299 299 299 297 297 297 297 296 296 296 296 296 296 295 295 294 293 293 292 292 292 292 292 292 291 291 291 290 290 290 290 290 290 290
306 306 306 307 307 307 307 307 307 308 308 308 308 307 306 305 305 305 304 302 300 299 299 299 299 299 299 298 296 295 295 295 295 295 295 295 295 295 295 295 295 295 294 293 293 293 293 293 293 293 292 292 291 290 290 290 290 290 290 290 290 290 290

ECMWFFLT1_925_thetae_045.txt.gz
Theta_e
320 320 322 322 321 321 321 320 320 320 319 318 316 315 315 315 314 315 317 319 319 318 318 319 320 322 323 325 326 326 325 325 325 326 326 327 328 328 328 327 326 325 325 326 326 327 331 332 329 325 323 324 327 327 328 329 328 329 328 327 327 327 327
318 318 322 322 321 322 321 320 319 318 318 318 317 315 314 314 312 310 311 314 316 315 316 317 318 319 321 322 324 324 322 321 321 322 322 323 325 326 327 325 324 323 322 323 324 324 326 329 329 325 319 320 324 323 322 324 325 325 324 323 324 325 325
317 319 322 322 322 322 320 319 317 316 315 316 315 314 314 313 311 309 310 312 313 313 314 315 315 317 318 320 321 320 319 318 317 318 318 320 322 324 324 324 323 320 318 318 320 320 319 321 323 320 315 316 320 317 315 317 320 322 322 321 322 322 322
317 320 322 322 321 321 319 318 316 315 314 315 315 314 314 314 312 312 312 313 313 312 312 313 313 314 317 317 317 316 316 317 317 317 317 318 320 321 321 320 319 317 316 315 316 316 316 317 320 318 313 314 317 314 313 316 317 319 319 316 316 317 317
317 319 321 321 321 319 318 317 315 313 314 314 314 315 315 314 314 314 314 313 312 311 309 309 309 311 314 316 315 315 314 315 316 316 316 316 316 317 317 317 316 316 315 315 314 315 314 315 316 315 312 314 316 313 312 313 314 313 313 311 311 311 312
317 319 320 320 320 318 318 317 315 313 313 313 314 315 315 315 314 314 315 313 312 312 310 308 307 307 310 313 315 315 314 314 315 315 315 315 315 315 315 315 315 315 315 314 314 313 313 312 312 312 311 312 314 312 311 312 312 312 311 310 309 308 309
318 319 319 318 317 316 317 317 314 312 313 313 313 314 315 315 314 314 314 314 313 313 313 311 309 307 306 309 312 314 315 315 314 314 314 313 313 314 314 314 314 314 314 313 313 312 312 311 311 311 311 311 310 310 311 311 311 311 312 312 308 305 306
318 319 318 315 314 315 316 315 313 312 312 312 312 313 313 314 315 314 313 313 312 312 313 313 312 309 305 305 306 310 314 316 314 314 313 312 311 312 313 313 312 312 312 312 311 311 311 310 310 310 310 311 312 310 309 310 311 310 310 310 309 304 304
319 319 318 315 314 316 315 313 312 312 311 311 311 311 312 313 313 312 313 314 313 312 313 314 314 312 308 306 305 306 310 314 314 314 313 312 310 309 310 309 308 309 310 311 310 309 309 308 308 309 308 310 312 314 315 314 312 310 308 306 306 304 304
320 319 317 315 317 318 315 312 311 311 310 310 309 310 311 312 313 312 311 312 313 312 313 314 314 314 311 309 308 307 308 311 313 313 313 312 310 308 307 307 306 307 308 309 308 307 307 307 307 307 307 307 308 313 318 317 313 311 308 305 305 305 304
320 319 316 315 317 318 316 313 312 311 310 309 308 309 310 312 313 312 310 309 310 311 313 314 313 313 313 312 311 310 310 311 311 312 312 311 311 310 308 306 307 307 307 307 307 307 307 307 306 306 306 305 305 307 310 311 312 310 306 305 305 305 304
320 319 317 315 317 318 316 315 315 314 313 311 311 310 310 311 312 312 312 310 309 310 312 314 313 313 313 313 313 312 311 311 310 310 310 310 310 310 309 307 307 307 307 307 307 307 307 306 306 306 305 305 305 305 305 306 308 307 305 305 305 304 303
320 319 317 315 317 317 316 317 318 317 316 316 315 314 313 313 312 312 313 312 311 309 311 312 313 313 314 313 313 313 312 312 311 310 311 310 309 309 309 307 307 308 308 308 308 308 307 307 306 305 305 304 304 304 304 304 305 305 304 304 303 303 302
320 319 316 314 315 316 317 318 318 318 319 318 317 317 316 316 315 315 315 314 314 312 312 312 311 313 314 314 313 314 313 313 313 312 312 312 310 309 308 309 309 308 307 307 307 307 307 307 307 306 305 303 302 302 302 302 303 303 303 302 301 300 299
319 318 317 316 317 317 318 318 318 319 319 318 318 318 318 317 317 317 317 316 316 315 315 314 313 313 313 314 314 314 314 314 314 313 313 313 312 310 308 309 311 310 308 307 306 307 307 307 307 307 306 304 301 301 301 300 300 301 301 300 299 298 297
319 318 317 317 318 319 318 318 319 319 318 319 318 318 318 318 318 317 317 317 317 317 317 317 316 315 314 314 314 314 314 314 314 314 313 313 314 313 310 310 311 310 309 309 308 307 306 306 306 307 306 305 303 303 302 300 298 298 298 298 297 296 296
320 318 318 318 319 319 319 319 319 319 319 319 319 318 318 318 318 317 317 318 318 318 318 318 318 317 316 316 315 315 314 314 314 314 314 313 314 314 313 312 311 310 310 310 309 308 307 307 306 306 306 305 304 304 303 302 299 297 297 297 297 297 298
320 319 319 319 320 319 319 319 319 319 319 319 318 318 318 318 318 318 317 318 318 318 318 318 318 318 318 318 317 317 316 314 314 314 314 314 314 314 314 313 312 311 310 309 309 309 308 308 308 307 306 305 304 304 304 303 300 299 298 299 299 299 299
320 320 320 320 320 320 320 319 319 319 318 318 317 317 319 319 318 318 318 318 318 318 319 318 318 319 319 318 318 318 317 316 315 315 314 314 314 314 314 314 313 312 310 310 310 310 309 309 308 307 306 305 305 304 304 303 301 300 300 300 300 300 300
320 320 320 320 320 319 319 318 318 319 319 319 318 318 319 319 319 319 318 318 318 318 318 319 319 319 319 319 319 318 318 317 317 316 315 315 314 314 314 314 314 313 312 310 310 310 310 309 309 308 306 305 305 305 304 302 301 301 301 301 301 300 300
320 319 319 320 319 319 319 318 318 319 320 320 319 319 319 318 318 318 317 318 318 318 318 319 319 320 320 319 319 319 319 318 318 317 316 315 315 314 314 313 313 314 313 312 311 311 310 309 308 308 306 306 306 304 303 301 301 302 301 301 301 300 300
320 319 319 319 319 319 319 319 318 318 319 319 319 319 318 318 318 318 318 318 318 318 319 319 320 319 319 319 319 319 319 319 319 318 317 316 315 315 315 314 313 313 314 313 312 311 310 309 308 307 307 306 305 303 301 301 302 302 301 301 300 300 299
320 320 320 320 320 320 320 319 319 319 319 320 320 320 319 319 319 318 318 319 319 319 320 320 320 320 319 319 319 319 319 319 319 318 317 316 316 315 315 314 314 313 313 313 312 311 310 308 308 307 306 306 304 302 301 301 302 301 301 301 300 299 298
320 320 321 320 319 319 319 319 319 320 321 321 321 321 321 320 320 319 320 320 320 321 322 322 321 321 320 320 320 319 319 319 318 318 317 316 316 316 316 315 314 313 313 312 311 310 309 308 307 306 306 305 303 302 302 302 301 301 301 300 299 298 297
315 315 315 314 313 313 314 314 315 315 316 316 316 317 317 318 319 319 320 321 321 322 323 322 322 321 321 320 320 320 319 319 319 318 317 317 317 317 317 315 314 313 312 311 310 309 308 307 306 306 305 304 302 302 302 302 301 300 299 299 298 297 297
310 310 310 309 309 309 310 310 310 310 311 311 311 311 312 313 315 317 318 320 321 322 323 322 322 321 321 320 320 319 319 319 319 319 318 318 317 317 317 314 312 311 310 309 309 308 307 306 305 305 304 303 302 302 301 301 300 300 299 298 297 297 297
308 308 308 308 308 308 309 309 309 310 310 310 310 310 310 311 312 313 314 316 319 322 322 322 322 321 320 320 319 319 319 319 318 318 318 317 316 316 314 312 311 310 309 308 307 306 305 304 304 303 303 302 301 301 301 300 300 299 298 297 297 296 296
307 308 308 308 308 309 309 309 309 309 309 309 309 309 309 310 310 310 311 313 316 319 321 322 321 320 319 318 318 317 317 317 317 317 316 315 314 313 311 310 309 308 307 306 305 304 304 304 303 303 302 301 301 300 300 299 299 298 297 297 296 296 295
308 308 308 308 308 309 309 309 309 309 310 310 310 310 310 310 310 310 310 311 312 316 319 321 320 318 317 316 316 316 316 316 315 313 312 311 309 308 308 308 307 306 305 304 304 303 303 303 302 302 302 301 301 300 299 298 297 296 296 295 294 294 293
307 308 308 308 309 309 309 309 310 310 310 310 310 310 310 310 310 310 310 311 311 313 316 318 318 316 315 314 314 314 314 313 312 310 308 307 306 305 305 305 306 305 304 304 303 302 303 302 302 302 301 301 300 299 297 296 296 295 294 293 293 292 292
306 307 307 307 308 309 309 309 309 309 310 310 310 310 309 309 309 310 310 311 312 314 315 316 315 314 313 312 312 313 312 311 309 308 307 306 305 305 304 304 304 304 303 303 302 302 302 302 301 301 299 299 298 297 296 295 294 293 293 292 292 292 292
306 306 307 307 308 309 309 309 310 309 310 310 310 310 310 310 310 310 310 311 312 313 314 313 313 312 311 311 311 310 310 309 307 306 306 305 305 304 304 303 303 303 303 302 301 300 300 299 299 298 297 296 295 294 294 293 293 292 292 292 291 291 291
306 306 306 307 308 309 309 309 309 309 309 308 309 308 309 309 309 309 310 310 311 312 311 310 310 309 309 309 309 309 309 308 307 305 304 304 303 302 302 301 301 301 301 300 299 299 298 297 297 296 295 294 293 293 292 292 292 291 291 291 290 290 290
306 306 306 307 307 308 308 308 308 307 307 307 307 307 307 307 308 308 309 310 310 310 308 308 307 306 306 306 306 307 308 308 307 305 303 302 301 301 300 299 299 298 298 298 298 297 296 296 295 294 293 293 292 292 292 292 291 291 290 290 290 290 290
306 306 306 306 307 307 307 307 307 307 307 306 306 307 307 307 308 308 308 309 308 307 306 305 304 303 303 303 303 303 304 304 304 303 302 301 300 300 299 298 297 296 297 297 296 295 294 294 293 293 293 292 292 292 291 291 290 290 290 290 290 290 290
305 305 306 306 306 307 307 307 307 307 306 307 307 307 307 307 307 307 307 307 306 305 303 302 302 302 302 302 302 302 302 302 301 301 301 300 299 298 297 297 296 296 296 296 295 294 293 293 293 292 292 292 291 291 290 290 290 290 290 290 290 289 289
305 305 305 305 306 306 306 306 306 306 306 307 307 307 307 307 306 306 306 305 304 302 301 301 300 301 301 301 302 302 301 300 299 299 299 299 298 297 296 296 296 295 295 294 293 293 293 293 292 292 292 291 291 290 290 290 290 290 289 289 289 289 289

ECMWFFLT1_925_thetae_048.txt.gz
Theta_e
323 323 321 321 320 320 320 319 319 318 318 317 317 317 316 316 316 318 321 323 322 320 320 320 322 323 324 326 325 325 325 325 326 327 326 326 327 327 327 326 325 325 326 326 326 327 329 329 325 323 321 321 322 323 326 327 326 325 324 324 325 325 325
322 321 321 320 320 320 320 319 319 318 317 316 315 314 314 314 313 314 318 320 319 318 317 318 319 321 323 324 323 322 322 321 323 325 326 326 326 326 326 324 322 322 323 324 322 321 324 327 326 321 317 316 316 318 321 323 322 322 321 321 321 321 322
321 320 321 320 320 320 320 319 318 318 318 316 314 313 313 311 309 311 314 315 314 314 315 316 317 319 321 322 321 319 318 318 318 320 322 324 325 325 324 322 319 319 319 318 317 318 318 319 320 318 314 314 315 315 315 315 315 314 315 315 316 317 319
320 320 320 321 320 320 319 318 316 316 316 315 314 313 312 310 309 309 310 311 311 312 313 315 316 318 319 319 318 317 317 317 317 317 319 322 322 321 320 318 317 316 315 314 314 316 316 316 318 317 313 313 313 311 310 308 307 308 309 310 312 313 315
320 318 319 321 320 320 319 317 315 314 314 314 314 314 313 313 311 310 311 312 312 311 312 313 314 316 316 316 315 315 315 316 315 316 317 317 318 317 316 316 315 314 314 313 313 313 313 314 317 315 312 312 312 311 310 309 307 306 306 308 309 309 310
320 317 317 320 321 320 319 316 313 314 314 314 315 315 314 314 313 313 313 313 312 310 308 309 312 315 316 315 314 314 315 315 315 314 315 314 315 315 315 314 314 313 312 311 311 311 311 311 311 312 311 311 311 311 311 310 310 308 305 305 306 306 307
320 317 316 319 320 320 318 315 313 313 314 314 315 315 315 315 314 315 314 314 313 312 309 308 309 312 314 315 315 314 314 314 313 313 313 313 313 314 314 313 312 312 310 310 310 309 309 308 309 310 310 310 310 310 310 309 309 310 307 304 304 304 304
321 318 316 318 320 319 317 315 313 312 313 314 314 315 315 315 314 315 315 314 314 313 312 310 307 307 308 311 313 313 314 313 312 312 311 311 312 312 312 311 311 310 310 309 309 308 308 307 307 308 308 310 310 309 309 308 307 307 307 305 303 302 302
321 318 317 318 319 318 317 316 314 312 312 313 313 314 314 315 314 314 314 314 314 313 314 313 310 307 305 306 308 310 312 313 312 311 309 308 308 308 308 309 309 309 308 308 307 307 307 307 306 306 306 309 309 310 311 311 309 307 305 304 303 301 300
321 318 316 318 319 317 316 316 314 313 312 312 312 313 313 313 313 313 312 313 314 314 314 314 313 311 309 307 306 307 310 312 312 311 309 306 306 306 306 307 308 308 307 307 306 306 306 306 305 305 305 305 306 312 316 314 309 307 304 303 302 299 298
320 318 316 318 317 315 315 315 314 312 313 312 311 311 311 311 311 311 310 311 312 312 314 315 314 313 312 311 309 308 309 310 310 311 310 308 306 305 306 306 307 307 307 306 306 306 306 306 305 305 304 303 303 307 311 311 309 306 304 302 300 298 297
319 317 317 318 317 314 313 314 312 311 312 311 310 309 309 310 310 309 310 309 309 310 311 313 314 314 313 313 312 311 311 310 309 309 309 309 308 306 306 307 306 307 307 306 306 306 306 306 305 304 302 302 302 302 304 306 307 305 303 301 298 296 297
318 318 318 319 317 315 313 312 312 311 311 311 310 309 309 310 310 310 311 312 311 310 309 311 313 313 313 313 313 313 312 312 310 309 309 309 309 307 306 306 307 307 307 307 307 307 306 306 305 303 302 301 302 301 301 302 303 304 302 300 297 297 297
319 318 319 319 317 316 315 314 313 314 314 314 313 312 312 312 312 313 313 314 315 313 311 311 311 312 313 313 313 313 313 313 312 311 311 310 310 308 307 308 307 307 307 307 307 307 306 306 306 304 303 302 302 302 302 301 300 300 300 298 297 298 299
320 319 320 319 318 317 317 316 316 316 317 317 317 316 315 315 314 315 315 315 316 316 315 314 312 312 313 313 313 313 313 313 313 313 312 312 311 309 308 309 309 308 306 305 306 307 306 306 306 304 303 303 303 303 303 303 301 300 299 298 299 300 300
320 320 320 320 319 318 318 318 316 317 318 318 318 317 317 317 317 316 316 316 316 316 316 316 315 314 314 313 313 313 314 314 313 313 313 313 313 311 310 309 310 309 308 307 307 307 306 306 305 305 304 303 304 304 305 306 306 303 301 301 301 301 300
320 320 320 320 319 318 318 317 316 317 318 318 318 318 318 318 317 317 317 317 317 317 317 317 317 317 316 315 314 314 314 314 313 314 314 313 313 313 312 311 311 310 309 309 308 307 307 307 306 305 305 304 304 304 304 306 307 306 304 302 301 301 300
321 320 320 320 318 318 318 318 317 318 318 318 318 318 319 319 318 318 318 318 318 318 318 317 317 318 318 317 317 316 315 314 314 314 314 314 314 313 313 313 312 312 310 310 309 308 308 307 307 307 305 304 304 304 303 303 304 305 304 303 301 301 300
320 320 319 319 318 318 318 318 318 319 318 318 319 318 319 319 318 318 318 317 318 318 318 318 318 318 318 318 317 317 317 315 315 315 315 314 314 313 313 314 313 313 312 311 310 309 309 308 308 307 306 305 305 304 303 302 302 303 304 303 301 301 300
320 319 319 318 318 318 319 319 319 319 319 318 318 318 318 318 318 318 318 318 318 318 318 317 317 317 318 318 317 317 318 316 316 316 317 316 315 314 314 314 313 313 313 313 311 310 309 309 308 308 307 305 305 304 304 302 302 303 303 302 302 301 300
319 319 318 318 318 318 319 318 318 318 319 319 319 319 319 319 319 319 318 318 318 318 318 317 317 318 318 318 318 318 318 317 316 317 318 318 317 316 316 315 314 314 313 313 313 312 310 310 309 308 307 306 305 305 304 303 302 303 302 302 301 301 300
319 319 319 319 319 318 318 318 318 318 318 319 319 319 319 318 318 318 318 318 318 318 317 318 318 318 319 318 318 318 318 318 318 318 318 319 318 317 316 316 315 314 314 314 313 313 312 310 309 309 307 306 306 306 305 303 302 302 302 301 300 300 299
320 319 319 318 318 319 319 319 319 318 318 319 319 318 318 318 319 319 319 319 318 318 319 319 319 319 319 319 319 318 318 318 319 319 318 318 318 318 316 316 315 315 314 314 313 313 312 310 309 308 307 306 306 305 304 302 302 302 302 301 300 299 298
319 318 318 317 317 317 317 318 319 319 319 319 319 319 318 318 318 319 320 319 319 320 320 320 320 320 320 320 320 319 319 319 320 319 319 318 318 317 316 316 315 314 314 313 312 312 311 309 308 307 306 305 305 304 303 302 302 302 301 300 299 298 297
317 317 316 315 314 314 315 316 316 317 317 316 315 315 315 315 316 317 318 319 319 320 321 321 321 321 321 321 320 320 319 320 319 319 319 319 318 318 317 316 316 316 315 314 312 311 309 308 307 306 305 305 304 303 302 302 302 301 300 299 298 298 297
314 313 312 310 310 311 311 312 312 312 312 312 311 312 312 313 313 314 314 315 317 319 320 321 321 321 321 320 319 319 319 319 319 319 319 318 318 318 318 317 317 317 315 314 312 310 309 307 306 305 304 303 303 302 302 302 301 300 299 298 298 297 297
309 309 309 308 308 309 309 309 310 310 310 310 310 310 310 310 310 311 311 311 312 315 318 320 321 321 320 319 318 318 317 317 318 318 318 318 318 317 317 316 315 314 313 312 310 308 307 306 305 304 303 303 302 302 301 301 300 299 298 298 297 296 296
308 308 308 308 308 308 309 309 309 309 309 309 309 309 309 309 309 309 309 309 308 309 312 316 319 320 319 318 317 316 316 316 317 317 317 316 316 316 315 313 312 310 310 308 307 305 305 304 303 303 303 302 302 301 300 299 299 298 297 296 295 295 294
308 308 308 308 309 308 309 309 309 309 309 309 309 310 309 309 309 309 309 308 308 308 309 312 316 318 318 316 316 315 314 315 315 315 315 314 313 312 311 310 309 308 307 305 304 303 304 304 303 303 303 302 301 300 299 298 297 296 295 295 294 294 293
307 308 308 308 309 309 309 309 309 309 309 309 309 309 309 309 309 309 309 308 309 309 310 312 314 316 315 314 314 314 313 314 314 313 312 310 309 308 307 307 307 306 304 303 303 303 303 303 303 303 302 301 300 299 298 297 296 295 294 294 293 293 292
307 307 308 308 308 309 309 309 309 309 309 309 309 309 309 309 309 309 308 308 308 308 310 312 313 314 313 313 313 313 313 313 312 311 309 307 305 305 304 304 304 304 304 303 303 303 303 303 303 302 302 301 299 297 296 295 294 293 293 292 292 292 291
306 306 306 307 307 308 309 309 309 309 309 309 309 309 308 308 308 308 308 307 308 309 310 312 312 312 311 311 311 311 311 311 310 308 307 305 304 303 302 302 302 303 303 303 303 303 302 302 301 300 299 298 297 295 294 294 293 292 292 292 291 291 291
305 306 305 306 307 308 309 309 308 308 308 307 307 307 307 307 306 307 307 308 309 309 310 310 311 311 310 310 310 309 309 309 309 307 306 305 304 303 302 302 301 301 301 301 301 300 300 300 299 298 296 295 294 293 293 292 292 292 291 291 291 290 290
306 306 305 306 306 307 307 307 307 307 307 306 306 306 306 306 306 307 307 308 309 309 309 309 309 309 309 309 308 308 307 308 308 307 305 304 304 303 302 301 301 300 300 299 299 298 297 297 296 295 294 294 293 292 292 292 291 291 291 290 290 290 290
306 305 305 306 306 306 306 307 306 306 306 306 306 305 306 306 306 307 307 308 308 308 308 307 307 307 306 306 306 306 305 305 305 305 304 303 302 301 300 300 299 299 298 297 297 296 296 295 294 293 293 292 292 292 291 291 291 290 290 290 289 289 289
305 305 306 305 305 306 306 306 306 306 306 306 306 305 306 306 307 307 307 307 307 307 307 306 305 304 304 303 303 303 303 304 304 303 303 301 300 299 298 297 297 297 296 296 295 295 294 293 293 293 292 292 291 291 291 290 290 289 289 289 289 288 288
305 305 305 305 305 306 306 305 306 306 305 305 305 305 306 306 307 307 307 307 306 306 306 305 303 303 302 302 302 302 302 303 302 302 301 300 299 298 297 296 296 295 295 294 294 293 293 293 292 292 292 291 291 290 290 289 289 289 288 288 288 288 288

ECMWFFLT1_925_thetae_051.txt.gz
Theta_e
325 323 322 321 320 320 320 320 320 319 319 319 318 317 317 316 316 319 323 323 321 319 319 321 323 324 325 325 324 324 324 326 327 327 328 328 328 328 327 326 324 324 325 325 326 328 329 327 323 321 320 321 322 323 323 322 321 320 320 320 321 323 325
324 323 321 320 319 319 319 318 318 318 317 317 316 316 315 314 315 320 322 321 317 317 317 319 321 323 324 322 320 320 319 321 323 326 327 327 327 327 326 325 323 322 322 322 322 325 327 326 322 322 321 318 316 315 314 314 314 315 317 317 318 320 321
322 322 321 320 319 319 318 318 318 318 316 316 315 313 312 310 312 316 317 315 313 314 315 317 319 321 321 319 317 317 317 317 320 324 326 326 326 325 324 323 323 322 321 321 322 324 324 323 321 320 319 316 313 312 311 311 311 311 312 313 314 315 316
322 321 320 320 319 319 319 319 318 317 316 315 313 312 309 308 309 311 311 309 310 311 314 316 318 318 318 317 316 316 316 317 319 322 323 322 322 320 318 319 319 319 319 320 321 322 323 321 320 319 317 313 312 311 310 309 309 309 309 309 309 309 309
321 321 320 319 320 320 319 318 316 316 315 313 313 312 310 309 308 307 307 307 307 309 311 313 315 316 316 315 315 315 315 316 316 318 318 317 317 316 315 315 315 316 316 315 316 320 322 321 319 318 316 313 312 311 310 309 308 307 307 307 307 307 308
321 320 319 319 319 320 319 317 314 314 314 313 313 313 312 311 309 308 308 306 306 306 308 311 313 314 314 313 314 315 314 314 314 315 315 315 315 314 314 313 313 313 312 312 313 316 319 320 319 317 316 315 314 312 312 311 308 307 306 305 305 306 305
321 320 319 318 318 319 320 317 313 314 314 314 314 314 314 313 311 311 310 308 307 306 306 308 311 313 314 313 314 314 313 313 313 313 313 313 313 313 312 311 311 311 310 310 311 312 315 318 318 317 316 316 315 313 312 311 310 309 306 304 304 304 304
321 320 318 317 317 318 319 316 313 313 314 315 315 315 314 315 314 313 313 312 312 310 307 306 308 311 313 313 313 313 312 312 310 310 311 312 312 311 311 310 310 310 309 308 309 309 311 313 316 317 316 315 314 313 312 310 309 308 306 304 302 303 302
322 320 318 317 316 317 318 315 312 313 314 315 315 315 315 315 315 314 314 314 314 313 312 309 307 308 309 311 312 312 312 310 308 307 307 308 309 309 309 309 309 308 307 307 307 306 306 309 312 315 316 315 314 313 312 311 309 307 305 304 302 301 301
322 320 319 317 317 317 317 315 312 312 313 314 314 314 315 315 314 314 314 313 314 314 314 312 311 309 308 309 311 311 312 311 308 305 305 305 306 307 308 307 307 306 306 306 306 305 304 305 308 311 313 315 314 313 311 310 310 308 304 303 303 302 300
322 321 319 317 317 317 316 315 313 312 312 313 313 314 314 314 314 313 313 313 313 313 314 314 313 312 311 310 310 311 311 311 309 307 305 305 305 307 307 306 306 306 306 306 306 306 304 303 304 307 309 311 312 312 311 309 308 308 306 303 302 302 301
322 321 319 318 318 317 315 315 313 312 313 313 313 313 313 313 314 313 312 312 312 312 313 314 314 313 313 313 312 311 311 310 309 308 307 306 306 306 306 306 306 306 306 306 306 306 305 303 302 304 305 306 308 310 311 310 308 307 306 304 302 302 300
322 320 319 318 318 317 315 314 313 312 312 313 312 312 312 312 313 314 314 313 312 312 312 313 313 313 313 314 313 313 312 311 310 309 309 308 307 307 307 307 307 307 306 306 306 306 305 303 303 303 303 304 305 306 309 310 308 307 304 303 303 302 300
321 320 319 318 319 317 315 315 313 311 312 312 312 311 311 312 313 314 314 315 314 314 313 312 312 313 313 313 313 314 313 313 312 311 310 309 308 307 308 308 307 307 307 307 307 306 305 304 303 303 304 305 305 305 308 309 309 308 305 302 303 302 300
320 319 319 318 319 318 316 315 315 313 312 313 312 312 312 312 313 314 315 315 315 316 315 315 314 313 314 314 313 313 313 313 313 313 312 311 310 308 308 308 308 307 307 306 307 306 305 305 305 304 304 305 306 307 308 310 310 310 307 304 304 303 301
319 319 318 319 319 318 317 316 316 315 315 315 314 314 314 315 316 316 317 316 316 317 316 317 316 316 316 315 315 315 314 314 314 313 313 313 312 310 309 309 309 308 307 306 307 306 306 306 305 305 304 305 307 308 308 310 310 311 309 306 305 304 304
319 319 319 318 319 319 318 317 317 317 316 316 317 317 317 317 317 317 317 317 317 317 317 318 317 317 317 317 317 317 317 316 315 314 314 314 313 312 311 310 310 309 309 308 308 307 306 306 305 305 304 305 306 307 308 309 309 310 310 308 306 304 304
320 319 319 319 319 320 319 317 318 318 317 317 317 318 318 318 318 318 318 318 318 318 317 318 318 317 317 318 317 317 317 317 317 317 316 315 314 313 313 312 311 310 310 309 309 308 307 307 306 306 305 305 306 306 307 307 307 308 309 309 306 304 303
320 320 319 319 319 320 319 318 317 318 318 318 318 318 318 318 318 318 318 318 318 318 318 317 318 317 318 318 317 318 318 318 317 317 317 317 316 315 314 313 313 312 311 310 310 309 308 307 307 307 306 306 305 306 306 306 306 307 308 308 307 306 304
320 320 320 319 318 319 318 318 318 318 318 318 318 318 318 318 318 318 318 318 318 318 318 318 318 318 317 317 317 318 318 318 317 318 317 317 317 316 315 314 314 313 312 312 311 310 309 308 308 308 307 306 306 305 305 305 306 307 307 307 307 306 305
320 320 319 318 318 318 318 318 318 319 319 319 319 318 318 318 319 318 318 318 318 318 318 318 317 317 317 317 318 318 318 318 318 318 318 318 318 318 316 315 314 313 312 313 312 311 311 310 308 308 307 307 306 306 306 305 306 306 307 307 307 305 304
319 319 318 318 318 318 318 319 319 319 319 318 318 319 319 319 319 318 318 318 319 318 318 318 318 318 318 318 318 319 319 319 319 318 318 319 318 318 317 316 314 313 313 313 313 313 312 311 310 309 308 307 306 305 305 305 306 306 307 307 307 305 304
319 319 318 318 318 318 318 318 318 318 318 318 318 319 319 318 318 319 319 319 319 319 319 319 319 319 319 319 320 320 320 320 320 319 319 319 319 318 318 317 316 315 314 313 313 313 312 311 311 310 309 308 306 305 305 305 306 306 307 307 306 304 303
319 319 319 319 318 318 318 317 318 318 318 318 318 318 318 319 319 319 320 319 319 319 319 319 320 321 321 320 320 320 320 320 320 320 319 319 318 318 318 318 317 316 315 314 313 313 312 311 311 310 308 306 305 304 304 305 305 305 306 305 303 302 302
318 318 318 318 317 317 317 317 318 319 319 319 319 319 319 318 318 317 317 318 318 320 320 320 321 321 321 319 318 318 318 319 319 319 319 318 318 318 318 318 318 317 316 314 313 312 311 311 310 308 306 304 304 304 303 304 304 304 304 303 301 300 301
319 318 318 317 317 317 317 317 318 319 319 318 317 316 315 314 313 312 312 312 314 316 319 321 322 321 320 318 318 317 317 317 317 317 318 318 318 318 317 317 317 316 316 314 313 311 310 309 307 305 304 304 303 303 303 303 303 303 302 301 300 300 299
317 316 315 315 315 315 315 316 316 316 314 313 312 311 311 310 309 309 308 308 308 310 315 319 320 321 320 319 318 317 316 315 315 315 316 316 317 316 316 316 315 314 314 312 311 310 308 306 305 303 303 303 303 303 303 302 301 301 300 299 299 299 297
312 310 310 311 311 312 312 312 311 311 310 310 309 309 309 309 308 308 307 307 307 307 310 313 316 318 319 318 317 317 315 314 314 314 315 315 314 314 314 314 313 312 311 310 310 308 306 304 303 303 303 303 302 302 301 301 300 299 298 297 296 296 295
308 308 308 309 309 309 309 309 309 309 309 309 309 309 309 309 308 308 307 306 306 306 307 310 312 315 316 317 316 315 314 314 314 314 313 312 311 311 310 310 310 309 309 308 307 306 304 303 303 303 303 302 302 301 300 299 298 297 296 295 294 294 293
308 308 308 309 309 308 309 309 309 309 309 309 309 309 309 308 308 307 307 306 306 305 307 309 311 313 315 315 315 314 313 313 313 312 311 310 309 309 308 308 308 307 306 305 304 303 303 303 303 303 303 302 301 299 298 297 296 295 294 294 293 293 292
307 308 308 309 309 309 309 309 309 309 309 309 309 308 308 308 308 307 307 307 306 305 307 309 311 313 313 313 313 313 313 313 312 310 309 308 307 306 306 305 305 304 303 303 302 302 302 302 302 303 302 301 299 297 296 295 294 294 293 293 293 292 291
306 306 307 307 307 308 308 309 309 309 309 309 309 309 308 308 307 306 306 306 305 306 308 309 311 312 312 312 312 312 312 311 310 309 308 306 304 304 303 303 302 302 303 302 302 302 301 301 301 301 300 299 298 296 294 293 293 293 293 293 293 292 292
305 305 306 306 306 306 307 308 309 309 309 308 308 307 307 306 305 305 305 306 306 308 309 310 311 311 311 311 311 311 311 310 309 308 307 305 303 302 301 301 301 301 302 301 301 301 300 300 299 298 297 297 297 295 294 293 293 293 293 293 293 292 292
305 305 305 306 306 306 308 308 308 308 308 307 306 306 305 305 305 305 306 307 307 308 309 309 310 310 310 310 310 310 310 309 308 307 306 305 303 302 301 301 300 300 300 300 299 299 299 298 297 296 295 295 295 294 293 293 292 292 292 293 292 292 292
305 305 305 305 306 307 308 308 307 307 306 306 306 306 305 305 305 306 307 307 308 308 308 308 309 309 309 309 309 308 307 307 306 306 305 304 303 302 302 300 299 298 297 297 297 297 296 296 295 294 293 293 293 292 292 292 292 292 292 292 292 292 292
305 306 306 306 306 306 307 307 306 306 306 306 305 305 305 305 306 306 307 307 307 307 307 308 307 307 308 308 308 307 306 305 305 305 304 303 303 302 300 299 298 297 296 296 296 295 295 294 294 293 292 292 292 291 291 291 291 291 292 291 291 292 292
305 305 305 306 306 306 306 306 306 306 306 306 306 305 305 305 306 306 306 306 306 307 306 306 306 306 306 306 305 305 304 304 304 304 303 302 301 300 298 297 297 296 296 295 294 294 293 293 292 292 292 291 291 291 291 291 291 291 291 291 291 291 291

ECMWFFLT1_925_thetae_054.txt.gz
Theta_e
328 329 328 326 325 324 323 323 323 323 322 322 322 323 323 323 324 324 323 323 321 321 321 322 323 325 326 326 326 327 327 328 329 330 330 331 330 330 330 330 330 329 330 331 330 329 328 328 326 326 326 324 323 323 323 323 322 322 323 323 325 326 326
328 327 326 325 324 323 323 323 322 322 321 321 322 321 321 321 322 322 321 320 319 319 319 321 323 324 325 324 324 324 325 326 328 329 329 329 329 329 329 328 328 328 328 330 331 330 329 328 327 325 324 323 321 319 319 319 319 319 319 319 320 321 322
327 326 325 324 323 323 322 323 322 321 320 320 320 320 319 319 320 320 319 319 319 320 321 322 322 322 322 322 322 323 324 325 326 326 327 328 327 327 326 326 325 325 326 328 330 330 329 328 327 326 324 322 320 318 316 315 316 316 316 317 317 318 319
327 326 325 323 322 322 322 322 321 321 320 319 319 318 318 319 319 319 319 319 320 320 321 321 320 319 320 320 321 322 323 323 324 325 325 324 324 323 323 322 322 322 323 324 327 327 328 328 325 323 322 320 318 317 314 314 314 314 314 315 315 316 316
328 326 325 323 323 322 322 321 320 320 319 318 317 317 318 319 318 318 318 318 319 320 319 319 319 318 318 319 320 321 322 322 322 322 322 322 321 320 320 319 318 318 318 319 322 324 325 326 324 322 320 318 317 315 314 313 313 313 313 313 314 314 315
327 326 324 324 323 322 321 320 319 318 318 318 318 317 318 319 317 317 317 316 317 318 318 318 318 318 317 318 318 319 319 320 320 320 320 320 319 318 318 317 315 315 314 315 318 321 322 322 322 321 319 318 317 316 314 313 312 311 311 311 312 313 313
328 327 325 324 323 321 320 319 318 318 318 318 318 318 318 319 317 316 315 315 316 316 317 318 317 318 317 315 316 317 318 318 318 318 318 317 317 317 316 314 313 313 313 313 315 318 320 320 320 319 319 319 319 317 315 314 313 311 309 309 309 310 311
328 327 325 323 322 321 319 318 318 318 318 318 318 318 319 319 318 317 317 316 315 315 316 317 317 317 316 315 315 316 316 316 316 317 316 316 316 316 315 314 313 313 313 312 312 314 317 319 320 319 318 318 317 317 316 314 312 311 309 307 307 307 308
327 327 325 323 322 322 319 318 319 319 319 319 318 318 319 319 318 318 318 318 317 315 316 317 316 316 316 315 314 315 314 313 314 315 314 315 315 315 315 314 312 312 312 312 311 312 315 317 319 318 318 317 317 316 315 314 312 310 309 308 307 306 306
327 326 326 324 323 322 319 318 319 320 319 319 319 319 320 320 319 318 318 318 318 317 316 316 316 316 316 315 315 315 314 313 313 313 313 314 314 314 313 313 312 312 312 311 311 312 313 315 316 318 317 317 316 316 315 315 314 311 309 308 308 307 305
327 326 325 324 323 321 320 319 319 320 319 319 319 319 320 320 319 319 318 318 319 318 317 317 317 317 316 316 316 315 314 313 313 313 313 313 313 313 313 312 312 312 312 311 311 311 312 313 314 315 315 315 315 315 315 315 314 312 309 308 308 308 306
326 326 324 323 323 321 320 319 318 319 319 319 319 319 319 319 318 319 319 318 319 318 318 318 318 318 317 316 316 316 316 315 314 314 313 313 313 313 313 312 312 311 312 312 310 310 311 311 311 312 313 314 314 315 314 314 312 311 310 310 309 308 307
326 326 324 322 322 321 319 318 317 318 319 319 318 319 318 318 318 318 318 318 318 318 318 318 319 319 319 319 318 317 316 316 315 314 313 313 313 313 313 313 312 312 312 311 310 310 310 310 311 310 311 312 313 313 313 313 312 311 311 311 310 308 308
326 325 324 322 322 321 320 319 319 318 318 318 318 319 319 318 318 318 318 318 319 319 319 319 319 319 319 319 319 318 317 317 317 316 314 313 313 313 313 313 312 312 312 311 311 309 309 310 310 310 311 311 312 313 313 313 313 313 312 311 311 310 309
325 324 323 322 323 323 321 320 320 319 318 319 318 318 318 318 318 319 319 319 319 320 320 320 320 320 320 320 320 319 319 319 318 318 317 316 314 314 314 314 313 313 313 312 311 310 310 309 309 310 312 312 314 315 315 315 315 315 313 312 312 311 310
325 324 323 323 323 323 321 320 320 319 319 318 318 317 318 319 319 320 320 320 320 321 321 321 321 321 321 321 321 320 320 320 319 319 319 318 316 315 315 315 315 314 313 313 313 311 310 310 310 310 312 314 315 315 316 316 315 315 315 314 313 312 312
324 325 325 324 324 323 322 321 320 319 320 319 319 319 319 320 320 321 321 321 321 321 321 322 322 321 322 322 322 321 321 321 321 320 319 319 318 317 317 316 316 316 315 315 314 313 312 311 310 311 313 314 315 315 316 316 315 315 316 315 314 313 313
324 325 325 325 324 324 324 322 320 320 320 320 320 321 321 321 321 321 322 321 321 322 322 322 322 322 322 322 322 322 322 321 321 321 320 320 319 318 318 317 317 317 315 315 316 315 313 312 311 311 313 314 314 315 315 315 316 315 316 315 314 313 312
325 325 325 326 325 324 324 323 321 321 322 321 322 322 322 322 322 321 321 321 321 322 322 322 322 322 322 322 322 322 322 322 322 322 322 321 320 320 319 319 318 317 317 316 316 316 315 313 313 312 312 313 313 314 314 315 315 315 315 315 314 313 312
325 325 326 326 325 325 325 324 323 322 322 322 323 323 323 323 323 322 322 322 322 322 322 322 323 322 323 323 323 323 323 323 322 322 322 321 321 321 320 320 319 319 318 317 316 316 316 314 313 313 313 313 312 313 314 314 314 315 315 315 314 314 313
325 325 326 326 326 325 324 324 323 322 321 322 323 323 323 324 324 323 323 323 323 323 323 323 323 323 323 323 323 323 323 323 322 322 322 321 321 321 320 320 320 319 320 319 317 317 317 315 314 314 313 312 312 312 313 313 314 314 314 314 314 313 313
324 325 325 325 325 325 324 324 324 322 322 323 324 323 324 324 323 323 323 324 323 323 323 323 323 323 322 323 323 323 323 323 323 322 323 323 322 321 321 321 321 320 320 318 316 316 316 314 314 313 313 312 312 312 313 313 313 312 313 314 314 313 313
324 324 324 324 324 324 324 324 324 323 323 324 324 324 324 324 323 323 323 324 324 324 323 322 321 320 320 321 323 323 323 323 324 323 323 323 323 322 322 321 321 319 318 317 315 314 314 313 313 313 312 312 312 311 312 312 312 312 312 313 313 312 312
323 323 323 323 323 324 323 323 323 322 321 322 322 324 324 323 323 323 324 324 324 323 322 321 320 320 320 320 321 322 323 323 322 322 322 322 322 321 321 321 321 320 318 316 315 314 313 313 313 312 311 310 310 309 310 311 311 311 311 311 311 310 310
323 322 323 323 322 322 321 319 319 318 317 319 320 321 322 323 323 323 323 323 323 322 321 320 321 321 321 319 317 319 321 320 320 320 320 319 319 319 319 320 319 319 318 316 315 315 313 313 313 311 310 309 308 307 307 308 309 309 309 309 309 309 309
322 322 322 321 320 320 318 318 318 318 319 320 320 320 322 323 322 322 323 322 322 322 321 321 321 321 319 318 316 316 319 319 318 318 319 318 318 318 318 318 318 318 317 316 315 314 313 312 312 311 309 308 305 304 304 305 306 306 306 307 307 308 307
322 321 321 320 319 319 319 320 320 320 320 320 319 319 320 320 319 318 318 318 319 319 320 321 322 320 319 318 316 316 317 319 318 317 317 317 317 317 318 317 317 317 316 315 314 313 311 310 309 308 307 305 303 303 303 304 304 304 304 304 304 304 304
318 318 319 319 319 319 319 320 319 319 319 318 317 317 317 315 313 313 314 315 315 314 315 317 320 320 319 319 317 316 317 317 317 316 315 315 315 315 316 316 316 315 315 314 313 311 309 307 307 307 306 305 304 304 304 303 303 303 302 302 302 302 302
314 315 316 316 317 317 318 317 316 316 316 315 314 314 315 313 312 312 314 315 314 311 309 311 315 317 318 318 316 316 316 315 315 315 314 313 313 313 313 314 314 313 312 310 309 308 308 308 308 308 307 306 305 304 303 303 303 302 301 300 299 299 299
312 313 313 313 314 314 315 315 314 314 313 313 313 313 313 313 312 313 313 313 314 312 309 308 311 313 315 315 315 314 315 314 314 314 312 312 311 310 309 311 311 311 308 307 306 306 306 308 308 307 307 306 304 303 302 301 300 299 298 297 296 295 294
311 311 312 312 313 313 313 312 312 312 312 312 313 312 312 312 312 312 312 310 311 311 309 307 310 312 313 313 313 314 313 313 313 312 311 311 309 307 307 307 308 308 306 304 304 303 304 306 308 307 306 306 305 303 301 299 299 298 297 297 296 296 295
310 310 311 312 312 312 312 312 312 312 311 311 312 311 311 311 311 311 310 307 306 310 311 309 310 312 312 312 313 313 312 312 312 311 310 309 308 306 305 304 305 305 304 303 303 302 303 305 307 306 305 305 305 304 301 300 300 299 299 299 298 297 297
310 310 310 311 311 310 311 311 311 311 311 310 311 310 310 310 310 310 310 308 307 311 312 311 310 311 312 312 312 312 311 311 311 310 309 308 308 306 304 303 303 303 302 302 302 302 302 303 304 304 304 304 304 303 301 300 299 297 297 299 298 298 298
309 309 309 309 310 308 308 308 308 309 310 310 310 310 310 310 309 309 309 310 310 310 311 311 310 310 311 311 311 312 311 310 309 309 308 308 307 307 305 302 301 301 301 301 301 301 301 300 300 301 301 300 300 298 297 298 298 296 296 298 298 297 298
310 309 309 310 310 308 308 308 308 308 309 310 310 310 310 309 308 308 308 309 310 309 308 308 309 309 310 310 310 311 310 310 309 308 308 307 306 306 305 302 301 301 300 299 299 299 299 298 298 298 297 296 295 294 294 296 297 297 297 298 297 297 297
310 310 310 310 310 310 310 311 310 310 310 310 310 310 309 308 307 307 308 308 309 309 308 307 307 307 308 309 309 310 309 308 308 308 307 306 306 305 303 301 300 300 298 298 298 298 297 297 296 295 295 294 293 292 293 295 296 296 296 296 296 297 297
309 310 310 310 309 310 310 311 310 310 310 309 309 309 309 307 307 307 307 307 307 308 308 307 306 305 306 307 308 309 308 307 306 307 306 306 305 304 302 300 299 298 297 297 297 296 296 295 294 294 293 292 292 293 294 296 296 296 296 296 296 296 297

ECMWFFLT1_925_thetae_057.txt.gz
Theta_e
328 328 328 327 325 324 324 324 324 324 324 324 325 325 325 325 325 325 324 324 323 323 324 325 326 326 326 327 327 328 328 329 331 330 330 330 328 328 331 331 331 331 330 328 329 330 328 328 328 327 326 325 324 323 323 323 323 323 323 324 325 325 325
328 327 326 325 325 325 325 323 322 323 324 324 323 323 322 322 322 321 321 322 322 321 323 324 325 325 325 325 325 326 327 327 328 329 329 329 328 328 329 329 329 329 329 328 329 330 328 328 327 326 325 324 322 322 321 321 321 321 321 321 322 323 323
326 325 324 324 325 325 324 323 322 322 322 322 321 321 321 320 320 320 320 322 323 322 322 322 322 322 321 322 324 325 326 325 326 326 326 326 326 326 325 326 326 325 326 327 328 328 327 328 327 326 326 325 322 321 320 319 319 319 319 320 321 321 322
326 325 324 324 323 323 323 323 323 321 320 320 319 320 319 319 320 320 321 321 322 322 321 320 319 319 320 322 323 324 324 324 324 324 324 323 323 322 321 321 321 321 322 324 326 327 327 328 327 326 325 324 322 320 319 318 317 318 318 318 319 319 319
326 324 324 323 323 323 323 323 323 321 319 318 318 319 319 319 319 319 320 320 321 321 319 319 318 319 320 321 321 322 322 322 322 322 321 321 321 319 318 318 317 316 317 320 322 324 326 327 326 324 323 321 320 319 318 317 316 316 316 317 318 318 317
326 324 323 323 323 322 322 322 321 319 318 318 318 319 319 319 319 318 319 319 320 320 320 319 319 318 318 319 319 320 320 319 319 319 319 319 319 318 317 316 315 314 314 317 320 322 323 324 322 322 321 320 319 317 316 316 315 314 314 315 317 317 317
325 324 323 323 323 322 321 320 319 318 318 318 318 319 319 318 317 318 318 318 318 318 319 319 318 317 316 316 317 318 318 319 318 318 318 318 318 317 316 315 314 314 314 315 318 320 321 321 320 320 319 319 318 317 315 314 313 313 313 313 314 315 315
326 324 323 323 322 320 320 320 319 319 318 318 319 319 318 317 317 317 317 317 318 318 318 318 317 317 315 315 316 316 316 317 317 316 317 318 317 317 316 314 314 314 314 313 315 318 319 320 319 319 319 318 317 316 316 314 312 312 312 311 311 312 312
326 324 323 323 322 320 320 320 320 319 319 319 319 320 318 318 318 317 317 317 318 318 318 317 317 317 316 315 316 315 314 315 316 315 316 317 316 316 315 314 313 313 314 314 314 315 318 319 318 319 318 317 316 316 315 314 313 312 311 311 310 310 310
326 325 323 323 322 320 321 321 320 320 319 318 320 320 319 319 318 318 318 318 318 318 317 317 317 317 316 316 316 315 315 315 315 315 315 315 316 316 315 314 314 313 313 314 314 315 317 318 318 318 317 317 317 317 316 315 314 313 312 311 310 309 309
326 325 324 323 322 320 321 321 321 321 320 319 319 320 320 320 319 318 319 319 319 319 318 318 318 317 317 317 316 315 316 316 316 315 315 315 315 315 315 314 314 314 314 313 314 314 315 315 316 316 316 316 316 317 317 316 314 314 313 311 310 310 309
327 326 325 324 322 320 321 321 321 321 320 319 319 320 320 320 319 319 319 319 320 319 319 319 319 318 318 317 318 317 317 317 316 315 315 315 315 315 315 314 314 314 314 313 313 314 314 314 314 314 315 315 316 316 316 316 315 314 313 312 311 311 311
328 327 325 324 322 321 321 321 321 321 320 319 319 319 319 319 319 319 319 319 320 320 320 320 320 319 319 319 319 319 318 318 317 316 315 315 315 315 315 314 314 315 314 313 312 312 313 313 313 313 314 314 315 315 315 315 315 314 314 313 312 312 312
329 327 325 323 322 321 321 320 321 321 320 319 319 319 318 318 318 318 318 318 320 320 321 321 321 321 321 321 320 320 320 320 319 318 316 316 316 316 316 315 314 314 315 313 313 312 312 312 313 313 313 314 314 315 315 315 315 315 315 314 313 313 313
329 327 325 324 322 321 320 320 320 320 319 319 319 319 318 318 318 318 318 319 319 320 321 321 322 322 322 322 322 321 321 321 320 320 319 318 317 316 316 316 315 315 316 315 314 313 312 312 312 313 314 315 315 316 316 316 316 317 316 315 315 314 314
328 328 327 325 322 321 320 320 319 319 320 319 318 318 318 318 318 319 319 319 320 320 321 322 322 322 323 322 323 322 322 322 322 322 321 320 318 317 318 318 318 317 317 317 316 314 313 312 313 313 315 316 317 317 317 317 317 317 317 316 315 315 315
329 328 328 327 324 321 320 321 320 319 319 319 318 318 319 319 319 320 320 320 321 321 321 322 322 323 323 323 323 323 323 323 323 322 322 321 320 319 319 319 319 319 318 318 318 316 315 314 313 313 314 316 317 317 317 317 317 317 317 317 316 315 315
329 329 329 328 326 322 321 321 321 319 319 318 318 318 319 319 320 320 320 320 321 321 321 322 322 323 323 323 323 323 323 322 323 323 322 322 321 321 320 320 320 319 318 318 318 317 316 315 314 314 315 316 317 317 317 317 318 318 318 318 317 316 316
329 329 327 327 326 323 321 320 320 320 320 318 318 319 319 320 321 321 321 321 321 321 321 322 322 322 322 323 323 323 323 323 323 323 323 322 322 322 321 321 321 320 319 319 319 319 318 316 315 316 316 316 316 317 317 317 318 318 318 318 317 316 316
327 328 327 327 327 324 322 321 319 319 319 319 319 320 320 320 321 321 321 320 321 321 322 321 321 322 322 322 322 323 323 324 324 323 323 323 323 322 322 322 322 321 320 320 319 319 319 318 316 316 316 316 315 316 317 317 317 317 317 317 317 316 315
324 327 327 327 326 324 323 322 319 318 319 319 320 320 321 322 322 322 321 321 320 321 322 322 322 322 322 322 323 324 324 324 324 323 323 323 323 322 323 322 322 322 321 321 320 320 320 319 318 316 316 316 315 315 315 316 316 316 316 316 316 316 315
323 326 327 326 326 326 325 324 322 320 320 320 320 321 322 322 322 322 321 322 322 322 323 322 322 323 324 324 324 324 323 322 321 321 322 322 322 323 323 323 323 322 322 322 321 320 319 319 318 317 317 316 315 315 315 316 315 314 314 315 316 315 315
324 326 326 325 325 325 325 325 325 323 322 322 323 323 323 323 323 322 322 323 324 324 324 323 323 323 323 323 323 321 321 321 320 320 321 321 322 322 322 323 323 322 322 321 320 319 318 318 317 317 317 316 315 315 316 315 314 313 314 314 315 314 314
325 325 324 325 325 324 323 323 324 324 324 324 323 323 322 320 321 321 322 323 323 323 324 324 322 321 320 320 321 321 321 321 321 321 321 321 321 321 321 322 322 322 321 320 319 318 317 316 315 315 315 314 314 315 316 314 314 314 314 314 314 313 313
325 323 323 324 323 323 322 322 322 323 324 323 322 322 322 320 319 320 322 322 320 321 322 322 320 320 319 318 320 321 321 320 320 320 320 320 319 319 319 321 322 321 321 320 319 319 317 315 314 313 313 313 313 313 313 313 314 313 313 313 312 312 312
324 322 322 322 321 320 321 321 321 321 322 323 322 323 324 324 322 322 322 321 320 320 321 320 320 320 318 316 317 319 319 318 318 318 319 318 318 318 318 318 319 320 319 318 318 318 317 315 314 313 312 312 312 310 310 311 311 310 310 311 310 311 311
323 323 322 321 320 319 320 321 320 320 321 322 322 322 323 324 322 320 319 319 318 319 320 321 321 320 317 315 316 317 317 317 317 317 317 317 317 317 318 317 317 318 318 317 316 316 316 314 312 311 311 310 309 308 308 308 307 307 308 308 308 309 309
322 322 321 320 320 320 320 321 320 320 321 321 321 321 320 320 319 317 316 317 317 318 318 320 321 320 318 317 316 316 317 316 316 317 316 315 315 316 317 316 315 316 316 316 315 315 314 312 311 310 310 308 307 307 307 306 305 306 306 306 306 306 306
318 319 319 319 318 318 319 320 319 319 320 319 319 318 317 316 316 315 315 315 315 313 311 314 318 319 319 318 317 316 315 315 315 316 315 315 315 315 315 315 315 315 315 314 314 313 313 312 312 311 311 310 309 308 306 305 305 305 305 304 304 303 302
316 316 316 316 317 317 317 317 317 317 316 316 316 316 314 314 314 314 314 314 313 310 306 306 309 313 316 317 315 314 315 314 314 315 314 314 313 312 312 314 314 313 312 311 311 311 311 311 311 311 311 310 309 307 305 304 304 304 303 302 301 301 300
313 314 314 315 315 315 315 315 315 314 314 314 314 313 313 313 312 313 313 313 314 312 306 302 304 307 310 312 311 313 314 314 314 314 312 312 311 309 310 311 311 311 309 308 309 309 309 310 310 310 310 310 309 308 306 304 303 303 302 302 301 301 300
312 312 313 313 313 313 314 313 313 313 313 313 313 312 312 312 311 312 313 311 311 313 309 303 303 305 307 307 308 312 314 313 313 313 311 311 310 308 308 308 308 307 306 306 306 307 308 308 309 309 309 308 308 308 306 304 304 304 303 303 303 302 301
311 311 312 312 312 312 312 312 312 312 312 312 312 311 310 311 311 311 312 310 309 313 312 306 304 306 308 308 308 310 313 312 312 311 310 309 309 308 306 306 305 305 305 305 305 305 305 306 307 307 307 307 307 307 306 304 304 303 301 301 301 301 301
311 311 311 311 311 311 311 311 311 311 311 311 311 310 310 311 310 311 312 310 310 313 313 309 306 306 308 309 308 309 311 312 310 310 310 308 309 308 306 305 304 304 304 304 303 303 303 304 305 305 305 305 303 303 303 302 302 301 301 301 301 301 301
311 311 311 311 311 311 311 310 310 310 310 310 310 310 310 310 310 310 310 310 311 312 311 309 307 307 308 309 308 307 310 311 310 309 309 307 307 307 305 304 304 304 303 303 302 302 302 301 302 302 302 301 301 300 299 298 299 300 300 300 300 300 300
311 311 312 311 311 311 311 310 310 310 310 310 310 310 310 309 309 310 309 309 310 311 310 308 307 307 307 307 307 307 308 309 308 307 308 308 307 306 305 304 303 303 302 301 300 300 300 300 299 299 298 298 297 296 295 296 298 299 299 299 299 299 299
309 310 311 311 312 312 311 311 311 310 310 310 310 311 311 309 308 309 309 308 309 310 309 308 306 305 304 304 305 307 308 308 305 304 307 308 307 306 305 304 303 302 301 300 299 298 298 298 298 297 296 295 294 294 295 297 299 299 299 299 299 299 299

ECMWFFLT1_925_thetae_060.txt.gz
Theta_e
329 328 326 325 325 325 325 325 324 325 325 325 325 325 325 325 325 324 324 323 323 324 325 326 326 326 326 327 328 328 328 328 329 328 328 329 329 328 328 328 329 329 329 330 330 330 330 329 327 324 322 322 322 322 323 324 324 324 325 325 325 326 326
329 327 326 325 325 324 324 324 325 324 324 324 323 323 322 321 321 321 323 323 323 323 324 324 323 324 325 326 327 326 326 326 327 327 327 327 326 327 327 327 329 329 329 330 329 329 328 329 327 325 323 322 321 321 321 322 323 323 323 324 324 324 324
327 326 325 325 325 324 323 323 324 323 322 322 321 321 320 320 321 322 323 323 322 321 321 320 321 322 325 325 325 325 325 324 324 324 324 323 322 322 322 323 326 327 329 330 330 328 328 328 327 326 324 322 321 320 320 320 322 322 323 323 322 322 322
325 325 325 325 325 325 323 322 322 322 321 321 320 320 320 320 321 322 322 322 320 319 319 319 321 322 323 323 323 323 323 323 322 322 321 320 319 318 317 317 319 321 325 328 328 328 327 327 327 325 323 321 320 320 319 319 320 320 320 321 320 319 319
324 324 325 324 324 323 323 323 321 320 320 320 319 319 319 319 320 321 321 321 320 319 318 319 319 320 320 321 320 320 320 320 320 320 319 318 317 316 315 315 316 318 323 325 325 325 326 327 327 324 322 320 319 318 318 318 319 319 319 319 319 318 317
324 324 323 324 324 323 324 323 320 318 319 320 319 319 319 319 319 320 320 320 320 320 319 318 317 318 319 319 319 319 318 319 319 318 317 317 316 315 314 315 315 316 319 322 323 324 324 325 324 322 320 319 318 317 317 316 317 317 317 317 317 317 316
324 323 324 323 323 324 323 322 319 318 319 319 319 319 319 319 318 318 319 319 319 319 319 317 315 316 317 317 317 317 317 317 318 317 317 317 316 314 314 314 314 314 316 318 321 323 322 322 322 320 319 319 318 316 314 314 314 314 316 316 316 315 315
324 324 324 324 323 323 322 320 319 319 319 319 319 318 317 318 318 318 318 318 318 318 317 316 315 315 315 315 316 316 316 316 316 316 317 316 315 314 313 314 314 314 314 316 318 320 319 319 318 318 319 321 320 316 313 312 312 312 313 313 313 313 313
324 323 323 323 322 321 320 320 319 319 319 320 319 317 317 317 317 317 318 318 318 318 317 317 316 316 315 315 315 316 316 316 316 316 316 316 315 314 314 314 314 313 314 315 318 318 318 318 318 318 318 318 319 319 317 315 313 311 311 311 311 311 310
324 323 323 323 322 320 321 320 319 319 320 320 318 317 317 317 317 317 318 318 318 317 317 317 317 317 316 315 315 315 316 316 316 316 316 316 315 314 314 314 314 314 314 315 316 316 316 317 317 316 317 316 317 320 319 318 317 313 311 311 310 310 310
325 324 323 322 321 320 321 320 320 319 319 320 319 318 318 318 318 318 318 318 318 317 318 317 317 317 316 316 316 316 316 316 315 316 316 315 315 315 314 314 314 313 313 314 314 314 314 315 315 315 317 316 317 318 317 317 318 314 310 311 310 310 310
326 324 323 323 321 321 321 320 321 320 320 320 319 319 319 319 319 319 319 319 319 319 319 318 318 318 317 317 317 317 316 316 315 315 315 314 315 315 314 315 315 314 313 313 313 314 313 314 314 314 315 315 315 317 315 315 317 316 311 311 311 310 311
326 324 323 322 321 321 322 321 321 320 319 320 320 320 320 319 319 320 319 320 319 319 319 319 319 319 319 319 318 318 318 317 316 316 316 315 316 315 314 314 314 314 314 312 312 313 313 313 313 314 314 314 315 316 314 314 316 315 313 312 312 312 312
326 325 324 323 321 321 322 322 321 320 319 320 320 320 320 319 319 319 319 319 319 320 320 320 320 321 321 320 320 319 319 319 318 317 316 316 317 316 315 314 315 315 314 313 313 312 312 313 313 313 314 315 315 315 315 314 315 314 313 314 314 313 313
326 326 325 323 321 321 322 322 322 321 320 320 320 320 320 319 319 319 319 319 319 320 321 321 321 322 322 322 321 321 321 320 320 319 318 318 317 317 317 317 316 316 315 315 315 313 313 313 313 314 316 316 316 317 316 316 316 315 315 315 314 314 314
326 327 325 324 321 321 321 322 322 321 319 319 320 319 319 319 319 319 318 319 320 320 321 322 322 322 323 322 322 322 322 322 322 321 320 319 318 318 318 318 317 317 318 318 316 314 313 314 314 315 316 316 317 317 317 317 317 317 316 315 315 315 315
326 327 326 324 322 322 321 321 322 321 320 320 319 319 318 318 319 319 318 319 320 320 321 321 322 323 323 323 323 323 322 323 322 322 322 320 319 319 319 320 319 318 319 319 317 316 315 314 314 315 315 316 317 317 316 317 318 318 317 317 316 315 316
326 327 326 324 322 321 320 320 321 320 320 320 319 319 319 318 319 318 319 319 320 320 321 322 322 323 323 322 323 322 322 323 323 323 322 322 321 320 320 320 320 319 319 319 318 318 316 315 315 316 316 317 317 317 317 317 317 318 318 318 317 317 316
325 326 326 324 322 321 320 320 319 319 320 319 318 319 319 318 319 320 320 320 320 320 321 322 322 322 322 322 322 322 322 322 322 322 321 321 321 321 320 321 320 320 320 319 319 319 318 316 316 316 316 317 317 317 317 317 317 317 318 317 317 317 316
324 325 326 325 323 323 321 320 320 320 319 319 318 319 319 319 319 320 319 320 320 321 321 322 322 321 322 322 322 321 321 321 321 321 321 321 321 321 321 321 321 321 320 320 320 320 319 318 317 316 316 316 317 317 317 317 317 317 317 317 316 316 316
323 323 325 326 325 324 322 321 321 320 320 319 318 318 319 319 319 321 321 320 319 320 321 321 321 321 322 322 321 321 321 320 320 320 321 320 320 321 321 320 320 321 321 321 321 320 320 320 319 317 316 316 316 316 316 316 316 316 315 315 315 315 316
324 323 323 323 323 323 322 320 320 320 320 319 318 319 319 320 321 322 323 320 319 320 320 320 320 320 320 320 321 322 321 321 320 320 321 320 320 321 320 319 320 321 321 321 321 320 320 320 319 318 318 318 317 316 316 316 316 315 314 314 314 315 315
325 324 323 321 322 323 322 320 319 320 321 319 319 322 321 321 322 322 321 320 320 320 320 320 321 321 319 320 322 322 320 319 319 320 320 320 320 320 319 319 321 322 322 322 322 321 320 320 318 318 318 318 317 316 316 316 316 315 314 314 315 315 314
323 323 322 322 323 323 322 320 320 322 324 323 323 323 322 322 322 321 320 320 320 319 319 320 322 322 321 321 321 320 319 320 320 319 319 319 319 319 318 319 321 322 322 321 320 320 320 319 318 317 317 317 316 316 317 316 315 315 315 315 315 314 313
322 322 322 321 322 322 322 322 322 323 325 325 324 323 322 321 320 320 320 321 321 320 319 319 321 321 320 319 319 319 320 321 320 319 319 318 319 319 319 320 321 322 322 321 319 319 319 318 317 316 316 316 315 314 315 315 315 314 313 313 313 312 312
320 321 321 321 321 321 321 322 323 323 324 324 322 322 322 321 319 319 321 320 318 318 318 318 320 320 318 318 319 320 320 319 318 319 319 318 318 318 318 319 321 321 320 319 318 318 318 316 316 315 314 314 314 313 313 313 313 312 312 311 311 311 311
320 320 320 320 320 320 320 322 322 322 323 323 322 322 322 321 320 320 320 319 316 316 318 319 320 319 317 317 318 318 317 317 317 317 316 316 317 317 316 317 319 319 318 317 317 317 316 314 314 314 312 311 311 311 310 311 311 310 309 309 309 309 309
320 320 320 320 320 321 321 321 321 321 322 323 323 323 322 320 318 319 320 318 315 315 316 319 320 318 316 316 316 316 316 317 317 316 315 316 317 317 316 315 317 317 317 316 316 315 314 312 312 312 310 309 308 308 307 308 308 308 307 307 307 308 307
321 321 320 320 320 321 321 321 320 321 322 322 322 321 320 318 316 317 318 315 314 315 316 318 320 319 316 316 316 315 316 316 316 315 316 316 315 315 315 315 316 316 315 315 314 314 313 312 312 312 310 309 309 308 307 307 306 306 306 306 306 306 305
319 319 319 319 320 320 320 320 320 321 321 321 320 318 317 317 316 317 316 314 312 314 314 315 318 319 318 317 314 314 315 315 315 314 314 313 311 311 313 315 314 313 312 312 313 313 312 312 312 311 311 310 309 309 308 307 305 305 305 305 304 304 303
316 316 317 317 318 319 319 319 319 319 318 318 317 316 315 315 316 316 315 312 308 307 307 308 310 313 315 313 310 312 315 315 314 313 312 311 309 308 311 313 311 309 307 308 310 311 311 311 310 311 311 310 310 309 308 307 306 305 305 304 304 303 302
313 314 315 316 316 316 316 316 316 316 316 316 315 314 314 314 314 314 314 312 308 305 303 304 304 305 307 306 307 312 315 314 314 313 311 310 309 308 308 309 308 306 306 306 308 310 310 309 308 309 310 309 308 308 307 307 306 306 305 304 303 302 302
311 311 313 314 314 314 314 314 314 314 314 314 313 313 313 313 313 314 313 313 313 310 305 302 303 303 303 302 304 310 314 314 313 312 311 310 309 307 307 307 306 306 305 305 306 307 308 307 307 307 308 307 306 306 305 304 304 305 304 303 302 302 301
311 311 312 312 313 312 312 312 313 312 312 312 312 311 311 311 312 313 312 310 312 314 309 304 302 303 302 302 303 307 312 313 312 311 311 310 309 307 307 306 306 305 305 304 304 305 305 305 305 306 305 305 304 303 303 302 302 302 302 302 302 301 301
311 311 312 312 312 312 311 311 312 311 311 311 311 311 311 311 311 312 312 309 311 314 313 307 303 303 303 303 303 306 310 312 311 310 309 309 308 308 306 306 306 305 304 304 304 304 305 304 304 304 304 303 302 302 302 302 301 300 301 301 301 300 300
309 310 311 312 312 312 312 311 311 311 310 310 310 310 311 311 311 311 311 311 311 314 313 308 304 304 304 304 304 305 309 311 309 308 308 308 307 308 307 306 305 304 304 303 303 303 303 303 303 302 302 302 301 301 300 300 299 299 299 300 300 299 299
308 309 309 311 312 312 312 311 311 311 310 310 310 310 310 311 311 310 310 311 311 313 312 307 305 306 306 305 305 305 307 308 307 306 307 308 307 306 306 305 303 303 302 302 302 302 302 301 301 301 300 299 298 297 296 297 298 299 299 299 299 299 299

ECMWFFLT1_925_thetae_063.txt.gz
Theta_e
326 325 325 325 326 326 325 325 325 325 325 325 325 325 326 326 325 324 324 324 325 325 326 327 327 327 327 328 328 328 328 328 328 328 328 328 328 328 329 329 329 330 328 327 327 326 325 324 323 323 323 324 324 325 325 326 326 326 326 327 327 327 327
326 325 325 326 326 325 324 325 325 324 324 324 324 324 324 325 324 323 324 325 325 325 324 325 326 327 326 327 327 327 327 327 327 327 326 327 327 327 327 328 329 329 328 327 326 323 322 323 324 323 322 322 322 323 324 324 325 324 324 325 325 325 325
326 326 326 326 325 324 324 324 324 324 323 322 322 321 321 322 323 322 323 324 323 322 322 322 324 326 325 325 325 325 325 325 325 323 320 320 322 324 327 328 329 329 329 327 325 324 323 322 323 322 321 321 321 322 323 324 324 323 322 323 323 324 324
325 325 324 324 324 324 324 323 323 322 322 321 320 320 321 322 322 320 320 321 320 320 322 322 323 324 323 323 324 323 322 321 320 319 316 316 316 319 323 325 327 328 328 327 325 324 324 322 322 322 320 320 320 321 323 323 322 321 320 320 321 321 321
325 324 323 324 324 324 323 322 322 321 320 320 320 321 321 322 321 319 319 319 319 321 322 322 322 322 321 321 321 321 321 319 317 316 315 314 315 315 318 321 325 326 327 327 325 325 324 322 322 321 319 320 320 321 322 322 321 319 318 317 317 316 315
324 324 324 324 323 322 322 322 321 320 319 319 320 320 321 321 320 320 319 318 318 319 319 319 320 319 319 319 318 318 318 317 316 315 314 314 314 314 315 318 322 324 325 326 325 324 323 322 320 319 319 319 318 319 320 320 319 318 317 316 316 315 312
324 325 325 323 322 322 322 321 320 319 319 318 319 319 320 320 320 319 319 318 317 317 318 318 318 318 317 317 316 316 316 316 314 314 314 313 313 314 314 316 318 320 322 325 326 324 322 321 320 318 318 318 318 317 318 317 317 316 316 315 316 315 311
324 324 324 323 322 322 320 319 319 319 318 318 319 319 319 319 319 318 319 317 315 315 317 316 316 316 315 315 315 315 314 314 314 313 313 313 313 313 314 315 316 317 318 321 323 324 323 321 318 317 317 317 316 314 313 314 315 315 315 315 314 313 310
323 323 323 322 323 322 320 318 319 319 319 319 319 318 318 317 317 317 317 316 315 314 315 315 315 316 316 316 316 315 315 315 314 314 313 313 312 312 312 314 316 316 315 315 317 320 321 321 317 316 316 315 313 312 312 312 312 312 313 313 311 309 308
323 323 323 323 323 321 319 318 318 319 319 318 317 317 317 317 317 317 317 316 315 315 315 315 315 315 315 315 315 315 315 315 314 314 314 313 313 312 312 313 314 315 314 314 314 315 317 318 317 316 316 314 311 312 315 315 311 310 311 311 310 309 308
323 323 323 323 322 320 319 318 319 319 318 317 316 316 316 317 318 318 317 317 316 316 316 315 314 314 314 314 315 315 314 314 314 314 314 314 313 313 312 312 313 314 314 313 313 314 315 316 316 316 316 313 311 312 314 316 315 311 309 310 310 309 308
323 323 323 321 321 320 319 318 319 319 318 316 315 316 317 318 318 317 317 317 317 317 317 316 315 315 316 316 315 315 314 313 313 313 314 314 314 314 313 313 312 313 313 313 313 314 314 314 315 315 315 313 311 312 311 313 316 313 310 310 310 309 309
323 323 322 320 320 320 319 319 319 319 318 316 317 317 318 318 317 318 318 318 318 317 317 317 317 317 317 316 315 315 315 315 314 315 315 314 313 314 314 313 313 312 312 312 313 313 313 314 314 315 315 313 312 312 311 312 314 313 311 310 310 310 309
324 322 321 320 321 320 320 319 319 319 318 318 318 318 318 318 318 319 319 318 318 318 318 318 318 319 318 317 317 317 316 316 316 316 316 315 314 314 313 313 313 313 313 312 312 313 313 313 314 314 314 313 312 313 312 312 312 312 312 312 312 312 310
324 323 321 320 321 321 320 320 319 318 318 319 319 319 319 319 319 319 319 319 319 320 320 320 320 321 320 319 320 320 318 317 317 317 317 316 316 316 315 314 314 314 314 314 313 313 313 314 315 316 315 314 313 312 312 312 312 313 314 313 313 313 312
325 324 322 321 321 322 321 320 319 319 319 320 320 319 319 319 319 319 319 319 320 321 321 321 322 322 321 321 322 321 320 320 320 320 319 317 317 318 317 317 316 316 316 315 314 313 314 315 316 316 316 316 315 315 314 313 313 313 314 314 314 313 313
326 325 323 322 322 322 322 321 320 319 319 320 320 319 319 319 318 318 319 319 320 321 321 321 322 322 322 322 322 322 322 322 322 322 320 318 318 319 319 318 318 318 317 316 316 315 314 316 316 316 317 316 316 317 317 316 314 314 314 314 314 315 315
325 325 324 324 323 323 322 322 321 319 319 319 319 319 319 318 319 318 318 319 319 320 321 321 322 323 322 322 322 321 322 322 322 322 321 320 320 320 320 319 319 319 318 318 318 316 315 316 316 316 317 317 317 317 317 317 316 316 315 315 315 316 316
324 326 326 325 324 323 322 322 322 320 320 319 319 319 318 318 318 318 318 319 320 320 321 321 322 322 322 322 322 321 321 321 321 322 321 321 320 320 320 319 319 319 319 319 319 318 316 317 316 316 317 317 317 317 317 317 317 317 316 316 315 316 316
323 325 326 325 324 322 321 322 321 320 320 319 318 319 319 318 318 319 319 319 320 321 321 322 322 322 321 322 322 321 321 321 320 321 321 321 320 320 320 319 319 319 319 319 320 319 318 317 317 316 316 316 317 317 317 317 317 317 316 316 315 316 316
323 323 324 324 322 321 321 321 321 320 320 319 318 319 319 318 319 320 319 319 319 320 320 321 321 321 321 320 320 321 320 320 320 320 320 320 319 319 320 320 319 319 320 320 320 320 318 318 318 317 316 316 316 316 316 316 316 316 315 315 315 315 315
323 322 324 324 322 322 322 321 320 320 320 319 318 318 319 319 319 320 320 319 319 319 320 321 321 320 319 318 319 321 321 319 319 319 320 320 319 319 320 320 319 319 320 321 320 320 319 319 319 318 317 317 316 316 315 315 315 314 314 314 315 314 314
323 322 322 323 323 323 322 320 320 320 320 319 319 318 319 319 319 320 321 320 319 319 320 320 319 319 318 317 319 321 320 318 318 319 320 320 320 320 320 320 320 321 321 321 321 320 320 319 319 318 318 317 317 316 316 315 315 314 314 314 314 314 313
323 322 322 322 323 322 320 320 320 319 319 320 320 319 319 320 320 321 321 320 320 319 319 319 319 318 319 319 320 320 318 318 319 319 319 319 319 319 319 320 321 321 321 321 320 320 320 319 319 318 318 317 317 316 316 315 314 314 314 314 313 312 312
322 322 321 321 322 321 320 319 318 319 320 321 321 321 320 320 321 321 321 320 320 319 319 319 319 319 319 319 320 319 318 318 319 318 318 319 319 318 319 321 321 321 321 320 318 318 318 317 317 317 317 316 316 315 315 315 314 314 313 313 312 311 310
320 321 321 321 321 321 320 319 318 321 323 323 323 322 322 321 321 321 321 321 320 320 319 319 319 318 317 318 319 319 318 318 318 318 318 318 319 319 320 321 321 320 320 319 317 317 316 314 314 315 315 315 314 314 313 313 313 313 312 312 311 310 309
320 320 321 321 321 320 320 320 321 323 324 323 322 322 321 320 320 320 320 319 320 320 319 318 318 317 317 318 318 319 318 318 318 318 318 317 318 319 320 321 320 318 317 317 317 316 313 312 312 313 313 313 313 312 312 312 311 311 311 310 310 310 309
320 320 321 321 320 319 320 321 322 323 323 322 322 321 320 319 319 318 318 318 318 318 317 317 317 317 317 318 318 317 317 317 317 316 317 316 316 317 320 320 318 316 316 316 315 314 312 311 311 311 311 311 310 310 310 309 308 308 308 308 308 307 307
320 320 320 320 319 319 320 321 322 321 322 322 321 320 319 320 319 318 317 317 317 317 317 318 318 317 317 317 317 317 317 316 315 315 316 316 315 315 317 318 317 316 316 315 314 313 312 312 311 310 310 309 309 308 308 307 306 306 306 305 305 305 305
320 320 320 320 320 320 320 320 320 320 321 322 321 320 320 320 319 318 318 318 317 316 318 319 317 316 316 316 315 316 317 316 315 315 315 315 315 315 316 316 316 315 314 314 313 312 312 311 311 310 310 310 309 308 308 306 305 305 305 305 305 304 304
320 319 319 319 320 320 320 320 320 320 321 321 320 320 319 318 317 317 317 317 315 314 315 317 317 315 316 315 315 316 316 315 315 315 314 312 312 313 315 314 312 310 310 311 312 312 311 311 311 311 310 310 309 308 307 306 305 305 305 304 304 303 303
318 318 319 319 320 320 320 320 320 321 320 319 319 318 317 316 315 315 315 313 313 313 313 315 317 317 317 316 314 314 315 315 314 314 311 309 310 311 312 311 309 307 305 306 308 311 311 310 310 311 310 309 308 307 306 305 305 305 304 303 303 303 302
313 315 317 318 318 318 318 318 319 319 319 317 316 316 317 316 315 315 313 310 309 309 308 310 314 316 316 315 313 313 315 314 313 313 311 309 309 309 309 308 306 305 304 304 306 310 310 309 309 309 308 307 306 305 304 303 303 303 303 302 302 302 301
309 311 313 314 314 315 316 316 316 317 317 316 315 314 316 316 315 314 313 310 307 305 304 304 306 308 311 312 310 312 314 313 312 312 311 309 309 308 307 306 305 305 304 304 304 307 309 308 308 307 306 306 305 304 304 303 303 303 303 302 301 301 300
306 308 309 311 311 312 313 314 314 314 314 314 314 313 314 315 315 314 313 312 310 308 306 304 303 303 305 306 306 309 312 313 312 312 311 310 309 307 306 306 305 304 304 303 303 303 304 304 305 305 305 304 303 303 303 303 302 302 301 300 300 299 299
304 304 305 307 309 310 311 311 311 312 311 311 311 311 312 314 314 314 313 313 312 309 307 306 305 303 303 304 305 307 310 311 310 310 311 310 309 307 306 306 305 304 303 303 303 303 303 303 303 303 303 303 303 302 301 299 299 299 299 299 299 299 298
303 303 303 304 305 307 309 310 311 311 311 310 310 310 310 312 313 312 312 311 310 309 308 308 306 304 302 303 305 306 309 310 308 308 310 310 309 308 306 305 305 304 303 302 302 302 302 302 302 302 302 301 300 298 297 298 298 298 298 298 298 298 297

ECMWFFLT1_925_thetae_066.txt.gz
Theta_e
329 329 327 327 328 327 328 328 328 328 327 326 326 327 326 326 326 326 326 326 326 326 327 327 327 328 328 328 328 328 327 328 328 328 329 330 329 329 329 329 328 328 327 326 326 325 326 325 324 323 325 326 327 327 327 327 327 327 326 326 326 326 326
328 327 327 327 326 326 327 327 327 327 326 325 326 325 324 324 325 325 326 326 326 326 326 327 327 328 328 328 328 327 328 328 328 328 328 328 328 329 329 328 328 327 327 326 324 323 323 325 325 322 322 324 326 326 326 326 326 326 326 326 325 326 326
327 326 326 326 325 325 326 326 325 325 325 325 325 324 323 322 323 324 325 325 325 326 326 326 327 327 327 327 327 327 326 324 323 324 326 327 327 328 329 329 328 327 326 324 323 323 321 322 323 322 320 322 323 324 325 324 323 324 324 324 324 325 325
327 326 326 325 324 324 324 324 324 324 324 323 323 323 322 322 324 324 323 323 323 325 325 325 325 325 325 325 325 325 322 318 317 318 321 324 326 328 328 328 328 327 325 323 322 323 321 320 321 321 319 321 322 324 324 322 321 322 323 323 324 324 324
325 325 325 324 324 324 324 323 323 323 321 320 321 321 321 323 324 323 322 322 322 323 324 324 324 324 323 322 321 320 317 315 315 316 318 320 323 327 328 328 328 326 325 325 323 323 321 320 321 320 319 321 322 322 323 320 317 317 317 318 318 319 319
324 325 325 324 324 324 324 322 322 321 320 319 321 321 319 321 321 320 321 322 322 322 322 322 322 323 322 321 319 317 315 314 314 315 317 319 322 324 326 327 327 327 326 325 323 323 321 320 320 318 318 320 320 320 321 318 315 313 313 312 310 310 311
325 325 325 324 323 323 323 322 321 320 320 321 322 321 319 318 319 320 321 321 321 321 321 320 320 320 320 320 318 315 314 314 314 314 315 317 320 321 323 326 327 327 326 324 323 322 321 320 320 318 318 319 319 318 318 317 315 314 313 312 309 306 307
325 325 324 323 323 322 322 321 320 320 320 321 321 320 319 318 318 319 320 319 318 318 318 318 317 315 316 317 316 314 314 313 313 313 314 315 317 318 319 322 325 327 325 324 323 321 319 319 320 319 318 319 318 315 314 315 315 314 314 313 310 307 307
325 324 323 324 323 322 321 320 320 319 320 320 320 320 319 318 317 317 317 317 317 317 316 315 314 313 314 315 315 313 313 313 313 313 313 314 315 315 315 317 321 324 325 325 322 320 319 319 319 320 319 319 316 313 313 314 312 313 314 313 311 309 307
324 323 323 323 322 322 321 320 319 318 319 319 319 319 319 318 316 316 316 317 316 314 314 314 314 313 313 314 314 313 313 312 312 312 312 313 314 314 314 313 315 319 323 323 320 318 318 318 319 319 319 318 315 314 316 315 312 311 312 311 310 309 307
323 323 323 322 322 321 320 319 318 318 318 319 319 318 318 318 316 315 315 315 313 312 314 315 315 314 313 313 314 313 313 312 311 312 312 312 313 314 314 313 313 315 318 320 320 319 319 319 318 318 319 316 314 314 314 314 313 311 310 310 309 308 309
324 324 323 322 321 319 318 318 318 319 319 318 317 317 317 317 316 315 314 314 313 314 315 315 314 314 313 313 313 313 313 312 312 313 312 312 312 313 313 313 312 313 314 316 318 319 320 321 318 317 318 315 313 313 312 312 313 311 310 309 309 309 310
323 323 323 322 320 318 318 318 318 319 318 317 316 316 316 317 316 315 314 314 314 314 314 314 314 313 312 312 313 313 313 313 313 313 313 313 312 312 313 312 312 312 313 313 314 315 317 318 317 316 316 315 312 312 311 311 311 311 310 309 309 309 310
322 323 323 322 319 318 318 318 318 318 316 316 316 317 318 317 316 316 315 315 315 314 314 315 315 314 313 313 314 314 314 314 314 313 313 313 313 312 312 312 312 312 312 313 313 314 314 315 315 315 315 314 312 311 311 310 310 310 310 309 309 309 310
323 323 322 321 319 319 318 318 318 317 315 315 317 317 318 317 316 317 317 316 316 316 315 316 316 315 314 315 315 315 315 316 315 315 314 314 313 312 312 313 314 313 313 313 313 313 314 314 314 314 314 312 311 310 310 310 310 311 311 310 309 309 309
322 322 321 321 319 319 318 319 318 316 315 316 318 317 317 317 318 318 317 317 317 317 317 318 317 317 317 317 316 316 316 316 316 316 316 316 315 315 314 313 314 314 313 314 314 314 314 313 313 312 312 311 311 311 311 310 311 312 312 311 310 310 310
322 322 321 320 319 319 318 319 318 316 316 318 318 317 317 318 319 318 317 318 319 319 320 320 318 319 320 320 318 317 317 317 318 317 316 317 317 317 317 314 314 315 314 314 315 315 315 314 314 313 313 312 312 312 311 311 311 312 312 312 312 312 311
322 322 322 321 319 319 319 319 318 317 317 319 319 318 319 319 319 318 318 319 320 320 321 321 320 320 321 321 319 319 320 320 320 319 317 317 318 319 318 316 315 316 316 314 315 315 316 315 315 315 315 315 315 314 313 312 312 312 313 313 314 313 313
323 322 323 322 320 319 319 319 319 318 317 318 319 319 319 319 319 318 319 320 320 321 321 322 321 321 322 321 321 321 321 321 321 320 318 318 319 319 319 318 317 318 318 316 315 315 316 316 316 316 316 317 317 317 315 314 313 313 313 314 314 315 313
322 322 322 322 322 320 319 319 319 319 318 318 319 320 319 319 319 318 319 320 320 321 321 322 322 322 322 322 321 321 321 321 321 321 320 319 319 319 320 319 318 318 318 318 317 316 316 316 316 316 316 317 317 317 317 316 315 314 314 314 315 315 314
322 324 323 322 322 321 320 320 319 319 319 318 318 319 319 319 318 318 318 319 320 320 320 321 322 322 322 322 322 321 321 320 320 320 320 320 320 320 320 319 319 318 319 319 319 318 316 316 316 316 316 316 317 317 317 316 316 315 315 315 315 315 314
323 325 324 322 321 321 320 320 320 320 319 318 318 318 319 319 318 318 319 319 320 320 320 321 322 322 322 321 321 321 320 320 320 319 319 320 320 320 319 319 319 318 318 319 319 319 318 317 317 316 316 315 316 316 316 316 315 315 315 315 314 314 313
323 323 323 322 320 319 317 317 319 319 317 317 319 318 318 319 318 318 319 320 320 321 321 322 322 321 321 321 319 319 319 320 319 319 319 320 320 319 319 320 319 319 319 320 320 319 319 319 318 317 316 316 316 316 315 315 315 314 314 314 314 314 313
323 322 321 321 320 320 318 316 318 319 317 318 320 319 318 319 318 318 319 319 320 321 321 321 321 320 320 319 317 317 318 318 317 318 319 320 319 319 320 320 319 319 320 321 320 319 319 319 319 318 318 317 317 316 316 315 314 314 314 313 313 313 312
323 322 322 322 322 321 320 318 319 320 319 320 320 319 319 319 318 319 319 319 319 319 319 320 320 320 319 317 317 318 318 317 317 318 320 320 319 319 320 320 320 320 320 321 320 320 320 319 319 318 318 317 317 316 316 315 315 314 314 314 313 312 311
323 323 322 322 322 322 322 321 320 320 320 320 320 320 320 319 319 320 319 319 319 319 319 319 319 319 318 317 317 317 318 318 318 319 319 319 319 319 320 320 320 320 319 319 319 318 318 317 317 317 317 317 316 315 315 315 314 314 314 314 312 311 310
321 321 321 321 321 322 322 321 321 320 320 320 320 321 321 320 320 320 320 320 320 319 319 319 319 319 318 317 317 317 318 318 318 318 319 319 319 320 320 320 320 319 318 317 317 315 312 312 314 315 315 315 314 314 314 313 313 312 312 312 312 311 309
320 320 320 320 320 321 321 320 320 319 320 320 320 320 321 321 320 320 320 320 320 320 319 319 319 319 318 317 317 318 318 318 318 318 318 318 319 320 321 320 320 319 318 316 315 313 311 311 313 313 313 312 312 312 311 311 310 310 310 309 309 309 307
320 320 319 319 319 320 320 320 320 320 321 321 321 321 321 321 321 320 320 320 320 320 319 319 319 318 317 317 319 319 318 318 318 317 317 318 319 320 321 320 319 318 317 315 314 312 311 310 311 311 310 309 309 309 308 308 307 307 307 306 306 306 305
320 320 320 320 319 319 320 320 320 322 322 321 321 321 320 320 320 319 319 320 320 319 319 319 318 317 317 318 319 319 318 318 317 316 316 316 318 320 321 319 317 316 315 314 313 312 311 310 309 309 308 308 307 307 306 305 305 305 305 305 305 304 304
320 319 319 320 319 319 320 320 321 322 321 320 320 319 319 318 318 318 319 319 318 318 318 318 317 317 318 318 317 317 317 316 315 315 315 316 317 319 319 317 316 315 315 314 313 312 311 311 310 309 308 308 307 306 305 304 304 305 305 305 304 304 303
317 318 319 319 319 319 319 320 320 320 319 319 319 319 319 319 318 319 319 318 318 317 317 318 318 318 317 316 316 316 316 315 314 314 314 315 316 316 315 315 315 314 313 312 312 311 311 311 310 310 309 308 307 306 305 305 305 305 304 303 303 302 301
309 311 313 315 318 319 319 320 320 320 319 320 320 320 320 320 319 319 319 319 318 316 317 318 318 316 316 316 316 316 315 315 315 314 314 314 314 313 312 311 310 310 309 310 311 310 310 310 311 310 309 309 307 306 305 304 304 303 302 302 301 301 300
303 304 305 307 311 313 315 317 319 320 320 320 320 320 319 318 317 317 317 317 315 313 315 317 317 315 315 315 315 315 315 315 315 314 313 312 312 312 310 308 307 306 306 308 309 309 308 309 309 309 308 307 306 304 303 302 302 301 301 301 300 300 299
302 303 303 305 306 307 308 311 314 317 318 318 318 318 317 316 316 315 315 314 312 310 311 313 314 316 317 316 314 314 315 315 315 314 312 310 310 310 309 307 305 305 305 306 308 308 308 307 307 306 305 305 304 303 302 301 300 299 299 299 299 298 298
301 302 302 303 305 305 305 307 309 311 313 314 314 314 315 315 316 315 315 314 310 307 307 307 309 313 316 316 315 314 314 314 314 313 312 310 308 309 307 306 305 305 304 304 305 305 304 304 304 304 304 303 303 302 301 300 299 298 298 298 298 298 297
301 301 301 301 302 303 304 304 305 305 307 310 311 311 311 312 314 315 315 314 311 307 305 304 305 306 310 312 312 311 312 313 313 313 312 311 309 308 307 305 305 304 303 303 302 302 301 301 302 302 302 302 301 300 299 298 298 298 298 298 297 297 296

ECMWFFLT1_925_thetae_069.txt.gz
Theta_e
331 331 331 331 331 331 331 330 329 329 329 328 327 327 327 327 326 326 326 326 326 326 326 326 327 327 328 328 328 329 329 329 330 329 329 330 330 329 329 328 328 327 325 325 325 326 326 325 324 325 327 327 327 327 326 326 325 325 325 325 325 326 326
329 329 329 329 328 328 328 329 329 329 328 327 327 326 327 326 326 326 326 326 326 327 327 327 327 327 327 328 328 328 328 328 329 329 329 329 329 329 328 327 327 326 325 325 325 324 324 324 324 324 325 325 325 325 325 325 325 325 325 325 325 325 325
329 329 328 328 328 327 328 328 328 327 327 327 326 326 325 325 326 326 326 326 326 326 327 327 327 327 327 327 327 327 327 327 328 328 328 329 329 328 328 327 326 325 324 323 323 323 322 321 323 323 323 325 324 324 324 324 324 324 324 325 325 324 324
328 327 327 326 326 327 327 328 327 326 326 325 325 325 324 324 325 325 325 325 325 326 326 327 327 327 327 327 326 326 325 326 326 327 328 328 328 328 328 327 326 325 324 323 322 323 321 320 321 321 321 323 323 322 321 322 322 323 323 324 324 324 324
327 326 326 325 325 326 327 327 326 325 324 324 324 324 323 323 325 325 324 324 324 325 325 326 326 325 326 325 323 320 319 319 321 324 326 326 327 328 328 327 326 326 325 324 323 323 322 321 321 320 320 322 321 320 320 320 320 322 322 323 322 321 320
326 326 325 325 326 326 326 326 325 324 323 323 323 323 322 324 324 324 322 322 324 325 324 324 324 322 322 322 319 315 315 316 317 320 323 325 326 327 328 327 327 326 325 323 323 322 322 322 321 319 320 321 320 318 317 315 314 315 316 316 315 314 312
326 326 325 325 325 325 325 324 324 323 322 322 321 322 323 324 323 321 320 321 323 323 323 323 322 321 319 317 316 314 314 316 318 320 321 323 324 326 327 327 327 326 325 323 323 322 322 322 321 320 319 319 318 317 315 313 312 311 310 309 308 306 305
326 325 324 324 324 324 323 323 322 320 320 320 320 322 324 323 320 320 320 320 321 321 322 322 321 320 318 315 314 313 314 316 318 320 321 322 323 324 325 326 327 326 325 324 322 322 323 322 321 320 319 318 317 315 314 313 313 312 309 307 306 304 305
326 325 324 324 323 323 323 322 321 319 320 320 319 320 322 321 320 321 321 319 318 319 320 319 318 319 318 315 314 313 313 314 316 317 318 320 321 322 324 325 326 326 325 323 322 322 322 321 320 320 319 318 316 314 314 314 313 312 310 309 307 307 307
325 324 324 324 323 323 322 322 321 320 320 321 319 318 319 320 320 321 319 317 317 317 316 315 315 316 316 315 314 313 312 313 314 314 314 316 319 321 323 324 325 325 325 323 321 321 321 320 320 319 317 316 315 316 317 317 314 312 311 310 308 308 309
324 324 324 323 322 322 321 320 320 320 320 320 319 318 318 319 319 318 317 316 316 314 313 313 314 314 314 314 313 312 312 312 313 314 313 313 315 318 321 323 323 323 323 323 321 320 320 320 319 319 317 316 314 314 316 317 315 312 310 310 308 308 309
324 325 324 323 322 322 321 320 320 319 319 319 319 318 316 317 317 317 316 315 313 313 312 313 314 314 313 313 312 311 311 311 312 313 313 312 312 314 317 320 322 321 320 320 320 319 319 319 319 319 317 315 314 313 313 314 314 312 309 309 309 309 310
325 324 323 323 323 322 321 320 319 318 318 319 319 318 316 316 316 316 315 313 312 314 314 314 313 313 313 312 311 311 312 312 312 312 313 312 312 313 314 316 318 320 320 320 318 318 319 319 319 319 318 316 314 313 312 311 312 311 309 308 309 310 310
324 323 323 323 323 322 320 319 318 317 318 318 318 318 316 315 315 315 314 313 313 315 315 314 313 313 313 313 312 312 312 312 312 312 312 312 312 312 313 313 314 316 318 319 318 318 318 318 318 318 318 317 314 313 313 311 310 310 309 308 309 310 310
323 323 323 322 322 321 320 318 317 317 318 318 317 317 317 315 314 314 313 313 313 314 314 313 313 312 312 312 313 313 314 313 312 312 312 312 312 312 312 312 313 313 314 317 317 318 318 318 319 319 318 317 316 313 312 310 310 309 309 309 309 309 309
323 323 322 322 321 320 319 317 317 318 318 317 316 316 316 316 315 314 314 313 313 313 314 314 314 313 313 314 314 315 315 314 314 313 313 312 312 312 312 312 313 312 313 313 314 315 316 318 320 320 317 317 316 313 311 310 309 310 309 309 309 308 309
323 323 322 322 321 319 318 317 318 318 317 316 315 316 317 316 315 315 315 315 315 315 315 316 315 315 315 315 315 315 315 315 315 315 314 314 314 314 314 313 313 313 313 313 313 314 314 315 317 318 316 315 315 312 311 310 310 310 309 309 309 308 308
323 323 322 322 320 319 318 318 318 317 316 315 316 317 317 316 316 316 316 316 316 316 317 317 316 316 317 318 316 315 315 316 316 316 316 316 317 317 315 314 314 314 314 314 314 313 313 312 313 314 314 313 312 310 310 310 310 309 309 310 310 310 309
323 322 322 322 321 319 318 318 318 317 315 315 317 317 317 317 317 318 317 317 317 317 318 319 318 318 320 320 317 316 317 317 318 318 317 317 317 318 317 316 316 315 314 315 315 314 313 312 312 312 312 311 310 310 310 310 311 310 311 311 312 311 311
322 322 322 321 320 319 318 318 318 316 315 316 318 316 317 318 318 318 317 318 319 319 320 320 319 319 321 320 317 317 319 319 319 320 319 318 318 318 318 318 317 317 316 315 315 315 315 314 313 313 313 312 312 313 312 311 312 312 312 313 313 312 311
322 321 321 320 319 318 318 318 318 316 316 317 318 317 317 318 317 317 317 318 319 320 320 321 320 320 321 321 319 320 320 321 321 321 320 319 318 319 319 319 318 318 318 317 316 315 315 316 316 315 315 315 315 316 314 313 312 312 313 314 313 312 311
321 320 320 320 320 319 318 318 318 317 317 318 318 318 318 318 318 318 318 318 319 320 320 321 321 321 321 321 321 321 321 321 321 321 321 320 319 319 319 319 319 318 318 318 317 316 316 316 316 316 316 317 316 317 316 315 314 313 314 314 313 312 311
320 321 321 321 320 319 319 319 318 318 318 319 319 319 319 319 318 318 318 318 319 319 320 320 321 321 321 321 321 321 321 321 320 320 320 319 319 320 319 319 319 318 318 319 318 318 317 317 317 316 316 316 316 317 317 316 315 314 314 314 313 313 312
320 321 322 321 320 320 319 319 319 319 318 318 319 319 319 318 318 318 318 318 318 318 319 320 320 321 322 322 322 322 321 321 320 320 319 318 318 319 320 320 319 319 319 319 319 319 318 318 317 316 315 315 316 316 316 316 315 314 314 314 313 313 312
321 322 322 321 321 320 320 320 320 319 319 319 319 316 314 315 318 319 319 318 318 318 318 319 320 321 322 322 321 321 320 319 319 318 317 317 318 318 319 319 319 319 319 319 319 319 319 318 318 317 317 316 316 316 315 315 315 314 314 314 313 312 312
322 322 322 321 320 320 319 320 319 318 319 320 318 312 310 314 318 318 318 318 318 318 318 319 320 321 321 321 320 319 318 317 318 317 316 316 318 319 319 319 319 319 319 319 319 319 318 318 318 318 318 317 317 316 316 315 315 314 314 314 313 312 311
321 322 321 321 320 320 319 319 318 317 318 319 318 314 311 314 318 318 318 318 318 318 319 319 320 321 321 321 319 318 317 317 317 316 316 317 319 319 319 319 319 319 319 319 319 319 319 318 318 317 317 316 316 315 315 315 314 314 313 313 313 311 309
320 320 321 321 321 321 320 320 319 319 319 319 319 318 316 317 319 319 318 318 319 319 319 320 320 320 320 320 319 318 317 317 317 317 317 318 319 319 319 319 320 319 319 319 318 317 316 315 315 316 315 315 314 314 314 313 313 312 312 311 311 310 308
319 319 320 320 320 320 320 321 320 320 320 320 319 320 320 319 319 319 319 319 319 319 319 319 319 319 319 318 318 318 318 317 317 317 318 318 319 319 319 319 320 320 319 318 316 314 312 310 312 314 314 313 312 312 311 311 310 309 309 309 308 307 306
319 319 319 319 319 319 319 320 320 320 320 320 319 320 320 319 318 319 319 319 319 319 318 319 319 319 319 318 319 318 318 318 318 317 318 318 318 319 320 320 320 320 319 317 315 312 310 309 311 313 312 311 310 309 308 307 307 306 306 306 305 305 304
316 317 317 318 318 319 319 319 320 320 320 320 320 320 320 319 318 319 320 320 319 318 317 318 318 318 318 319 318 318 317 318 318 318 318 318 318 319 320 320 320 320 318 316 314 312 310 309 310 310 309 308 308 307 306 305 305 305 305 304 304 304 304
308 310 311 313 315 317 318 319 319 320 320 320 320 320 320 319 319 319 319 319 318 318 317 317 318 318 319 319 318 317 318 319 318 317 317 317 318 319 320 320 319 319 317 315 313 312 310 309 308 308 307 307 307 306 305 305 305 304 304 304 304 304 303
302 303 305 307 309 312 315 318 319 319 319 319 319 319 319 319 319 319 318 317 316 318 319 318 318 318 319 318 318 318 318 318 318 317 316 316 317 319 320 319 318 316 315 314 313 312 310 310 309 308 308 307 307 306 305 305 305 304 304 304 303 303 302
300 301 301 303 305 307 309 312 315 317 317 318 318 319 319 319 319 319 319 318 317 317 318 318 317 317 318 318 318 317 317 317 317 316 315 315 316 318 319 318 316 315 314 313 312 311 311 310 310 309 309 308 308 307 306 305 305 304 303 302 301 301 300
300 300 300 301 303 304 304 306 308 310 312 313 314 315 315 315 316 317 318 318 318 318 317 317 317 318 318 318 317 316 315 316 316 316 315 314 315 317 318 317 315 314 313 312 311 310 310 310 309 309 309 308 307 306 306 305 303 302 301 300 299 299 298
299 299 299 299 300 302 302 302 303 304 305 307 308 309 310 310 311 313 315 317 317 317 317 316 317 318 317 316 316 315 314 315 315 315 315 314 314 314 315 315 313 311 310 310 309 309 309 309 309 309 308 307 306 305 304 302 301 300 299 299 298 298 297
298 298 299 299 299 300 300 301 301 301 301 302 304 305 307 308 309 310 311 313 315 316 315 316 317 318 316 315 314 314 314 314 314 314 314 314 313 313 313 311 309 308 308 308 308 308 308 308 308 307 305 304 303 302 301 300 299 298 298 298 297 297 296

ECMWFFLT1_925_thetae_072.txt.gz
Theta_e
332 333 333 333 333 333 333 333 332 331 330 329 329 329 328 327 327 327 327 327 327 326 327 328 329 329 329 330 330 330 331 330 330 329 329 330 329 328 328 328 328 327 325 324 325 325 326 326 325 325 325 326 326 326 325 325 324 325 325 325 325 325 325
332 333 333 332 333 333 332 331 330 329 328 327 327 326 326 326 325 325 326 326 325 325 326 326 327 328 328 328 329 329 330 330 330 330 329 329 329 328 328 328 327 325 324 324 324 324 325 325 326 325 324 324 324 323 324 325 325 325 325 325 325 324 324
332 332 332 332 332 332 331 330 329 328 327 326 326 326 326 326 325 325 325 325 325 325 326 326 326 327 327 327 327 328 328 329 329 329 329 329 329 329 329 328 326 324 324 323 323 324 324 324 325 324 324 323 322 321 322 323 324 325 324 324 324 323 323
331 331 331 330 330 330 329 328 328 327 327 326 326 326 326 325 325 326 325 325 325 326 326 326 326 326 327 327 327 327 327 327 328 328 329 329 329 329 329 327 326 325 324 323 322 323 324 323 324 323 322 321 320 318 320 322 323 324 324 323 323 321 320
329 329 329 328 328 328 328 328 327 327 327 326 325 325 325 325 325 325 325 325 325 325 326 326 326 327 327 327 326 327 327 327 327 327 328 328 328 329 328 327 326 325 325 324 323 323 324 323 323 322 320 320 318 316 317 321 322 323 323 323 321 318 316
327 327 327 327 327 327 327 328 327 326 326 325 324 323 323 324 325 325 325 324 325 325 325 325 324 325 325 324 322 321 322 323 324 325 326 327 327 328 328 326 325 325 324 324 324 323 323 322 321 320 319 318 317 314 314 316 318 320 320 319 316 313 311
326 326 327 326 326 327 327 327 326 325 325 324 324 323 323 323 325 324 323 323 324 324 324 323 322 321 321 319 316 316 316 317 320 323 324 325 326 327 328 326 325 325 324 324 324 323 323 321 320 319 317 316 315 313 312 312 312 313 313 312 310 308 306
325 326 326 325 324 325 326 326 325 324 324 323 323 323 322 323 324 323 321 321 323 323 322 321 320 318 316 315 315 315 316 317 319 321 322 324 325 326 327 327 326 326 324 323 323 323 323 321 320 318 316 315 315 313 312 312 311 308 308 307 306 304 303
325 326 325 324 324 325 325 325 324 324 323 322 321 322 323 324 323 320 319 320 321 321 321 320 319 317 314 314 314 314 316 319 320 321 321 322 323 325 326 327 327 326 323 322 323 323 322 320 319 317 315 315 315 315 314 314 312 309 307 305 304 302 302
325 325 325 324 324 325 324 324 323 322 321 320 320 322 323 323 321 319 319 319 319 320 319 319 319 318 315 313 313 314 316 318 319 319 319 320 322 324 325 326 326 325 323 322 322 323 322 319 317 316 316 315 314 315 317 317 314 310 308 306 305 304 303
325 325 325 324 324 324 323 323 321 320 319 319 320 322 323 321 320 320 319 318 317 317 317 316 316 317 316 314 313 313 314 315 316 317 317 319 322 324 324 325 325 324 323 322 322 323 321 318 317 316 316 315 314 314 315 315 314 311 309 308 307 306 305
325 325 324 324 323 323 322 322 320 319 319 320 319 320 321 320 320 320 318 316 316 314 314 314 315 315 315 313 312 313 313 313 314 315 315 317 320 323 324 324 324 324 322 321 321 322 320 317 316 316 316 315 314 313 311 312 314 311 309 309 309 308 308
325 325 324 323 323 323 322 321 320 319 320 320 319 319 319 319 320 319 317 315 313 311 313 314 314 314 313 312 312 311 312 313 313 313 314 314 317 321 322 321 322 322 321 320 321 321 320 317 317 316 315 314 313 313 311 310 311 310 308 309 308 309 309
325 324 324 323 323 322 322 321 320 319 319 319 319 318 318 318 318 317 316 313 311 311 313 314 313 312 312 311 311 311 312 312 312 312 312 313 314 317 319 319 320 321 320 320 320 320 319 318 318 317 315 314 313 313 311 309 309 309 308 308 308 309 309
324 324 324 323 322 322 321 321 320 319 319 319 319 318 317 317 317 316 314 312 312 313 313 313 313 313 312 311 312 312 312 312 312 312 312 312 312 313 315 316 318 320 320 320 319 319 319 319 319 318 317 316 314 313 311 309 309 309 308 308 308 309 309
324 324 324 322 322 322 321 320 319 318 318 318 318 318 317 316 315 315 313 313 313 314 313 312 313 312 312 312 312 312 312 312 312 312 312 312 312 312 313 314 315 317 318 319 319 318 318 318 319 319 318 318 316 314 312 309 308 309 308 308 308 308 309
324 324 323 322 322 322 321 320 318 317 318 318 318 317 317 315 314 314 313 313 313 313 313 313 312 312 312 312 313 314 314 312 312 312 312 312 312 312 312 312 313 313 314 317 318 318 318 318 318 318 318 318 318 316 314 311 309 308 309 308 308 307 308
323 323 323 322 322 322 321 319 317 317 317 318 317 317 316 315 314 314 313 313 313 313 314 313 313 313 313 313 314 315 315 314 314 314 314 313 314 315 313 312 312 313 313 314 315 316 316 317 318 318 318 318 317 316 315 312 309 309 309 309 308 307 307
323 323 322 322 322 321 320 319 317 317 317 318 317 316 316 315 314 314 314 314 314 315 315 315 315 315 315 316 316 315 315 315 315 316 316 316 317 317 315 313 313 313 313 313 313 313 314 314 315 315 317 317 316 315 314 311 309 309 309 309 309 308 307
323 323 323 322 322 321 320 319 317 317 318 317 316 315 316 316 315 315 316 316 316 316 317 317 317 317 318 319 319 317 315 316 317 317 317 317 317 318 317 315 314 314 314 314 314 314 313 312 312 312 314 315 315 313 311 310 309 309 309 309 309 309 308
322 322 322 321 321 321 320 319 317 317 318 316 315 316 317 317 316 316 317 317 317 317 318 318 319 318 318 319 320 318 316 317 319 319 318 317 317 318 318 317 317 316 316 315 314 315 314 313 312 311 311 312 312 311 310 310 310 310 309 310 310 310 309
321 321 321 320 320 319 319 318 318 317 318 315 313 315 317 316 316 317 317 317 317 318 318 319 320 320 320 320 320 319 318 319 320 320 320 319 318 318 319 318 318 318 318 317 316 315 315 315 314 312 312 311 311 310 310 310 311 311 311 311 311 310 310
320 320 321 321 320 318 317 318 318 317 317 315 314 316 316 316 317 318 318 317 317 318 319 319 320 320 321 321 321 320 320 320 321 321 320 320 320 319 319 319 319 318 318 318 317 316 315 316 316 315 315 314 314 313 312 312 312 312 312 312 311 311 310
319 320 321 321 320 318 317 318 318 317 317 315 315 317 317 316 317 317 318 318 317 318 318 319 319 320 321 321 321 321 321 321 321 320 320 320 319 319 319 319 319 319 318 318 318 317 316 316 316 316 316 316 316 316 315 314 313 312 313 313 311 311 310
319 319 320 320 319 319 319 319 318 318 318 316 317 318 318 317 318 318 318 318 318 318 318 319 319 319 320 320 320 321 321 321 321 321 321 320 319 319 318 318 318 319 319 318 318 318 317 317 317 316 316 316 316 316 316 315 314 314 313 313 312 311 310
319 320 320 319 320 320 319 319 319 319 319 318 318 318 318 318 319 319 319 318 318 318 318 318 318 318 319 319 320 320 321 321 321 321 320 319 318 318 317 317 318 319 319 319 318 318 318 318 317 316 315 315 315 315 315 315 315 314 314 314 313 312 311
319 320 320 319 319 320 319 319 319 319 319 319 319 319 319 319 318 318 318 318 318 318 318 318 318 318 318 318 319 320 321 321 321 320 319 318 317 317 316 316 318 318 319 318 318 318 318 318 317 316 316 316 315 315 315 315 314 314 313 314 313 313 311
320 320 321 321 320 319 319 319 319 319 319 319 318 318 318 319 318 316 315 316 317 317 318 318 318 318 318 318 319 320 321 321 320 319 318 317 317 316 316 317 318 318 318 318 317 317 317 317 317 317 316 316 315 315 314 314 314 314 313 313 313 312 310
319 319 320 320 319 319 320 320 320 319 319 319 318 318 318 319 318 317 315 314 315 317 318 318 318 318 318 318 319 320 321 321 320 319 318 317 317 317 317 319 319 318 318 318 317 317 317 317 317 316 315 314 313 313 313 313 312 313 313 312 311 310 309
317 317 318 319 318 319 319 319 320 320 320 320 320 319 319 318 319 319 318 317 317 318 318 319 318 318 319 319 320 320 320 320 319 318 318 317 317 317 318 318 319 319 318 318 318 317 315 315 314 315 314 312 312 312 311 310 310 310 310 310 309 308 307
311 313 315 316 317 318 318 319 319 319 320 320 320 320 319 319 319 320 319 318 318 318 318 319 319 318 319 319 320 320 319 319 318 318 318 317 317 317 318 318 318 319 318 318 318 316 313 311 311 313 313 311 311 310 308 307 308 307 307 307 306 305 304
305 306 308 310 313 316 318 318 318 319 319 319 319 319 319 319 320 319 319 318 318 318 318 319 319 318 317 318 318 319 318 319 319 318 318 318 318 317 318 318 318 319 319 318 317 315 312 310 311 311 312 311 309 308 306 306 306 306 305 304 304 303 303
301 302 303 304 307 310 312 315 317 317 318 318 318 318 318 318 319 318 318 318 318 318 318 317 318 317 316 315 316 317 318 318 318 318 318 318 318 317 318 318 319 318 318 317 316 314 311 309 310 310 310 309 308 306 304 304 305 305 304 304 303 303 303
299 300 300 301 303 304 305 307 310 312 313 314 315 316 316 317 317 317 318 318 318 319 318 317 317 317 316 316 316 317 318 317 316 317 317 317 317 317 317 318 319 318 318 317 315 313 311 309 308 308 307 307 306 305 304 304 304 304 304 304 303 303 302
298 298 299 300 301 302 302 302 304 305 307 308 309 311 312 312 312 313 314 315 316 317 318 317 317 317 317 318 318 317 318 317 316 316 316 315 316 316 317 318 319 319 319 317 314 312 311 309 308 308 307 307 306 305 305 305 305 304 304 303 302 301 300
297 298 298 298 299 299 300 301 302 302 303 304 305 306 307 308 309 309 310 312 313 314 315 317 317 317 317 317 317 317 317 317 316 315 314 314 315 316 316 317 318 319 319 316 313 312 311 310 309 308 308 307 307 306 305 305 305 304 303 302 301 299 298
297 297 297 298 298 298 298 299 299 300 300 301 302 302 303 304 305 306 306 308 309 310 311 314 315 315 315 316 317 317 316 316 315 314 313 312 313 314 315 316 318 319 318 315 313 312 311 310 309 309 308 307 307 306 305 305 304 303 301 300 299 298 297

ECMWFFLT1_925_thetae_075.txt.gz
Theta_e
333 333 333 333 333 333 333 333 332 332 332 332 332 332 332 331 330 330 330 330 330 330 330 330 331 331 331 331 331 331 331 331 331 331 331 330 330 329 328 328 328 327 328 328 327 327 327 327 326 325 325 325 325 325 325 325 324 324 325 325 325 324 324
333 333 332 332 332 332 333 333 332 331 331 331 331 331 330 329 328 328 328 328 328 328 328 329 330 330 330 330 330 331 331 331 331 331 331 331 331 330 329 329 328 327 327 327 328 327 326 326 326 325 324 324 323 323 324 324 324 324 325 324 324 323 324
332 332 332 332 332 333 333 332 330 329 329 329 329 329 327 326 326 326 326 326 326 326 326 326 328 328 328 328 329 329 330 330 330 330 330 331 331 330 329 329 328 328 327 327 327 327 326 326 326 325 325 324 323 321 322 322 322 323 322 323 323 322 323
332 332 332 332 333 333 332 330 329 328 327 328 327 327 326 326 325 325 325 325 325 325 325 325 326 326 327 327 328 328 328 329 330 329 330 330 330 330 329 329 328 328 328 328 327 326 327 326 325 325 325 324 323 320 320 322 322 321 320 320 320 320 318
332 332 332 332 332 332 330 329 328 327 327 327 326 326 325 325 325 325 325 325 324 325 325 326 326 326 326 327 327 327 327 328 328 328 328 328 329 330 329 329 329 329 328 328 327 327 327 326 325 325 324 323 321 319 319 321 321 320 318 317 317 315 311
332 332 332 332 331 330 328 327 327 327 326 326 326 326 325 325 324 324 324 324 324 324 325 326 326 326 326 326 326 326 326 327 326 327 327 328 328 330 330 328 328 327 327 327 327 327 327 325 325 324 323 322 321 318 317 318 318 317 315 313 312 310 306
332 332 331 330 329 328 328 327 326 325 325 325 325 325 324 324 324 323 323 323 324 324 325 325 325 325 324 322 320 320 321 322 323 325 326 326 327 328 329 328 326 326 326 326 327 327 326 326 325 323 322 322 321 319 317 316 316 316 313 310 309 306 305
330 331 329 328 328 327 327 326 325 324 324 325 325 324 323 324 324 324 324 324 324 324 323 323 322 321 319 317 316 316 317 318 319 323 324 325 326 327 328 327 326 325 325 325 326 326 326 326 324 323 322 320 319 319 319 317 316 315 312 309 308 306 304
328 328 327 327 327 327 326 326 325 324 324 324 324 323 323 323 324 324 324 323 323 322 321 320 319 317 316 316 315 316 317 319 319 321 322 323 325 326 327 326 326 325 324 325 326 325 325 325 324 322 321 320 319 319 318 317 316 314 311 309 307 305 305
327 327 326 326 326 326 326 326 325 324 324 324 323 322 322 324 324 323 322 322 322 321 321 320 318 315 314 315 315 316 318 320 320 321 321 322 324 325 327 326 326 325 323 324 325 324 324 323 322 321 320 320 320 318 317 315 314 312 310 308 307 305 305
326 326 326 324 325 326 326 325 325 324 324 323 321 321 322 324 323 321 320 320 320 320 319 319 318 315 313 314 315 316 317 318 318 318 319 322 323 324 326 326 325 324 323 323 324 323 322 322 320 319 318 319 319 318 316 315 313 311 309 309 308 306 305
326 325 325 324 324 325 325 325 325 324 322 321 320 322 323 323 322 320 319 318 318 318 317 317 318 316 314 314 314 314 315 316 316 316 318 322 324 324 325 326 324 323 322 322 323 323 322 320 318 317 316 316 317 317 316 313 312 311 311 310 309 307 306
326 325 325 324 324 325 324 324 323 322 320 319 320 323 324 322 320 320 318 316 316 315 314 315 316 315 314 313 313 313 313 313 315 315 316 320 324 324 325 324 324 323 322 322 323 323 321 319 317 316 315 315 314 314 315 314 312 312 312 311 310 308 307
326 325 325 324 324 324 324 323 322 320 319 319 319 322 322 321 320 319 317 314 313 313 314 314 314 314 313 313 312 312 312 312 313 313 313 316 321 323 324 323 322 321 321 321 322 322 321 318 317 316 315 315 313 312 314 315 312 312 311 310 309 309 307
326 325 325 324 323 323 323 322 321 319 319 319 319 319 320 320 320 318 315 312 311 313 314 313 313 312 312 311 311 312 312 312 312 312 312 313 316 319 322 322 321 320 320 321 322 322 321 318 317 317 315 315 315 312 312 314 313 312 312 310 310 310 307
325 325 324 324 323 323 322 321 320 319 319 319 319 318 318 319 319 317 313 311 311 313 314 313 312 312 311 311 311 311 312 312 312 312 312 312 313 314 317 319 320 320 320 320 321 322 321 319 318 318 316 315 315 312 311 312 312 313 313 311 311 311 309
325 324 323 323 323 323 322 321 320 319 319 319 319 318 317 317 318 315 313 312 313 313 313 313 312 312 311 312 312 312 312 312 312 312 312 312 312 312 313 314 316 318 319 320 320 321 320 319 319 319 317 316 316 313 309 310 312 313 313 312 312 311 311
324 324 323 323 323 322 321 321 320 319 319 319 318 318 317 316 316 314 313 313 313 312 312 312 312 312 312 313 313 313 313 312 312 312 312 312 312 312 312 312 312 314 316 318 319 320 320 319 319 319 319 317 317 315 311 309 311 313 313 313 312 311 311
323 323 323 323 322 322 321 320 319 318 318 318 318 318 317 315 315 314 313 313 313 312 311 312 312 312 312 313 315 315 314 314 314 314 314 315 315 315 314 312 312 312 313 314 316 317 318 319 319 319 319 317 317 317 315 311 311 312 313 314 312 311 311
322 322 322 322 321 321 321 320 318 317 317 318 317 317 316 315 314 314 313 312 312 312 312 312 312 312 313 314 315 315 315 315 316 316 316 316 317 318 316 314 312 312 312 312 313 314 314 316 317 317 318 317 317 317 316 314 312 312 314 314 312 312 311
321 320 320 320 320 320 320 319 318 317 317 317 317 317 316 315 315 314 313 313 313 314 314 314 314 314 315 317 318 317 316 316 317 318 318 317 317 318 318 317 315 314 313 313 313 314 314 314 313 313 313 315 316 316 316 315 314 313 313 314 313 313 312
320 319 319 319 319 319 319 318 317 317 317 318 317 316 316 316 315 315 314 314 315 315 315 316 316 317 317 318 320 319 316 317 318 319 319 319 318 318 318 318 318 317 317 316 315 314 314 314 314 313 311 312 314 315 316 315 314 314 314 314 314 313 312
320 319 319 318 318 318 318 317 317 317 317 317 317 315 316 317 316 315 315 315 316 316 316 317 318 318 319 319 320 320 318 317 319 320 320 320 320 319 319 319 319 319 319 318 317 316 315 315 315 314 313 311 313 314 314 314 314 314 314 314 314 313 313
319 319 319 318 318 317 318 318 317 317 317 317 316 315 316 317 317 316 316 317 317 317 317 318 318 319 320 320 320 320 320 319 319 320 321 320 320 320 320 319 319 319 319 318 318 318 317 315 315 316 315 313 312 311 311 312 314 314 314 315 315 314 314
319 318 317 317 316 316 317 317 318 317 317 316 316 315 316 317 317 316 317 318 318 318 317 318 319 319 320 320 320 320 320 320 320 320 321 321 321 320 320 319 319 319 319 319 318 318 317 316 315 316 316 315 313 312 311 311 313 313 314 315 315 315 316
319 318 318 317 317 316 316 317 318 318 318 317 316 316 316 317 317 317 317 317 318 318 318 318 318 318 319 319 320 320 320 320 320 321 321 321 321 321 320 319 319 318 318 318 318 318 317 316 316 315 316 316 315 315 314 314 314 314 313 314 314 314 314
319 319 318 318 318 318 318 318 318 319 318 318 317 317 318 318 318 318 318 318 318 318 318 318 318 318 318 318 319 320 320 320 321 321 321 321 321 320 320 319 318 317 317 317 318 318 317 316 316 316 315 315 315 315 315 315 314 314 314 313 313 313 313
319 319 319 319 319 318 319 318 318 318 318 319 318 318 318 319 318 319 318 318 318 317 317 316 316 317 318 318 318 318 319 320 320 320 321 321 321 320 319 318 317 316 316 316 318 318 317 316 316 315 314 314 314 314 315 315 314 314 314 313 313 313 312
318 319 319 319 319 319 319 319 319 319 319 319 319 318 318 318 318 319 319 318 318 317 316 315 316 317 318 318 318 318 318 319 320 320 320 320 320 319 318 317 317 316 316 317 318 318 317 316 316 315 314 314 314 314 315 314 314 314 313 313 313 313 312
318 318 319 319 319 319 319 319 319 320 320 320 320 319 320 319 319 319 319 319 319 318 318 317 317 318 318 318 318 318 318 319 319 320 320 320 320 319 318 317 317 316 317 318 318 318 317 316 316 315 315 314 314 314 314 314 313 313 313 312 312 311 310
314 316 317 318 318 318 319 319 319 319 320 320 320 320 320 320 320 320 319 319 319 319 319 319 318 318 318 318 319 318 318 318 318 319 319 319 319 318 317 317 317 317 317 318 318 317 316 316 316 315 315 314 313 312 312 312 312 311 310 310 309 309 307
307 309 311 313 315 317 317 318 318 319 319 319 319 319 319 319 319 319 319 319 319 319 318 318 318 318 318 318 318 317 317 317 317 318 318 318 318 317 317 317 317 318 318 318 318 317 316 316 315 315 315 313 311 311 310 310 310 309 308 307 306 305 304
301 302 303 305 308 310 312 314 316 317 317 318 318 318 317 318 318 318 318 318 318 318 319 318 318 317 317 317 317 316 316 315 316 317 317 318 318 318 317 317 317 317 318 318 318 317 317 316 314 313 313 312 311 310 309 309 309 309 307 305 304 303 302
299 299 300 301 302 303 305 306 308 310 312 314 315 315 315 316 316 316 315 315 316 317 317 318 318 317 317 317 317 317 317 316 316 316 317 318 317 317 316 317 317 317 318 318 317 316 316 315 312 310 311 311 311 311 309 308 307 306 305 304 303 302 301
298 298 299 299 299 300 300 301 302 303 305 307 308 309 310 310 311 311 311 311 313 314 314 315 315 316 316 316 316 316 316 317 316 316 316 316 316 315 315 316 316 316 317 317 316 315 314 312 310 310 311 311 311 310 309 306 305 304 304 303 302 301 300
297 297 298 298 298 298 299 299 299 300 301 302 303 304 304 304 306 307 308 308 309 310 311 311 312 313 313 314 314 314 315 315 316 315 314 314 314 314 314 315 314 314 315 316 315 313 312 311 310 310 310 310 310 309 307 305 304 303 302 302 301 301 300
296 296 297 297 298 298 298 298 298 299 299 299 300 301 301 301 302 304 305 306 306 306 308 308 309 309 310 311 312 312 313 313 314 313 312 312 312 312 311 312 311 312 313 314 314 313 311 310 309 309 308 308 307 306 305 304 303 303 302 301 301 301 300

ECMWFFLT1_925_thetae_078.txt.gz
Theta_e
333 333 335 335 335 335 335 335 336 336 335 334 335 335 335 334 334 335 335 335 335 334 333 334 335 335 335 334 334 333 333 333 333 332 330 330 331 331 332 331 332 332 331 331 330 329 330 329 328 328 327 327 327 326 326 326 326 326 326 326 326 326 326
334 334 335 334 334 335 336 335 334 334 333 333 333 333 333 332 332 333 333 333 333 332 330 331 332 334 335 335 334 333 333 333 333 332 330 330 331 331 331 331 330 330 330 330 330 329 329 329 328 328 327 326 325 325 325 325 325 325 325 325 325 324 324
335 334 334 334 334 335 335 334 333 332 332 332 332 332 331 331 330 330 330 330 330 329 327 327 329 331 333 334 334 334 333 333 333 332 330 329 329 329 330 330 330 330 329 329 329 329 329 329 328 328 328 327 325 323 323 324 324 324 324 325 325 323 320
335 334 334 335 335 335 334 332 331 331 330 330 331 330 330 329 329 329 329 328 329 328 327 327 327 328 329 331 333 334 334 333 332 333 332 330 330 330 330 330 330 330 329 329 329 328 328 329 328 327 327 326 325 323 322 323 324 324 324 325 324 321 317
334 334 335 335 335 334 333 331 331 330 329 329 329 329 330 330 329 329 328 328 328 328 327 327 327 326 327 328 330 332 333 333 333 333 333 332 332 331 331 331 329 328 329 328 328 328 328 328 328 327 326 325 324 323 321 321 323 323 323 324 321 317 313
334 334 334 335 334 333 332 331 330 329 329 329 329 329 329 329 329 329 328 328 327 328 328 327 327 327 327 328 329 329 331 333 333 333 333 333 332 332 331 331 329 328 329 329 328 328 328 328 327 327 326 325 324 323 322 321 321 321 322 321 317 314 312
335 335 334 334 334 333 332 331 330 329 329 329 329 329 329 329 328 328 328 327 327 328 328 327 327 328 327 327 327 328 329 330 332 333 332 333 333 333 332 331 330 329 329 329 328 328 328 327 327 327 326 324 323 323 323 321 319 319 318 316 313 312 312
334 334 333 334 333 333 332 330 330 328 328 328 328 328 329 329 328 328 327 326 326 327 327 327 327 326 325 324 324 324 325 326 330 331 331 332 333 333 333 332 330 330 329 329 329 328 327 327 327 326 325 324 323 323 323 322 320 318 315 313 312 312 312
332 333 333 332 332 331 330 329 329 328 327 327 328 328 329 329 328 327 326 325 325 325 326 325 325 324 323 323 323 323 323 324 327 329 329 331 332 333 332 331 330 330 329 329 328 327 327 326 326 325 324 323 323 323 323 322 321 318 314 312 311 311 312
331 332 332 330 330 330 330 329 328 328 327 327 328 328 328 328 327 326 325 324 324 324 324 323 322 322 322 323 323 324 324 324 325 326 326 328 331 332 332 331 330 329 329 329 328 327 327 327 326 324 323 322 322 323 322 321 320 318 315 312 311 311 311
331 331 331 329 328 329 330 329 328 328 327 327 327 327 327 328 327 326 323 323 323 323 323 322 321 320 321 322 322 323 324 324 323 324 324 327 330 331 331 331 330 329 329 329 329 328 328 326 323 322 321 321 321 321 321 320 319 318 315 312 310 310 311
331 329 329 329 328 329 330 329 328 328 327 327 326 326 327 327 326 324 322 322 322 322 323 322 320 320 320 320 320 321 321 322 321 322 324 326 328 330 330 330 329 329 329 329 329 327 326 324 320 319 320 320 320 319 319 319 318 316 314 312 310 310 310
330 328 328 328 329 330 329 328 327 327 327 326 325 326 326 326 325 323 322 321 320 320 320 321 320 320 319 319 318 318 319 319 319 321 324 325 326 327 328 327 327 328 329 328 327 326 324 322 320 319 318 318 319 319 318 318 317 315 314 312 310 310 310
330 329 328 327 328 328 328 328 327 326 325 324 325 326 326 325 323 322 320 319 318 318 319 320 320 319 319 318 318 317 317 317 318 320 323 324 324 324 324 324 324 326 327 325 325 324 323 321 319 318 317 317 318 318 317 317 317 317 315 313 311 310 310
330 329 328 327 327 328 327 327 327 325 324 324 326 326 324 323 322 321 319 317 316 317 317 319 319 318 318 318 317 317 317 317 318 320 322 322 323 324 323 322 323 324 325 324 323 322 321 320 319 317 316 315 316 316 316 315 316 316 316 314 311 311 311
330 328 328 327 327 327 326 326 326 324 323 323 325 325 324 323 322 320 318 316 316 317 317 318 318 317 316 316 316 317 317 317 318 319 320 320 321 322 323 323 323 324 324 323 322 321 320 320 318 317 316 316 315 315 315 315 314 315 315 314 313 312 311
329 328 328 328 327 326 326 326 325 323 323 322 323 324 323 322 321 319 317 315 316 317 317 317 317 316 315 316 316 317 317 317 318 318 319 319 319 320 321 322 323 324 324 324 322 321 320 320 318 317 317 317 316 315 315 315 314 314 314 314 314 313 312
329 329 328 328 327 326 326 325 325 324 323 322 322 322 322 322 320 318 316 315 316 316 316 316 316 316 316 316 316 316 316 316 317 317 318 318 318 319 319 320 320 322 323 324 323 321 320 320 319 318 318 317 317 316 315 315 315 315 315 315 314 313 313
329 329 328 328 327 326 325 324 324 324 323 322 321 321 321 321 320 317 315 315 315 316 316 316 316 317 317 318 317 317 317 317 317 317 317 317 318 318 318 319 319 320 321 321 321 321 321 321 320 319 319 318 318 317 316 314 314 315 315 315 315 314 314
327 326 325 326 326 325 324 324 323 323 322 321 321 320 320 320 319 317 315 315 315 316 316 316 317 317 318 319 320 320 319 319 319 319 319 319 319 318 318 318 318 318 318 318 319 320 321 321 321 320 320 320 319 318 318 317 315 315 315 315 316 315 315
324 323 322 323 323 323 323 323 323 322 321 321 320 319 319 319 319 318 316 316 316 317 317 317 318 319 319 320 320 321 321 321 321 321 322 321 322 321 320 319 318 318 318 317 317 318 319 319 319 319 319 320 320 319 318 318 317 317 316 315 316 315 315
321 321 320 321 321 322 323 323 323 323 322 321 321 319 318 318 319 318 317 317 318 318 319 320 320 320 321 321 322 322 322 322 322 322 323 323 323 323 322 322 321 320 318 317 315 315 315 316 317 318 319 320 320 319 319 319 318 317 317 316 316 315 315
321 320 320 320 321 322 323 323 323 322 322 322 321 319 318 319 319 318 317 318 319 319 320 320 319 319 320 321 322 323 322 323 323 323 323 324 323 323 323 323 322 320 318 318 317 316 315 315 314 316 319 321 320 320 320 320 319 318 317 316 316 316 316
321 320 319 320 321 321 322 323 322 321 322 322 321 320 319 320 320 318 318 319 320 321 321 318 316 317 318 319 321 322 323 323 324 324 324 324 324 324 323 324 324 322 320 319 319 319 318 317 316 315 316 318 318 318 321 321 320 319 318 316 316 316 316
321 320 318 318 318 318 318 320 320 321 322 322 321 321 320 321 321 320 320 321 321 322 320 317 316 318 319 319 320 321 323 323 323 323 324 324 324 324 324 324 325 324 322 320 320 319 319 318 318 317 316 315 315 315 317 320 321 320 318 316 316 316 316
321 320 318 316 316 316 316 316 317 319 320 321 322 322 321 321 321 321 321 321 321 322 321 318 317 318 319 319 320 321 322 324 324 323 324 324 325 325 325 325 325 325 324 320 318 320 320 318 318 318 317 316 315 314 314 316 318 319 318 317 317 317 316
321 321 319 317 317 317 316 316 317 318 318 319 320 321 322 322 321 321 322 321 321 322 321 319 318 318 318 319 319 319 321 324 325 325 324 324 324 324 325 325 325 325 325 321 318 320 321 320 318 318 317 316 316 316 314 312 313 315 317 318 319 319 318
321 321 321 320 320 319 318 318 318 318 318 318 318 320 321 321 321 321 321 321 322 322 319 317 317 317 317 317 317 318 319 321 324 324 324 323 323 323 325 326 325 325 325 324 321 319 320 321 319 318 318 318 318 317 315 313 312 313 314 316 320 321 320
320 321 321 321 321 321 320 320 319 319 319 319 318 319 320 321 321 321 320 320 322 321 318 316 316 316 315 316 317 317 318 319 322 324 323 323 324 324 325 326 326 324 324 324 322 318 317 319 320 320 320 320 319 317 316 315 315 314 314 314 316 318 317
318 319 320 320 320 320 320 320 320 320 320 320 320 320 321 321 322 322 321 321 322 323 320 318 318 317 317 317 317 318 319 321 322 323 323 324 325 325 325 325 324 323 323 323 322 318 316 317 319 320 320 320 319 316 315 315 315 315 315 314 314 315 315
315 317 318 318 319 319 319 319 320 321 322 322 321 321 322 322 321 321 321 321 321 321 321 319 319 318 318 318 318 318 319 321 322 323 324 325 324 324 324 323 322 321 321 322 321 318 317 317 318 320 320 320 319 316 314 314 313 313 313 314 314 314 313
310 312 314 315 316 317 318 318 319 320 321 321 321 321 321 322 321 320 320 320 319 320 320 319 318 318 318 318 318 318 319 321 322 322 323 323 324 324 323 322 321 319 319 320 319 317 317 317 318 319 320 320 319 316 314 312 311 311 311 311 311 310 309
307 309 309 311 311 313 314 316 317 318 319 319 319 319 319 319 319 318 317 317 317 318 319 318 318 318 318 318 317 317 318 319 320 321 321 321 322 322 322 321 320 318 317 317 317 317 317 318 318 318 320 320 318 316 313 311 310 310 309 308 307 306 305
306 307 307 308 308 309 310 312 313 314 316 316 317 317 318 318 318 316 315 315 315 315 316 316 316 317 317 318 318 317 316 317 318 319 320 320 320 321 321 320 319 317 316 315 316 317 318 318 317 316 317 317 316 314 312 309 308 308 307 307 306 305 305
304 305 306 306 307 307 307 308 309 311 312 313 313 314 315 316 316 316 315 316 315 313 312 312 312 313 314 315 316 316 316 316 317 317 318 319 319 319 319 319 318 317 316 315 316 316 317 318 316 314 314 314 314 312 310 308 307 307 307 307 306 306 305
301 302 303 304 305 306 306 306 307 308 309 310 311 311 311 312 313 314 314 314 314 313 311 310 308 309 310 311 312 313 313 314 314 315 316 318 318 317 317 317 316 315 315 315 315 314 315 316 314 312 312 313 312 311 310 308 307 306 306 306 306 306 306
300 300 301 302 303 304 304 304 305 306 307 307 308 308 308 309 310 310 311 311 312 312 311 310 308 306 308 309 310 310 311 312 312 313 314 316 316 315 315 315 314 314 313 313 313 313 314 314 312 311 311 311 310 310 309 308 307 306 306 306 306 306 306

ECMWFFLT1_925_thetae_081.txt.gz
Theta_e
333 333 334 334 334 335 336 336 336 337 336 335 335 334 334 335 335 335 335 335 334 332 333 334 334 334 333 332 332 332 332 332 331 331 333 332 331 332 332 331 331 331 330 330 330 330 330 330 329 330 329 329 329 328 328 328 328 328 328 328 327 327 327
331 332 333 333 334 335 337 336 335 337 337 335 336 335 334 335 335 336 336 335 334 333 333 334 334 333 333 333 334 334 332 332 332 331 332 333 332 332 332 331 331 331 331 330 330 329 330 330 329 329 329 328 327 327 327 327 327 327 328 327 326 326 325
331 332 332 333 334 335 335 335 334 336 336 335 335 335 334 333 334 335 335 335 334 332 331 331 332 333 333 333 334 335 334 332 333 332 331 333 333 331 331 331 330 331 330 330 330 329 329 330 329 329 329 328 327 326 326 326 326 327 327 326 325 324 322
331 332 332 330 332 333 334 334 333 334 334 334 334 333 332 332 331 332 331 331 331 329 328 328 329 331 333 333 334 335 335 334 333 332 332 333 332 331 331 331 330 330 330 330 330 329 329 330 329 328 328 327 327 326 325 326 326 326 326 325 322 320 318
331 332 331 329 331 334 333 332 332 332 332 332 332 332 332 331 330 330 330 329 329 328 328 327 327 328 329 331 333 334 334 332 331 332 332 332 332 332 331 331 330 330 330 330 330 330 329 329 329 329 328 327 326 325 325 325 326 326 326 322 318 315 313
331 331 331 331 333 334 333 332 332 332 331 331 332 331 331 331 330 329 329 329 328 328 328 327 327 327 327 328 330 332 334 331 330 331 331 330 331 331 330 329 329 330 330 330 329 329 329 329 329 328 327 326 326 325 324 325 326 326 323 319 316 313 311
332 331 330 332 333 332 331 332 331 331 331 330 330 330 330 329 329 329 329 328 328 329 329 329 328 328 328 328 328 330 332 333 332 332 331 330 330 330 329 329 330 329 328 328 328 328 329 328 328 327 327 326 326 325 324 324 324 323 320 317 315 313 311
332 331 331 331 332 330 331 331 330 330 330 330 330 330 329 329 328 329 328 328 328 328 329 329 329 328 328 327 327 328 329 331 333 333 332 333 333 332 331 330 329 328 328 328 328 328 328 328 327 327 326 325 325 325 324 322 322 321 318 316 315 314 312
332 332 331 331 331 330 330 331 330 329 329 328 329 329 329 329 328 327 327 326 327 328 328 328 327 327 326 325 326 327 326 328 331 331 331 334 335 334 333 331 329 328 328 328 328 328 328 328 327 327 327 326 326 325 323 322 321 319 316 315 315 314 312
332 332 331 332 333 331 330 330 329 328 328 328 328 328 328 328 327 326 326 326 327 328 327 327 326 326 326 325 325 326 326 326 327 327 328 332 334 334 333 331 330 329 328 328 327 328 328 327 328 327 327 326 326 325 324 322 320 318 315 315 315 314 312
333 332 332 333 332 331 330 329 328 328 328 327 328 328 327 327 327 326 325 324 326 327 326 325 325 324 324 325 325 325 326 326 326 326 326 329 332 333 332 331 330 329 329 328 327 328 327 326 326 326 326 325 325 325 324 322 320 317 315 315 315 314 312
333 331 331 332 331 330 329 328 328 328 328 327 328 327 328 327 326 325 324 323 325 326 326 324 323 323 323 324 324 324 325 324 324 325 325 326 329 332 332 331 330 329 329 329 329 329 328 325 323 324 323 323 324 324 323 321 320 318 316 315 315 314 311
331 330 330 331 331 329 329 328 328 328 328 328 328 328 328 327 326 324 323 322 324 325 325 323 322 322 322 322 322 322 322 322 321 323 324 324 326 329 331 330 329 330 330 329 329 327 325 323 321 321 321 321 322 322 321 320 320 318 316 314 314 313 312
329 329 329 329 329 328 328 327 327 327 327 327 328 327 327 327 325 323 321 321 321 323 323 322 321 321 321 321 320 320 319 319 320 322 323 324 324 326 327 326 328 331 329 327 326 324 322 321 320 319 319 320 321 321 320 320 319 317 315 314 313 313 312
329 328 328 328 328 328 327 327 326 326 326 326 327 327 327 326 323 322 320 319 319 320 321 321 321 320 320 320 319 318 318 319 321 322 323 323 323 324 324 324 327 328 326 324 324 322 321 320 319 317 317 318 319 319 319 319 318 317 316 314 313 313 312
329 329 328 328 327 327 327 327 326 326 325 326 327 327 326 324 323 321 319 318 318 318 319 320 321 320 320 319 318 318 319 320 322 323 322 322 322 323 323 323 325 326 324 323 322 321 320 319 318 316 316 316 318 317 317 318 318 318 317 314 313 313 312
328 328 327 327 327 327 327 327 326 324 324 326 326 326 325 323 322 320 318 317 317 317 318 319 319 318 318 318 318 318 319 320 321 321 321 321 321 321 322 322 323 323 323 323 321 320 320 319 318 317 316 316 316 316 316 316 316 317 317 315 313 313 312
329 328 327 326 326 326 326 326 325 323 323 324 325 325 324 323 322 319 317 316 317 317 318 318 317 317 317 317 318 318 318 319 320 320 320 320 320 320 320 321 321 322 322 322 322 321 320 320 318 317 317 316 316 316 316 315 315 316 316 315 314 313 313
328 328 328 327 326 325 326 325 324 323 323 323 324 324 324 323 321 318 316 316 317 316 316 316 316 316 316 317 317 317 318 319 319 319 319 319 319 319 319 320 320 321 322 322 321 321 321 320 320 319 318 317 316 316 317 316 316 316 316 316 315 315 314
328 328 328 328 326 325 325 325 324 323 323 323 323 323 323 322 320 317 316 316 316 316 316 316 317 317 317 318 318 318 318 318 318 318 318 318 319 319 319 319 319 320 320 321 321 321 321 321 321 320 320 319 319 318 317 317 316 316 316 317 316 316 315
328 328 328 328 327 325 325 325 324 323 323 323 322 321 322 322 320 317 316 316 316 316 317 317 318 319 319 320 320 320 320 320 320 320 320 320 319 319 319 318 318 319 319 320 320 320 321 321 321 320 320 319 319 319 319 318 317 316 316 317 316 316 316
327 326 327 328 327 325 325 324 323 322 322 322 320 320 321 321 319 318 316 316 317 317 318 320 321 322 322 322 322 322 322 322 322 322 323 323 322 322 321 320 320 321 320 318 318 318 319 319 319 320 320 320 320 319 319 319 319 318 317 317 317 317 317
324 324 325 326 326 325 324 324 323 322 321 321 320 320 320 319 319 318 317 317 319 318 320 322 322 322 323 323 323 323 323 323 323 323 324 324 324 324 323 323 323 322 319 317 317 316 316 316 315 316 318 320 321 321 320 319 319 318 318 318 317 317 317
322 322 323 324 325 325 324 324 323 322 321 321 320 320 319 319 319 319 318 318 320 320 323 323 321 321 322 323 324 324 324 323 324 325 324 324 325 324 324 324 323 321 318 318 317 316 315 316 316 315 315 317 319 321 321 321 321 320 319 319 318 318 317
322 321 322 322 323 324 324 323 323 322 322 322 320 320 320 319 320 319 318 320 321 322 323 321 318 319 320 320 322 324 324 324 324 324 324 324 324 324 324 324 325 323 321 320 320 320 318 317 316 316 316 316 317 318 318 319 321 322 322 321 320 319 318
320 319 320 320 321 322 322 323 323 324 323 322 321 321 320 320 320 319 319 320 321 322 322 319 316 318 318 319 320 321 323 324 324 323 323 323 324 324 324 324 323 324 324 322 321 322 322 321 320 318 317 316 316 317 316 316 317 319 320 321 321 321 319
320 319 318 317 319 320 320 319 320 320 321 322 322 322 322 322 321 320 320 320 321 322 322 319 317 318 318 318 319 319 321 323 324 324 324 324 324 324 323 322 320 321 322 322 322 322 322 323 324 322 320 318 317 317 318 317 316 316 316 318 320 322 321
321 320 319 317 317 318 318 319 319 319 318 319 320 320 321 322 322 322 322 321 322 323 321 319 318 318 318 318 318 318 320 322 324 324 324 325 325 324 323 321 319 318 319 321 322 323 322 322 323 324 323 322 321 320 320 320 319 317 315 316 318 321 322
322 321 320 319 319 319 320 320 320 319 318 318 318 318 318 319 321 322 321 321 322 322 320 317 318 317 317 318 317 317 319 322 322 322 323 323 323 324 324 322 319 317 317 318 321 324 323 322 321 322 323 323 322 321 322 322 321 319 317 316 315 317 322
321 321 321 321 321 321 321 320 320 319 319 319 318 318 317 318 320 322 322 322 323 322 320 317 317 316 316 315 315 316 319 321 320 320 321 321 320 321 323 322 321 318 317 319 322 324 324 322 320 320 321 322 322 322 323 323 321 319 318 316 314 314 318
320 320 321 321 322 322 322 322 321 321 321 320 320 321 321 321 322 322 322 323 322 322 321 320 318 317 317 317 316 317 320 322 321 321 322 321 320 321 322 322 321 320 319 320 322 323 323 322 320 320 320 321 321 321 321 321 320 319 318 316 315 314 315
319 319 319 320 320 320 321 322 322 322 321 320 321 322 322 322 321 321 321 321 321 321 321 320 319 319 318 318 318 318 319 321 322 322 322 321 321 321 321 321 321 321 321 321 320 321 321 320 319 319 320 321 321 320 319 318 316 315 315 313 313 313 313
316 317 318 318 318 318 319 320 320 320 321 321 320 320 321 320 320 320 320 319 319 320 321 319 318 319 319 318 318 318 318 320 321 321 321 321 320 320 320 319 319 320 321 319 318 319 318 317 317 318 319 321 321 319 318 316 314 313 312 311 310 310 309
313 313 314 314 315 316 317 317 318 319 320 320 320 320 320 320 318 318 318 318 317 318 318 317 316 316 317 317 318 317 317 319 320 319 319 320 320 320 320 319 319 319 320 319 318 317 316 315 316 317 317 319 319 318 317 316 314 313 312 310 309 308 307
309 310 311 312 312 313 314 314 315 316 317 317 318 318 319 319 318 318 318 317 317 315 313 312 311 312 313 314 315 316 316 317 317 317 319 320 320 320 320 319 319 319 319 317 317 316 316 315 316 316 316 316 316 317 316 314 313 312 310 309 308 307 306
306 307 308 309 310 310 311 311 312 313 314 315 315 315 316 316 316 316 316 316 317 315 312 310 308 307 308 310 311 312 313 314 314 314 315 317 318 318 318 318 318 317 317 316 315 315 315 315 315 315 316 316 315 314 314 313 312 311 310 308 307 306 307
304 305 305 306 306 308 308 309 309 310 311 312 312 312 312 313 313 314 314 314 315 314 314 313 309 306 305 306 307 307 308 309 310 311 312 314 315 315 315 315 314 314 314 314 314 314 314 314 314 314 315 315 314 313 312 312 311 310 309 308 307 307 307

ECMWFFLT1_925_thetae_084.txt.gz
Theta_e
338 336 335 335 334 334 335 335 334 334 335 335 333 333 333 334 335 335 334 334 335 334 333 333 333 334 333 332 332 332 333 334 333 332 332 332 333 332 332 332 330 330 332 332 331 331 331 330 330 329 328 328 328 327 328 328 328 328 328 327 326 326 326
337 336 335 335 334 333 334 334 334 333 334 333 332 332 333 334 335 335 334 334 335 334 334 333 333 334 333 332 332 332 331 332 331 332 333 332 331 331 332 333 332 331 331 331 331 330 330 330 330 329 328 328 327 327 327 327 327 327 326 326 325 325 324
335 336 335 334 334 334 333 333 333 333 333 333 331 331 331 333 334 335 334 334 334 333 332 332 334 334 333 332 333 333 332 331 331 332 333 333 332 332 333 333 332 331 329 329 331 331 330 330 329 329 329 328 327 327 327 327 327 326 325 325 324 323 323
333 334 334 333 333 333 334 334 333 332 332 333 332 331 331 333 334 334 333 333 332 331 330 331 332 333 333 333 333 333 332 331 331 331 332 334 333 332 332 332 331 330 328 329 330 330 331 330 330 329 328 327 327 327 327 327 327 326 324 323 322 320 321
334 334 334 333 333 333 335 334 333 332 332 333 332 331 331 332 332 332 332 331 330 329 329 329 330 330 331 333 334 334 333 332 332 332 332 334 333 332 332 331 330 330 330 329 329 329 330 329 329 328 327 326 326 326 326 326 326 325 322 319 317 317 317
334 334 333 333 333 333 334 334 333 332 331 332 332 331 331 331 331 330 330 330 329 329 328 328 328 329 329 330 332 333 333 332 332 331 332 333 333 332 332 331 329 330 331 330 329 329 329 328 328 328 327 326 326 326 326 326 325 322 317 314 314 313 312
334 333 332 332 333 333 333 332 332 331 331 332 332 332 331 331 330 329 329 329 329 329 329 328 328 328 328 329 330 331 332 331 330 330 331 331 332 331 330 330 329 330 330 330 330 329 329 329 328 327 326 326 325 325 325 325 324 320 315 312 311 311 311
333 333 332 332 333 333 333 332 331 331 331 331 331 331 331 330 329 329 329 329 329 329 329 329 328 328 327 328 329 330 332 331 331 331 330 330 330 330 329 329 330 329 328 328 330 329 328 329 328 327 326 326 326 325 324 324 322 318 314 312 310 309 309
333 333 332 333 333 333 332 331 330 330 330 331 330 330 330 329 329 328 328 328 329 329 329 329 328 327 327 327 327 328 330 330 330 331 331 330 330 330 330 330 330 329 327 328 329 328 328 328 327 327 326 326 326 325 325 325 321 317 314 312 310 309 307
333 332 332 332 332 332 331 330 329 329 329 329 330 329 329 328 327 327 327 328 328 328 328 328 327 326 326 326 327 327 328 328 329 330 330 331 331 331 331 329 329 329 328 328 329 328 327 327 327 327 326 326 325 325 325 325 321 316 315 314 310 309 308
332 332 332 332 331 330 329 329 329 329 329 329 329 329 328 327 326 326 326 327 328 327 327 327 326 325 326 326 326 327 326 327 327 328 330 331 331 330 330 329 329 329 328 328 329 329 327 327 327 327 327 326 325 324 324 323 321 316 315 315 311 310 309
332 331 331 331 330 330 329 329 328 328 329 329 328 328 327 327 326 325 325 326 327 326 325 325 324 325 325 325 325 325 325 326 326 326 328 330 331 331 330 330 329 328 328 328 328 328 327 327 327 327 326 326 325 324 322 320 320 318 316 315 313 311 309
331 331 331 330 329 329 329 329 328 328 328 328 328 328 327 327 325 324 324 326 326 325 324 323 323 323 324 324 324 324 324 324 324 324 325 327 330 330 330 330 330 329 328 328 328 326 325 325 326 325 324 324 325 324 321 319 319 318 316 315 313 310 308
331 331 330 328 327 328 329 328 328 328 328 328 328 328 327 326 324 323 323 325 326 325 323 322 322 322 322 322 322 321 321 320 322 324 324 325 327 328 329 329 330 329 329 328 327 325 323 323 324 324 323 323 323 323 322 320 319 317 316 315 312 310 309
330 330 329 327 327 327 328 328 328 328 328 328 328 328 327 325 323 322 322 323 324 324 323 322 321 321 321 320 319 318 319 320 322 323 324 324 326 326 327 328 330 329 328 327 325 324 322 321 321 321 322 323 322 322 321 320 318 317 316 314 312 311 310
328 328 328 327 327 327 327 327 327 327 327 327 327 327 326 324 322 320 320 320 321 322 322 321 321 321 320 319 318 318 320 322 323 323 323 324 324 324 325 327 328 327 325 324 323 322 321 320 319 318 319 321 321 321 321 319 317 316 315 314 313 312 311
328 327 327 327 327 327 327 326 326 326 326 327 327 327 325 323 321 320 319 318 319 320 321 321 321 320 319 319 318 319 321 322 322 323 323 323 323 323 324 326 326 325 323 323 322 320 319 319 319 317 317 318 319 319 320 319 317 315 314 314 314 313 312
329 328 327 327 327 327 327 326 325 326 326 327 327 325 324 322 321 319 318 317 318 319 320 320 320 319 318 318 319 320 321 321 322 322 322 321 322 322 323 324 324 324 323 322 321 320 319 319 319 317 316 316 316 317 319 318 317 316 315 314 314 313 312
328 328 327 327 327 327 327 325 325 325 326 326 326 324 323 322 320 317 316 317 318 318 318 318 318 317 317 318 318 319 320 320 321 321 320 320 321 321 321 322 323 322 322 322 322 321 320 320 319 318 317 316 316 316 317 316 317 317 316 315 314 313 313
326 327 327 327 327 327 326 324 323 324 324 325 325 324 323 322 319 316 316 317 317 317 317 316 316 316 317 318 318 319 320 320 320 319 319 319 320 320 320 321 322 322 322 322 321 321 321 321 320 320 319 318 317 316 315 316 316 316 316 315 313 313 313
326 327 327 326 326 326 325 324 323 323 323 324 324 324 322 321 319 316 316 317 316 315 316 316 316 317 317 317 318 318 319 319 318 318 319 319 319 319 319 320 321 321 321 322 322 322 321 321 321 321 320 320 319 318 317 317 317 316 316 316 314 314 314
328 328 327 326 326 326 325 324 323 323 323 323 323 323 322 320 318 316 316 316 316 317 319 319 319 319 319 319 319 319 320 320 320 320 321 320 319 319 319 320 321 322 321 321 321 321 321 321 321 321 321 320 320 320 318 318 318 318 317 317 316 315 315
328 328 327 326 325 325 325 324 323 323 323 322 320 322 322 320 318 317 316 316 317 321 322 321 321 322 322 322 322 322 322 322 322 322 323 322 322 322 322 322 323 322 320 319 319 319 318 319 319 319 320 320 320 321 320 319 319 319 319 319 318 317 317
327 327 327 326 325 325 324 323 322 322 322 321 320 321 321 319 318 317 317 317 320 323 323 322 321 323 323 323 323 323 323 323 323 323 323 323 323 323 322 322 322 322 320 319 318 318 316 316 316 315 316 316 317 319 321 321 321 321 321 321 320 319 318
325 326 326 325 325 324 324 323 323 323 322 321 320 320 320 319 319 318 318 319 322 323 323 322 321 321 322 323 324 323 324 324 323 323 323 323 322 323 322 322 322 321 320 319 320 321 319 318 317 316 315 314 314 315 318 320 321 320 321 321 321 320 319
323 324 324 324 324 324 324 323 323 323 322 321 320 320 320 320 319 319 319 321 322 322 321 320 318 319 320 321 322 322 323 323 323 323 323 322 321 321 321 321 321 320 319 319 320 321 322 321 321 320 319 317 315 314 314 316 318 318 318 318 319 319 319
322 322 323 323 323 323 322 323 323 322 322 321 321 321 321 321 321 321 321 321 322 321 320 317 316 317 318 319 319 320 320 321 323 323 323 322 322 321 321 321 321 320 319 319 319 319 320 320 320 320 321 320 319 318 316 316 316 316 316 316 316 316 318
320 321 321 322 322 321 320 321 322 321 321 321 321 321 321 321 322 322 322 322 322 320 318 317 317 317 318 318 318 318 318 319 321 322 323 322 322 322 322 322 323 321 320 319 318 318 319 319 319 319 319 320 321 321 320 320 319 318 318 317 316 315 316
318 319 319 320 320 320 320 321 321 320 320 320 320 320 320 321 321 320 320 321 320 320 319 318 318 318 318 318 318 317 317 319 320 321 322 321 321 321 321 322 323 322 321 320 319 318 319 320 319 318 318 320 320 320 321 321 322 321 321 320 318 316 317
320 319 319 320 320 320 320 320 320 320 319 318 317 319 320 320 319 318 318 317 318 319 319 318 318 318 317 317 316 315 316 320 322 321 321 321 320 320 321 323 323 322 321 320 319 318 318 320 321 319 319 320 320 321 321 321 321 321 322 321 320 319 318
321 321 321 321 320 320 319 319 319 320 319 318 319 320 321 320 320 320 319 319 319 319 320 319 319 318 317 316 316 316 317 320 321 321 321 321 321 321 321 322 322 321 321 321 319 318 319 321 322 321 320 320 320 321 322 322 321 320 320 320 320 320 319
320 320 321 321 320 320 320 320 320 321 321 321 322 323 322 321 321 321 320 321 320 320 320 320 320 319 319 318 318 318 318 319 320 321 321 321 321 321 321 320 319 319 319 319 320 319 319 320 320 320 319 319 320 321 321 321 320 319 319 318 318 318 317
318 318 319 320 320 320 321 322 322 322 322 322 323 322 322 321 321 320 320 320 320 319 320 320 319 318 319 319 319 318 318 320 321 321 320 320 320 320 320 319 318 318 318 319 319 319 319 318 318 317 316 317 318 319 320 320 320 319 317 316 316 315 315
313 315 316 317 318 319 320 320 320 321 321 321 320 321 320 320 319 319 319 319 319 319 319 318 316 316 317 318 318 317 317 318 319 318 318 319 318 317 318 319 318 318 318 318 318 317 316 316 315 315 315 315 316 317 318 319 319 318 316 315 314 313 313
309 310 311 312 313 314 316 318 319 319 319 319 319 319 319 318 318 318 318 318 316 315 314 313 312 312 313 314 314 315 315 315 315 314 315 317 316 315 316 317 317 316 315 315 315 315 314 314 314 314 314 314 315 316 316 317 317 316 314 313 312 312 312
306 306 307 308 309 310 311 313 314 315 316 317 318 318 318 318 318 318 318 316 313 312 311 311 309 308 308 308 309 310 310 310 310 310 311 314 314 312 312 313 312 312 311 311 311 311 311 311 312 313 313 313 313 314 315 315 314 314 313 312 311 311 310
304 305 305 306 306 307 307 308 309 310 311 313 314 316 317 317 318 318 318 316 314 313 312 311 309 307 307 307 307 307 307 307 308 307 308 310 311 310 308 309 309 309 308 308 308 308 308 308 309 310 311 312 312 312 313 313 313 313 313 312 311 310 309

ECMWFFLT1_925_thetae_087.txt.gz
Theta_e
334 335 335 335 334 334 334 335 335 335 335 334 334 333 333 332 333 334 334 333 333 333 334 334 333 332 332 332 332 332 331 332 333 332 332 332 331 332 332 331 331 330 329 330 329 329 330 330 329 328 328 328 328 328 328 328 328 327 327 327 327 326 326
335 335 335 335 334 334 334 335 335 334 334 334 334 333 332 333 333 334 334 334 334 334 333 333 332 332 332 331 331 331 332 332 333 332 332 331 331 332 332 331 331 331 330 330 329 328 328 329 329 327 327 327 327 327 327 327 328 327 326 326 325 325 325
335 335 335 335 335 335 334 334 334 334 334 334 334 333 333 333 333 334 334 334 334 334 334 333 332 332 332 332 331 331 333 333 332 332 332 332 331 331 331 331 332 331 330 330 329 328 328 328 328 327 326 327 327 327 326 327 327 326 326 325 324 324 323
335 335 334 334 334 335 334 334 334 333 334 334 333 332 333 333 333 333 332 333 332 333 333 333 333 333 332 332 332 331 332 331 331 332 332 331 331 332 332 331 331 331 330 331 329 328 328 327 328 327 326 327 327 326 326 326 326 325 325 324 323 322 320
335 334 334 333 333 334 334 334 333 332 333 333 332 331 331 332 333 332 332 332 331 331 332 332 333 333 332 332 333 332 331 331 331 332 332 332 331 332 332 331 330 329 330 331 330 329 328 327 327 327 326 326 326 326 326 325 325 325 324 323 322 321 318
336 335 334 333 333 333 333 333 333 332 332 332 331 331 331 331 332 331 331 331 331 330 330 331 332 332 332 333 333 333 332 331 331 331 332 333 331 331 332 330 329 328 328 330 330 329 328 327 327 326 325 326 326 326 326 326 325 323 322 321 321 319 316
335 334 334 334 333 333 333 333 333 332 333 332 331 331 331 331 331 330 330 330 330 329 329 329 329 330 331 332 333 333 332 332 331 331 332 332 332 332 331 330 329 329 329 328 329 329 328 327 326 325 325 325 325 325 325 326 322 316 316 317 317 314 310
334 334 333 333 334 334 334 333 333 333 332 332 331 331 331 330 330 330 329 329 328 329 329 329 329 329 330 331 332 332 332 331 330 331 332 332 332 332 331 329 330 331 330 328 328 329 328 328 326 325 325 324 325 325 324 326 321 312 312 313 311 309 306
332 333 333 333 333 333 333 332 332 332 332 332 331 331 330 330 329 329 328 328 328 328 328 328 328 329 329 329 330 332 331 330 329 330 330 330 331 331 330 329 329 330 330 329 329 328 327 327 326 325 325 324 326 325 325 326 318 309 310 311 310 308 306
331 332 332 333 333 332 332 331 331 331 332 331 331 330 330 329 329 329 329 328 327 327 326 326 327 328 328 328 329 330 331 330 330 330 329 329 329 329 329 330 329 328 329 329 329 328 327 327 325 325 325 325 324 323 325 326 316 307 309 310 309 309 306
331 332 332 332 333 332 331 330 331 331 331 331 331 330 329 329 328 328 328 328 327 326 326 326 327 327 326 327 328 328 329 329 329 330 330 330 330 329 330 330 329 327 328 329 328 328 327 326 325 324 325 324 323 322 323 321 314 309 308 308 309 310 306
332 332 332 332 333 331 330 330 331 331 330 330 330 329 328 327 327 327 328 328 327 327 327 326 326 326 326 327 328 327 327 327 328 330 330 330 330 330 329 329 328 327 328 329 327 327 327 326 325 324 325 324 323 322 320 316 314 312 309 308 310 310 306
332 332 332 332 331 330 329 329 330 330 329 329 328 327 327 327 326 326 327 327 326 326 326 325 325 326 326 326 325 325 326 326 327 329 330 330 330 329 329 329 328 328 329 329 327 327 326 326 326 325 325 325 323 322 318 314 315 313 310 311 311 309 305
332 332 332 331 330 329 329 329 329 329 329 328 327 326 326 325 325 325 326 326 325 325 324 324 325 325 324 324 324 325 326 326 326 327 330 330 330 330 330 329 328 328 328 328 327 327 327 327 327 326 326 325 323 321 317 315 315 313 311 311 312 309 304
331 331 330 329 329 328 329 329 328 328 328 327 327 327 325 324 323 325 326 325 324 323 322 323 323 323 323 323 323 322 323 324 324 326 328 329 329 330 330 329 328 328 328 327 326 326 326 326 326 325 324 325 324 319 316 316 315 313 310 309 311 309 304
331 331 329 329 329 328 328 328 327 327 327 327 327 327 325 323 323 324 325 325 323 322 322 321 321 321 320 320 320 320 321 323 324 324 326 326 327 329 329 329 328 328 327 326 324 324 325 325 324 324 323 324 324 321 317 316 315 313 310 309 310 307 304
330 330 329 328 328 328 327 327 327 328 328 328 328 326 324 322 322 323 324 324 323 322 321 321 320 320 319 319 321 322 322 323 323 324 324 325 326 327 328 329 328 327 326 324 324 323 322 322 322 323 322 321 323 322 319 316 316 314 311 309 309 307 306
330 329 328 328 328 328 327 326 327 327 327 327 327 326 324 322 321 321 321 322 322 321 321 321 320 319 318 319 321 322 322 322 322 323 324 324 324 325 327 327 325 325 324 323 322 321 320 319 319 320 322 321 321 322 320 318 316 314 312 310 309 309 309
329 328 327 327 328 327 327 326 326 326 326 327 326 325 323 321 319 319 319 319 320 320 320 320 319 318 318 319 320 321 321 321 322 322 322 322 322 323 325 325 324 323 323 322 321 320 319 320 318 318 320 320 320 321 321 319 316 314 313 311 310 310 310
328 328 327 327 327 327 326 326 326 326 326 326 325 323 322 320 318 317 317 318 319 319 319 318 318 318 318 318 319 320 320 320 320 321 321 321 321 323 323 323 323 322 322 322 321 321 321 320 320 319 319 318 318 320 321 318 315 314 313 313 312 311 311
328 328 327 327 327 326 325 325 325 326 326 325 324 323 321 318 316 316 317 318 318 318 318 317 317 317 318 318 319 319 319 318 319 319 320 320 321 322 322 322 322 322 322 322 321 321 321 321 321 320 319 318 318 318 319 318 315 314 314 313 313 313 312
327 328 327 327 326 325 324 325 325 325 325 324 323 322 320 317 316 316 317 318 318 317 317 316 316 317 318 318 318 319 318 319 320 320 321 321 321 321 321 321 321 321 321 322 321 321 320 320 320 320 320 320 319 318 318 318 316 315 315 314 313 313 313
326 327 327 326 325 324 323 323 324 324 325 324 323 321 319 317 317 317 318 318 318 319 319 319 318 317 317 318 319 320 320 321 322 322 322 322 322 322 322 321 320 319 319 319 320 320 319 320 319 319 318 318 318 319 319 319 319 318 317 316 315 313 313
327 326 326 326 325 324 323 323 323 323 323 323 323 321 318 318 318 318 319 319 320 320 321 322 322 320 320 321 321 322 323 322 323 323 322 322 322 322 322 322 321 320 319 318 318 318 317 317 316 316 316 315 315 316 318 318 320 320 321 321 319 316 314
326 325 325 325 324 324 323 323 322 322 322 321 322 321 318 318 319 320 320 321 321 321 321 322 323 323 323 323 323 323 323 323 322 322 322 322 321 321 321 321 321 320 319 319 319 319 318 317 316 316 315 315 315 315 315 316 317 318 319 320 320 320 318
324 324 324 324 324 323 323 322 321 321 321 320 321 320 319 320 321 321 321 321 320 320 320 320 322 323 323 323 323 323 323 323 323 322 322 321 320 321 321 321 321 319 318 318 319 320 320 320 319 318 318 319 319 317 316 316 316 316 316 317 317 318 319
322 323 323 323 323 322 322 322 321 321 321 321 321 320 320 321 322 321 321 320 319 318 318 318 320 321 321 321 321 321 322 322 322 322 322 321 321 321 321 320 320 320 320 319 319 319 319 319 319 319 320 320 320 319 318 318 318 319 318 317 316 316 316
322 322 322 322 322 322 321 321 321 321 321 321 321 321 321 321 321 320 319 319 318 317 317 317 318 318 318 318 317 317 319 321 322 321 321 321 320 321 321 321 321 321 321 320 319 318 318 318 317 318 319 319 319 319 319 319 320 320 320 320 319 319 317
321 321 321 321 321 321 321 321 321 321 321 321 321 321 321 321 321 320 319 319 318 317 317 317 318 317 317 317 316 315 318 321 321 321 321 321 320 320 321 322 323 322 321 321 320 320 319 318 317 318 319 319 319 319 320 320 320 320 320 320 321 321 320
321 320 320 320 319 319 320 321 320 320 320 320 320 320 320 320 320 320 320 319 318 318 317 317 317 317 317 318 317 316 319 321 322 321 321 321 321 321 322 323 323 322 321 321 320 320 319 318 318 319 320 320 320 320 320 320 320 321 321 321 320 320 321
319 319 320 321 319 318 319 320 320 319 319 319 320 320 319 319 319 318 318 318 316 315 316 317 317 317 317 317 317 317 317 320 321 321 321 321 321 321 321 322 321 320 320 320 320 319 319 319 319 319 320 320 319 320 319 319 320 320 320 320 320 319 319
320 320 320 320 320 320 319 319 319 319 318 319 320 320 320 319 319 319 319 319 317 316 318 318 318 318 318 318 318 317 317 318 320 321 321 321 321 321 320 319 318 318 318 318 318 318 318 317 317 317 317 317 317 317 317 317 318 319 319 319 319 319 318
319 320 321 320 320 321 321 320 319 319 320 320 320 320 320 320 320 320 320 319 319 318 318 318 317 318 318 318 318 318 319 319 319 319 319 319 319 319 319 318 318 317 317 317 317 316 316 315 314 313 314 314 315 315 315 315 316 317 317 318 317 317 316
310 314 318 320 320 321 321 321 320 320 321 322 321 321 320 320 320 320 319 318 317 315 315 315 315 315 316 316 316 316 316 316 317 318 317 317 316 316 316 316 316 316 315 315 314 314 313 312 311 311 311 313 313 314 314 314 315 315 316 316 315 314 313
305 307 310 314 317 319 321 321 321 321 321 321 321 320 319 319 318 317 315 312 311 309 309 309 310 309 310 310 310 310 310 310 312 315 315 314 312 311 311 311 311 311 311 311 310 310 309 309 308 308 309 310 311 312 313 313 313 314 314 314 314 313 312
306 305 306 307 310 312 314 315 317 319 320 319 319 318 318 318 316 312 309 307 306 306 307 307 307 306 306 307 307 308 308 308 309 312 311 310 309 308 307 307 307 307 307 307 307 307 307 307 307 307 307 307 308 310 311 313 313 313 313 313 313 312 312
305 305 305 306 306 306 306 308 310 312 315 317 318 318 318 318 315 310 306 306 307 307 308 308 308 307 306 307 308 309 309 309 309 309 309 308 308 307 306 306 305 306 307 307 306 306 307 307 307 307 306 306 305 306 308 310 311 311 311 311 311 311 311

ECMWFFLT1_925_thetae_090.txt.gz
Theta_e
333 334 335 335 335 335 335 335 335 335 334 334 334 334 334 333 333 333 333 333 333 333 333 333 333 333 333 333 333 333 332 332 332 331 331 331 331 331 330 331 331 330 328 328 328 328 330 330 329 328 328 328 327 328 328 328 328 328 328 327 327 327 327
333 334 335 335 335 335 334 334 335 334 334 334 334 334 334 333 332 332 333 333 332 333 333 333 332 332 333 333 332 332 331 331 332 332 331 331 331 331 330 330 331 329 328 329 328 328 328 329 330 328 327 327 327 327 328 328 328 328 327 327 327 327 327
333 334 335 335 335 335 335 334 334 335 335 334 334 333 333 333 332 333 334 333 332 333 333 333 332 332 332 333 332 331 331 331 332 332 331 330 330 330 330 330 330 329 328 328 328 328 327 327 328 328 327 327 326 326 327 328 327 327 327 326 326 325 325
333 334 334 335 335 335 335 335 334 335 335 334 334 333 333 332 332 333 333 333 333 333 333 333 332 332 331 332 332 331 331 331 332 332 331 331 331 330 330 330 329 329 329 328 327 328 327 326 327 327 327 327 326 326 326 327 327 326 326 325 324 323 324
334 334 334 334 334 334 334 335 335 334 334 334 334 333 332 332 332 333 334 334 334 334 333 333 332 332 332 332 331 331 331 331 331 332 331 331 331 331 330 330 329 329 329 328 328 327 327 326 327 327 326 326 326 326 326 327 326 326 325 324 323 323 324
334 335 333 333 334 334 334 334 334 334 334 334 334 333 332 333 333 333 333 333 333 333 333 333 332 332 332 332 331 331 332 331 331 331 331 331 331 331 330 330 330 330 329 329 328 327 327 326 326 326 325 326 326 325 326 326 326 325 324 324 323 322 323
334 334 334 333 332 333 334 334 334 334 334 333 334 333 332 333 333 332 332 332 332 332 332 333 333 332 332 332 331 331 331 331 331 331 331 331 331 331 331 330 330 330 329 329 329 327 327 326 326 325 325 325 325 325 325 325 324 323 321 322 322 322 323
334 334 334 333 331 332 333 333 333 333 333 333 333 332 331 332 332 332 331 330 330 330 331 332 332 332 332 332 332 332 331 330 331 332 332 331 331 331 331 330 329 329 328 329 329 327 327 327 326 326 325 325 325 325 324 322 320 320 319 320 321 322 323
333 333 333 333 332 331 333 333 333 333 333 333 332 331 331 331 331 331 330 329 330 330 330 330 330 331 332 332 332 332 331 331 330 331 332 332 331 331 331 330 329 329 328 329 329 328 328 327 326 326 325 325 325 325 325 321 315 313 317 318 318 320 321
333 333 332 333 332 331 332 333 333 332 332 332 331 331 331 330 330 330 329 329 329 329 329 329 329 330 331 332 332 332 331 331 330 331 331 332 331 331 331 329 329 330 329 328 329 329 328 327 326 326 325 325 324 324 326 324 314 309 313 315 313 316 316
333 333 332 333 332 332 332 333 332 332 332 331 330 330 330 329 330 330 328 328 328 329 329 328 328 329 330 330 331 331 331 330 330 330 330 331 332 331 330 329 328 330 329 328 328 328 329 327 326 326 325 325 324 323 324 322 314 309 311 311 310 311 309
332 332 332 332 333 333 333 332 332 332 331 330 330 330 330 329 329 329 328 328 328 328 328 328 328 328 328 329 330 330 331 330 329 330 330 330 330 329 329 329 328 329 329 329 329 328 328 327 327 326 326 325 323 322 321 317 312 310 310 310 309 309 307
332 332 331 332 333 333 333 331 331 332 331 330 330 330 329 329 329 328 328 327 327 327 327 327 327 327 328 328 329 329 330 329 330 330 329 329 329 329 329 329 328 328 328 329 328 328 327 327 326 325 325 325 322 321 319 314 310 309 309 309 309 309 308
332 332 331 332 333 332 331 330 330 331 331 330 330 329 329 328 328 327 326 326 326 326 326 327 326 326 327 327 327 327 328 329 330 330 329 330 330 329 329 329 328 328 328 328 328 328 327 326 325 324 325 325 322 321 319 313 309 309 309 308 308 309 309
332 332 332 333 333 331 330 330 329 330 329 329 329 328 328 328 327 327 326 327 327 327 326 326 326 326 326 326 326 326 327 328 329 330 330 330 330 330 329 328 328 328 328 328 327 327 327 326 325 324 324 325 323 322 320 315 311 309 308 308 308 309 307
332 332 333 333 332 330 329 330 330 330 329 328 327 327 327 327 326 327 327 326 326 326 325 325 326 326 325 324 324 326 326 326 327 329 330 330 329 329 329 328 328 328 328 328 326 326 326 326 325 325 324 325 324 322 320 317 313 310 309 308 309 308 305
332 331 332 332 331 329 328 329 329 329 327 326 326 326 326 325 325 327 326 324 323 324 325 325 325 324 323 323 324 324 325 325 325 327 329 330 330 329 329 328 327 327 327 327 325 325 326 326 325 325 325 324 325 323 320 317 316 313 311 309 309 309 305
330 330 330 329 329 328 327 327 328 327 326 326 326 325 324 324 325 326 325 323 322 322 323 323 322 321 321 322 321 321 322 324 325 325 327 328 328 329 328 327 327 326 326 326 325 325 326 326 325 325 325 324 324 321 317 315 316 315 313 312 310 309 305
329 328 328 327 328 327 326 326 327 327 327 326 326 324 323 323 325 325 324 323 321 321 321 321 319 319 321 321 321 321 322 324 324 324 326 327 327 328 328 326 325 325 325 324 323 322 323 323 322 322 323 324 323 320 316 315 315 315 315 314 312 309 306
328 328 328 327 327 326 326 326 327 327 327 327 325 323 322 323 324 325 324 322 321 320 320 320 318 319 321 322 322 322 322 323 323 324 325 325 326 327 326 325 323 323 322 321 320 320 320 319 318 318 320 322 323 321 317 316 315 315 314 313 312 311 307
328 328 327 326 326 326 326 327 327 327 327 326 324 323 322 321 322 323 322 322 321 320 320 319 318 319 321 321 321 321 322 323 324 324 324 324 326 325 323 322 322 321 321 321 320 320 320 320 319 318 319 320 322 322 320 317 315 315 313 312 312 310 308
328 327 326 326 327 327 327 327 327 327 327 325 323 322 321 320 320 320 321 321 320 320 319 319 318 318 320 319 319 320 322 322 322 322 323 323 324 323 322 321 321 321 321 320 320 320 320 320 319 319 319 319 319 320 320 318 315 314 313 312 311 310 308
327 326 325 326 327 326 326 326 326 326 326 324 323 321 319 318 318 318 319 320 320 319 318 317 317 318 319 319 319 320 321 321 321 321 322 322 322 321 321 320 320 320 320 320 320 319 319 319 319 319 319 319 319 319 320 318 315 313 312 311 310 310 310
326 326 325 325 325 324 325 326 325 325 325 323 322 320 317 316 317 318 318 319 319 318 317 317 317 318 318 318 319 319 320 320 320 320 321 321 321 320 320 320 319 319 319 319 318 317 317 317 317 317 317 317 317 317 318 318 317 316 315 314 313 312 312
324 324 324 324 323 323 324 325 325 325 324 322 321 319 317 317 317 318 318 318 318 317 316 318 319 319 319 320 320 321 321 321 321 321 321 321 321 321 321 320 319 319 318 318 317 317 317 317 317 317 317 316 316 315 315 316 317 318 318 318 317 317 316
323 323 323 323 322 322 324 325 325 324 323 322 320 318 318 318 318 319 319 319 319 319 319 320 321 321 321 321 322 322 322 322 322 321 321 321 321 321 321 320 319 319 318 318 318 318 319 319 319 319 319 318 319 318 317 317 317 317 318 318 318 318 317
323 322 322 322 322 322 323 323 323 323 322 321 319 318 318 319 319 320 321 321 322 322 322 322 322 322 322 322 322 322 322 322 321 321 320 320 320 320 320 320 320 319 319 319 319 318 318 318 318 318 318 319 319 319 319 319 319 319 319 319 319 318 318
322 322 322 322 322 322 322 322 322 321 321 320 319 319 319 319 320 320 321 322 322 322 322 322 322 322 322 322 322 322 321 321 321 321 320 320 321 321 320 321 321 320 320 319 319 318 318 318 318 317 318 318 319 319 319 319 319 320 320 320 320 320 319
321 321 321 321 321 321 321 321 321 320 320 320 319 319 319 319 319 319 319 320 320 320 319 319 320 321 321 322 322 320 319 320 321 321 321 321 321 321 321 322 322 321 320 320 320 320 319 319 318 318 318 319 319 319 319 319 320 320 320 320 320 320 319
320 320 321 320 319 320 320 320 320 320 319 318 318 318 318 318 317 318 317 318 318 318 317 317 318 318 318 319 319 319 319 320 321 321 321 321 321 321 322 323 323 322 321 321 320 320 319 319 319 318 319 319 319 319 319 319 319 319 319 319 319 319 318
320 319 320 320 319 319 319 319 319 319 319 318 317 317 317 317 317 317 317 317 317 317 316 316 316 317 317 316 317 318 319 320 321 321 321 321 321 321 322 323 322 321 320 320 319 318 318 318 317 317 316 316 316 316 316 316 317 317 317 317 317 317 317
320 319 319 319 319 319 319 319 319 319 319 319 318 317 317 317 316 316 316 317 317 316 316 316 316 317 317 318 319 320 320 321 321 321 321 321 320 320 320 319 319 318 318 317 317 317 317 316 314 312 311 311 312 313 313 314 314 314 315 315 315 315 315
320 320 319 318 318 319 319 319 319 319 319 319 318 318 317 317 316 316 316 317 317 318 318 318 317 317 317 318 319 320 320 321 321 320 320 319 319 318 318 317 316 316 316 315 314 314 313 312 310 309 308 308 309 310 311 312 313 313 314 314 314 314 313
319 319 319 319 320 320 320 319 319 319 319 318 318 317 317 316 316 315 315 315 315 316 316 316 317 317 318 318 319 319 319 320 319 319 317 316 315 315 313 313 312 312 311 310 309 309 308 307 307 306 306 306 306 307 308 310 312 312 313 313 313 312 312
315 318 319 319 320 320 320 320 320 320 320 319 318 317 315 314 312 310 309 309 309 309 310 311 312 314 315 316 317 318 318 317 317 316 314 311 310 309 308 308 308 307 307 307 306 307 306 306 306 305 304 304 304 304 305 307 310 312 312 312 311 311 311
307 311 313 316 318 318 318 319 319 319 319 318 316 313 310 309 307 307 306 307 307 307 307 308 308 309 310 311 313 314 315 314 313 313 312 308 306 306 306 306 306 306 306 306 306 307 306 305 305 304 303 303 302 302 302 303 305 308 310 310 310 310 310
302 304 306 309 313 315 316 317 318 318 317 315 311 308 307 306 306 306 306 306 306 307 307 308 308 308 308 308 309 309 310 310 309 309 308 307 306 305 304 304 306 306 307 306 307 307 306 305 304 304 303 303 302 302 302 302 303 304 307 308 308 308 308

ECMWFFLT1_925_thetae_093.txt.gz
Theta_e
334 334 334 334 334 334 331 330 332 334 334 334 334 334 335 334 333 334 333 333 333 333 333 333 333 333 333 332 332 332 331 331 330 330 330 330 330 329 329 330 330 329 327 327 327 327 328 329 328 327 327 328 328 328 327 327 327 328 328 328 328 328 327
334 334 334 334 334 334 331 330 332 334 334 334 335 335 335 334 333 333 332 333 333 333 333 333 333 333 332 332 332 332 332 331 331 331 331 331 331 330 330 330 330 328 327 327 327 327 327 328 329 328 326 327 327 327 327 327 327 327 327 328 327 327 327
333 333 333 334 334 334 333 331 333 334 334 335 334 334 334 333 333 333 333 333 333 333 333 333 332 333 333 333 332 332 332 332 331 331 331 331 331 330 330 330 329 328 327 327 327 327 326 327 328 327 326 326 326 326 327 327 327 327 327 327 327 326 326
333 333 333 333 333 334 334 333 333 333 334 334 334 334 334 333 333 333 332 333 333 332 332 333 332 332 333 333 332 332 332 332 331 331 331 331 331 330 330 330 329 329 328 327 327 327 326 325 326 327 326 326 326 326 326 327 327 326 326 326 325 324 324
332 333 333 333 333 334 333 333 334 333 333 334 334 334 333 333 332 332 332 333 333 332 332 333 332 332 332 332 332 332 332 332 331 331 332 331 331 330 330 330 330 329 328 328 328 327 326 325 326 326 326 326 326 326 326 327 326 325 325 325 324 323 323
332 332 333 333 333 333 333 333 333 333 333 333 334 334 333 333 332 332 332 333 333 332 332 332 332 332 331 332 332 332 331 331 331 331 332 332 330 330 330 330 330 329 328 328 328 327 327 325 325 325 325 326 326 326 326 326 325 325 325 324 324 323 323
332 332 333 333 333 333 332 333 333 332 332 333 333 333 333 333 332 331 332 333 333 333 332 332 332 332 331 331 331 331 331 331 331 331 332 331 331 330 330 330 330 329 328 328 328 327 327 326 325 325 325 325 325 325 325 324 324 324 323 323 323 322 323
332 332 332 333 333 333 333 333 333 332 332 333 333 333 333 332 332 331 332 333 333 333 333 332 332 332 331 332 331 331 331 331 331 331 331 331 331 331 330 330 330 329 329 329 328 328 327 326 325 325 325 325 326 326 323 321 322 322 321 322 323 322 322
333 332 333 333 333 333 333 333 332 332 333 333 333 332 333 333 332 332 332 333 333 333 333 333 332 332 332 332 331 330 331 331 331 330 330 331 330 330 331 330 330 330 330 329 329 328 327 326 326 326 325 325 326 327 323 321 319 316 318 321 322 322 321
333 333 333 333 333 333 333 333 332 332 333 333 333 333 333 332 332 332 332 332 332 332 332 332 332 332 332 332 331 331 331 331 331 331 331 331 331 330 331 330 329 329 329 329 328 329 328 327 326 326 326 325 325 326 324 323 318 313 316 320 321 321 320
332 333 333 333 334 333 333 333 332 332 333 333 333 333 333 332 331 332 332 331 331 331 331 331 332 332 332 332 331 332 331 331 331 331 332 332 331 331 331 331 330 328 329 328 328 329 328 327 326 326 325 324 324 324 323 324 320 314 315 319 320 319 317
331 332 333 333 333 333 333 332 332 333 333 333 333 333 332 331 331 331 331 330 330 330 330 330 331 332 332 332 332 332 331 331 331 331 332 332 332 331 331 330 329 328 329 329 328 328 328 327 326 325 325 324 323 323 322 321 320 315 314 318 320 317 313
330 331 332 332 332 333 332 331 331 331 332 332 332 331 331 330 331 330 329 329 329 329 329 329 330 330 331 332 332 332 331 331 331 330 331 332 331 331 331 329 328 328 329 329 328 328 328 327 327 326 325 324 323 323 322 320 317 313 312 315 316 314 310
329 330 330 331 331 331 331 330 330 331 331 331 331 330 330 330 330 329 328 328 328 328 328 328 328 329 329 330 331 331 331 331 330 330 330 331 331 331 330 328 328 328 329 329 328 328 328 327 327 326 325 324 323 322 322 320 314 310 310 312 312 311 309
328 329 330 330 330 329 329 330 331 331 331 331 330 329 329 330 330 328 328 328 328 328 328 328 328 328 328 329 330 330 330 330 329 329 329 329 329 329 329 329 329 328 328 328 328 328 328 327 327 326 325 325 324 322 321 320 315 310 309 310 310 309 309
328 328 329 329 329 329 330 331 331 331 330 330 329 329 329 329 329 328 328 327 327 327 328 327 327 327 328 328 328 328 328 329 329 329 329 329 329 329 329 329 329 328 328 328 328 327 328 327 326 326 325 324 324 323 321 320 317 313 310 309 309 309 308
327 328 329 328 328 329 330 331 331 331 330 329 329 329 329 328 328 328 327 327 327 326 327 327 326 326 327 326 326 326 327 328 329 329 329 329 329 329 329 329 328 327 328 328 327 327 327 326 326 326 325 324 324 324 323 320 318 316 313 311 310 309 308
327 329 328 327 327 328 330 330 329 330 330 330 330 328 328 328 327 327 327 326 327 326 326 326 326 326 326 325 325 325 325 327 328 329 329 329 329 329 329 328 328 327 328 328 327 325 326 326 326 325 325 324 324 324 324 322 319 316 314 313 311 310 309
328 328 327 327 327 328 329 329 328 329 330 329 328 327 327 327 326 326 327 326 326 326 325 325 326 326 325 324 324 325 325 325 326 328 329 329 329 329 328 328 327 326 327 326 326 325 325 326 326 325 325 325 324 324 324 323 320 316 314 314 312 311 310
328 327 326 325 326 326 328 328 328 329 329 327 326 326 327 326 325 326 326 324 324 325 325 325 326 325 323 323 323 324 323 324 325 327 328 329 328 328 327 327 326 325 326 326 325 325 325 325 325 325 325 325 325 324 324 324 321 317 314 312 312 311 311
327 326 325 325 325 326 327 327 327 328 328 326 325 326 326 325 326 326 324 321 322 324 324 323 323 321 321 321 321 321 321 323 325 326 327 327 328 327 326 325 324 323 324 323 323 322 322 322 322 321 321 321 322 324 323 322 318 315 313 312 311 311 311
326 326 325 325 325 325 325 325 326 327 326 325 325 325 323 324 325 325 323 321 320 321 321 320 320 320 321 321 321 320 321 323 324 325 326 326 326 326 324 322 321 320 320 320 320 320 319 319 318 318 318 319 320 322 323 320 316 314 313 312 311 311 310
326 326 325 325 325 324 323 324 325 326 324 324 324 323 322 324 325 324 323 322 320 320 319 318 319 321 322 321 322 322 322 324 324 324 325 324 323 322 321 321 321 320 320 320 319 319 319 319 319 319 318 319 319 320 321 320 317 314 313 312 312 311 309
326 325 324 324 324 324 323 324 325 325 324 323 323 322 322 323 324 324 323 321 320 319 319 318 319 320 321 321 321 322 322 323 323 324 324 322 320 320 319 319 319 319 319 318 317 317 317 317 317 317 317 317 317 318 319 320 319 316 314 313 312 311 310
326 325 325 324 325 324 323 323 323 324 324 322 322 322 322 322 323 323 322 321 320 319 319 318 318 319 320 320 320 321 322 323 323 323 323 321 320 319 318 318 318 318 318 317 317 316 317 317 317 317 316 316 316 317 318 318 318 317 316 315 313 312 312
326 325 325 325 325 325 323 322 322 323 323 322 321 321 320 320 321 321 320 320 319 318 317 317 317 318 319 319 320 322 322 322 322 321 321 320 319 319 318 318 319 319 319 319 319 319 319 319 318 318 319 319 318 318 318 318 318 317 317 316 315 315 314
324 324 324 324 325 325 324 322 321 322 323 321 319 318 318 318 319 319 319 319 318 317 317 318 318 319 318 319 320 320 321 321 321 321 320 320 320 319 319 318 318 318 319 319 319 319 318 318 318 318 318 319 319 319 319 319 319 319 318 318 317 317 316
322 322 322 323 323 323 322 321 320 321 321 319 318 317 316 317 317 317 318 318 317 317 318 319 319 319 319 319 320 320 321 321 320 320 320 320 320 320 319 319 319 318 318 319 318 318 318 318 318 318 318 318 318 319 318 319 319 319 319 319 319 318 318
321 320 321 321 321 321 321 320 320 320 320 318 317 317 316 317 317 317 318 318 318 319 320 321 321 321 321 321 321 321 321 320 320 320 320 320 320 321 320 320 320 319 319 319 319 319 319 319 319 318 318 319 319 319 318 319 319 319 319 319 319 318 318
319 320 321 320 320 320 320 318 317 318 318 317 317 317 317 317 318 318 319 320 320 321 321 321 321 322 321 321 321 321 320 320 320 320 321 321 321 321 321 321 320 320 320 320 319 319 318 318 318 317 316 316 317 317 317 317 317 317 317 317 317 317 316
318 318 319 319 319 319 318 316 315 315 316 316 316 316 317 317 317 318 320 321 321 321 321 321 321 321 321 321 321 320 319 319 320 321 321 321 321 321 322 321 321 320 319 318 317 317 316 316 315 313 312 311 312 312 312 313 313 314 315 315 315 315 315
318 318 318 318 317 317 317 316 315 314 314 314 315 315 316 316 316 317 318 319 319 319 320 320 319 319 319 320 320 318 317 318 319 320 320 320 321 320 320 320 319 318 317 316 316 315 314 314 312 310 308 307 308 308 309 310 310 311 312 314 314 314 313
318 318 318 318 317 317 316 315 315 315 314 313 314 314 314 315 315 316 317 317 317 317 318 318 318 317 317 318 318 318 317 318 319 319 319 319 318 318 317 317 316 316 316 316 315 313 312 311 309 307 306 306 306 307 308 309 310 311 312 312 312 312 312
317 318 319 319 318 317 317 317 317 315 314 314 315 314 313 313 313 314 316 316 316 317 317 318 318 318 318 319 318 318 318 319 319 319 317 316 316 315 314 314 314 313 313 313 312 310 309 307 306 304 304 303 303 304 304 306 309 311 311 311 310 309 309
315 317 318 319 319 318 318 318 318 317 316 315 315 314 313 313 313 313 314 314 315 316 317 317 318 319 320 320 320 319 319 319 318 317 316 313 312 312 311 310 310 309 309 308 308 307 305 304 303 302 302 301 301 301 302 303 305 307 307 307 307 307 307
312 314 316 318 319 318 318 318 318 317 316 315 313 312 311 312 312 312 311 311 312 314 315 316 317 318 318 319 319 318 318 316 315 315 314 311 309 308 307 307 307 307 306 306 305 304 304 303 302 302 302 302 302 302 302 302 302 302 303 303 304 304 305
309 311 313 315 317 317 317 317 316 314 313 313 311 309 308 309 310 309 308 308 309 311 312 314 315 316 316 316 316 315 314 313 312 312 311 308 307 306 306 306 306 306 306 305 304 304 303 303 303 302 302 302 302 302 302 302 302 301 301 301 302 302 302

ECMWFFLT1_925_thetae_096.txt.gz
Theta_e
334 333 334 335 335 335 334 333 333 333 332 332 332 332 333 333 332 332 332 332 333 334 333 333 334 334 334 333 332 331 331 331 330 330 330 330 329 328 327 328 329 327 326 326 326 326 328 328 328 328 328 328 328 328 328 326 326 327 326 325 326 326 326
334 333 334 335 334 334 333 333 332 332 332 332 332 332 333 334 333 332 332 332 333 334 333 333 334 334 333 333 332 332 331 330 330 330 330 330 330 329 328 329 329 327 326 326 326 326 326 327 329 327 326 327 327 328 328 327 327 327 326 325 326 326 326
333 334 334 333 333 333 333 332 332 331 332 333 333 332 333 333 333 333 332 333 333 333 332 333 333 333 333 333 332 332 331 330 330 330 330 330 330 329 328 328 328 327 326 326 326 326 326 326 327 327 326 326 326 327 327 327 327 327 325 325 325 324 323
333 333 333 333 333 332 332 332 332 331 332 333 333 333 333 333 333 332 333 334 333 333 333 333 333 333 332 332 332 332 331 331 330 330 330 330 330 330 329 329 329 328 327 327 327 326 325 325 326 327 327 326 326 326 326 327 327 326 325 324 324 322 321
333 333 333 333 332 332 332 332 332 332 332 333 333 333 334 334 332 332 333 333 333 333 333 333 333 332 332 332 332 332 332 331 331 331 330 330 330 330 329 329 329 329 328 328 327 327 325 325 326 327 326 326 326 325 325 326 326 325 324 324 324 322 320
332 332 333 332 332 332 332 332 331 331 332 333 333 333 333 334 333 332 333 332 332 332 333 332 332 332 332 332 332 332 332 332 332 331 331 331 330 330 330 329 329 330 329 328 327 327 326 325 325 326 326 326 326 325 325 325 325 324 323 323 324 322 320
332 332 333 332 333 332 332 332 331 332 332 332 333 333 333 333 333 333 332 332 332 332 332 332 332 332 331 331 332 332 332 332 332 332 331 331 331 331 331 330 330 330 329 328 327 327 326 325 324 325 325 325 325 325 324 324 324 323 323 323 323 322 320
332 332 332 332 332 332 332 331 331 331 332 332 332 332 333 333 333 333 332 332 332 332 332 332 332 333 332 331 331 331 332 332 331 331 331 331 331 331 330 330 330 330 329 328 328 327 327 325 324 324 324 325 326 325 323 322 323 322 322 322 322 322 320
332 332 332 332 332 331 331 331 331 331 331 331 332 332 332 333 333 333 332 331 332 333 332 332 332 333 332 331 331 330 331 331 331 331 330 330 331 331 330 330 330 330 329 328 328 327 327 326 325 325 324 324 326 326 323 322 322 320 320 321 321 321 321
333 333 332 332 332 331 331 331 330 330 331 331 332 332 332 332 332 332 332 331 332 333 333 332 332 332 332 331 331 331 331 330 331 330 330 330 331 330 330 330 330 329 329 328 328 328 327 326 325 324 324 324 325 326 325 324 323 320 320 320 320 321 321
332 333 333 332 332 331 331 331 330 330 331 331 331 332 333 332 332 332 332 331 331 332 333 333 332 332 331 331 331 331 330 330 331 330 330 330 330 330 330 330 330 329 329 329 329 328 327 326 326 325 324 324 324 324 324 324 324 321 320 321 320 320 320
331 332 332 332 332 331 330 330 330 330 331 330 330 332 333 333 333 332 332 331 332 332 333 333 332 332 332 331 331 331 330 331 331 330 331 330 330 330 330 330 330 329 329 329 328 328 327 327 326 325 325 324 324 324 322 323 324 322 319 320 320 320 319
330 330 330 331 330 329 330 330 331 331 331 331 331 332 333 333 333 332 332 332 331 332 332 332 332 332 332 332 331 331 331 331 330 330 331 331 331 331 330 330 330 329 328 328 328 327 327 327 326 326 325 324 324 323 322 322 321 317 317 319 319 319 318
329 328 328 329 327 328 330 331 331 331 331 331 332 333 332 333 333 331 331 331 331 331 331 331 331 331 332 332 331 331 331 331 330 330 331 331 331 331 331 330 330 328 328 329 328 328 327 327 327 325 325 324 324 323 322 322 318 312 313 318 317 317 316
327 327 327 327 327 328 330 330 331 331 331 331 332 332 333 332 332 331 330 331 331 330 330 330 330 330 331 332 331 331 331 331 331 331 331 331 331 331 331 330 328 328 328 328 328 328 327 327 327 326 325 325 324 323 322 322 320 314 312 315 316 315 314
326 326 326 327 327 327 329 329 330 331 331 331 332 332 332 331 330 330 330 330 329 329 329 329 328 329 330 330 331 331 331 331 331 330 330 330 330 331 330 328 328 328 328 328 328 328 327 327 327 326 326 325 324 324 323 322 321 318 314 313 314 313 312
326 326 326 327 327 328 328 329 329 330 331 331 331 331 331 330 330 330 329 328 328 328 328 328 327 328 328 329 329 329 330 330 330 329 329 329 329 329 329 328 329 328 327 328 328 327 327 326 327 326 326 325 324 324 324 322 321 320 317 314 312 312 311
326 326 326 327 327 327 329 329 330 330 330 331 331 331 330 330 329 329 327 327 328 328 327 327 327 327 327 327 328 328 328 329 329 329 328 328 328 329 328 328 328 328 327 327 327 327 327 326 326 326 325 325 325 324 324 323 322 321 319 316 313 311 310
326 326 326 327 327 328 329 330 330 330 330 330 331 330 329 329 329 328 328 327 327 327 327 327 326 326 326 327 327 327 327 328 328 329 328 328 328 328 328 328 327 327 327 327 327 326 326 326 326 326 325 325 324 324 324 323 322 320 319 317 314 312 310
326 326 327 328 328 329 330 330 330 330 329 330 329 329 329 328 328 328 328 327 326 326 326 326 326 326 326 326 326 325 325 327 328 329 329 329 329 328 328 328 327 327 327 327 326 325 325 326 325 325 325 325 324 324 324 323 322 320 318 316 314 312 310
326 326 326 327 327 327 329 329 329 329 329 328 329 329 328 327 327 327 327 326 326 326 326 326 325 326 326 325 324 324 325 325 327 328 329 328 328 327 327 327 326 326 326 325 325 325 324 324 324 324 324 325 325 324 324 323 322 320 318 315 313 312 310
326 327 327 327 326 326 328 328 328 328 329 329 328 327 327 326 325 326 326 325 325 325 326 325 325 325 325 324 323 324 324 324 325 327 328 328 327 326 326 326 325 324 324 323 322 322 321 321 320 319 320 321 322 323 323 323 322 320 318 315 312 311 310
326 326 326 326 325 325 326 326 327 327 328 328 328 326 325 325 325 325 325 323 323 324 324 325 325 325 324 323 322 323 323 323 324 326 327 327 326 326 325 323 322 322 321 320 319 319 319 319 318 318 318 318 319 320 321 322 322 320 317 314 312 311 310
325 325 325 325 325 324 324 325 326 326 326 327 327 326 325 324 324 324 324 321 321 323 323 324 324 323 322 321 321 321 321 322 324 324 326 326 324 323 321 320 319 319 319 319 319 318 317 317 317 317 318 318 319 319 320 321 320 319 316 314 313 312 311
324 325 325 324 324 324 323 325 325 325 325 325 325 324 323 323 324 324 322 320 320 320 321 321 320 320 321 321 320 320 320 322 324 324 325 324 322 320 319 319 318 318 318 317 316 316 316 316 316 316 316 317 317 317 317 318 318 317 315 314 313 312 311
322 323 324 324 324 323 323 324 325 324 324 324 323 322 322 323 324 324 322 321 319 318 318 318 319 320 321 321 321 321 322 323 324 324 323 322 320 319 318 318 317 316 316 316 316 317 317 317 318 318 318 318 317 317 317 317 317 316 316 315 313 313 313
321 322 323 323 323 323 323 323 324 324 323 322 321 320 320 322 323 323 322 321 320 318 317 317 318 319 320 320 321 322 322 323 322 321 320 319 318 318 317 317 317 317 318 318 318 318 318 318 318 318 318 318 318 318 318 318 318 318 318 317 316 316 316
321 321 322 323 322 322 322 321 321 322 322 321 319 319 320 321 322 322 321 321 320 318 317 317 317 318 319 319 321 321 322 322 321 319 318 318 318 318 318 318 318 318 319 318 318 318 318 318 318 318 318 318 318 318 318 318 318 318 318 318 318 318 317
319 319 320 321 321 321 321 320 318 318 317 317 316 317 318 319 320 320 319 319 319 318 317 317 317 319 319 320 321 321 321 320 319 319 318 318 318 318 318 318 318 318 318 319 319 318 318 318 318 318 318 318 318 318 318 318 318 318 318 318 318 318 317
318 318 319 319 319 320 320 318 317 315 314 314 314 316 317 317 317 318 317 318 317 317 317 318 318 319 320 320 321 321 320 320 319 319 319 319 319 318 318 318 318 319 319 318 318 317 317 317 317 317 317 316 316 316 316 316 316 316 316 316 316 316 316
317 317 317 317 318 318 317 316 315 314 313 312 313 314 315 316 316 316 317 317 317 318 318 318 319 319 319 320 320 320 320 320 320 320 320 319 319 319 319 319 319 319 318 318 317 316 315 316 315 313 312 312 312 312 312 313 313 314 314 314 314 314 314
317 316 315 315 315 316 315 314 313 313 313 312 313 314 314 315 316 316 317 317 317 318 319 319 319 319 319 320 320 320 320 320 320 320 320 319 318 318 318 318 317 317 316 315 315 314 313 314 313 309 309 308 308 308 309 310 311 312 312 313 313 312 312
316 316 315 314 313 314 314 314 314 313 313 311 312 313 314 315 315 314 315 316 316 317 317 318 318 319 318 318 319 319 319 319 319 319 319 318 316 315 314 313 312 312 313 312 312 311 311 311 310 308 307 306 306 307 308 308 309 310 311 311 311 310 310
315 316 315 314 313 312 313 314 314 314 313 312 312 313 314 314 314 315 315 316 316 316 316 317 317 318 317 316 317 317 317 317 318 318 318 317 315 313 311 310 310 310 310 310 309 309 308 308 307 306 305 304 303 303 304 305 307 308 307 307 307 306 305
314 315 315 315 314 312 312 313 314 314 314 314 314 314 314 314 315 314 315 316 317 317 317 317 317 317 317 317 317 317 316 317 318 317 316 315 313 311 310 308 307 307 307 307 306 306 305 304 303 303 302 301 301 301 301 302 303 303 302 302 303 302 302
312 312 314 314 314 313 312 312 313 314 314 314 313 313 313 313 313 313 313 314 316 316 316 317 318 317 317 317 317 316 316 316 316 316 315 313 310 309 307 307 305 305 305 305 304 303 303 302 302 302 301 301 302 301 301 300 300 299 299 300 300 301 302
309 310 311 312 312 312 311 310 311 312 314 314 312 310 311 312 313 312 312 313 313 313 314 315 315 315 315 315 314 314 314 314 313 314 313 310 308 307 307 306 305 304 304 304 303 302 302 302 302 302 302 302 302 301 300 299 298 298 298 299 300 301 302

ECMWFFLT1_925_thetae_102.txt.gz
Theta_e
336 338 338 338 338 337 337 336 335 335 335 335 334 334 333 334 334 333 333 334 334 334 334 334 334 334 334 332 332 332 331 333 334 333 334 334 333 332 333 333 332 332 333 333 332 331 331 331 331 331 330 330 330 329 329 329 329 329 329 329 329 329 328
336 337 337 338 338 338 336 336 336 335 335 334 334 334 333 333 333 333 333 333 334 334 334 334 334 335 334 332 333 333 333 334 334 334 333 333 333 332 333 333 332 332 331 332 332 332 331 331 330 330 331 331 330 329 329 329 329 329 329 328 328 327 327
336 336 336 337 337 337 336 335 335 335 335 334 334 334 333 333 333 333 333 333 333 334 334 334 334 335 334 334 334 335 335 335 335 334 334 334 333 333 332 332 332 331 330 331 331 331 331 331 330 330 331 331 331 330 329 329 329 329 328 327 327 326 326
335 335 336 336 336 337 337 336 335 335 335 334 334 334 334 334 333 333 333 334 334 334 334 334 334 335 335 335 335 335 336 335 335 335 335 335 334 333 332 332 332 332 331 331 331 331 331 331 330 330 330 330 330 330 329 328 328 328 327 327 326 326 325
335 335 335 336 336 336 336 336 335 335 334 333 333 333 333 334 334 333 333 333 334 334 335 333 333 334 334 334 334 335 335 335 335 335 334 334 333 332 332 332 331 330 330 331 330 330 331 331 330 330 330 329 329 330 328 327 327 326 327 326 325 325 324
335 335 334 335 336 335 335 334 334 334 334 334 333 333 333 333 334 333 332 333 334 334 334 333 332 334 334 333 334 334 334 334 335 334 333 333 332 333 334 334 331 329 329 329 329 330 331 330 330 331 330 329 330 329 327 327 327 326 326 325 324 324 323
334 334 334 334 335 334 334 335 334 334 334 333 333 333 333 333 333 333 333 334 334 334 334 333 332 333 333 333 333 333 333 334 334 333 334 334 334 334 334 333 331 330 329 330 330 330 331 331 330 331 330 330 330 329 328 327 327 327 326 325 324 323 323
333 333 333 334 334 333 334 335 334 334 334 333 333 333 333 333 333 333 333 333 334 334 334 333 332 333 333 333 332 332 332 332 332 332 333 334 334 335 334 333 331 331 330 331 331 330 331 330 330 330 330 330 329 329 329 328 328 328 326 325 323 323 323
332 332 333 333 333 332 333 334 334 334 334 334 333 333 333 333 333 333 333 333 334 334 333 333 333 333 332 332 332 332 332 331 331 332 333 334 334 334 335 334 332 331 331 331 330 331 330 330 330 330 330 330 329 329 328 328 328 327 326 325 323 323 322
331 332 332 332 332 331 331 332 333 334 334 334 333 333 333 333 333 333 333 333 333 334 334 334 334 332 332 333 331 331 332 331 331 333 334 334 334 334 334 334 331 330 332 332 331 331 331 330 330 330 330 329 329 329 329 328 328 327 327 325 324 324 321
331 331 331 331 331 331 332 332 333 333 333 333 333 333 333 333 333 333 333 333 334 335 335 335 334 333 333 333 331 329 330 331 331 332 333 333 334 333 332 332 331 330 331 333 331 331 331 331 331 330 329 328 327 329 329 328 329 328 327 326 325 324 321
330 330 331 331 331 332 332 332 332 332 332 332 332 332 333 333 333 334 333 333 333 334 334 334 334 333 333 332 331 330 330 331 332 332 332 333 333 332 331 331 331 330 332 332 332 332 332 331 331 330 329 329 329 329 328 328 329 328 327 326 326 324 321
330 329 330 331 331 331 331 330 330 331 331 332 332 332 332 332 333 334 334 333 333 333 334 334 333 333 333 331 331 331 331 332 332 331 331 331 332 332 332 331 330 330 332 332 331 331 332 331 331 330 329 329 329 330 328 327 328 328 327 327 325 323 321
330 330 330 331 332 330 330 330 330 330 331 331 331 331 331 332 332 333 333 333 333 332 332 332 332 332 333 333 332 332 332 333 331 330 330 331 332 332 331 331 330 330 332 331 330 331 331 331 331 330 329 328 329 329 328 327 327 328 327 326 324 322 321
329 330 330 330 331 330 330 330 330 330 331 331 331 331 331 332 332 333 333 333 333 332 331 332 332 332 333 333 333 333 333 333 331 331 331 331 332 332 331 331 330 331 331 330 330 330 330 331 330 329 329 328 328 328 328 326 326 326 326 325 322 320 319
329 329 329 329 330 330 330 330 330 330 331 331 331 331 331 332 332 332 333 333 333 332 332 332 331 331 332 332 333 333 333 332 331 331 331 331 331 331 332 331 330 331 331 330 330 330 330 330 329 328 328 327 327 327 327 327 325 324 324 323 321 319 319
328 328 329 328 329 329 329 329 329 330 331 331 331 332 332 332 332 333 333 333 333 332 332 332 331 331 331 332 332 333 332 331 330 330 331 331 331 331 332 331 331 331 331 330 330 330 330 330 329 327 327 327 327 327 327 327 325 323 322 321 320 319 318
327 328 328 328 328 329 329 329 329 329 330 331 332 332 332 332 332 333 332 332 332 332 332 332 331 331 332 331 332 333 332 331 329 330 331 331 331 331 331 331 331 331 331 330 331 330 330 330 328 327 327 327 327 328 328 327 325 323 321 320 320 319 318
326 327 328 328 328 328 328 329 329 329 330 331 331 332 332 332 333 333 333 332 332 331 332 331 331 331 331 331 331 332 331 329 328 330 331 331 331 331 331 331 331 331 331 331 331 331 330 330 329 328 328 327 327 328 328 327 325 323 321 320 319 318 318
326 327 327 328 328 328 328 328 329 329 329 330 331 331 331 332 332 333 332 332 331 331 332 331 330 330 330 330 330 330 330 330 330 331 332 332 331 331 331 331 331 331 331 330 331 331 331 330 329 329 328 328 327 328 328 326 325 324 323 321 320 319 319
325 326 327 327 328 328 328 328 329 329 329 330 330 330 331 331 332 332 331 331 331 332 332 331 330 330 329 329 329 329 331 331 331 332 332 331 331 331 331 331 331 331 330 330 331 331 331 330 330 329 330 328 327 327 327 326 325 324 324 322 321 320 319
325 326 326 326 327 328 328 328 328 329 329 329 329 330 330 330 331 331 330 331 331 331 331 330 330 329 328 327 328 331 332 332 332 333 333 332 332 331 330 331 331 330 330 330 330 330 331 330 329 329 329 328 327 327 327 326 325 325 324 323 322 320 320
324 325 326 326 326 327 327 327 327 328 328 329 329 329 329 329 329 329 329 330 330 329 329 329 330 329 328 328 329 331 332 332 332 333 332 332 332 332 331 331 330 330 330 329 329 329 329 329 329 328 328 329 328 327 327 326 324 324 324 323 322 322 321
323 324 325 325 325 325 325 325 325 326 327 327 327 327 327 327 326 326 328 328 328 328 328 327 327 328 328 328 328 330 331 332 332 332 332 332 332 331 330 329 328 328 327 327 326 327 327 327 326 326 327 327 328 328 328 327 326 325 324 323 322 322 322
323 323 324 325 325 324 324 325 325 325 325 325 325 325 326 325 325 326 326 326 327 328 328 326 326 327 327 326 327 328 328 329 330 330 331 331 331 330 328 327 326 326 325 325 324 323 323 321 321 321 322 322 324 327 328 327 327 326 325 324 323 323 322
322 322 323 323 323 323 323 323 323 324 324 324 324 325 325 324 324 325 325 324 325 326 327 326 326 327 326 324 325 326 326 326 327 328 328 328 329 329 328 327 326 325 324 323 321 320 319 318 318 318 318 318 320 321 323 324 324 324 324 323 323 322 322
320 321 321 320 321 321 321 320 321 322 322 322 322 323 324 323 323 323 323 322 322 323 325 326 326 325 325 325 324 324 325 326 326 326 327 328 329 328 327 327 325 323 322 321 320 318 317 318 319 320 320 320 319 318 318 318 319 320 323 324 324 324 323
320 319 319 318 317 318 318 318 318 319 320 319 318 319 320 320 320 319 319 319 320 321 323 325 325 325 325 325 324 324 326 327 327 327 327 328 328 327 326 325 324 323 323 322 321 320 321 322 322 323 322 320 319 318 317 317 317 319 322 323 323 322 321
319 318 318 317 316 315 315 315 316 316 317 317 316 316 315 315 316 316 316 317 318 320 322 323 324 323 323 323 323 326 328 328 327 327 326 326 326 326 326 324 324 325 325 322 320 321 323 324 323 323 322 320 318 318 318 318 318 318 319 320 319 319 318
317 317 317 316 315 314 314 314 313 314 315 315 315 314 314 314 314 315 316 316 317 318 318 319 321 320 320 321 323 326 327 327 327 326 325 324 324 324 325 325 325 325 323 319 318 319 321 322 323 323 322 321 319 317 316 317 318 318 318 318 318 317 317
315 315 315 314 314 313 313 313 312 313 314 315 314 313 313 314 314 315 315 315 316 317 317 318 320 319 319 322 325 327 326 326 325 323 322 320 320 321 322 323 323 322 319 317 317 318 319 322 323 322 322 321 319 317 315 314 315 315 315 316 315 315 314
314 314 314 313 313 312 312 312 312 312 313 314 314 314 313 314 314 314 314 314 315 316 317 317 318 319 320 322 324 325 324 323 322 321 320 318 317 318 319 320 320 319 317 318 318 318 319 322 323 321 321 320 319 317 315 314 314 314 314 314 313 313 312
311 312 312 312 312 312 311 311 311 311 312 312 313 314 314 313 313 313 313 314 314 315 315 316 317 318 319 321 322 322 322 321 320 319 318 317 316 316 317 318 318 318 318 318 317 317 318 320 320 320 320 319 317 316 315 315 314 314 314 313 312 311 311
310 310 310 310 310 310 311 311 310 311 311 311 312 313 313 313 312 311 312 314 314 315 315 316 316 317 318 319 319 320 319 318 317 316 315 314 313 314 315 315 316 316 316 315 315 314 314 315 316 317 317 317 315 314 314 314 313 312 312 311 310 310 309
308 308 308 308 308 308 308 309 309 309 310 311 311 311 311 311 310 309 309 311 312 313 314 315 316 317 317 317 317 317 316 315 315 314 313 312 311 311 311 312 312 311 311 311 310 310 309 309 310 311 311 310 310 310 311 311 311 310 310 309 308 308 307
307 307 308 308 307 306 306 306 307 307 308 308 308 308 308 308 308 307 307 307 308 309 312 314 315 315 316 316 316 316 315 314 314 314 313 311 310 309 309 308 307 307 307 307 307 306 306 306 305 304 303 303 302 303 306 307 307 307 307 307 307 307 306
304 305 306 307 307 306 305 304 305 305 305 306 306 306 306 306 305 305 305 305 305 305 307 310 312 313 314 314 314 314 314 313 312 313 312 310 308 307 306 305 304 304 305 305 304 303 303 302 302 301 300 299 299 300 302 304 305 305 306 306 306 306 306

ECMWFFLT1_925_thetae_105.txt.gz
Theta_e
339 339 340 340 339 339 339 339 339 339 339 338 337 337 337 336 336 336 336 337 336 337 337 336 335 334 335 336 336 337 337 337 336 334 334 334 332 333 333 333 334 335 334 332 332 333 333 332 331 331 331 331 331 331 331 331 329 329 330 330 330 330 330
338 339 339 339 338 339 339 338 338 338 338 337 337 337 337 336 336 336 336 336 336 336 336 335 335 335 335 335 336 336 336 337 336 335 334 333 332 332 331 332 335 335 332 331 331 331 333 333 332 331 331 332 331 331 331 330 329 329 330 331 331 330 330
337 338 338 338 339 338 336 335 336 337 337 337 337 337 337 336 336 336 336 336 335 334 334 334 335 335 335 335 336 335 334 334 334 334 333 332 331 332 332 333 335 334 333 332 331 330 332 333 333 332 332 332 331 331 331 330 330 330 330 331 330 329 329
337 337 337 338 339 336 334 335 335 336 337 337 337 337 337 336 336 336 336 335 334 334 333 334 334 335 334 334 335 334 334 334 333 333 332 332 332 333 334 335 336 334 333 333 332 331 331 332 333 332 331 331 331 331 331 330 330 330 329 330 328 328 328
337 336 336 338 338 336 335 335 336 336 337 337 337 337 336 336 336 335 336 335 335 334 334 333 333 334 334 334 334 333 333 334 334 333 332 332 333 334 335 335 335 333 332 332 333 332 331 331 332 333 332 331 331 330 330 330 330 330 329 328 328 327 326
337 336 336 336 335 335 335 335 335 336 337 337 337 336 336 336 336 335 336 336 335 334 333 333 333 334 334 334 333 333 333 333 334 333 332 332 333 333 335 335 334 333 332 333 333 332 333 332 332 334 333 331 331 330 330 330 329 329 328 327 327 326 325
336 336 336 334 333 334 335 335 335 336 337 337 336 336 336 335 335 335 336 336 335 333 333 334 333 333 334 333 333 332 332 332 332 333 332 333 334 334 335 334 332 332 333 333 332 332 334 332 330 332 333 332 331 330 329 329 328 329 328 327 326 325 325
335 335 336 335 334 334 336 335 335 336 336 336 335 335 336 335 335 335 335 335 335 333 333 334 333 333 334 333 333 334 334 332 332 332 332 333 335 334 333 332 331 332 332 332 333 332 333 332 331 330 331 331 331 330 330 329 329 329 328 327 325 324 325
334 334 334 335 335 335 335 336 336 335 335 336 336 335 336 335 334 335 335 335 334 333 333 333 333 334 333 333 334 335 335 334 334 334 333 333 334 333 332 331 332 333 332 332 333 332 332 332 332 331 330 330 330 330 330 329 329 328 327 327 325 324 325
333 333 333 334 334 334 335 335 335 335 335 335 335 335 336 335 334 334 334 335 335 333 333 333 334 333 333 333 334 333 335 335 334 333 333 333 333 333 332 331 331 332 333 334 333 332 331 330 331 331 330 330 330 330 329 328 329 328 327 326 325 325 324
332 333 332 333 334 334 334 334 335 335 334 333 334 335 335 335 335 334 334 335 335 334 334 334 334 333 333 333 333 332 333 334 333 333 333 333 332 332 331 331 331 332 334 334 333 332 331 331 331 330 330 330 330 330 330 329 329 329 327 326 325 325 323
332 332 332 332 333 333 332 332 333 333 332 332 333 334 335 335 334 334 335 335 335 334 334 334 334 333 332 333 333 333 333 333 333 332 332 332 331 330 330 331 332 332 332 332 331 331 331 331 331 330 331 330 330 330 330 330 329 329 328 326 326 324 323
331 331 331 332 331 331 332 331 331 332 331 331 331 333 334 335 334 334 335 334 334 334 334 334 333 332 332 332 332 333 333 333 332 333 332 332 332 331 330 331 333 333 331 330 331 330 330 332 330 330 330 329 330 330 328 329 330 329 328 326 326 325 322
331 331 331 332 331 330 330 330 330 331 330 329 331 333 334 334 334 334 335 334 334 334 334 333 333 332 331 331 332 332 332 333 333 332 332 332 332 332 330 330 333 332 330 330 331 331 331 331 330 330 330 329 330 330 328 328 330 329 328 326 326 325 322
331 331 331 331 331 330 330 330 330 330 331 330 330 333 334 333 333 334 334 334 334 334 334 334 333 331 331 331 332 333 332 332 332 332 331 331 332 331 330 330 331 332 331 331 332 332 331 332 331 331 331 330 330 330 328 328 329 329 329 327 325 324 322
330 330 330 330 330 330 330 330 329 330 330 330 330 332 333 333 333 333 332 333 333 333 333 333 333 332 332 332 332 333 332 332 331 331 331 332 331 331 332 331 331 332 332 330 332 332 331 332 331 330 330 330 330 330 329 327 328 329 328 326 324 323 321
329 329 330 330 329 330 329 329 329 329 330 330 330 332 332 332 333 332 332 333 334 334 334 333 333 333 333 333 332 331 331 330 331 330 330 331 331 331 331 331 331 333 331 330 331 332 331 331 331 330 330 329 329 330 329 327 326 327 326 325 323 321 320
328 328 329 329 329 330 329 328 328 329 330 330 331 331 332 332 333 331 331 332 333 333 333 332 332 332 331 332 333 332 331 330 330 330 330 331 330 330 330 330 331 331 331 330 331 331 329 329 329 329 328 328 329 329 328 327 326 325 324 323 321 320 320
327 327 328 329 329 329 329 329 328 329 330 330 330 330 330 331 332 331 331 331 331 332 331 330 331 332 331 331 332 331 330 330 330 331 331 331 330 329 330 329 329 330 332 331 330 330 330 329 329 329 327 328 328 328 327 327 325 323 323 322 321 320 319
326 327 327 328 329 329 329 329 329 329 329 329 329 329 330 331 331 331 331 330 330 331 332 331 333 334 333 332 331 330 329 330 331 331 330 330 329 329 330 329 329 330 331 331 329 330 331 330 328 328 328 328 328 328 328 327 325 323 322 322 321 320 319
326 327 327 328 328 329 329 329 330 329 329 329 329 329 330 330 331 331 330 330 330 331 332 332 333 333 333 333 333 332 331 331 332 330 328 329 329 329 329 329 330 330 330 330 330 329 330 329 327 327 327 327 328 328 328 327 325 323 322 322 321 320 319
326 326 327 327 328 328 328 329 329 329 329 329 328 329 330 330 330 330 330 330 330 331 331 332 331 332 332 333 333 333 332 332 332 329 328 328 329 328 328 329 330 330 330 330 330 330 330 329 327 326 326 326 327 327 327 326 325 324 323 323 321 320 319
325 326 327 327 327 327 327 327 328 329 329 328 328 328 329 329 330 330 329 330 330 331 331 331 331 331 331 331 331 330 330 331 330 328 329 329 328 328 329 329 329 330 330 329 328 329 330 329 327 326 327 326 326 327 327 326 325 325 324 323 322 320 320
324 325 326 326 326 326 326 326 327 327 328 328 326 326 327 328 328 329 329 329 330 330 330 330 330 330 329 329 328 327 328 329 328 328 328 327 327 329 330 330 329 329 329 329 329 329 330 328 327 326 327 327 327 326 325 326 326 325 324 324 323 321 321
323 324 324 324 325 325 324 324 325 325 326 327 326 326 326 327 327 327 328 328 329 330 330 329 330 329 328 328 327 325 326 328 327 327 326 326 327 329 330 330 329 329 330 329 329 330 329 328 328 328 329 328 328 327 326 326 326 324 324 324 322 322 322
322 322 322 322 323 323 322 322 322 322 323 324 325 326 326 326 326 326 326 327 327 328 329 329 329 329 328 328 327 326 326 327 327 327 327 327 328 329 329 329 329 328 328 328 328 329 329 328 327 327 327 327 327 327 326 325 325 324 324 324 321 321 323
321 321 321 320 320 321 320 320 319 319 320 321 322 322 323 323 324 324 324 324 324 324 326 327 328 328 328 328 328 326 324 325 327 328 328 329 329 329 328 328 329 327 326 326 326 326 326 324 323 324 325 324 323 324 325 325 324 324 326 325 324 324 324
319 319 319 319 319 319 318 318 317 317 317 317 318 318 319 320 320 320 320 320 320 321 322 324 326 327 327 328 327 325 324 325 326 327 328 328 328 328 328 327 327 326 326 325 324 323 322 322 324 324 323 320 319 320 321 322 323 325 326 326 325 324 324
318 318 318 318 317 317 317 316 316 316 316 315 315 316 316 317 317 316 316 317 317 318 318 321 324 326 326 326 325 324 325 326 325 326 327 326 326 327 327 325 325 326 325 323 322 323 324 325 325 324 321 318 317 318 318 319 321 322 322 323 323 322 321
316 317 317 317 316 315 315 315 315 315 315 314 314 314 315 315 315 315 315 315 316 316 316 319 321 323 323 324 325 324 324 325 326 327 327 325 324 325 326 325 325 325 324 322 323 324 325 325 324 323 322 320 318 317 316 317 318 319 319 319 319 319 318
315 315 315 315 315 314 314 314 315 315 314 313 312 312 313 313 313 314 314 314 315 316 316 318 319 320 322 323 324 324 322 322 325 326 326 324 323 324 324 325 325 324 323 323 324 324 324 323 323 323 323 321 320 317 315 316 316 317 317 317 316 316 316
313 314 313 313 313 314 314 313 314 314 313 313 312 311 311 312 312 312 314 315 316 316 317 318 318 320 321 322 324 323 322 322 323 324 324 322 320 320 321 322 322 322 321 322 322 323 323 322 322 322 321 321 320 319 316 316 316 315 315 315 315 314 314
312 312 312 312 311 312 312 312 312 313 312 312 311 311 310 310 310 310 312 314 316 317 317 318 319 319 321 321 322 322 321 321 321 320 320 318 316 315 316 317 318 318 319 320 321 322 322 321 321 321 320 320 320 318 317 317 316 316 315 315 314 313 313
310 310 310 311 310 310 310 310 311 311 311 311 311 311 311 310 310 309 309 311 312 313 315 316 317 318 319 320 320 320 319 318 317 316 315 314 312 310 312 313 314 315 317 318 319 319 319 319 320 320 319 318 317 317 317 316 315 315 314 313 312 312 312
308 308 308 308 308 308 308 308 309 309 309 310 310 310 310 310 310 308 307 308 308 309 311 312 313 314 315 317 318 318 317 315 314 313 313 313 310 307 307 309 309 311 313 314 314 314 314 315 316 316 316 316 315 315 315 314 312 312 312 311 311 310 309
305 305 305 305 305 305 306 307 307 307 307 307 307 307 307 308 308 308 307 306 307 307 308 309 310 311 312 313 314 314 314 313 313 313 312 309 307 305 305 305 306 307 309 309 309 310 309 309 309 309 310 312 311 311 311 310 310 310 309 309 308 307 307
303 303 303 303 303 303 304 304 305 306 306 305 305 305 305 305 305 305 305 305 306 306 306 306 308 308 310 310 311 312 312 311 311 312 309 305 304 304 305 304 304 305 306 305 305 305 305 304 303 302 303 304 305 306 306 307 307 307 307 307 307 307 307

ECMWFFLT1_925_thetae_111.txt.gz
Theta_e
338 339 339 339 339 339 338 339 339 339 339 338 338 338 337 335 336 335 333 333 334 334 334 333 334 334 335 335 335 335 335 335 335 333 332 331 332 331 330 330 331 331 330 331 332 333 334 334 332 332 331 331 331 331 331 330 330 330 330 330 329 329 329
338 338 338 339 339 339 339 339 339 339 339 338 337 336 335 334 334 335 334 334 334 334 334 333 333 334 335 335 335 335 335 334 334 334 333 332 332 331 330 330 330 330 329 330 331 331 332 333 333 332 330 330 330 331 332 330 330 330 330 330 329 329 329
337 337 338 338 338 338 338 338 338 339 338 336 334 334 334 333 333 334 334 334 335 335 335 334 333 334 334 334 334 335 334 334 334 333 333 332 331 331 331 330 330 330 330 330 330 330 331 331 332 331 330 330 330 331 332 331 330 331 331 330 330 330 330
337 338 338 337 337 336 336 336 336 336 337 336 334 334 334 332 332 333 333 333 333 334 335 335 335 334 333 333 333 335 334 332 332 333 333 332 332 331 331 331 331 330 330 331 331 331 330 330 332 331 330 330 331 331 331 330 330 331 331 330 331 331 330
338 338 338 336 336 336 335 335 334 335 335 335 335 336 334 331 331 332 332 333 332 333 334 335 335 334 334 332 331 333 334 331 331 333 332 332 332 331 331 331 332 332 332 332 333 331 330 330 331 330 329 330 330 330 330 330 330 331 331 330 330 330 330
337 336 336 335 335 336 335 335 335 335 335 335 335 335 334 332 332 332 332 332 332 332 333 335 335 334 334 334 333 332 332 331 331 332 332 332 331 330 331 332 332 333 333 332 332 332 331 330 331 330 330 330 330 330 331 330 329 330 331 330 329 329 329
335 334 334 334 334 335 335 335 335 335 336 335 335 335 334 334 333 333 331 330 331 331 331 333 334 334 334 334 335 333 332 332 331 331 332 332 331 331 332 332 332 332 333 332 331 332 331 331 331 330 330 330 330 330 330 330 330 330 330 329 328 328 328
333 333 333 333 333 333 334 334 334 335 335 335 335 334 334 333 333 333 331 329 329 330 330 332 333 333 334 334 334 334 334 333 331 330 331 331 331 332 332 331 331 331 332 332 331 331 331 332 331 331 331 330 330 330 330 329 329 329 328 328 328 328 328
333 333 332 333 333 333 333 333 334 334 334 334 333 333 332 332 331 331 331 330 330 329 329 330 331 332 334 334 334 334 334 334 332 331 332 331 331 332 332 331 331 330 331 331 331 331 332 332 331 331 331 330 330 330 330 329 329 328 328 327 328 328 327
332 332 332 332 332 332 332 332 333 333 332 332 331 330 330 330 330 330 330 330 329 329 329 330 330 330 332 333 334 334 333 333 333 332 333 333 332 333 332 331 331 331 331 332 331 332 333 332 330 331 331 329 329 330 330 330 329 327 327 327 327 326 326
330 330 330 330 330 330 331 331 332 331 331 330 329 329 329 330 330 329 329 329 328 328 328 329 330 329 330 331 333 334 333 334 333 333 333 333 333 333 332 332 332 332 333 333 332 332 333 332 330 330 330 330 329 328 328 329 328 327 327 327 326 325 326
329 329 329 329 328 329 330 331 331 331 331 330 329 329 329 329 329 329 328 328 328 329 329 330 331 331 330 330 333 334 332 332 332 331 332 332 331 331 331 331 333 333 334 334 332 332 332 332 331 330 330 329 329 329 327 328 328 328 327 326 325 325 326
327 327 327 328 328 329 330 329 330 330 330 330 329 329 328 329 329 328 328 328 328 329 330 329 330 332 331 331 332 333 330 329 329 329 330 330 329 329 330 332 333 333 333 333 332 332 332 331 331 330 330 329 329 329 328 327 328 328 327 325 325 325 326
325 325 326 326 327 328 329 329 329 329 329 329 329 329 329 329 329 329 329 328 328 329 329 329 329 331 332 331 332 332 329 328 329 329 329 329 329 329 330 332 334 333 332 332 332 332 332 331 331 330 330 330 328 328 328 327 327 327 326 325 324 325 325
325 325 326 327 327 328 329 329 329 329 329 329 329 329 329 329 329 330 329 328 328 328 329 329 329 331 332 332 332 331 330 329 329 330 329 330 330 330 330 332 333 333 332 332 333 333 332 332 331 330 329 329 329 327 327 327 326 325 326 326 324 325 325
326 326 327 327 328 328 329 329 328 329 328 329 329 329 329 329 329 329 329 329 330 329 329 329 329 330 331 331 331 331 331 331 331 330 330 331 332 332 332 332 332 332 332 331 331 332 333 332 330 329 328 328 328 327 326 326 326 325 326 325 323 324 324
326 326 327 328 328 328 328 328 328 328 328 329 329 329 329 329 329 329 330 330 330 330 330 329 330 331 331 331 331 331 332 332 331 331 331 331 332 332 332 332 332 331 331 331 331 331 331 330 330 330 329 328 328 328 327 326 326 326 326 325 323 323 322
325 325 326 327 327 327 326 326 327 328 328 329 329 329 329 329 329 330 330 330 331 330 330 330 330 331 332 331 331 332 332 331 330 331 331 331 332 332 332 331 331 331 331 331 331 331 330 329 329 329 329 328 328 328 327 326 326 326 325 324 323 322 321
323 324 324 324 324 324 324 324 325 326 327 328 328 328 328 328 329 329 328 328 330 330 330 330 330 330 331 331 331 331 331 330 330 330 330 330 331 331 331 332 331 331 331 331 330 330 329 327 328 328 328 329 328 327 327 327 326 325 324 324 323 322 320
322 322 323 322 321 321 322 322 322 324 325 325 326 327 327 327 329 329 328 328 329 330 329 329 330 330 330 330 330 330 330 330 330 329 329 330 329 329 331 331 331 330 331 330 329 330 329 327 327 328 327 327 327 326 326 327 326 325 324 324 323 321 319
321 321 321 320 319 319 319 319 320 321 323 323 324 326 326 326 327 327 328 329 329 329 329 328 329 329 329 328 328 329 329 330 329 328 328 329 328 329 331 330 329 330 330 330 330 330 330 328 328 328 327 326 327 326 326 326 326 325 325 323 322 321 319
320 320 320 318 317 317 317 317 318 319 321 321 322 323 324 324 324 324 326 328 328 328 329 328 328 328 328 328 328 328 328 328 327 326 327 327 327 328 330 329 329 329 329 329 329 329 329 328 328 328 327 326 327 326 325 325 324 324 325 323 321 321 320
319 319 318 317 316 316 316 316 317 317 319 319 319 320 320 320 321 321 323 324 325 327 328 328 328 329 329 330 330 329 328 327 327 327 328 328 327 328 329 328 328 329 328 328 328 329 329 328 328 328 327 326 326 326 325 324 323 324 324 322 320 319 320
318 317 316 316 316 316 315 315 315 316 316 316 316 316 316 317 318 319 320 321 322 324 327 328 329 329 329 330 330 329 328 328 327 328 329 328 326 326 327 328 328 328 327 328 328 328 328 329 328 327 326 326 325 325 325 325 325 325 323 321 319 319 319
317 316 316 316 316 315 314 313 313 313 314 314 314 314 313 314 316 317 319 320 321 323 325 327 328 328 329 329 329 328 327 327 327 327 327 326 325 326 327 327 328 328 328 328 328 328 328 328 328 326 325 325 325 325 325 326 325 324 322 320 319 319 318
316 315 315 315 315 315 313 312 312 311 311 311 312 312 312 313 314 316 316 317 319 322 324 326 326 326 327 328 327 327 326 325 325 325 325 325 325 326 325 325 326 327 327 328 328 327 327 326 326 326 325 325 325 325 325 325 324 323 322 320 320 319 318
314 315 314 314 314 314 313 312 311 310 309 309 309 310 311 312 313 314 314 315 318 321 323 324 325 326 326 326 326 325 325 324 324 323 323 324 325 324 324 325 326 325 325 325 325 325 325 325 325 325 325 325 324 324 324 324 323 323 323 322 322 322 321
313 313 313 313 313 313 312 311 311 310 309 308 307 307 308 310 311 312 314 314 316 319 322 323 324 325 324 324 324 324 323 322 321 321 321 323 324 324 324 324 324 323 322 322 322 323 324 324 324 324 324 324 324 323 323 323 323 323 322 321 321 321 321
312 312 312 312 312 312 312 311 310 309 308 307 307 306 306 307 309 312 314 316 317 318 319 321 323 324 324 323 323 322 321 320 318 317 317 318 320 321 322 322 323 323 322 321 321 321 322 322 323 324 324 322 322 322 321 321 322 321 321 321 320 320 319
310 310 310 310 311 311 312 311 310 309 308 307 306 305 304 304 306 310 313 315 316 317 318 319 320 322 322 322 320 319 318 317 315 313 312 312 314 316 317 319 321 321 321 320 320 319 319 319 321 323 322 320 320 319 317 317 319 319 319 319 319 319 319
309 309 309 309 309 310 310 310 310 309 308 307 306 305 304 303 304 307 308 310 312 315 316 317 318 319 319 320 319 317 316 314 312 309 309 309 310 311 313 316 318 319 320 320 319 318 318 318 318 318 319 318 317 315 314 314 315 315 315 316 316 317 318
308 308 308 308 308 309 309 309 309 308 308 307 306 305 304 303 303 304 304 306 310 312 312 313 315 316 317 318 318 317 317 315 311 308 308 309 308 308 310 313 314 315 318 319 318 317 316 316 315 314 316 316 314 313 313 313 313 313 312 312 312 312 313
307 307 307 307 307 307 307 308 307 307 306 306 306 305 304 304 303 302 303 304 307 308 308 309 312 315 316 316 314 314 315 314 311 309 309 309 308 307 307 309 309 311 314 317 317 317 316 316 315 315 315 314 314 314 314 312 311 311 310 309 307 306 305
305 305 305 305 305 306 306 306 306 306 305 305 304 304 304 304 303 302 302 302 303 305 305 306 309 311 312 312 311 310 310 308 308 309 308 306 306 305 305 306 306 307 311 313 314 315 314 314 314 314 313 313 313 313 313 311 309 309 308 307 306 304 303
303 304 304 304 304 304 304 304 304 304 304 303 303 303 303 303 303 302 302 302 301 302 303 304 305 306 307 307 306 307 305 303 303 306 304 301 301 302 302 303 304 306 309 310 311 311 310 310 311 311 310 311 311 311 310 309 308 307 307 306 306 305 304
302 302 302 303 303 302 302 302 302 302 302 302 302 302 302 301 301 301 301 301 301 301 301 302 303 303 303 304 303 304 303 302 301 302 301 299 299 300 300 301 303 305 307 308 308 308 307 307 307 307 308 308 308 308 308 307 307 307 306 306 305 305 304
301 301 302 302 302 301 301 301 301 301 301 301 301 300 300 300 300 300 300 300 301 301 300 300 301 301 301 302 302 302 302 301 301 301 300 300 299 299 300 300 301 302 303 304 304 304 304 304 305 305 306 306 306 306 306 306 306 306 305 305 304 304 304

ECMWFFLT1_925_thetae_114.txt.gz
Theta_e
337 337 337 338 338 338 339 339 338 335 334 334 334 335 336 335 334 334 334 334 333 332 333 334 334 335 335 334 334 334 334 335 335 334 334 332 330 329 328 329 329 330 330 330 330 330 330 331 329 329 330 330 330 329 330 329 329 329 329 327 327 328 327
337 337 337 338 337 338 338 338 337 334 332 333 333 334 335 336 336 336 335 335 334 334 334 334 333 333 334 334 334 333 333 334 335 335 334 332 331 330 329 329 329 329 329 329 329 329 330 332 332 331 330 329 329 330 330 330 330 330 329 329 328 328 328
336 336 338 338 337 337 336 336 336 334 333 333 333 333 334 335 335 334 334 334 334 334 334 334 333 333 333 333 333 333 333 334 334 334 334 333 331 330 330 329 329 329 329 328 328 329 330 331 332 332 330 329 330 330 331 331 330 330 329 329 329 328 328
336 338 338 338 336 336 335 335 335 334 334 334 334 334 334 334 334 334 333 332 332 333 333 333 333 332 332 333 333 333 332 333 334 334 334 333 331 330 330 330 329 329 329 328 328 329 330 330 331 332 330 330 330 329 330 331 331 330 330 330 329 329 328
338 337 337 336 335 335 334 334 334 334 334 334 334 334 334 334 334 334 334 333 332 332 332 332 332 332 332 333 332 332 331 331 333 333 333 332 330 330 330 330 330 330 330 330 329 330 330 330 330 330 330 330 330 330 330 331 331 330 330 330 330 329 328
335 335 334 334 333 333 333 334 333 333 334 334 334 334 334 334 333 334 333 333 333 332 332 332 331 331 331 331 331 331 329 329 330 332 333 332 331 330 330 330 330 330 330 330 330 330 330 330 329 329 330 330 329 330 330 330 331 330 330 330 329 329 329
334 333 333 333 333 333 333 334 334 334 334 334 334 334 333 332 331 331 331 332 332 332 331 331 330 330 330 331 330 330 329 328 328 330 331 332 331 330 330 330 330 330 330 330 330 330 330 330 329 329 329 329 329 329 329 330 330 329 330 330 330 330 330
332 332 332 332 332 332 332 332 333 333 334 333 333 332 330 330 329 328 329 330 330 331 330 330 330 329 329 330 330 329 329 328 328 328 330 331 331 330 330 330 330 330 330 330 330 331 331 330 330 329 329 330 330 330 329 329 329 329 329 330 330 330 330
330 330 331 330 330 330 330 331 331 331 332 332 331 330 329 329 328 328 329 329 329 329 329 329 329 328 328 329 330 329 329 328 329 330 330 330 331 331 330 330 329 329 330 331 330 331 331 330 330 330 329 329 331 331 331 330 329 329 329 329 329 329 329
329 329 329 329 328 329 329 329 329 330 330 330 330 330 329 329 328 328 328 329 329 329 328 328 328 328 328 328 329 329 328 328 330 332 331 330 331 331 331 330 329 329 329 331 331 331 330 329 330 330 330 329 330 330 331 332 330 329 328 329 329 328 328
327 327 327 327 327 328 328 328 327 328 328 329 329 329 329 328 328 328 329 329 329 328 328 328 328 328 328 328 329 329 328 329 331 332 332 331 331 331 331 330 329 329 329 329 330 330 329 328 330 331 330 330 329 329 330 331 330 328 327 328 328 328 328
325 325 325 326 326 327 327 328 327 328 328 329 329 329 329 328 328 329 329 329 329 328 328 328 328 328 328 328 328 328 328 329 330 331 332 332 331 331 331 331 330 329 329 329 329 330 328 329 331 331 330 330 329 329 328 328 329 328 327 328 327 327 328
325 325 326 326 327 327 328 328 328 328 328 328 328 328 329 329 329 329 329 329 329 328 328 328 328 328 328 328 328 329 329 329 330 331 332 331 331 332 332 332 331 330 330 329 329 330 329 330 331 331 330 330 329 329 328 327 328 327 327 327 327 327 327
326 327 327 328 328 328 327 328 328 328 328 328 328 329 329 329 328 328 329 329 329 329 328 328 328 328 328 328 329 329 329 330 331 331 331 331 331 332 332 332 331 331 330 330 330 331 330 330 331 329 329 329 328 327 327 326 326 326 326 327 326 326 326
326 327 327 327 326 326 326 327 327 327 327 328 328 328 328 328 328 329 329 329 330 330 329 329 328 328 329 328 329 329 329 330 331 330 330 330 330 331 331 331 331 330 330 330 330 330 329 329 328 327 328 328 328 327 327 326 326 326 325 325 325 326 326
325 325 325 324 324 324 324 325 326 327 327 327 327 327 327 327 328 328 329 329 329 330 330 330 329 329 329 329 329 330 330 330 330 330 329 329 329 330 329 330 330 330 330 330 329 329 328 328 328 327 327 328 328 327 327 326 326 326 324 323 324 325 326
323 322 322 321 321 321 322 323 325 325 325 325 326 327 326 327 328 328 328 328 328 329 330 330 330 329 329 329 330 330 330 329 329 329 328 328 329 329 329 329 329 329 330 329 329 329 329 329 329 328 327 328 328 327 327 326 326 326 324 323 324 326 326
320 319 319 319 319 319 320 321 323 324 324 324 325 325 326 326 327 327 328 328 328 328 329 329 330 330 329 329 329 330 330 329 328 329 328 328 329 330 330 330 330 330 329 328 328 328 328 330 330 329 328 328 328 327 327 326 325 325 325 323 323 324 325
318 317 317 316 317 318 319 320 321 321 322 323 324 324 324 325 325 326 327 328 328 328 329 329 329 329 329 328 328 329 329 328 328 328 327 328 329 331 331 331 331 330 329 328 329 328 328 330 330 330 329 328 327 328 327 326 325 325 324 324 322 323 323
317 316 315 315 316 317 318 318 319 319 320 322 322 321 322 323 323 324 326 327 328 328 328 328 328 328 328 328 328 328 328 327 327 327 327 328 329 331 331 331 331 331 330 329 329 328 328 329 329 329 330 328 327 327 326 325 325 324 324 323 322 321 321
316 315 315 315 315 316 316 316 317 317 319 319 319 318 319 321 322 323 324 325 326 327 328 328 328 327 327 327 327 327 328 328 328 328 328 328 329 329 330 330 330 330 330 330 330 329 329 329 329 328 329 328 327 327 326 325 325 324 324 323 321 320 319
315 315 315 314 314 314 314 314 315 316 317 316 316 317 317 319 320 322 323 323 323 325 326 327 327 327 327 327 327 327 327 328 327 327 327 328 328 328 329 329 329 328 329 329 330 330 330 329 328 327 328 328 327 326 326 325 325 324 324 323 321 319 317
315 315 314 313 312 312 312 312 313 313 313 314 314 315 316 318 319 319 319 319 320 322 324 325 327 327 328 328 327 327 327 327 326 326 326 327 327 327 328 328 327 326 327 327 328 328 329 329 328 327 327 327 327 327 326 325 325 324 324 322 321 319 317
315 315 314 312 311 311 311 311 311 312 312 313 313 314 315 316 316 316 315 316 317 319 322 324 326 327 327 328 327 327 327 326 326 326 326 326 326 326 326 327 326 326 326 327 326 327 328 328 327 326 326 326 326 326 325 325 325 324 323 322 320 319 317
314 314 313 312 311 311 311 310 311 311 311 312 313 314 314 314 314 314 314 315 316 319 322 325 326 326 327 326 326 326 325 325 325 325 325 325 325 326 326 326 326 326 326 326 326 327 327 327 326 325 325 325 325 325 325 325 325 324 323 322 320 319 318
313 313 312 311 311 310 310 309 309 309 310 311 312 313 312 312 313 314 314 314 315 317 321 324 325 326 326 325 325 324 324 324 324 323 324 324 324 324 324 325 325 326 326 327 326 326 327 327 326 325 324 325 325 324 324 324 325 324 323 321 320 319 318
312 312 312 311 310 309 308 308 307 307 308 309 310 310 310 311 312 312 312 313 314 315 316 319 322 324 323 323 323 322 321 320 320 320 321 322 322 323 323 323 323 324 325 325 325 325 326 327 325 323 323 324 324 324 324 324 324 324 323 322 321 320 319
312 312 311 311 310 308 307 306 306 306 306 306 306 306 307 309 310 310 310 311 313 313 313 316 320 321 321 321 320 320 319 318 317 317 317 318 319 320 321 320 320 320 321 322 322 323 324 324 323 322 322 322 323 324 324 322 321 322 322 321 320 319 319
310 310 310 310 309 308 307 306 305 305 305 305 305 305 306 307 308 308 310 312 311 310 311 314 316 317 318 319 319 318 317 316 315 314 314 314 314 316 318 319 318 319 319 319 319 320 320 321 320 319 319 319 320 320 320 319 319 320 320 319 319 319 320
309 309 309 309 308 308 307 306 305 305 304 304 304 304 304 305 306 307 309 311 310 308 308 310 313 315 316 317 317 317 316 315 313 312 311 311 311 312 315 317 317 318 317 317 317 317 318 318 318 315 314 313 314 314 313 313 315 316 317 318 319 319 319
308 308 308 308 308 307 306 306 305 304 304 303 303 302 302 304 305 305 306 307 308 308 307 307 309 311 312 314 315 314 313 314 312 310 310 309 308 310 312 314 316 315 314 314 315 316 315 315 314 312 310 310 310 309 308 309 311 312 313 315 317 317 317
307 307 307 307 307 306 305 305 304 304 303 303 302 302 302 302 302 302 303 304 305 306 306 306 307 307 308 310 310 308 309 310 308 307 308 308 308 308 310 311 312 313 314 314 314 314 314 314 312 311 311 310 309 307 306 307 309 310 311 312 313 314 314
306 306 306 306 306 305 304 304 303 303 302 302 302 301 301 301 301 301 301 302 302 303 303 304 305 306 307 307 306 305 305 304 303 302 304 305 305 306 307 308 309 312 314 314 313 314 314 314 312 311 310 308 307 306 305 305 305 305 305 306 306 307 308
304 304 304 304 304 304 303 303 302 302 301 301 301 301 301 300 300 300 300 300 300 300 301 301 303 305 305 305 305 305 305 302 301 301 302 302 302 302 303 305 307 309 311 312 312 312 312 312 311 309 308 307 306 306 305 304 304 303 303 302 302 303 303
303 303 303 303 303 302 302 301 301 301 301 300 300 300 300 300 300 300 300 300 299 299 300 300 301 302 302 303 304 304 304 302 302 303 303 301 301 301 302 303 304 306 309 310 310 311 310 310 310 308 307 307 306 306 306 305 304 303 303 302 302 302 302
302 302 302 302 301 301 301 300 300 300 300 300 299 299 299 299 299 299 299 300 300 299 299 299 300 300 300 301 301 301 302 302 302 303 302 300 300 301 301 302 303 304 306 307 307 307 307 307 308 307 307 307 306 306 306 305 304 304 303 303 303 303 302
301 301 301 301 300 300 300 300 300 299 299 299 299 299 298 298 298 298 299 299 299 299 299 299 299 299 299 300 300 300 300 300 300 301 300 299 299 300 300 301 302 303 304 304 304 304 304 304 305 305 305 305 305 305 304 303 302 302 303 303 303 303 302

ECMWFFLT1_925_thetae_117.txt.gz
Theta_e
336 336 336 337 337 337 337 337 336 337 336 336 335 335 334 333 333 333 334 335 335 335 335 335 334 333 332 332 332 333 334 333 334 333 332 333 332 330 330 329 328 328 329 329 329 330 331 332 330 329 330 330 330 330 331 331 330 331 329 323 322 324 324
336 336 336 337 337 337 336 336 336 336 336 335 335 335 334 333 333 333 334 334 334 334 334 334 333 333 332 332 331 332 333 334 334 333 333 334 333 332 330 329 328 328 328 329 328 328 329 332 332 329 329 329 329 329 330 330 330 330 330 325 323 325 326
336 336 337 337 337 336 336 335 335 335 335 334 334 334 333 333 333 333 333 334 334 334 334 333 332 332 331 331 331 331 332 333 334 333 333 333 333 332 330 329 328 327 327 328 328 328 328 330 331 330 328 329 329 328 329 329 329 330 330 328 325 325 326
337 337 337 336 335 334 334 334 334 334 334 333 333 333 332 332 332 332 333 333 333 333 333 333 332 332 331 330 331 330 330 331 332 333 333 333 333 332 330 329 329 328 327 328 328 328 328 329 331 330 329 329 329 329 329 329 329 329 329 329 327 326 327
337 336 335 333 333 333 333 333 333 334 334 334 334 333 331 331 332 332 332 331 331 331 331 332 332 332 330 330 330 330 330 329 330 332 333 332 332 332 330 329 329 328 328 328 328 328 328 329 330 330 329 329 329 329 329 329 329 329 329 329 329 328 328
334 333 333 332 332 332 332 332 332 333 334 334 334 333 332 331 331 331 330 329 329 329 329 330 330 330 330 329 329 330 330 329 329 330 330 329 330 331 330 329 328 328 328 329 328 328 328 328 329 329 330 329 330 329 329 329 329 329 329 329 329 329 329
333 332 332 331 331 331 331 331 331 332 332 333 333 332 331 331 330 329 329 328 328 328 328 328 328 328 329 329 329 329 329 329 329 329 329 328 327 329 330 330 329 328 328 328 328 328 328 328 328 328 329 330 329 329 329 330 330 329 328 329 329 329 329
331 331 331 330 329 329 329 330 329 329 330 330 330 330 330 330 329 329 329 328 328 328 327 327 327 327 328 328 328 328 329 329 329 329 329 328 327 328 329 330 329 328 328 329 328 328 328 328 328 328 329 330 330 330 330 329 329 329 329 329 329 329 329
330 329 329 328 327 327 328 328 328 327 328 328 329 329 329 329 329 329 328 328 327 327 326 327 328 329 328 328 328 328 328 328 328 329 328 328 328 328 329 329 329 328 329 330 329 329 328 328 328 328 328 329 330 331 331 330 330 329 330 329 329 329 329
328 327 326 326 326 326 326 327 327 327 327 328 328 328 328 328 328 328 328 328 328 327 327 328 328 329 328 328 328 328 328 327 328 328 328 328 328 328 328 329 329 328 328 329 329 329 329 328 328 328 328 328 328 330 331 331 330 329 329 329 329 328 329
326 325 325 325 325 326 326 327 327 327 328 328 328 328 328 328 328 328 328 328 328 328 328 328 328 328 327 328 328 328 328 328 328 328 328 328 328 329 329 328 329 329 329 329 329 329 329 329 328 328 328 328 328 328 329 330 330 329 328 329 329 328 328
325 325 325 326 326 327 326 326 327 327 327 327 327 328 328 328 328 328 327 327 328 328 328 328 328 328 327 327 327 328 328 328 328 328 328 328 329 329 328 328 329 328 329 330 329 329 330 329 329 329 328 328 327 328 327 328 329 328 328 328 328 328 328
325 326 326 326 327 326 325 325 326 327 327 326 326 326 327 327 327 327 326 326 327 328 328 329 329 329 328 327 327 328 328 327 328 328 328 328 329 329 329 329 329 328 328 329 328 329 329 329 329 329 328 328 327 327 327 327 328 327 327 328 328 328 329
326 326 326 326 325 324 324 324 325 325 325 325 325 325 326 326 326 326 326 326 327 327 328 329 329 329 329 328 328 328 328 328 328 328 328 328 328 329 329 329 329 329 328 328 329 328 329 329 329 328 328 328 327 327 327 327 326 326 326 327 328 328 328
324 324 324 323 323 322 322 322 323 324 324 324 324 324 324 325 325 326 326 326 326 326 328 329 329 329 330 329 328 328 328 328 328 328 329 329 328 328 329 328 328 329 329 328 329 329 329 329 329 328 328 328 327 327 327 326 326 325 325 326 327 327 328
322 321 321 321 320 320 320 320 321 323 323 323 322 322 323 323 324 325 325 325 325 326 328 328 328 329 330 329 329 329 329 329 329 329 329 329 328 327 328 328 328 329 329 329 329 329 329 329 329 329 328 328 327 327 327 326 326 325 324 324 325 326 327
319 319 319 318 318 318 318 319 320 321 322 321 322 322 322 323 323 323 324 325 325 326 328 328 328 328 329 329 329 329 329 329 329 330 329 328 328 327 328 328 328 328 329 329 329 329 329 329 328 328 327 327 327 327 327 327 326 326 324 323 324 325 326
317 317 316 316 317 317 318 319 320 320 320 321 321 321 321 321 320 320 322 323 325 326 327 328 328 328 328 329 328 328 328 328 328 329 328 327 327 327 327 327 327 328 328 329 329 329 329 328 328 327 327 327 327 327 327 326 326 326 325 324 324 325 325
316 315 315 315 316 317 317 318 318 319 319 319 320 319 319 318 317 317 319 321 323 325 327 328 327 327 327 327 327 327 328 328 328 328 327 327 327 327 327 327 327 327 327 328 329 329 329 329 328 328 328 327 327 327 326 326 326 326 325 324 324 324 324
315 314 314 314 315 315 316 316 316 316 317 317 317 317 317 316 316 316 318 320 322 323 325 327 327 327 327 327 326 327 327 328 327 327 327 327 327 327 327 328 328 328 327 327 328 329 329 328 328 329 328 327 327 326 326 326 325 325 325 323 323 323 323
313 312 312 312 313 313 313 313 313 313 314 314 314 313 313 314 315 316 318 320 321 323 325 326 326 327 327 327 327 326 327 327 327 327 327 327 326 326 327 327 327 327 328 327 328 328 328 328 328 328 328 327 326 326 326 326 325 325 324 323 322 323 323
312 311 311 310 311 311 312 312 313 312 312 312 312 312 312 314 315 316 318 320 322 324 325 325 325 327 327 327 327 326 326 326 326 326 326 326 326 326 326 326 326 326 327 327 328 328 328 328 328 327 327 327 326 326 326 325 325 324 324 322 321 321 322
312 311 311 311 311 311 310 311 312 311 311 312 312 312 314 315 315 315 316 318 321 323 324 323 325 327 326 326 326 326 325 325 325 325 325 325 325 325 326 326 326 326 326 327 327 327 328 328 327 327 327 327 326 326 326 325 324 324 324 323 321 320 320
311 311 311 310 311 310 309 310 309 309 310 310 311 312 313 313 312 312 313 314 316 318 319 321 323 325 325 325 325 325 324 324 324 324 324 324 323 323 324 325 325 325 326 327 327 327 327 327 327 326 326 326 326 326 326 325 324 324 323 323 321 320 319
311 311 310 310 310 310 309 308 308 307 307 308 309 310 310 309 309 309 311 312 313 315 318 319 320 322 323 323 323 323 322 321 321 321 321 321 321 321 322 322 324 325 326 326 326 326 326 326 326 326 326 325 325 325 325 325 325 324 324 323 322 320 319
311 310 309 308 309 308 307 306 306 306 306 307 308 309 308 308 308 308 309 309 311 314 316 317 318 319 320 320 321 320 320 320 319 319 319 319 319 320 320 320 321 322 323 324 325 325 325 325 325 324 324 324 324 324 324 324 324 324 324 323 322 320 319
310 309 308 308 307 307 306 305 305 305 306 307 308 307 307 307 307 307 308 308 309 310 312 314 316 317 317 318 318 318 317 317 316 316 316 317 317 317 317 318 318 318 319 320 321 322 323 323 322 321 321 321 321 321 323 323 324 324 324 323 322 321 319
309 308 307 307 306 306 305 304 304 304 304 305 305 305 305 305 306 307 307 308 308 307 308 310 312 314 314 314 315 315 315 314 314 313 314 315 316 316 315 316 316 316 317 318 318 319 320 321 320 319 318 317 317 318 319 320 322 323 323 322 322 320 319
309 308 307 306 306 305 304 304 303 303 303 303 303 303 304 304 305 307 308 308 308 306 306 307 309 310 310 310 310 311 311 311 310 310 311 314 315 314 314 314 314 315 315 315 315 316 318 318 317 315 314 313 313 314 313 313 316 319 320 320 320 319 319
308 307 306 305 304 304 303 303 302 302 302 302 302 302 302 302 303 305 306 307 306 306 305 306 307 308 308 308 307 307 307 307 306 305 307 310 312 312 312 313 314 314 313 312 313 313 314 314 312 310 309 309 309 309 308 308 311 313 314 316 316 316 317
307 306 305 304 304 303 302 302 302 302 301 301 301 300 301 301 302 302 302 302 303 304 303 305 307 307 307 306 306 304 304 304 304 304 304 306 308 309 310 311 312 312 311 311 311 311 312 311 309 306 307 307 306 306 306 307 309 310 311 313 314 315 315
306 305 304 303 303 302 302 301 301 301 301 300 300 300 300 300 300 300 300 301 302 302 302 302 305 306 306 306 305 305 305 304 303 303 303 304 305 305 307 309 310 312 311 312 311 311 311 311 308 306 306 305 304 303 304 306 308 308 309 310 311 312 312
305 304 303 303 302 301 301 301 300 300 300 300 300 300 300 300 299 299 299 300 300 301 301 301 303 305 307 307 307 307 306 304 302 302 303 303 303 303 304 305 307 309 310 310 310 309 309 309 308 306 305 304 303 302 303 304 305 305 306 305 306 307 307
303 303 302 302 301 301 300 300 300 300 299 299 299 299 299 299 299 299 299 299 299 299 300 300 301 303 304 305 306 307 305 302 300 301 302 302 301 301 301 302 304 306 307 307 307 307 307 306 306 305 304 303 303 303 303 303 303 304 304 304 304 304 304
302 302 302 301 301 300 300 300 299 299 299 299 299 299 299 298 299 299 299 299 299 299 299 300 301 301 302 302 303 303 302 301 300 301 301 300 300 299 300 301 302 304 305 305 305 305 305 304 304 304 303 303 303 303 303 302 302 302 302 302 302 302 303
302 301 301 300 300 299 299 299 299 299 299 299 299 299 298 298 298 298 298 299 299 298 299 299 300 300 300 300 301 301 301 300 301 301 300 299 298 299 299 300 301 302 303 303 303 303 303 303 303 302 303 303 303 303 303 302 302 301 301 301 301 301 301
301 300 300 300 299 299 299 299 299 299 299 299 299 299 298 298 298 298 298 298 298 298 298 299 299 299 299 299 299 299 299 299 300 300 299 298 298 298 298 299 300 300 301 301 301 301 301 301 301 301 301 302 302 302 302 301 301 301 301 300 300 300 301

ECMWFFLT1_925_thetae_120.txt.gz
Theta_e
335 335 336 336 336 336 336 336 335 335 335 334 334 333 333 333 333 333 332 333 333 333 332 331 331 331 331 331 331 331 331 331 332 332 332 332 330 330 330 329 329 328 328 327 328 329 330 331 330 329 329 329 329 328 328 330 329 329 328 328 329 326 321
336 336 336 336 336 336 335 334 334 334 334 333 333 333 333 332 332 332 332 332 333 333 332 332 331 331 330 330 330 330 330 330 331 332 333 332 331 331 331 330 329 329 328 328 328 328 328 330 331 330 329 329 330 329 328 329 329 330 329 328 329 326 321
337 336 336 336 335 334 334 333 333 332 332 332 332 333 333 332 331 332 332 332 331 331 331 331 330 330 330 329 330 330 330 330 330 331 332 332 332 332 331 331 330 329 328 328 327 328 327 328 330 330 329 329 330 330 329 329 329 330 329 328 329 327 321
336 336 335 334 333 333 332 332 332 332 331 331 331 332 332 332 331 331 331 331 330 329 329 328 328 328 328 328 328 328 328 328 329 329 330 331 332 332 333 332 331 330 329 328 328 328 327 327 328 329 328 329 329 329 329 330 329 329 329 328 329 328 322
335 334 333 332 332 331 331 332 331 331 331 330 331 331 331 331 331 330 330 329 329 328 328 328 328 327 326 326 326 327 327 328 328 328 329 330 330 331 332 331 331 330 329 329 329 328 327 328 328 329 328 328 329 329 328 329 329 329 329 328 329 329 325
333 333 332 331 330 330 330 330 330 330 330 330 330 330 330 329 329 329 329 329 329 328 328 328 327 327 326 325 325 325 326 327 327 329 330 330 329 329 329 329 328 328 328 329 329 328 327 327 328 328 328 328 329 329 328 328 328 328 328 328 328 330 328
332 331 330 330 329 329 329 329 329 328 328 328 328 328 328 328 328 328 328 328 328 328 328 328 327 326 325 325 326 326 326 326 326 327 329 329 329 329 329 328 328 327 328 328 328 327 327 327 327 328 328 328 328 329 329 328 328 328 328 328 327 329 329
330 329 328 328 327 327 327 327 327 327 327 327 327 327 327 327 327 328 328 328 328 328 328 328 327 327 326 326 327 328 328 328 327 327 327 328 329 329 329 328 328 328 328 328 328 327 327 327 327 327 328 329 329 329 330 329 329 328 328 328 327 327 328
328 327 327 326 326 326 326 326 326 326 327 326 327 327 327 327 327 327 327 327 328 327 327 327 327 327 327 327 327 328 328 328 328 327 327 327 328 329 329 328 328 328 328 328 328 328 328 327 327 327 327 329 330 331 331 331 330 329 329 328 328 327 327
326 326 326 326 326 326 326 326 326 326 326 326 326 326 326 326 326 326 326 325 326 325 325 326 326 327 327 328 328 328 327 327 327 328 328 328 328 328 328 328 328 328 328 328 328 328 327 327 327 327 327 328 329 330 331 332 331 330 329 328 328 328 327
325 325 326 325 326 326 325 324 324 325 325 325 325 324 324 325 325 325 325 324 324 324 324 325 326 327 328 328 328 328 327 327 327 327 328 328 328 328 328 328 328 328 328 328 328 327 327 328 327 327 327 327 328 329 330 330 330 329 329 329 329 328 328
324 324 325 325 325 325 324 323 323 324 324 324 323 323 323 324 324 324 324 323 324 323 324 325 325 327 327 327 329 329 327 326 327 328 328 328 328 328 328 328 328 328 328 328 327 328 328 328 328 327 327 327 327 328 328 329 329 329 329 329 329 329 328
324 324 325 324 324 323 322 322 322 322 322 323 322 322 322 321 321 322 323 323 324 324 324 326 326 327 328 328 329 329 328 327 327 327 327 328 328 328 328 328 329 329 328 328 327 328 328 327 328 328 327 327 327 328 327 327 329 329 328 328 329 328 328
322 322 322 322 321 321 320 320 320 319 321 321 321 320 320 320 321 322 322 323 324 325 326 327 327 327 328 328 329 329 329 328 328 328 328 328 328 328 328 328 329 329 328 328 328 328 327 328 328 328 328 327 327 327 327 327 327 327 327 327 328 328 327
320 320 320 320 319 319 319 319 318 319 320 320 320 320 320 320 321 320 321 323 325 325 326 326 326 327 327 328 329 329 329 329 329 329 329 329 329 329 329 328 329 329 328 328 328 327 327 327 328 328 328 327 327 327 327 326 326 326 326 326 327 327 327
318 319 318 318 317 317 317 317 318 318 318 318 319 319 319 319 319 317 319 322 323 324 325 326 326 326 326 326 327 328 328 328 328 329 329 329 329 329 329 328 328 328 328 328 328 327 327 327 327 328 328 327 327 327 327 327 326 325 325 325 326 327 327
317 317 316 316 315 315 315 316 316 317 317 317 318 318 318 318 317 316 318 320 322 322 324 325 326 326 326 326 326 327 327 327 327 327 328 328 328 328 328 327 327 327 327 328 328 328 327 327 328 328 328 327 327 327 327 327 327 326 325 324 325 326 327
315 315 314 313 313 314 314 315 315 316 316 316 316 316 316 316 315 316 318 320 322 323 324 324 325 326 326 326 326 326 326 327 327 327 327 327 327 327 327 327 327 327 327 327 328 328 328 328 328 327 327 327 327 327 327 326 326 327 326 325 324 325 325
313 312 312 312 312 313 313 313 313 314 313 313 313 314 314 315 315 316 318 319 321 323 323 324 325 326 326 326 326 326 326 326 327 327 326 327 327 327 327 327 327 327 327 327 327 328 328 328 327 327 327 327 327 327 327 326 326 326 326 325 324 324 325
311 310 310 311 311 312 312 312 312 311 311 311 312 313 314 314 314 315 316 318 319 320 321 323 325 326 325 326 326 325 325 326 326 326 326 326 326 326 326 327 327 327 327 327 327 327 327 328 327 327 327 327 327 326 326 326 326 326 326 325 324 324 324
310 310 310 310 311 312 312 312 312 311 311 311 311 311 311 312 312 313 315 316 317 318 320 321 323 324 324 325 325 324 325 325 325 325 325 325 325 326 326 326 326 326 326 327 326 326 327 327 327 327 327 326 326 326 326 326 326 325 325 324 323 323 323
310 310 310 311 311 312 312 312 311 311 311 310 309 309 310 310 310 312 314 315 316 318 319 319 319 322 323 323 322 322 322 323 323 324 324 324 324 324 325 325 325 325 326 326 326 326 326 326 326 326 326 326 326 326 326 326 325 325 324 324 323 323 323
310 310 310 310 311 311 311 311 310 310 309 309 308 309 309 309 309 310 311 313 315 316 316 316 318 319 320 320 320 320 320 320 321 322 322 322 323 323 323 323 324 324 325 325 325 326 326 326 326 326 326 326 326 326 326 325 324 324 324 323 322 322 322
310 309 310 310 310 310 310 309 309 308 308 307 308 309 309 307 307 308 309 311 313 313 312 313 316 317 318 318 318 318 318 318 318 319 319 320 321 321 321 321 322 323 324 325 325 325 325 325 325 325 325 325 325 325 325 324 324 324 324 323 322 322 321
309 308 308 308 308 308 309 308 308 308 307 307 308 308 307 306 305 307 309 311 311 310 309 311 314 315 316 316 315 315 315 315 315 315 316 317 318 319 319 319 320 321 321 323 324 324 323 323 323 323 323 323 323 323 323 323 323 324 324 323 322 321 321
308 307 307 307 307 308 308 307 306 306 306 307 308 308 308 307 306 307 309 310 309 308 308 310 312 313 314 314 313 313 312 312 311 311 312 313 314 315 316 317 318 318 319 320 321 321 320 319 319 319 320 319 319 320 321 322 322 323 323 323 322 321 321
308 307 306 306 307 307 306 305 305 305 306 307 307 307 307 307 306 307 308 308 308 308 307 308 311 312 312 312 312 311 310 309 309 308 308 309 309 310 311 312 313 315 316 317 317 317 317 316 316 315 315 315 315 316 318 319 320 321 322 322 322 322 321
307 306 306 305 306 305 304 304 304 304 304 304 305 304 305 305 305 306 306 307 308 307 305 307 310 311 310 310 311 310 309 308 307 307 307 308 308 309 309 309 310 311 312 313 314 315 315 314 314 313 311 310 310 311 312 313 315 317 318 319 319 319 319
306 305 305 304 304 304 303 303 302 302 301 301 302 303 303 304 304 304 305 307 307 305 305 306 309 309 309 309 308 307 306 306 306 305 306 307 307 308 309 309 309 309 309 310 312 313 313 313 312 310 308 306 307 307 307 308 310 312 313 313 314 315 316
305 304 303 303 303 302 302 302 301 301 301 301 301 302 302 302 303 304 305 306 305 304 304 306 308 309 309 309 307 305 304 304 304 304 304 305 305 306 307 307 308 308 307 308 309 310 311 312 311 308 307 306 306 306 305 306 308 310 310 311 311 312 313
304 303 302 302 302 301 301 301 301 300 300 300 300 300 300 300 301 302 302 302 303 303 303 304 307 309 309 310 309 306 304 304 303 302 302 303 303 303 304 305 306 306 306 307 308 308 309 310 308 307 306 306 305 304 305 306 308 309 310 310 310 311 312
303 302 301 301 301 301 300 300 300 300 300 299 299 299 299 299 299 300 300 300 301 302 302 303 306 308 309 309 309 307 306 305 303 301 301 302 302 302 303 303 304 305 305 306 307 307 307 307 306 304 304 304 303 302 303 305 306 307 307 307 307 308 308
302 301 301 300 300 300 300 300 300 299 299 299 299 299 299 299 298 298 298 299 299 300 301 302 303 306 307 308 308 308 307 304 300 300 301 301 301 301 301 302 303 304 304 305 305 305 305 305 304 303 303 303 302 302 302 303 304 304 304 303 303 303 304
302 300 300 300 300 300 300 300 300 299 299 299 299 299 299 298 298 297 297 298 298 298 299 300 301 303 304 305 306 306 305 301 299 299 300 300 299 299 299 300 301 302 304 304 304 304 303 303 303 302 302 302 301 302 302 302 303 303 302 302 301 301 301
301 300 300 300 300 300 299 299 300 299 299 299 299 299 298 298 298 297 297 297 297 297 298 299 300 300 301 302 302 303 302 300 299 300 299 298 298 298 298 299 300 301 302 302 302 303 303 302 302 302 301 301 301 302 302 302 301 301 301 300 300 300 300
300 300 300 300 300 300 299 299 300 299 299 299 298 298 298 298 298 297 297 296 296 296 297 298 298 299 299 299 300 300 300 299 299 299 298 297 296 297 298 298 299 300 301 301 301 301 301 301 301 301 301 301 301 301 301 301 301 301 300 300 300 300 300
300 299 299 300 300 300 299 299 299 299 298 298 298 297 296 297 297 296 296 296 296 296 296 297 297 298 298 298 298 298 298 298 298 298 297 296 296 296 297 297 298 299 299 299 300 300 300 300 301 300 301 301 301 301 301 300 300 300 300 300 300 300 300

ECMWFFLT1_925_thetae_123.txt.gz
Theta_e
337 337 336 336 336 336 335 335 334 333 333 333 333 333 333 333 332 333 332 332 331 331 331 331 331 331 331 331 331 331 331 332 333 333 333 333 332 332 331 330 330 330 330 330 330 330 331 332 332 331 330 330 330 330 330 330 329 328 327 327 327 329 328
336 336 336 336 336 335 334 333 332 332 331 331 332 332 333 333 333 333 332 332 332 331 331 330 330 329 329 329 330 330 329 330 331 331 332 332 332 332 331 330 331 331 331 330 329 330 330 330 332 332 331 330 330 330 330 330 329 328 327 326 326 328 328
337 337 336 336 335 333 333 332 331 331 331 331 331 331 332 332 332 332 332 332 331 331 330 330 329 329 329 328 328 329 329 329 329 329 330 331 331 332 331 331 331 331 331 330 329 330 330 330 331 331 330 330 331 331 330 330 330 329 329 328 326 327 328
336 336 336 335 333 332 332 332 331 331 331 331 331 331 331 331 331 331 331 331 330 330 330 330 329 329 328 328 328 328 328 328 328 328 328 329 330 330 330 331 331 330 331 332 331 331 330 330 330 329 330 330 330 331 330 329 330 330 330 329 328 327 327
335 334 333 332 331 331 332 331 331 331 330 330 330 330 330 329 329 329 329 329 329 329 329 329 329 328 328 328 328 328 328 328 328 328 327 328 328 329 330 330 329 329 329 330 331 331 331 331 330 330 330 330 330 330 330 330 329 329 330 329 329 328 328
332 331 331 330 330 330 330 330 329 329 329 329 329 328 328 327 328 328 328 328 328 328 328 328 328 328 328 328 328 328 327 328 327 327 327 327 327 327 328 329 328 327 328 328 329 330 331 331 331 330 330 330 330 330 330 330 329 329 330 329 329 329 328
330 329 329 328 328 328 329 329 329 328 328 328 327 327 327 326 326 327 327 327 327 327 327 327 327 327 327 327 327 327 327 327 327 327 327 327 327 327 327 328 328 328 328 328 328 328 329 330 330 331 331 330 329 330 330 329 330 330 330 330 329 329 328
328 327 327 327 328 328 328 328 327 327 327 326 326 326 325 325 325 325 326 326 327 327 326 326 327 327 327 327 327 327 327 327 327 327 327 327 328 328 328 328 328 328 329 329 329 328 328 328 328 329 330 330 330 330 330 330 330 330 330 330 329 329 328
326 327 327 327 327 327 327 326 326 325 325 324 324 323 323 324 324 324 325 325 325 326 326 326 326 327 327 326 327 327 327 327 327 328 327 327 328 328 328 328 328 329 329 329 329 328 328 328 328 328 328 329 330 330 330 330 331 330 330 329 329 329 328
326 327 327 327 326 326 325 325 324 324 323 322 322 322 322 323 323 323 323 324 325 325 326 326 326 326 326 326 327 327 326 326 327 328 327 328 328 327 327 328 328 328 328 328 328 328 328 328 328 328 328 328 328 329 330 331 332 331 330 329 329 329 328
326 325 325 325 325 324 324 323 322 322 322 322 322 321 321 321 321 321 322 323 324 324 325 325 326 326 326 326 326 327 326 326 328 328 327 327 327 327 327 328 328 328 328 328 328 328 328 328 328 328 328 328 327 328 329 331 332 331 330 330 329 329 329
324 323 323 323 322 322 321 321 321 321 321 321 321 320 320 320 321 321 322 322 323 323 324 325 326 326 326 326 326 327 326 327 329 329 327 326 327 327 328 328 328 328 328 328 328 328 328 328 328 328 328 327 327 327 328 329 331 331 329 329 329 329 329
322 322 321 321 320 320 319 320 320 320 320 320 319 319 319 319 320 320 319 320 321 322 323 325 326 324 325 326 327 327 327 326 328 329 328 327 327 328 328 328 328 329 329 328 328 329 329 328 328 328 328 327 327 327 327 328 330 330 329 329 329 329 329
320 320 319 319 319 319 318 319 318 318 318 318 317 317 318 318 318 317 317 318 320 321 322 323 324 324 325 326 326 326 327 327 328 329 328 328 328 328 328 328 328 329 329 329 329 328 328 328 328 328 328 327 327 327 327 327 328 329 328 328 329 329 330
318 318 318 318 317 317 317 317 316 316 316 316 316 317 317 317 316 316 316 318 320 322 322 323 323 324 325 326 325 326 326 327 328 328 328 328 328 328 328 328 328 328 329 329 329 328 328 328 328 328 328 328 327 326 326 327 327 328 328 328 329 329 329
317 317 317 316 315 315 315 314 314 315 315 315 315 315 315 315 315 316 317 318 321 323 323 324 324 325 325 325 325 326 326 327 327 328 328 328 328 328 328 328 328 328 328 329 328 328 328 328 327 328 327 327 327 327 326 326 327 327 327 327 328 328 329
315 315 315 314 313 313 313 313 313 313 313 313 314 314 314 314 314 315 317 319 321 322 323 324 325 325 326 326 326 326 326 326 327 327 327 327 328 328 328 328 328 328 328 328 328 328 328 328 327 327 327 327 327 327 326 326 326 326 326 326 326 327 327
313 313 313 312 312 312 312 312 311 311 311 312 313 313 313 313 313 313 315 317 319 321 322 324 324 325 325 326 326 325 325 325 326 326 327 327 327 327 327 327 327 327 328 328 328 328 327 328 328 327 327 327 327 327 326 326 326 326 325 325 325 326 327
312 312 311 311 312 311 311 310 310 310 310 311 311 310 310 311 311 313 314 316 318 320 322 322 323 324 324 324 324 324 324 324 325 325 325 325 325 325 326 326 326 326 327 327 328 327 327 328 328 328 327 327 327 327 327 326 326 326 325 325 325 325 326
311 311 311 311 311 310 309 309 309 309 309 309 309 309 309 310 312 313 314 316 317 318 320 321 321 322 322 322 322 323 323 323 324 323 323 323 323 323 323 324 324 325 325 326 327 327 327 327 327 328 328 327 327 327 326 326 326 326 326 326 325 325 325
310 310 311 310 310 309 309 308 308 308 308 308 308 308 309 310 311 312 313 314 316 317 317 317 318 320 320 320 321 321 321 322 322 322 321 321 321 320 321 322 321 322 323 325 326 326 326 326 326 326 327 327 326 326 326 326 325 326 325 325 325 324 325
310 310 310 310 309 309 308 308 308 308 308 307 307 307 308 309 310 310 311 313 314 314 314 313 314 317 318 317 318 318 318 318 319 319 319 319 317 316 317 318 318 319 321 323 325 325 325 325 325 325 325 326 326 326 326 325 325 325 325 325 324 324 324
309 309 309 309 308 308 307 307 308 308 308 307 307 307 308 309 309 309 310 310 310 309 310 310 313 315 316 316 316 316 315 315 315 315 314 315 315 314 315 316 316 317 318 320 322 323 323 323 323 322 322 323 324 325 325 325 325 325 325 325 325 324 324
309 308 308 308 307 307 307 308 309 309 309 309 309 309 308 308 308 307 307 306 305 306 307 309 312 314 315 316 315 314 313 312 312 311 310 311 311 312 313 313 313 314 315 316 317 317 318 318 319 319 319 320 321 322 322 324 325 325 325 325 324 324 324
308 307 307 307 307 307 308 309 310 311 310 309 309 308 307 307 306 305 305 304 304 304 306 308 311 313 314 314 313 312 310 310 310 309 308 308 309 310 311 311 311 311 312 313 314 314 314 315 315 316 316 317 317 318 318 320 321 323 324 324 324 323 323
307 307 306 306 306 307 309 309 309 310 309 307 306 305 304 305 305 304 303 303 303 304 305 307 310 311 312 312 311 309 309 308 307 307 306 307 307 308 309 309 309 309 310 311 312 312 313 313 313 313 314 315 315 315 316 317 318 320 321 322 323 322 321
306 306 306 306 306 306 306 306 307 309 307 304 304 304 304 304 303 303 303 303 303 304 305 307 308 309 309 310 309 308 307 307 306 305 305 305 306 306 307 307 307 307 308 309 309 310 310 310 310 310 310 310 310 311 313 315 316 317 318 319 319 318 317
306 305 305 305 304 303 304 304 306 307 305 302 303 303 303 303 303 303 303 303 304 305 306 307 308 308 308 308 308 307 306 306 305 304 304 304 305 305 306 306 306 306 306 307 307 308 309 308 308 307 307 306 306 307 307 309 310 311 312 313 314 314 314
305 304 304 303 303 302 303 303 304 304 303 302 303 302 301 302 302 302 303 303 303 303 305 307 307 308 308 307 308 307 305 304 304 304 303 303 303 304 304 305 306 306 306 306 306 307 307 307 307 306 306 306 305 305 305 305 307 308 309 310 310 311 311
304 304 303 303 302 302 302 302 302 303 303 302 302 301 300 301 302 302 303 303 302 301 303 306 307 309 309 308 308 306 304 304 304 303 303 302 302 303 304 304 305 306 306 306 307 307 306 306 306 305 305 305 305 304 304 304 305 307 308 308 309 310 310
304 303 302 302 302 301 301 301 302 303 303 302 301 301 301 301 301 301 302 302 301 301 302 304 307 308 309 308 307 305 304 304 303 303 302 302 302 302 303 304 304 304 305 306 307 307 306 306 305 305 305 304 304 303 303 303 304 305 306 307 308 309 309
302 302 301 301 301 301 301 301 301 303 302 301 300 300 300 300 300 300 300 301 301 301 301 303 306 308 308 308 305 304 304 303 302 302 302 301 301 301 302 302 303 303 303 304 305 306 306 305 304 304 304 304 303 303 302 301 302 302 303 303 304 305 305
302 301 301 301 301 301 301 301 301 302 301 300 300 299 299 299 299 299 299 300 300 300 299 301 304 306 307 307 305 303 302 302 302 301 300 300 300 300 300 300 301 301 302 303 303 303 304 304 303 302 303 303 303 302 301 301 300 301 301 301 301 302 302
301 301 301 302 302 301 301 301 301 301 300 300 299 299 298 298 298 298 298 298 298 298 298 299 301 303 304 305 305 303 302 301 300 300 299 299 299 298 298 299 300 300 301 301 302 302 302 302 301 301 301 301 301 301 301 301 301 301 301 301 301 301 301
300 300 300 301 301 300 300 301 300 300 299 299 299 298 298 298 298 298 297 297 297 297 298 298 299 300 301 302 303 303 301 299 299 299 299 298 298 297 297 297 299 300 301 301 301 301 301 301 301 300 300 300 300 300 301 301 301 301 301 301 301 301 301
300 300 300 300 300 300 300 300 300 299 299 299 298 298 298 298 298 298 297 297 297 296 296 297 298 298 299 299 300 300 300 299 298 298 297 297 296 296 296 297 298 300 300 300 300 301 300 300 300 300 300 300 300 300 300 301 301 301 301 301 301 301 301
299 299 300 300 300 300 299 299 299 298 298 298 298 298 298 298 298 298 298 297 297 296 296 296 297 297 297 297 297 298 298 298 298 297 296 296 296 296 295 296 297 299 299 300 300 300 300 300 299 299 300 299 299 300 300 301 301 301 301 301 301 301 301